<?xml version="1.0" encoding="UTF-8" standalone="no" ?>
<gpx xmlns="http://www.topografix.com/GPX/1/1" xmlns:xsi="http://www.w3.org/2001/XMLSchema-instance" xsi:schemaLocation="http://www.topografix.com/GPX/1/1 http://www.topografix.com/GPX/1/1/gpx.xsd" version="1.1" creator="VisuGPX - https://www.visugpx.com">
  <metadata>
    <name>puy de dôme</name>
  </metadata>
  <trk>
    <name><![CDATA[puy de dôme_1]]></name>
    <extensions>
      <line xmlns="http://www.topografix.com/GPX/gpx_style/0/2">
        <color>0000FF</color>
        <width>4</width>
      </line>
    </extensions>
    <trkseg>
      <trkpt lat="45.76411" lon="2.95682">
        <ele>1072</ele>
        <time>2021-07-17T16:10:28Z</time>
      </trkpt>
      <trkpt lat="45.76411" lon="2.95682">
        <ele>1072</ele>
        <time>2021-07-17T16:10:29Z</time>
      </trkpt>
      <trkpt lat="45.76411" lon="2.95681">
        <ele>1072</ele>
        <time>2021-07-17T16:10:30Z</time>
      </trkpt>
      <trkpt lat="45.76411" lon="2.9568">
        <ele>1072</ele>
        <time>2021-07-17T16:10:31Z</time>
      </trkpt>
      <trkpt lat="45.76412" lon="2.95679">
        <ele>1072</ele>
        <time>2021-07-17T16:10:32Z</time>
      </trkpt>
      <trkpt lat="45.76412" lon="2.95677">
        <ele>1072</ele>
        <time>2021-07-17T16:10:33Z</time>
      </trkpt>
      <trkpt lat="45.76412" lon="2.95676">
        <ele>1072</ele>
        <time>2021-07-17T16:10:34Z</time>
      </trkpt>
      <trkpt lat="45.76412" lon="2.95674">
        <ele>1072</ele>
        <time>2021-07-17T16:10:35Z</time>
      </trkpt>
      <trkpt lat="45.76412" lon="2.95672">
        <ele>1072</ele>
        <time>2021-07-17T16:10:36Z</time>
      </trkpt>
      <trkpt lat="45.76411" lon="2.95671">
        <ele>1072</ele>
        <time>2021-07-17T16:10:37Z</time>
      </trkpt>
      <trkpt lat="45.7641" lon="2.95669">
        <ele>1072</ele>
        <time>2021-07-17T16:10:38Z</time>
      </trkpt>
      <trkpt lat="45.76409" lon="2.95668">
        <ele>1072</ele>
        <time>2021-07-17T16:10:39Z</time>
      </trkpt>
      <trkpt lat="45.76408" lon="2.95667">
        <ele>1072</ele>
        <time>2021-07-17T16:10:40Z</time>
      </trkpt>
      <trkpt lat="45.76407" lon="2.95666">
        <ele>1072</ele>
        <time>2021-07-17T16:10:41Z</time>
      </trkpt>
      <trkpt lat="45.76405" lon="2.95666">
        <ele>1072</ele>
        <time>2021-07-17T16:10:42Z</time>
      </trkpt>
      <trkpt lat="45.76405" lon="2.95665">
        <ele>1072</ele>
        <time>2021-07-17T16:10:43Z</time>
      </trkpt>
      <trkpt lat="45.76403" lon="2.95664">
        <ele>1072</ele>
        <time>2021-07-17T16:10:44Z</time>
      </trkpt>
      <trkpt lat="45.76402" lon="2.95662">
        <ele>1072</ele>
        <time>2021-07-17T16:10:45Z</time>
      </trkpt>
      <trkpt lat="45.76402" lon="2.95661">
        <ele>1072</ele>
        <time>2021-07-17T16:10:46Z</time>
      </trkpt>
      <trkpt lat="45.76401" lon="2.9566">
        <ele>1072</ele>
        <time>2021-07-17T16:10:47Z</time>
      </trkpt>
      <trkpt lat="45.764" lon="2.95659">
        <ele>1072</ele>
        <time>2021-07-17T16:10:48Z</time>
      </trkpt>
      <trkpt lat="45.76399" lon="2.95658">
        <ele>1072</ele>
        <time>2021-07-17T16:10:49Z</time>
      </trkpt>
      <trkpt lat="45.76399" lon="2.95656">
        <ele>1072</ele>
        <time>2021-07-17T16:10:50Z</time>
      </trkpt>
      <trkpt lat="45.76399" lon="2.95654">
        <ele>1072</ele>
        <time>2021-07-17T16:10:51Z</time>
      </trkpt>
      <trkpt lat="45.76399" lon="2.95653">
        <ele>1072</ele>
        <time>2021-07-17T16:10:52Z</time>
      </trkpt>
      <trkpt lat="45.76399" lon="2.95651">
        <ele>1072</ele>
        <time>2021-07-17T16:10:53Z</time>
      </trkpt>
      <trkpt lat="45.764" lon="2.9565">
        <ele>1072</ele>
        <time>2021-07-17T16:10:54Z</time>
      </trkpt>
      <trkpt lat="45.764" lon="2.95648">
        <ele>1072</ele>
        <time>2021-07-17T16:10:55Z</time>
      </trkpt>
      <trkpt lat="45.764" lon="2.95647">
        <ele>1072</ele>
        <time>2021-07-17T16:10:56Z</time>
      </trkpt>
      <trkpt lat="45.76401" lon="2.95646">
        <ele>1072</ele>
        <time>2021-07-17T16:10:57Z</time>
      </trkpt>
      <trkpt lat="45.76402" lon="2.95644">
        <ele>1072</ele>
        <time>2021-07-17T16:10:58Z</time>
      </trkpt>
      <trkpt lat="45.76402" lon="2.95643">
        <ele>1072</ele>
        <time>2021-07-17T16:10:59Z</time>
      </trkpt>
      <trkpt lat="45.76402" lon="2.95642">
        <ele>1072</ele>
        <time>2021-07-17T16:11:00Z</time>
      </trkpt>
      <trkpt lat="45.76403" lon="2.9564">
        <ele>1072</ele>
        <time>2021-07-17T16:11:01Z</time>
      </trkpt>
      <trkpt lat="45.76403" lon="2.95639">
        <ele>1072</ele>
        <time>2021-07-17T16:11:02Z</time>
      </trkpt>
      <trkpt lat="45.76405" lon="2.95639">
        <ele>1072</ele>
        <time>2021-07-17T16:11:03Z</time>
      </trkpt>
      <trkpt lat="45.76405" lon="2.95638">
        <ele>1072</ele>
        <time>2021-07-17T16:11:04Z</time>
      </trkpt>
      <trkpt lat="45.76407" lon="2.95638">
        <ele>1072</ele>
        <time>2021-07-17T16:11:05Z</time>
      </trkpt>
      <trkpt lat="45.76408" lon="2.95638">
        <ele>1072</ele>
        <time>2021-07-17T16:11:06Z</time>
      </trkpt>
      <trkpt lat="45.76408" lon="2.95638">
        <ele>1072</ele>
        <time>2021-07-17T16:11:07Z</time>
      </trkpt>
      <trkpt lat="45.7641" lon="2.95638">
        <ele>1072</ele>
        <time>2021-07-17T16:11:08Z</time>
      </trkpt>
      <trkpt lat="45.76411" lon="2.95639">
        <ele>1072</ele>
        <time>2021-07-17T16:11:09Z</time>
      </trkpt>
      <trkpt lat="45.76413" lon="2.95639">
        <ele>1072</ele>
        <time>2021-07-17T16:11:10Z</time>
      </trkpt>
      <trkpt lat="45.76414" lon="2.95639">
        <ele>1072</ele>
        <time>2021-07-17T16:11:11Z</time>
      </trkpt>
      <trkpt lat="45.76415" lon="2.9564">
        <ele>1072</ele>
        <time>2021-07-17T16:11:12Z</time>
      </trkpt>
      <trkpt lat="45.76417" lon="2.9564">
        <ele>1072</ele>
        <time>2021-07-17T16:11:13Z</time>
      </trkpt>
      <trkpt lat="45.76418" lon="2.9564">
        <ele>1072</ele>
        <time>2021-07-17T16:11:14Z</time>
      </trkpt>
      <trkpt lat="45.76419" lon="2.9564">
        <ele>1072</ele>
        <time>2021-07-17T16:11:15Z</time>
      </trkpt>
      <trkpt lat="45.76421" lon="2.9564">
        <ele>1072</ele>
        <time>2021-07-17T16:11:16Z</time>
      </trkpt>
      <trkpt lat="45.76423" lon="2.95644">
        <ele>1072</ele>
        <time>2021-07-17T16:11:52Z</time>
      </trkpt>
      <trkpt lat="45.76423" lon="2.95643">
        <ele>1072</ele>
        <time>2021-07-17T16:11:53Z</time>
      </trkpt>
      <trkpt lat="45.76423" lon="2.95642">
        <ele>1072</ele>
        <time>2021-07-17T16:11:54Z</time>
      </trkpt>
      <trkpt lat="45.76423" lon="2.95641">
        <ele>1072</ele>
        <time>2021-07-17T16:11:55Z</time>
      </trkpt>
      <trkpt lat="45.76424" lon="2.9564">
        <ele>1072</ele>
        <time>2021-07-17T16:11:56Z</time>
      </trkpt>
      <trkpt lat="45.76424" lon="2.95638">
        <ele>1072</ele>
        <time>2021-07-17T16:11:57Z</time>
      </trkpt>
      <trkpt lat="45.76424" lon="2.95637">
        <ele>1072</ele>
        <time>2021-07-17T16:11:58Z</time>
      </trkpt>
      <trkpt lat="45.76424" lon="2.95635">
        <ele>1072</ele>
        <time>2021-07-17T16:11:59Z</time>
      </trkpt>
      <trkpt lat="45.76424" lon="2.95633">
        <ele>1072</ele>
        <time>2021-07-17T16:12:00Z</time>
      </trkpt>
      <trkpt lat="45.76424" lon="2.95632">
        <ele>1072</ele>
        <time>2021-07-17T16:12:01Z</time>
      </trkpt>
      <trkpt lat="45.76424" lon="2.9563">
        <ele>1072</ele>
        <time>2021-07-17T16:12:02Z</time>
      </trkpt>
      <trkpt lat="45.76425" lon="2.95628">
        <ele>1072</ele>
        <time>2021-07-17T16:12:03Z</time>
      </trkpt>
      <trkpt lat="45.76425" lon="2.95626">
        <ele>1072</ele>
        <time>2021-07-17T16:12:04Z</time>
      </trkpt>
      <trkpt lat="45.76425" lon="2.95625">
        <ele>1072</ele>
        <time>2021-07-17T16:12:05Z</time>
      </trkpt>
      <trkpt lat="45.76425" lon="2.95623">
        <ele>1072</ele>
        <time>2021-07-17T16:12:06Z</time>
      </trkpt>
      <trkpt lat="45.76425" lon="2.95622">
        <ele>1072</ele>
        <time>2021-07-17T16:12:07Z</time>
      </trkpt>
      <trkpt lat="45.76426" lon="2.9562">
        <ele>1072</ele>
        <time>2021-07-17T16:12:08Z</time>
      </trkpt>
      <trkpt lat="45.76426" lon="2.95619">
        <ele>1072</ele>
        <time>2021-07-17T16:12:09Z</time>
      </trkpt>
      <trkpt lat="45.76426" lon="2.95618">
        <ele>1072</ele>
        <time>2021-07-17T16:12:10Z</time>
      </trkpt>
      <trkpt lat="45.76426" lon="2.95617">
        <ele>1072</ele>
        <time>2021-07-17T16:12:11Z</time>
      </trkpt>
      <trkpt lat="45.76426" lon="2.95616">
        <ele>1072</ele>
        <time>2021-07-17T16:12:12Z</time>
      </trkpt>
      <trkpt lat="45.76427" lon="2.95615">
        <ele>1072</ele>
        <time>2021-07-17T16:12:13Z</time>
      </trkpt>
      <trkpt lat="45.76428" lon="2.95614">
        <ele>1072</ele>
        <time>2021-07-17T16:12:14Z</time>
      </trkpt>
      <trkpt lat="45.76428" lon="2.95613">
        <ele>1072</ele>
        <time>2021-07-17T16:12:15Z</time>
      </trkpt>
      <trkpt lat="45.76429" lon="2.95612">
        <ele>1072</ele>
        <time>2021-07-17T16:12:16Z</time>
      </trkpt>
      <trkpt lat="45.76429" lon="2.95611">
        <ele>1072</ele>
        <time>2021-07-17T16:12:17Z</time>
      </trkpt>
      <trkpt lat="45.7643" lon="2.9561">
        <ele>1072</ele>
        <time>2021-07-17T16:12:18Z</time>
      </trkpt>
      <trkpt lat="45.7643" lon="2.95609">
        <ele>1072</ele>
        <time>2021-07-17T16:12:19Z</time>
      </trkpt>
      <trkpt lat="45.7643" lon="2.95608">
        <ele>1072</ele>
        <time>2021-07-17T16:12:20Z</time>
      </trkpt>
      <trkpt lat="45.76431" lon="2.95607">
        <ele>1072</ele>
        <time>2021-07-17T16:12:21Z</time>
      </trkpt>
      <trkpt lat="45.76431" lon="2.95606">
        <ele>1072</ele>
        <time>2021-07-17T16:12:22Z</time>
      </trkpt>
      <trkpt lat="45.76432" lon="2.95605">
        <ele>1072</ele>
        <time>2021-07-17T16:12:23Z</time>
      </trkpt>
      <trkpt lat="45.76432" lon="2.95604">
        <ele>1072</ele>
        <time>2021-07-17T16:12:24Z</time>
      </trkpt>
      <trkpt lat="45.76433" lon="2.95603">
        <ele>1072</ele>
        <time>2021-07-17T16:12:25Z</time>
      </trkpt>
      <trkpt lat="45.76434" lon="2.95601">
        <ele>1072</ele>
        <time>2021-07-17T16:12:26Z</time>
      </trkpt>
      <trkpt lat="45.76434" lon="2.956">
        <ele>1072</ele>
        <time>2021-07-17T16:12:27Z</time>
      </trkpt>
      <trkpt lat="45.76435" lon="2.95599">
        <ele>1072</ele>
        <time>2021-07-17T16:12:28Z</time>
      </trkpt>
      <trkpt lat="45.76436" lon="2.95598">
        <ele>1072</ele>
        <time>2021-07-17T16:12:29Z</time>
      </trkpt>
      <trkpt lat="45.76436" lon="2.95597">
        <ele>1072</ele>
        <time>2021-07-17T16:12:30Z</time>
      </trkpt>
      <trkpt lat="45.76437" lon="2.95595">
        <ele>1072</ele>
        <time>2021-07-17T16:12:31Z</time>
      </trkpt>
      <trkpt lat="45.76438" lon="2.95594">
        <ele>1072</ele>
        <time>2021-07-17T16:12:32Z</time>
      </trkpt>
      <trkpt lat="45.76438" lon="2.95592">
        <ele>1072</ele>
        <time>2021-07-17T16:12:33Z</time>
      </trkpt>
      <trkpt lat="45.76439" lon="2.95591">
        <ele>1072</ele>
        <time>2021-07-17T16:12:34Z</time>
      </trkpt>
      <trkpt lat="45.76439" lon="2.95589">
        <ele>1072</ele>
        <time>2021-07-17T16:12:35Z</time>
      </trkpt>
      <trkpt lat="45.76439" lon="2.95587">
        <ele>1072</ele>
        <time>2021-07-17T16:12:36Z</time>
      </trkpt>
      <trkpt lat="45.7644" lon="2.95585">
        <ele>1072</ele>
        <time>2021-07-17T16:12:37Z</time>
      </trkpt>
      <trkpt lat="45.7644" lon="2.95582">
        <ele>1072</ele>
        <time>2021-07-17T16:12:38Z</time>
      </trkpt>
      <trkpt lat="45.7644" lon="2.95581">
        <ele>1072</ele>
        <time>2021-07-17T16:12:39Z</time>
      </trkpt>
      <trkpt lat="45.76441" lon="2.95579">
        <ele>1072</ele>
        <time>2021-07-17T16:12:40Z</time>
      </trkpt>
      <trkpt lat="45.76441" lon="2.95577">
        <ele>1072</ele>
        <time>2021-07-17T16:12:41Z</time>
      </trkpt>
      <trkpt lat="45.76441" lon="2.95575">
        <ele>1072</ele>
        <time>2021-07-17T16:12:42Z</time>
      </trkpt>
      <trkpt lat="45.76442" lon="2.95574">
        <ele>1072</ele>
        <time>2021-07-17T16:12:43Z</time>
      </trkpt>
      <trkpt lat="45.76443" lon="2.95572">
        <ele>1072</ele>
        <time>2021-07-17T16:12:44Z</time>
      </trkpt>
      <trkpt lat="45.76444" lon="2.95571">
        <ele>1072</ele>
        <time>2021-07-17T16:12:45Z</time>
      </trkpt>
      <trkpt lat="45.76444" lon="2.95571">
        <ele>1072</ele>
        <time>2021-07-17T16:12:46Z</time>
      </trkpt>
      <trkpt lat="45.76445" lon="2.9557">
        <ele>1072</ele>
        <time>2021-07-17T16:12:47Z</time>
      </trkpt>
      <trkpt lat="45.76447" lon="2.9557">
        <ele>1072</ele>
        <time>2021-07-17T16:12:48Z</time>
      </trkpt>
      <trkpt lat="45.76444" lon="2.95569">
        <ele>1072</ele>
        <time>2021-07-17T16:31:21Z</time>
      </trkpt>
      <trkpt lat="45.76444" lon="2.95569">
        <ele>1072</ele>
        <time>2021-07-17T16:31:22Z</time>
      </trkpt>
      <trkpt lat="45.76444" lon="2.9557">
        <ele>1072</ele>
        <time>2021-07-17T16:31:23Z</time>
      </trkpt>
      <trkpt lat="45.76443" lon="2.9557">
        <ele>1072</ele>
        <time>2021-07-17T16:31:24Z</time>
      </trkpt>
      <trkpt lat="45.76442" lon="2.95571">
        <ele>1072</ele>
        <time>2021-07-17T16:31:25Z</time>
      </trkpt>
      <trkpt lat="45.76441" lon="2.95571">
        <ele>1072</ele>
        <time>2021-07-17T16:31:26Z</time>
      </trkpt>
      <trkpt lat="45.7644" lon="2.95572">
        <ele>1072</ele>
        <time>2021-07-17T16:31:27Z</time>
      </trkpt>
      <trkpt lat="45.7644" lon="2.95574">
        <ele>1072</ele>
        <time>2021-07-17T16:31:28Z</time>
      </trkpt>
      <trkpt lat="45.76439" lon="2.95575">
        <ele>1072</ele>
        <time>2021-07-17T16:31:29Z</time>
      </trkpt>
      <trkpt lat="45.76439" lon="2.95576">
        <ele>1072</ele>
        <time>2021-07-17T16:31:30Z</time>
      </trkpt>
      <trkpt lat="45.76438" lon="2.95578">
        <ele>1072</ele>
        <time>2021-07-17T16:31:31Z</time>
      </trkpt>
      <trkpt lat="45.76437" lon="2.9558">
        <ele>1072</ele>
        <time>2021-07-17T16:31:32Z</time>
      </trkpt>
      <trkpt lat="45.76437" lon="2.95581">
        <ele>1072</ele>
        <time>2021-07-17T16:31:33Z</time>
      </trkpt>
      <trkpt lat="45.76436" lon="2.95582">
        <ele>1072</ele>
        <time>2021-07-17T16:31:34Z</time>
      </trkpt>
      <trkpt lat="45.76436" lon="2.95584">
        <ele>1072</ele>
        <time>2021-07-17T16:31:35Z</time>
      </trkpt>
      <trkpt lat="45.76435" lon="2.95585">
        <ele>1072</ele>
        <time>2021-07-17T16:31:36Z</time>
      </trkpt>
      <trkpt lat="45.76435" lon="2.95586">
        <ele>1072</ele>
        <time>2021-07-17T16:31:37Z</time>
      </trkpt>
      <trkpt lat="45.76434" lon="2.95587">
        <ele>1072</ele>
        <time>2021-07-17T16:31:37Z</time>
      </trkpt>
      <trkpt lat="45.76433" lon="2.95589">
        <ele>1072</ele>
        <time>2021-07-17T16:31:38Z</time>
      </trkpt>
      <trkpt lat="45.76433" lon="2.9559">
        <ele>1072</ele>
        <time>2021-07-17T16:31:39Z</time>
      </trkpt>
      <trkpt lat="45.76432" lon="2.95591">
        <ele>1072</ele>
        <time>2021-07-17T16:31:40Z</time>
      </trkpt>
      <trkpt lat="45.76431" lon="2.95592">
        <ele>1072</ele>
        <time>2021-07-17T16:31:41Z</time>
      </trkpt>
      <trkpt lat="45.7643" lon="2.95593">
        <ele>1072</ele>
        <time>2021-07-17T16:31:42Z</time>
      </trkpt>
      <trkpt lat="45.7643" lon="2.95594">
        <ele>1072</ele>
        <time>2021-07-17T16:31:43Z</time>
      </trkpt>
      <trkpt lat="45.76429" lon="2.95595">
        <ele>1072</ele>
        <time>2021-07-17T16:31:44Z</time>
      </trkpt>
      <trkpt lat="45.76429" lon="2.95597">
        <ele>1072</ele>
        <time>2021-07-17T16:31:45Z</time>
      </trkpt>
      <trkpt lat="45.76428" lon="2.95598">
        <ele>1072</ele>
        <time>2021-07-17T16:31:46Z</time>
      </trkpt>
      <trkpt lat="45.76426" lon="2.95599">
        <ele>1072</ele>
        <time>2021-07-17T16:31:47Z</time>
      </trkpt>
      <trkpt lat="45.76426" lon="2.95599">
        <ele>1072</ele>
        <time>2021-07-17T16:31:48Z</time>
      </trkpt>
      <trkpt lat="45.76425" lon="2.956">
        <ele>1072</ele>
        <time>2021-07-17T16:31:49Z</time>
      </trkpt>
      <trkpt lat="45.76424" lon="2.95601">
        <ele>1072</ele>
        <time>2021-07-17T16:31:50Z</time>
      </trkpt>
      <trkpt lat="45.76424" lon="2.95602">
        <ele>1072</ele>
        <time>2021-07-17T16:31:51Z</time>
      </trkpt>
      <trkpt lat="45.76424" lon="2.95603">
        <ele>1072</ele>
        <time>2021-07-17T16:31:52Z</time>
      </trkpt>
      <trkpt lat="45.76423" lon="2.95605">
        <ele>1072</ele>
        <time>2021-07-17T16:31:53Z</time>
      </trkpt>
      <trkpt lat="45.76423" lon="2.95606">
        <ele>1072</ele>
        <time>2021-07-17T16:31:55Z</time>
      </trkpt>
      <trkpt lat="45.76421" lon="2.95612">
        <ele>1072</ele>
        <time>2021-07-17T16:31:56Z</time>
      </trkpt>
      <trkpt lat="45.76421" lon="2.95612">
        <ele>1072</ele>
        <time>2021-07-17T16:31:57Z</time>
      </trkpt>
      <trkpt lat="45.7642" lon="2.95613">
        <ele>1072</ele>
        <time>2021-07-17T16:31:58Z</time>
      </trkpt>
      <trkpt lat="45.7642" lon="2.95614">
        <ele>1072</ele>
        <time>2021-07-17T16:31:59Z</time>
      </trkpt>
      <trkpt lat="45.76419" lon="2.95614">
        <ele>1072</ele>
        <time>2021-07-17T16:32:00Z</time>
      </trkpt>
      <trkpt lat="45.76418" lon="2.95615">
        <ele>1072</ele>
        <time>2021-07-17T16:32:01Z</time>
      </trkpt>
      <trkpt lat="45.76418" lon="2.95616">
        <ele>1072</ele>
        <time>2021-07-17T16:32:02Z</time>
      </trkpt>
      <trkpt lat="45.76417" lon="2.95617">
        <ele>1072</ele>
        <time>2021-07-17T16:32:03Z</time>
      </trkpt>
      <trkpt lat="45.76417" lon="2.95618">
        <ele>1072</ele>
        <time>2021-07-17T16:32:04Z</time>
      </trkpt>
      <trkpt lat="45.76417" lon="2.95619">
        <ele>1072</ele>
        <time>2021-07-17T16:32:05Z</time>
      </trkpt>
      <trkpt lat="45.76417" lon="2.9562">
        <ele>1072</ele>
        <time>2021-07-17T16:32:06Z</time>
      </trkpt>
      <trkpt lat="45.76417" lon="2.95622">
        <ele>1072</ele>
        <time>2021-07-17T16:32:07Z</time>
      </trkpt>
      <trkpt lat="45.76417" lon="2.95623">
        <ele>1072</ele>
        <time>2021-07-17T16:32:08Z</time>
      </trkpt>
      <trkpt lat="45.76418" lon="2.95624">
        <ele>1072</ele>
        <time>2021-07-17T16:32:09Z</time>
      </trkpt>
      <trkpt lat="45.76418" lon="2.95625">
        <ele>1072</ele>
        <time>2021-07-17T16:32:10Z</time>
      </trkpt>
      <trkpt lat="45.76419" lon="2.95625">
        <ele>1072</ele>
        <time>2021-07-17T16:32:11Z</time>
      </trkpt>
      <trkpt lat="45.7642" lon="2.95625">
        <ele>1072</ele>
        <time>2021-07-17T16:32:12Z</time>
      </trkpt>
      <trkpt lat="45.76421" lon="2.95625">
        <ele>1072</ele>
        <time>2021-07-17T16:32:13Z</time>
      </trkpt>
      <trkpt lat="45.76422" lon="2.95625">
        <ele>1072</ele>
        <time>2021-07-17T16:32:14Z</time>
      </trkpt>
      <trkpt lat="45.76423" lon="2.95624">
        <ele>1072</ele>
        <time>2021-07-17T16:32:15Z</time>
      </trkpt>
      <trkpt lat="45.76423" lon="2.95624">
        <ele>1072</ele>
        <time>2021-07-17T16:32:16Z</time>
      </trkpt>
      <trkpt lat="45.76424" lon="2.95623">
        <ele>1072</ele>
        <time>2021-07-17T16:32:17Z</time>
      </trkpt>
      <trkpt lat="45.76424" lon="2.95623">
        <ele>1072</ele>
        <time>2021-07-17T16:32:18Z</time>
      </trkpt>
      <trkpt lat="45.76425" lon="2.95622">
        <ele>1072</ele>
        <time>2021-07-17T16:32:19Z</time>
      </trkpt>
      <trkpt lat="45.76426" lon="2.95622">
        <ele>1072</ele>
        <time>2021-07-17T16:32:20Z</time>
      </trkpt>
      <trkpt lat="45.76426" lon="2.95622">
        <ele>1072</ele>
        <time>2021-07-17T16:32:21Z</time>
      </trkpt>
      <trkpt lat="45.76426" lon="2.95621">
        <ele>1072</ele>
        <time>2021-07-17T16:32:22Z</time>
      </trkpt>
      <trkpt lat="45.76428" lon="2.95621">
        <ele>1072</ele>
        <time>2021-07-17T16:32:23Z</time>
      </trkpt>
      <trkpt lat="45.76428" lon="2.9562">
        <ele>1072</ele>
        <time>2021-07-17T16:32:24Z</time>
      </trkpt>
      <trkpt lat="45.76429" lon="2.95619">
        <ele>1072</ele>
        <time>2021-07-17T16:32:25Z</time>
      </trkpt>
      <trkpt lat="45.7643" lon="2.95618">
        <ele>1072</ele>
        <time>2021-07-17T16:32:26Z</time>
      </trkpt>
      <trkpt lat="45.76431" lon="2.95617">
        <ele>1072</ele>
        <time>2021-07-17T16:32:27Z</time>
      </trkpt>
      <trkpt lat="45.76432" lon="2.95616">
        <ele>1072</ele>
        <time>2021-07-17T16:32:28Z</time>
      </trkpt>
      <trkpt lat="45.76432" lon="2.95614">
        <ele>1072</ele>
        <time>2021-07-17T16:32:29Z</time>
      </trkpt>
      <trkpt lat="45.76433" lon="2.95613">
        <ele>1072</ele>
        <time>2021-07-17T16:32:30Z</time>
      </trkpt>
      <trkpt lat="45.76434" lon="2.95612">
        <ele>1072</ele>
        <time>2021-07-17T16:32:31Z</time>
      </trkpt>
      <trkpt lat="45.76435" lon="2.95611">
        <ele>1072</ele>
        <time>2021-07-17T16:32:32Z</time>
      </trkpt>
      <trkpt lat="45.76436" lon="2.9561">
        <ele>1072</ele>
        <time>2021-07-17T16:32:33Z</time>
      </trkpt>
      <trkpt lat="45.76437" lon="2.95609">
        <ele>1072</ele>
        <time>2021-07-17T16:32:34Z</time>
      </trkpt>
      <trkpt lat="45.76437" lon="2.95608">
        <ele>1072</ele>
        <time>2021-07-17T16:32:35Z</time>
      </trkpt>
      <trkpt lat="45.76438" lon="2.95608">
        <ele>1072</ele>
        <time>2021-07-17T16:32:36Z</time>
      </trkpt>
      <trkpt lat="45.76439" lon="2.95607">
        <ele>1072</ele>
        <time>2021-07-17T16:32:37Z</time>
      </trkpt>
      <trkpt lat="45.7644" lon="2.95606">
        <ele>1072</ele>
        <time>2021-07-17T16:32:38Z</time>
      </trkpt>
      <trkpt lat="45.76441" lon="2.95606">
        <ele>1072</ele>
        <time>2021-07-17T16:32:39Z</time>
      </trkpt>
      <trkpt lat="45.76441" lon="2.95606">
        <ele>1072</ele>
        <time>2021-07-17T16:32:40Z</time>
      </trkpt>
      <trkpt lat="45.76442" lon="2.95606">
        <ele>1072</ele>
        <time>2021-07-17T16:32:41Z</time>
      </trkpt>
      <trkpt lat="45.76443" lon="2.95606">
        <ele>1072</ele>
        <time>2021-07-17T16:32:42Z</time>
      </trkpt>
      <trkpt lat="45.76444" lon="2.95606">
        <ele>1072</ele>
        <time>2021-07-17T16:32:43Z</time>
      </trkpt>
      <trkpt lat="45.76444" lon="2.95607">
        <ele>1072</ele>
        <time>2021-07-17T16:32:44Z</time>
      </trkpt>
      <trkpt lat="45.76444" lon="2.95607">
        <ele>1072</ele>
        <time>2021-07-17T16:32:45Z</time>
      </trkpt>
      <trkpt lat="45.76445" lon="2.95608">
        <ele>1072</ele>
        <time>2021-07-17T16:32:46Z</time>
      </trkpt>
      <trkpt lat="45.76445" lon="2.95609">
        <ele>1072</ele>
        <time>2021-07-17T16:32:47Z</time>
      </trkpt>
      <trkpt lat="45.76445" lon="2.9561">
        <ele>1072</ele>
        <time>2021-07-17T16:32:48Z</time>
      </trkpt>
      <trkpt lat="45.76446" lon="2.95612">
        <ele>1072</ele>
        <time>2021-07-17T16:32:49Z</time>
      </trkpt>
      <trkpt lat="45.76446" lon="2.95613">
        <ele>1072</ele>
        <time>2021-07-17T16:32:50Z</time>
      </trkpt>
      <trkpt lat="45.76446" lon="2.95615">
        <ele>1072</ele>
        <time>2021-07-17T16:32:51Z</time>
      </trkpt>
      <trkpt lat="45.76445" lon="2.95616">
        <ele>1072</ele>
        <time>2021-07-17T16:32:52Z</time>
      </trkpt>
      <trkpt lat="45.76445" lon="2.95617">
        <ele>1072</ele>
        <time>2021-07-17T16:32:53Z</time>
      </trkpt>
      <trkpt lat="45.76445" lon="2.95618">
        <ele>1072</ele>
        <time>2021-07-17T16:32:54Z</time>
      </trkpt>
      <trkpt lat="45.76444" lon="2.95619">
        <ele>1072</ele>
        <time>2021-07-17T16:32:55Z</time>
      </trkpt>
      <trkpt lat="45.76444" lon="2.9562">
        <ele>1072</ele>
        <time>2021-07-17T16:32:56Z</time>
      </trkpt>
      <trkpt lat="45.76444" lon="2.95621">
        <ele>1072</ele>
        <time>2021-07-17T16:32:57Z</time>
      </trkpt>
      <trkpt lat="45.76443" lon="2.95623">
        <ele>1072</ele>
        <time>2021-07-17T16:32:58Z</time>
      </trkpt>
      <trkpt lat="45.76442" lon="2.95624">
        <ele>1072</ele>
        <time>2021-07-17T16:32:59Z</time>
      </trkpt>
      <trkpt lat="45.76441" lon="2.95624">
        <ele>1072</ele>
        <time>2021-07-17T16:33:00Z</time>
      </trkpt>
      <trkpt lat="45.76441" lon="2.95625">
        <ele>1072</ele>
        <time>2021-07-17T16:33:01Z</time>
      </trkpt>
      <trkpt lat="45.7644" lon="2.95626">
        <ele>1072</ele>
        <time>2021-07-17T16:33:02Z</time>
      </trkpt>
      <trkpt lat="45.7644" lon="2.95627">
        <ele>1072</ele>
        <time>2021-07-17T16:33:03Z</time>
      </trkpt>
      <trkpt lat="45.76439" lon="2.95628">
        <ele>1072</ele>
        <time>2021-07-17T16:33:04Z</time>
      </trkpt>
      <trkpt lat="45.76438" lon="2.95629">
        <ele>1072</ele>
        <time>2021-07-17T16:33:05Z</time>
      </trkpt>
      <trkpt lat="45.76438" lon="2.9563">
        <ele>1072</ele>
        <time>2021-07-17T16:33:06Z</time>
      </trkpt>
      <trkpt lat="45.76437" lon="2.95631">
        <ele>1072</ele>
        <time>2021-07-17T16:33:07Z</time>
      </trkpt>
      <trkpt lat="45.76437" lon="2.95632">
        <ele>1072</ele>
        <time>2021-07-17T16:33:08Z</time>
      </trkpt>
      <trkpt lat="45.76436" lon="2.95632">
        <ele>1072</ele>
        <time>2021-07-17T16:33:09Z</time>
      </trkpt>
      <trkpt lat="45.76436" lon="2.95633">
        <ele>1072</ele>
        <time>2021-07-17T16:33:10Z</time>
      </trkpt>
      <trkpt lat="45.76435" lon="2.95634">
        <ele>1072</ele>
        <time>2021-07-17T16:33:11Z</time>
      </trkpt>
      <trkpt lat="45.76434" lon="2.95635">
        <ele>1072</ele>
        <time>2021-07-17T16:33:12Z</time>
      </trkpt>
      <trkpt lat="45.76433" lon="2.95635">
        <ele>1072</ele>
        <time>2021-07-17T16:33:13Z</time>
      </trkpt>
      <trkpt lat="45.76433" lon="2.95636">
        <ele>1072</ele>
        <time>2021-07-17T16:33:14Z</time>
      </trkpt>
      <trkpt lat="45.76432" lon="2.95638">
        <ele>1072</ele>
        <time>2021-07-17T16:33:15Z</time>
      </trkpt>
      <trkpt lat="45.76432" lon="2.95639">
        <ele>1072</ele>
        <time>2021-07-17T16:33:16Z</time>
      </trkpt>
      <trkpt lat="45.76432" lon="2.9564">
        <ele>1072</ele>
        <time>2021-07-17T16:33:17Z</time>
      </trkpt>
      <trkpt lat="45.76432" lon="2.95641">
        <ele>1072</ele>
        <time>2021-07-17T16:33:18Z</time>
      </trkpt>
      <trkpt lat="45.76433" lon="2.95641">
        <ele>1072</ele>
        <time>2021-07-17T16:33:19Z</time>
      </trkpt>
      <trkpt lat="45.76433" lon="2.95643">
        <ele>1072</ele>
        <time>2021-07-17T16:33:20Z</time>
      </trkpt>
      <trkpt lat="45.76434" lon="2.95643">
        <ele>1072</ele>
        <time>2021-07-17T16:33:21Z</time>
      </trkpt>
      <trkpt lat="45.76434" lon="2.95644">
        <ele>1072</ele>
        <time>2021-07-17T16:33:22Z</time>
      </trkpt>
      <trkpt lat="45.76435" lon="2.95644">
        <ele>1072</ele>
        <time>2021-07-17T16:33:23Z</time>
      </trkpt>
      <trkpt lat="45.76436" lon="2.95645">
        <ele>1072</ele>
        <time>2021-07-17T16:33:24Z</time>
      </trkpt>
      <trkpt lat="45.76437" lon="2.95645">
        <ele>1072</ele>
        <time>2021-07-17T16:33:25Z</time>
      </trkpt>
      <trkpt lat="45.76437" lon="2.95645">
        <ele>1072</ele>
        <time>2021-07-17T16:33:26Z</time>
      </trkpt>
      <trkpt lat="45.76438" lon="2.95645">
        <ele>1072</ele>
        <time>2021-07-17T16:33:27Z</time>
      </trkpt>
      <trkpt lat="45.76438" lon="2.95645">
        <ele>1072</ele>
        <time>2021-07-17T16:33:28Z</time>
      </trkpt>
      <trkpt lat="45.76439" lon="2.95645">
        <ele>1072</ele>
        <time>2021-07-17T16:33:29Z</time>
      </trkpt>
      <trkpt lat="45.76439" lon="2.95645">
        <ele>1072</ele>
        <time>2021-07-17T16:33:30Z</time>
      </trkpt>
      <trkpt lat="45.76439" lon="2.95645">
        <ele>1072</ele>
        <time>2021-07-17T16:33:31Z</time>
      </trkpt>
      <trkpt lat="45.7644" lon="2.95645">
        <ele>1072</ele>
        <time>2021-07-17T16:33:32Z</time>
      </trkpt>
      <trkpt lat="45.7644" lon="2.95645">
        <ele>1072</ele>
        <time>2021-07-17T16:33:33Z</time>
      </trkpt>
      <trkpt lat="45.7644" lon="2.95645">
        <ele>1072</ele>
        <time>2021-07-17T16:33:34Z</time>
      </trkpt>
      <trkpt lat="45.76441" lon="2.95644">
        <ele>1072</ele>
        <time>2021-07-17T16:33:35Z</time>
      </trkpt>
      <trkpt lat="45.76441" lon="2.95644">
        <ele>1072</ele>
        <time>2021-07-17T16:33:36Z</time>
      </trkpt>
      <trkpt lat="45.76441" lon="2.95643">
        <ele>1072</ele>
        <time>2021-07-17T16:33:37Z</time>
      </trkpt>
      <trkpt lat="45.76442" lon="2.95643">
        <ele>1072</ele>
        <time>2021-07-17T16:33:38Z</time>
      </trkpt>
      <trkpt lat="45.76442" lon="2.95642">
        <ele>1072</ele>
        <time>2021-07-17T16:33:39Z</time>
      </trkpt>
      <trkpt lat="45.76443" lon="2.95642">
        <ele>1072</ele>
        <time>2021-07-17T16:33:40Z</time>
      </trkpt>
      <trkpt lat="45.76444" lon="2.95641">
        <ele>1072</ele>
        <time>2021-07-17T16:33:41Z</time>
      </trkpt>
      <trkpt lat="45.76444" lon="2.9564">
        <ele>1072</ele>
        <time>2021-07-17T16:33:42Z</time>
      </trkpt>
      <trkpt lat="45.76445" lon="2.95639">
        <ele>1072</ele>
        <time>2021-07-17T16:33:43Z</time>
      </trkpt>
      <trkpt lat="45.76446" lon="2.95638">
        <ele>1072</ele>
        <time>2021-07-17T16:33:44Z</time>
      </trkpt>
      <trkpt lat="45.76447" lon="2.95637">
        <ele>1072</ele>
        <time>2021-07-17T16:33:45Z</time>
      </trkpt>
      <trkpt lat="45.76448" lon="2.95636">
        <ele>1072</ele>
        <time>2021-07-17T16:33:46Z</time>
      </trkpt>
      <trkpt lat="45.76448" lon="2.95635">
        <ele>1072</ele>
        <time>2021-07-17T16:33:47Z</time>
      </trkpt>
      <trkpt lat="45.76449" lon="2.95634">
        <ele>1072</ele>
        <time>2021-07-17T16:33:48Z</time>
      </trkpt>
      <trkpt lat="45.7645" lon="2.95634">
        <ele>1072</ele>
        <time>2021-07-17T16:33:49Z</time>
      </trkpt>
      <trkpt lat="45.76451" lon="2.95633">
        <ele>1072</ele>
        <time>2021-07-17T16:33:50Z</time>
      </trkpt>
      <trkpt lat="45.76452" lon="2.95632">
        <ele>1072</ele>
        <time>2021-07-17T16:33:51Z</time>
      </trkpt>
      <trkpt lat="45.76453" lon="2.95631">
        <ele>1072</ele>
        <time>2021-07-17T16:33:52Z</time>
      </trkpt>
      <trkpt lat="45.76453" lon="2.95631">
        <ele>1072</ele>
        <time>2021-07-17T16:33:53Z</time>
      </trkpt>
      <trkpt lat="45.76454" lon="2.9563">
        <ele>1072</ele>
        <time>2021-07-17T16:33:54Z</time>
      </trkpt>
      <trkpt lat="45.76455" lon="2.95629">
        <ele>1072</ele>
        <time>2021-07-17T16:33:55Z</time>
      </trkpt>
      <trkpt lat="45.76456" lon="2.95628">
        <ele>1072</ele>
        <time>2021-07-17T16:33:56Z</time>
      </trkpt>
      <trkpt lat="45.76456" lon="2.95628">
        <ele>1072</ele>
        <time>2021-07-17T16:33:57Z</time>
      </trkpt>
      <trkpt lat="45.76457" lon="2.95627">
        <ele>1072</ele>
        <time>2021-07-17T16:33:58Z</time>
      </trkpt>
      <trkpt lat="45.76457" lon="2.95626">
        <ele>1072</ele>
        <time>2021-07-17T16:33:59Z</time>
      </trkpt>
      <trkpt lat="45.76458" lon="2.95626">
        <ele>1072</ele>
        <time>2021-07-17T16:34:00Z</time>
      </trkpt>
      <trkpt lat="45.76458" lon="2.95625">
        <ele>1072</ele>
        <time>2021-07-17T16:34:01Z</time>
      </trkpt>
      <trkpt lat="45.76762" lon="2.95903">
        <ele>1072</ele>
        <time>2021-07-17T16:45:13Z</time>
      </trkpt>
      <trkpt lat="45.76763" lon="2.95901">
        <ele>1072</ele>
        <time>2021-07-17T16:45:14Z</time>
      </trkpt>
      <trkpt lat="45.76765" lon="2.95899">
        <ele>1072</ele>
        <time>2021-07-17T16:45:15Z</time>
      </trkpt>
      <trkpt lat="45.76767" lon="2.95896">
        <ele>1072</ele>
        <time>2021-07-17T16:45:16Z</time>
      </trkpt>
      <trkpt lat="45.7677" lon="2.95893">
        <ele>1072</ele>
        <time>2021-07-17T16:45:17Z</time>
      </trkpt>
      <trkpt lat="45.76772" lon="2.95892">
        <ele>1072</ele>
        <time>2021-07-17T16:45:18Z</time>
      </trkpt>
      <trkpt lat="45.76773" lon="2.95894">
        <ele>1072</ele>
        <time>2021-07-17T16:45:19Z</time>
      </trkpt>
      <trkpt lat="45.76773" lon="2.95895">
        <ele>1072</ele>
        <time>2021-07-17T16:45:21Z</time>
      </trkpt>
      <trkpt lat="45.76773" lon="2.95895">
        <ele>1072</ele>
        <time>2021-07-17T16:45:22Z</time>
      </trkpt>
      <trkpt lat="45.76774" lon="2.95896">
        <ele>1072</ele>
        <time>2021-07-17T16:45:23Z</time>
      </trkpt>
      <trkpt lat="45.76775" lon="2.95898">
        <ele>1072</ele>
        <time>2021-07-17T16:46:39Z</time>
      </trkpt>
      <trkpt lat="45.76775" lon="2.95898">
        <ele>1072</ele>
        <time>2021-07-17T16:46:40Z</time>
      </trkpt>
      <trkpt lat="45.76775" lon="2.95898">
        <ele>1072</ele>
        <time>2021-07-17T16:46:41Z</time>
      </trkpt>
      <trkpt lat="45.76776" lon="2.95899">
        <ele>1072</ele>
        <time>2021-07-17T16:46:42Z</time>
      </trkpt>
      <trkpt lat="45.76776" lon="2.959">
        <ele>1072</ele>
        <time>2021-07-17T16:46:43Z</time>
      </trkpt>
      <trkpt lat="45.76776" lon="2.95901">
        <ele>1072</ele>
        <time>2021-07-17T16:46:44Z</time>
      </trkpt>
      <trkpt lat="45.76777" lon="2.95902">
        <ele>1072</ele>
        <time>2021-07-17T16:46:45Z</time>
      </trkpt>
      <trkpt lat="45.76777" lon="2.95903">
        <ele>1072</ele>
        <time>2021-07-17T16:46:46Z</time>
      </trkpt>
      <trkpt lat="45.76777" lon="2.95905">
        <ele>1072</ele>
        <time>2021-07-17T16:46:47Z</time>
      </trkpt>
      <trkpt lat="45.76778" lon="2.95906">
        <ele>1072</ele>
        <time>2021-07-17T16:46:48Z</time>
      </trkpt>
      <trkpt lat="45.76779" lon="2.95908">
        <ele>1072</ele>
        <time>2021-07-17T16:46:49Z</time>
      </trkpt>
      <trkpt lat="45.7678" lon="2.9591">
        <ele>1072</ele>
        <time>2021-07-17T16:46:50Z</time>
      </trkpt>
      <trkpt lat="45.7678" lon="2.95912">
        <ele>1072</ele>
        <time>2021-07-17T16:46:51Z</time>
      </trkpt>
      <trkpt lat="45.76781" lon="2.95913">
        <ele>1072</ele>
        <time>2021-07-17T16:46:52Z</time>
      </trkpt>
      <trkpt lat="45.76782" lon="2.95915">
        <ele>1072</ele>
        <time>2021-07-17T16:46:53Z</time>
      </trkpt>
      <trkpt lat="45.76782" lon="2.95917">
        <ele>1072</ele>
        <time>2021-07-17T16:46:54Z</time>
      </trkpt>
      <trkpt lat="45.76783" lon="2.95919">
        <ele>1072</ele>
        <time>2021-07-17T16:46:55Z</time>
      </trkpt>
      <trkpt lat="45.76783" lon="2.95921">
        <ele>1072</ele>
        <time>2021-07-17T16:46:56Z</time>
      </trkpt>
      <trkpt lat="45.76784" lon="2.95922">
        <ele>1072</ele>
        <time>2021-07-17T16:46:57Z</time>
      </trkpt>
      <trkpt lat="45.76785" lon="2.95924">
        <ele>1072</ele>
        <time>2021-07-17T16:46:58Z</time>
      </trkpt>
      <trkpt lat="45.76785" lon="2.95926">
        <ele>1072</ele>
        <time>2021-07-17T16:46:59Z</time>
      </trkpt>
      <trkpt lat="45.76785" lon="2.95928">
        <ele>1072</ele>
        <time>2021-07-17T16:47:00Z</time>
      </trkpt>
      <trkpt lat="45.76785" lon="2.95929">
        <ele>1072</ele>
        <time>2021-07-17T16:47:01Z</time>
      </trkpt>
      <trkpt lat="45.76785" lon="2.95931">
        <ele>1072</ele>
        <time>2021-07-17T16:47:02Z</time>
      </trkpt>
      <trkpt lat="45.76785" lon="2.95933">
        <ele>1072</ele>
        <time>2021-07-17T16:47:03Z</time>
      </trkpt>
      <trkpt lat="45.76785" lon="2.95935">
        <ele>1072</ele>
        <time>2021-07-17T16:47:04Z</time>
      </trkpt>
      <trkpt lat="45.76785" lon="2.95937">
        <ele>1072</ele>
        <time>2021-07-17T16:47:05Z</time>
      </trkpt>
      <trkpt lat="45.76786" lon="2.95938">
        <ele>1072</ele>
        <time>2021-07-17T16:47:06Z</time>
      </trkpt>
      <trkpt lat="45.76786" lon="2.9594">
        <ele>1072</ele>
        <time>2021-07-17T16:47:07Z</time>
      </trkpt>
      <trkpt lat="45.76786" lon="2.95942">
        <ele>1072</ele>
        <time>2021-07-17T16:47:08Z</time>
      </trkpt>
      <trkpt lat="45.76786" lon="2.95943">
        <ele>1072</ele>
        <time>2021-07-17T16:47:09Z</time>
      </trkpt>
      <trkpt lat="45.76786" lon="2.95945">
        <ele>1072</ele>
        <time>2021-07-17T16:47:10Z</time>
      </trkpt>
      <trkpt lat="45.76785" lon="2.95946">
        <ele>1072</ele>
        <time>2021-07-17T16:47:11Z</time>
      </trkpt>
      <trkpt lat="45.76785" lon="2.95947">
        <ele>1072</ele>
        <time>2021-07-17T16:47:12Z</time>
      </trkpt>
      <trkpt lat="45.76785" lon="2.95949">
        <ele>1072</ele>
        <time>2021-07-17T16:47:13Z</time>
      </trkpt>
      <trkpt lat="45.76785" lon="2.9595">
        <ele>1072</ele>
        <time>2021-07-17T16:47:14Z</time>
      </trkpt>
      <trkpt lat="45.76784" lon="2.95951">
        <ele>1072</ele>
        <time>2021-07-17T16:47:15Z</time>
      </trkpt>
      <trkpt lat="45.76783" lon="2.95953">
        <ele>1072</ele>
        <time>2021-07-17T16:47:16Z</time>
      </trkpt>
      <trkpt lat="45.76782" lon="2.95954">
        <ele>1072</ele>
        <time>2021-07-17T16:47:17Z</time>
      </trkpt>
      <trkpt lat="45.76782" lon="2.95956">
        <ele>1072</ele>
        <time>2021-07-17T16:47:18Z</time>
      </trkpt>
      <trkpt lat="45.76782" lon="2.95958">
        <ele>1072</ele>
        <time>2021-07-17T16:47:19Z</time>
      </trkpt>
      <trkpt lat="45.7678" lon="2.9596">
        <ele>1072</ele>
        <time>2021-07-17T16:47:20Z</time>
      </trkpt>
      <trkpt lat="45.7678" lon="2.95962">
        <ele>1072</ele>
        <time>2021-07-17T16:47:21Z</time>
      </trkpt>
      <trkpt lat="45.76779" lon="2.95963">
        <ele>1072</ele>
        <time>2021-07-17T16:47:22Z</time>
      </trkpt>
      <trkpt lat="45.76779" lon="2.95965">
        <ele>1072</ele>
        <time>2021-07-17T16:47:23Z</time>
      </trkpt>
      <trkpt lat="45.76779" lon="2.95967">
        <ele>1072</ele>
        <time>2021-07-17T16:47:24Z</time>
      </trkpt>
      <trkpt lat="45.76779" lon="2.95969">
        <ele>1072</ele>
        <time>2021-07-17T16:47:25Z</time>
      </trkpt>
      <trkpt lat="45.7678" lon="2.95971">
        <ele>1072</ele>
        <time>2021-07-17T16:47:26Z</time>
      </trkpt>
      <trkpt lat="45.76781" lon="2.95972">
        <ele>1072</ele>
        <time>2021-07-17T16:47:27Z</time>
      </trkpt>
      <trkpt lat="45.76782" lon="2.95974">
        <ele>1072</ele>
        <time>2021-07-17T16:47:28Z</time>
      </trkpt>
      <trkpt lat="45.76782" lon="2.95975">
        <ele>1072</ele>
        <time>2021-07-17T16:47:29Z</time>
      </trkpt>
      <trkpt lat="45.76782" lon="2.95977">
        <ele>1072</ele>
        <time>2021-07-17T16:47:30Z</time>
      </trkpt>
      <trkpt lat="45.76782" lon="2.95978">
        <ele>1072</ele>
        <time>2021-07-17T16:47:31Z</time>
      </trkpt>
      <trkpt lat="45.76782" lon="2.9598">
        <ele>1072</ele>
        <time>2021-07-17T16:47:32Z</time>
      </trkpt>
      <trkpt lat="45.76782" lon="2.95981">
        <ele>1072</ele>
        <time>2021-07-17T16:47:33Z</time>
      </trkpt>
      <trkpt lat="45.76782" lon="2.95982">
        <ele>1072</ele>
        <time>2021-07-17T16:47:34Z</time>
      </trkpt>
      <trkpt lat="45.76782" lon="2.95983">
        <ele>1072</ele>
        <time>2021-07-17T16:47:35Z</time>
      </trkpt>
      <trkpt lat="45.76782" lon="2.95985">
        <ele>1072</ele>
        <time>2021-07-17T16:47:36Z</time>
      </trkpt>
      <trkpt lat="45.76782" lon="2.95986">
        <ele>1072</ele>
        <time>2021-07-17T16:47:37Z</time>
      </trkpt>
      <trkpt lat="45.76782" lon="2.95987">
        <ele>1072</ele>
        <time>2021-07-17T16:47:38Z</time>
      </trkpt>
      <trkpt lat="45.76782" lon="2.95988">
        <ele>1072</ele>
        <time>2021-07-17T16:47:39Z</time>
      </trkpt>
      <trkpt lat="45.76782" lon="2.95989">
        <ele>1072</ele>
        <time>2021-07-17T16:47:40Z</time>
      </trkpt>
      <trkpt lat="45.76782" lon="2.9599">
        <ele>1072</ele>
        <time>2021-07-17T16:47:41Z</time>
      </trkpt>
      <trkpt lat="45.76782" lon="2.95991">
        <ele>1072</ele>
        <time>2021-07-17T16:47:42Z</time>
      </trkpt>
      <trkpt lat="45.76783" lon="2.95992">
        <ele>1072</ele>
        <time>2021-07-17T16:47:43Z</time>
      </trkpt>
      <trkpt lat="45.76783" lon="2.95993">
        <ele>1072</ele>
        <time>2021-07-17T16:47:44Z</time>
      </trkpt>
      <trkpt lat="45.76783" lon="2.95994">
        <ele>1072</ele>
        <time>2021-07-17T16:47:45Z</time>
      </trkpt>
      <trkpt lat="45.76783" lon="2.95995">
        <ele>1072</ele>
        <time>2021-07-17T16:47:46Z</time>
      </trkpt>
      <trkpt lat="45.76783" lon="2.95997">
        <ele>1072</ele>
        <time>2021-07-17T16:47:47Z</time>
      </trkpt>
      <trkpt lat="45.76783" lon="2.95998">
        <ele>1072</ele>
        <time>2021-07-17T16:47:48Z</time>
      </trkpt>
      <trkpt lat="45.76783" lon="2.95999">
        <ele>1072</ele>
        <time>2021-07-17T16:47:49Z</time>
      </trkpt>
      <trkpt lat="45.76783" lon="2.96001">
        <ele>1072</ele>
        <time>2021-07-17T16:47:50Z</time>
      </trkpt>
      <trkpt lat="45.76783" lon="2.96002">
        <ele>1072</ele>
        <time>2021-07-17T16:47:51Z</time>
      </trkpt>
      <trkpt lat="45.76782" lon="2.96004">
        <ele>1072</ele>
        <time>2021-07-17T16:47:52Z</time>
      </trkpt>
      <trkpt lat="45.76782" lon="2.96005">
        <ele>1072</ele>
        <time>2021-07-17T16:47:53Z</time>
      </trkpt>
      <trkpt lat="45.76782" lon="2.96007">
        <ele>1072</ele>
        <time>2021-07-17T16:47:54Z</time>
      </trkpt>
      <trkpt lat="45.76783" lon="2.96009">
        <ele>1072</ele>
        <time>2021-07-17T16:47:55Z</time>
      </trkpt>
      <trkpt lat="45.76783" lon="2.9601">
        <ele>1072</ele>
        <time>2021-07-17T16:47:56Z</time>
      </trkpt>
      <trkpt lat="45.76783" lon="2.96012">
        <ele>1072</ele>
        <time>2021-07-17T16:47:57Z</time>
      </trkpt>
      <trkpt lat="45.76784" lon="2.96013">
        <ele>1072</ele>
        <time>2021-07-17T16:47:58Z</time>
      </trkpt>
      <trkpt lat="45.76783" lon="2.96011">
        <ele>1072</ele>
        <time>2021-07-17T16:49:24Z</time>
      </trkpt>
      <trkpt lat="45.76783" lon="2.9601">
        <ele>1072</ele>
        <time>2021-07-17T16:49:25Z</time>
      </trkpt>
      <trkpt lat="45.76783" lon="2.9601">
        <ele>1072</ele>
        <time>2021-07-17T16:49:26Z</time>
      </trkpt>
      <trkpt lat="45.76782" lon="2.96009">
        <ele>1072</ele>
        <time>2021-07-17T16:49:27Z</time>
      </trkpt>
      <trkpt lat="45.76782" lon="2.96007">
        <ele>1072</ele>
        <time>2021-07-17T16:49:28Z</time>
      </trkpt>
      <trkpt lat="45.76782" lon="2.96006">
        <ele>1072</ele>
        <time>2021-07-17T16:49:29Z</time>
      </trkpt>
      <trkpt lat="45.76782" lon="2.96004">
        <ele>1072</ele>
        <time>2021-07-17T16:49:30Z</time>
      </trkpt>
      <trkpt lat="45.76782" lon="2.96003">
        <ele>1072</ele>
        <time>2021-07-17T16:49:31Z</time>
      </trkpt>
      <trkpt lat="45.76782" lon="2.96001">
        <ele>1072</ele>
        <time>2021-07-17T16:49:32Z</time>
      </trkpt>
      <trkpt lat="45.76781" lon="2.96">
        <ele>1072</ele>
        <time>2021-07-17T16:49:33Z</time>
      </trkpt>
      <trkpt lat="45.7678" lon="2.95998">
        <ele>1072</ele>
        <time>2021-07-17T16:49:34Z</time>
      </trkpt>
      <trkpt lat="45.7678" lon="2.95996">
        <ele>1072</ele>
        <time>2021-07-17T16:49:35Z</time>
      </trkpt>
      <trkpt lat="45.76779" lon="2.95995">
        <ele>1072</ele>
        <time>2021-07-17T16:49:36Z</time>
      </trkpt>
      <trkpt lat="45.76779" lon="2.95993">
        <ele>1072</ele>
        <time>2021-07-17T16:49:37Z</time>
      </trkpt>
      <trkpt lat="45.76779" lon="2.95991">
        <ele>1072</ele>
        <time>2021-07-17T16:49:38Z</time>
      </trkpt>
      <trkpt lat="45.76778" lon="2.9599">
        <ele>1072</ele>
        <time>2021-07-17T16:49:39Z</time>
      </trkpt>
      <trkpt lat="45.76778" lon="2.95988">
        <ele>1072</ele>
        <time>2021-07-17T16:49:40Z</time>
      </trkpt>
      <trkpt lat="45.76778" lon="2.95986">
        <ele>1072</ele>
        <time>2021-07-17T16:49:41Z</time>
      </trkpt>
      <trkpt lat="45.76777" lon="2.95985">
        <ele>1072</ele>
        <time>2021-07-17T16:49:42Z</time>
      </trkpt>
      <trkpt lat="45.76777" lon="2.95983">
        <ele>1072</ele>
        <time>2021-07-17T16:49:43Z</time>
      </trkpt>
      <trkpt lat="45.76777" lon="2.95982">
        <ele>1072</ele>
        <time>2021-07-17T16:49:44Z</time>
      </trkpt>
      <trkpt lat="45.76776" lon="2.95981">
        <ele>1072</ele>
        <time>2021-07-17T16:49:45Z</time>
      </trkpt>
      <trkpt lat="45.76776" lon="2.95979">
        <ele>1072</ele>
        <time>2021-07-17T16:49:46Z</time>
      </trkpt>
      <trkpt lat="45.76776" lon="2.95978">
        <ele>1072</ele>
        <time>2021-07-17T16:49:47Z</time>
      </trkpt>
      <trkpt lat="45.76776" lon="2.95976">
        <ele>1072</ele>
        <time>2021-07-17T16:49:48Z</time>
      </trkpt>
      <trkpt lat="45.76776" lon="2.95975">
        <ele>1072</ele>
        <time>2021-07-17T16:49:49Z</time>
      </trkpt>
      <trkpt lat="45.76776" lon="2.95973">
        <ele>1072</ele>
        <time>2021-07-17T16:49:50Z</time>
      </trkpt>
      <trkpt lat="45.76775" lon="2.95972">
        <ele>1072</ele>
        <time>2021-07-17T16:49:51Z</time>
      </trkpt>
      <trkpt lat="45.76775" lon="2.9597">
        <ele>1072</ele>
        <time>2021-07-17T16:49:52Z</time>
      </trkpt>
      <trkpt lat="45.76774" lon="2.95968">
        <ele>1072</ele>
        <time>2021-07-17T16:49:53Z</time>
      </trkpt>
      <trkpt lat="45.76773" lon="2.95966">
        <ele>1072</ele>
        <time>2021-07-17T16:49:54Z</time>
      </trkpt>
      <trkpt lat="45.76772" lon="2.95965">
        <ele>1072</ele>
        <time>2021-07-17T16:49:55Z</time>
      </trkpt>
      <trkpt lat="45.76771" lon="2.95963">
        <ele>1072</ele>
        <time>2021-07-17T16:49:56Z</time>
      </trkpt>
      <trkpt lat="45.7677" lon="2.95962">
        <ele>1072</ele>
        <time>2021-07-17T16:49:57Z</time>
      </trkpt>
      <trkpt lat="45.7677" lon="2.9596">
        <ele>1072</ele>
        <time>2021-07-17T16:49:58Z</time>
      </trkpt>
      <trkpt lat="45.7677" lon="2.95958">
        <ele>1072</ele>
        <time>2021-07-17T16:49:59Z</time>
      </trkpt>
      <trkpt lat="45.76771" lon="2.95957">
        <ele>1072</ele>
        <time>2021-07-17T16:50:00Z</time>
      </trkpt>
      <trkpt lat="45.76771" lon="2.95955">
        <ele>1072</ele>
        <time>2021-07-17T16:50:01Z</time>
      </trkpt>
      <trkpt lat="45.76772" lon="2.95953">
        <ele>1072</ele>
        <time>2021-07-17T16:50:02Z</time>
      </trkpt>
      <trkpt lat="45.76772" lon="2.95951">
        <ele>1072</ele>
        <time>2021-07-17T16:50:03Z</time>
      </trkpt>
      <trkpt lat="45.76772" lon="2.95949">
        <ele>1072</ele>
        <time>2021-07-17T16:50:04Z</time>
      </trkpt>
      <trkpt lat="45.76773" lon="2.95947">
        <ele>1072</ele>
        <time>2021-07-17T16:50:05Z</time>
      </trkpt>
      <trkpt lat="45.76773" lon="2.95945">
        <ele>1072</ele>
        <time>2021-07-17T16:50:06Z</time>
      </trkpt>
      <trkpt lat="45.76774" lon="2.95943">
        <ele>1072</ele>
        <time>2021-07-17T16:50:07Z</time>
      </trkpt>
      <trkpt lat="45.76774" lon="2.95941">
        <ele>1072</ele>
        <time>2021-07-17T16:50:08Z</time>
      </trkpt>
      <trkpt lat="45.76774" lon="2.95939">
        <ele>1072</ele>
        <time>2021-07-17T16:50:09Z</time>
      </trkpt>
      <trkpt lat="45.76774" lon="2.95937">
        <ele>1072</ele>
        <time>2021-07-17T16:50:10Z</time>
      </trkpt>
      <trkpt lat="45.76774" lon="2.95935">
        <ele>1072</ele>
        <time>2021-07-17T16:50:11Z</time>
      </trkpt>
      <trkpt lat="45.76774" lon="2.95933">
        <ele>1072</ele>
        <time>2021-07-17T16:50:12Z</time>
      </trkpt>
      <trkpt lat="45.76774" lon="2.95931">
        <ele>1072</ele>
        <time>2021-07-17T16:50:13Z</time>
      </trkpt>
      <trkpt lat="45.76774" lon="2.95929">
        <ele>1072</ele>
        <time>2021-07-17T16:50:14Z</time>
      </trkpt>
      <trkpt lat="45.76773" lon="2.95928">
        <ele>1072</ele>
        <time>2021-07-17T16:50:15Z</time>
      </trkpt>
      <trkpt lat="45.76773" lon="2.95926">
        <ele>1072</ele>
        <time>2021-07-17T16:50:16Z</time>
      </trkpt>
      <trkpt lat="45.76772" lon="2.95924">
        <ele>1072</ele>
        <time>2021-07-17T16:50:17Z</time>
      </trkpt>
      <trkpt lat="45.76772" lon="2.95923">
        <ele>1072</ele>
        <time>2021-07-17T16:50:18Z</time>
      </trkpt>
      <trkpt lat="45.76771" lon="2.95921">
        <ele>1072</ele>
        <time>2021-07-17T16:50:19Z</time>
      </trkpt>
      <trkpt lat="45.76771" lon="2.95919">
        <ele>1072</ele>
        <time>2021-07-17T16:50:20Z</time>
      </trkpt>
      <trkpt lat="45.7677" lon="2.95917">
        <ele>1072</ele>
        <time>2021-07-17T16:50:21Z</time>
      </trkpt>
      <trkpt lat="45.7677" lon="2.95916">
        <ele>1072</ele>
        <time>2021-07-17T16:50:22Z</time>
      </trkpt>
      <trkpt lat="45.76769" lon="2.95914">
        <ele>1072</ele>
        <time>2021-07-17T16:50:23Z</time>
      </trkpt>
      <trkpt lat="45.76769" lon="2.95913">
        <ele>1072</ele>
        <time>2021-07-17T16:50:24Z</time>
      </trkpt>
      <trkpt lat="45.76767" lon="2.95911">
        <ele>1072</ele>
        <time>2021-07-17T16:50:25Z</time>
      </trkpt>
      <trkpt lat="45.76767" lon="2.95909">
        <ele>1072</ele>
        <time>2021-07-17T16:50:26Z</time>
      </trkpt>
      <trkpt lat="45.76765" lon="2.95907">
        <ele>1072</ele>
        <time>2021-07-17T16:50:27Z</time>
      </trkpt>
      <trkpt lat="45.76765" lon="2.95905">
        <ele>1072</ele>
        <time>2021-07-17T16:50:28Z</time>
      </trkpt>
      <trkpt lat="45.76764" lon="2.95903">
        <ele>1072</ele>
        <time>2021-07-17T16:50:29Z</time>
      </trkpt>
      <trkpt lat="45.76763" lon="2.95901">
        <ele>1072</ele>
        <time>2021-07-17T16:50:30Z</time>
      </trkpt>
      <trkpt lat="45.76762" lon="2.95899">
        <ele>1072</ele>
        <time>2021-07-17T16:50:31Z</time>
      </trkpt>
      <trkpt lat="45.76761" lon="2.95897">
        <ele>1072</ele>
        <time>2021-07-17T16:50:32Z</time>
      </trkpt>
      <trkpt lat="45.76761" lon="2.95896">
        <ele>1072</ele>
        <time>2021-07-17T16:50:33Z</time>
      </trkpt>
      <trkpt lat="45.76759" lon="2.95894">
        <ele>1072</ele>
        <time>2021-07-17T16:50:34Z</time>
      </trkpt>
      <trkpt lat="45.76759" lon="2.95892">
        <ele>1072</ele>
        <time>2021-07-17T16:50:35Z</time>
      </trkpt>
      <trkpt lat="45.76758" lon="2.9589">
        <ele>1072</ele>
        <time>2021-07-17T16:50:36Z</time>
      </trkpt>
      <trkpt lat="45.76756" lon="2.95888">
        <ele>1072</ele>
        <time>2021-07-17T16:50:37Z</time>
      </trkpt>
      <trkpt lat="45.76755" lon="2.95886">
        <ele>1072</ele>
        <time>2021-07-17T16:50:38Z</time>
      </trkpt>
      <trkpt lat="45.76754" lon="2.95884">
        <ele>1072</ele>
        <time>2021-07-17T16:50:39Z</time>
      </trkpt>
      <trkpt lat="45.76753" lon="2.95882">
        <ele>1072</ele>
        <time>2021-07-17T16:50:40Z</time>
      </trkpt>
      <trkpt lat="45.76752" lon="2.9588">
        <ele>1072</ele>
        <time>2021-07-17T16:50:41Z</time>
      </trkpt>
      <trkpt lat="45.76751" lon="2.95879">
        <ele>1072</ele>
        <time>2021-07-17T16:50:42Z</time>
      </trkpt>
      <trkpt lat="45.76749" lon="2.95877">
        <ele>1072</ele>
        <time>2021-07-17T16:50:43Z</time>
      </trkpt>
      <trkpt lat="45.76748" lon="2.95876">
        <ele>1072</ele>
        <time>2021-07-17T16:50:44Z</time>
      </trkpt>
      <trkpt lat="45.76746" lon="2.95874">
        <ele>1072</ele>
        <time>2021-07-17T16:50:45Z</time>
      </trkpt>
      <trkpt lat="45.76746" lon="2.95873">
        <ele>1072</ele>
        <time>2021-07-17T16:50:46Z</time>
      </trkpt>
      <trkpt lat="45.76745" lon="2.95872">
        <ele>1072</ele>
        <time>2021-07-17T16:50:47Z</time>
      </trkpt>
      <trkpt lat="45.76743" lon="2.95871">
        <ele>1072</ele>
        <time>2021-07-17T16:50:48Z</time>
      </trkpt>
      <trkpt lat="45.76743" lon="2.95869">
        <ele>1072</ele>
        <time>2021-07-17T16:50:49Z</time>
      </trkpt>
      <trkpt lat="45.76741" lon="2.95868">
        <ele>1072</ele>
        <time>2021-07-17T16:50:50Z</time>
      </trkpt>
      <trkpt lat="45.7674" lon="2.95866">
        <ele>1072</ele>
        <time>2021-07-17T16:50:51Z</time>
      </trkpt>
      <trkpt lat="45.7674" lon="2.95865">
        <ele>1072</ele>
        <time>2021-07-17T16:50:52Z</time>
      </trkpt>
      <trkpt lat="45.76738" lon="2.95864">
        <ele>1072</ele>
        <time>2021-07-17T16:50:53Z</time>
      </trkpt>
      <trkpt lat="45.76737" lon="2.95862">
        <ele>1072</ele>
        <time>2021-07-17T16:50:54Z</time>
      </trkpt>
      <trkpt lat="45.76735" lon="2.95861">
        <ele>1072</ele>
        <time>2021-07-17T16:50:55Z</time>
      </trkpt>
      <trkpt lat="45.76734" lon="2.9586">
        <ele>1072</ele>
        <time>2021-07-17T16:50:56Z</time>
      </trkpt>
      <trkpt lat="45.76733" lon="2.95859">
        <ele>1072</ele>
        <time>2021-07-17T16:50:57Z</time>
      </trkpt>
      <trkpt lat="45.76732" lon="2.95858">
        <ele>1072</ele>
        <time>2021-07-17T16:50:58Z</time>
      </trkpt>
      <trkpt lat="45.76731" lon="2.95857">
        <ele>1072</ele>
        <time>2021-07-17T16:50:59Z</time>
      </trkpt>
      <trkpt lat="45.7673" lon="2.95856">
        <ele>1072</ele>
        <time>2021-07-17T16:51:00Z</time>
      </trkpt>
      <trkpt lat="45.76728" lon="2.95855">
        <ele>1072</ele>
        <time>2021-07-17T16:51:01Z</time>
      </trkpt>
      <trkpt lat="45.76728" lon="2.95854">
        <ele>1072</ele>
        <time>2021-07-17T16:51:02Z</time>
      </trkpt>
      <trkpt lat="45.76727" lon="2.95853">
        <ele>1072</ele>
        <time>2021-07-17T16:51:03Z</time>
      </trkpt>
      <trkpt lat="45.76725" lon="2.95852">
        <ele>1072</ele>
        <time>2021-07-17T16:51:04Z</time>
      </trkpt>
      <trkpt lat="45.76724" lon="2.95852">
        <ele>1072</ele>
        <time>2021-07-17T16:51:05Z</time>
      </trkpt>
      <trkpt lat="45.76723" lon="2.95851">
        <ele>1072</ele>
        <time>2021-07-17T16:51:06Z</time>
      </trkpt>
      <trkpt lat="45.76722" lon="2.9585">
        <ele>1072</ele>
        <time>2021-07-17T16:51:07Z</time>
      </trkpt>
      <trkpt lat="45.76721" lon="2.95849">
        <ele>1072</ele>
        <time>2021-07-17T16:51:08Z</time>
      </trkpt>
      <trkpt lat="45.76719" lon="2.95848">
        <ele>1072</ele>
        <time>2021-07-17T16:51:09Z</time>
      </trkpt>
      <trkpt lat="45.76719" lon="2.95847">
        <ele>1072</ele>
        <time>2021-07-17T16:51:10Z</time>
      </trkpt>
      <trkpt lat="45.76717" lon="2.95846">
        <ele>1072</ele>
        <time>2021-07-17T16:51:11Z</time>
      </trkpt>
      <trkpt lat="45.76716" lon="2.95845">
        <ele>1072</ele>
        <time>2021-07-17T16:51:12Z</time>
      </trkpt>
      <trkpt lat="45.76715" lon="2.95843">
        <ele>1072</ele>
        <time>2021-07-17T16:51:13Z</time>
      </trkpt>
      <trkpt lat="45.76714" lon="2.95842">
        <ele>1072</ele>
        <time>2021-07-17T16:51:14Z</time>
      </trkpt>
      <trkpt lat="45.76712" lon="2.95841">
        <ele>1072</ele>
        <time>2021-07-17T16:51:15Z</time>
      </trkpt>
      <trkpt lat="45.76711" lon="2.95839">
        <ele>1072</ele>
        <time>2021-07-17T16:51:16Z</time>
      </trkpt>
      <trkpt lat="45.7671" lon="2.95838">
        <ele>1072</ele>
        <time>2021-07-17T16:51:17Z</time>
      </trkpt>
      <trkpt lat="45.76709" lon="2.95837">
        <ele>1072</ele>
        <time>2021-07-17T16:51:18Z</time>
      </trkpt>
      <trkpt lat="45.76708" lon="2.95836">
        <ele>1072</ele>
        <time>2021-07-17T16:51:19Z</time>
      </trkpt>
      <trkpt lat="45.76707" lon="2.95835">
        <ele>1072</ele>
        <time>2021-07-17T16:51:20Z</time>
      </trkpt>
      <trkpt lat="45.76705" lon="2.95834">
        <ele>1072</ele>
        <time>2021-07-17T16:51:21Z</time>
      </trkpt>
      <trkpt lat="45.76704" lon="2.95833">
        <ele>1072</ele>
        <time>2021-07-17T16:51:22Z</time>
      </trkpt>
      <trkpt lat="45.76703" lon="2.95832">
        <ele>1072</ele>
        <time>2021-07-17T16:51:23Z</time>
      </trkpt>
      <trkpt lat="45.76701" lon="2.95831">
        <ele>1072</ele>
        <time>2021-07-17T16:51:24Z</time>
      </trkpt>
      <trkpt lat="45.767" lon="2.9583">
        <ele>1072</ele>
        <time>2021-07-17T16:51:25Z</time>
      </trkpt>
      <trkpt lat="45.76698" lon="2.95829">
        <ele>1072</ele>
        <time>2021-07-17T16:51:26Z</time>
      </trkpt>
      <trkpt lat="45.76697" lon="2.95828">
        <ele>1072</ele>
        <time>2021-07-17T16:51:27Z</time>
      </trkpt>
      <trkpt lat="45.76696" lon="2.95827">
        <ele>1072</ele>
        <time>2021-07-17T16:51:28Z</time>
      </trkpt>
      <trkpt lat="45.76694" lon="2.95826">
        <ele>1072</ele>
        <time>2021-07-17T16:51:29Z</time>
      </trkpt>
      <trkpt lat="45.76693" lon="2.95824">
        <ele>1072</ele>
        <time>2021-07-17T16:51:30Z</time>
      </trkpt>
      <trkpt lat="45.76692" lon="2.95823">
        <ele>1072</ele>
        <time>2021-07-17T16:51:31Z</time>
      </trkpt>
      <trkpt lat="45.7669" lon="2.95823">
        <ele>1072</ele>
        <time>2021-07-17T16:51:32Z</time>
      </trkpt>
      <trkpt lat="45.76689" lon="2.95822">
        <ele>1072</ele>
        <time>2021-07-17T16:51:33Z</time>
      </trkpt>
      <trkpt lat="45.76688" lon="2.95821">
        <ele>1072</ele>
        <time>2021-07-17T16:51:34Z</time>
      </trkpt>
      <trkpt lat="45.76686" lon="2.9582">
        <ele>1072</ele>
        <time>2021-07-17T16:51:36Z</time>
      </trkpt>
      <trkpt lat="45.76682" lon="2.95818">
        <ele>1072</ele>
        <time>2021-07-17T16:51:37Z</time>
      </trkpt>
      <trkpt lat="45.76682" lon="2.95818">
        <ele>1072</ele>
        <time>2021-07-17T16:51:38Z</time>
      </trkpt>
      <trkpt lat="45.76681" lon="2.95817">
        <ele>1072</ele>
        <time>2021-07-17T16:51:39Z</time>
      </trkpt>
      <trkpt lat="45.7668" lon="2.95817">
        <ele>1072</ele>
        <time>2021-07-17T16:51:40Z</time>
      </trkpt>
      <trkpt lat="45.76679" lon="2.95816">
        <ele>1072</ele>
        <time>2021-07-17T16:51:41Z</time>
      </trkpt>
      <trkpt lat="45.76677" lon="2.95815">
        <ele>1072</ele>
        <time>2021-07-17T16:51:42Z</time>
      </trkpt>
      <trkpt lat="45.76676" lon="2.95814">
        <ele>1072</ele>
        <time>2021-07-17T16:51:43Z</time>
      </trkpt>
      <trkpt lat="45.76675" lon="2.95813">
        <ele>1072</ele>
        <time>2021-07-17T16:51:44Z</time>
      </trkpt>
      <trkpt lat="45.76674" lon="2.95812">
        <ele>1072</ele>
        <time>2021-07-17T16:51:45Z</time>
      </trkpt>
      <trkpt lat="45.76673" lon="2.95811">
        <ele>1072</ele>
        <time>2021-07-17T16:51:46Z</time>
      </trkpt>
      <trkpt lat="45.76671" lon="2.95811">
        <ele>1072</ele>
        <time>2021-07-17T16:51:47Z</time>
      </trkpt>
      <trkpt lat="45.7667" lon="2.9581">
        <ele>1072</ele>
        <time>2021-07-17T16:51:48Z</time>
      </trkpt>
      <trkpt lat="45.76669" lon="2.95809">
        <ele>1072</ele>
        <time>2021-07-17T16:51:49Z</time>
      </trkpt>
      <trkpt lat="45.76668" lon="2.95809">
        <ele>1072</ele>
        <time>2021-07-17T16:51:50Z</time>
      </trkpt>
      <trkpt lat="45.76666" lon="2.95808">
        <ele>1072</ele>
        <time>2021-07-17T16:51:51Z</time>
      </trkpt>
      <trkpt lat="45.76665" lon="2.95807">
        <ele>1072</ele>
        <time>2021-07-17T16:51:52Z</time>
      </trkpt>
      <trkpt lat="45.76664" lon="2.95806">
        <ele>1072</ele>
        <time>2021-07-17T16:51:53Z</time>
      </trkpt>
      <trkpt lat="45.76662" lon="2.95805">
        <ele>1072</ele>
        <time>2021-07-17T16:51:54Z</time>
      </trkpt>
      <trkpt lat="45.7666" lon="2.95805">
        <ele>1072</ele>
        <time>2021-07-17T16:51:55Z</time>
      </trkpt>
      <trkpt lat="45.76658" lon="2.95804">
        <ele>1072</ele>
        <time>2021-07-17T16:51:56Z</time>
      </trkpt>
      <trkpt lat="45.76656" lon="2.95804">
        <ele>1072</ele>
        <time>2021-07-17T16:51:57Z</time>
      </trkpt>
      <trkpt lat="45.76655" lon="2.95803">
        <ele>1072</ele>
        <time>2021-07-17T16:51:58Z</time>
      </trkpt>
      <trkpt lat="45.76653" lon="2.95803">
        <ele>1072</ele>
        <time>2021-07-17T16:51:59Z</time>
      </trkpt>
      <trkpt lat="45.76652" lon="2.95803">
        <ele>1072</ele>
        <time>2021-07-17T16:52:00Z</time>
      </trkpt>
      <trkpt lat="45.76651" lon="2.95803">
        <ele>1072</ele>
        <time>2021-07-17T16:52:01Z</time>
      </trkpt>
      <trkpt lat="45.7665" lon="2.95803">
        <ele>1072</ele>
        <time>2021-07-17T16:52:02Z</time>
      </trkpt>
      <trkpt lat="45.76648" lon="2.95804">
        <ele>1072</ele>
        <time>2021-07-17T16:52:03Z</time>
      </trkpt>
      <trkpt lat="45.76647" lon="2.95804">
        <ele>1072</ele>
        <time>2021-07-17T16:52:04Z</time>
      </trkpt>
      <trkpt lat="45.76646" lon="2.95805">
        <ele>1072</ele>
        <time>2021-07-17T16:52:05Z</time>
      </trkpt>
      <trkpt lat="45.76645" lon="2.95805">
        <ele>1072</ele>
        <time>2021-07-17T16:52:06Z</time>
      </trkpt>
      <trkpt lat="45.76643" lon="2.95805">
        <ele>1072</ele>
        <time>2021-07-17T16:52:07Z</time>
      </trkpt>
      <trkpt lat="45.76642" lon="2.95806">
        <ele>1072</ele>
        <time>2021-07-17T16:52:08Z</time>
      </trkpt>
      <trkpt lat="45.7664" lon="2.95807">
        <ele>1072</ele>
        <time>2021-07-17T16:52:09Z</time>
      </trkpt>
      <trkpt lat="45.76638" lon="2.95807">
        <ele>1072</ele>
        <time>2021-07-17T16:52:10Z</time>
      </trkpt>
      <trkpt lat="45.76637" lon="2.95808">
        <ele>1072</ele>
        <time>2021-07-17T16:52:11Z</time>
      </trkpt>
      <trkpt lat="45.76636" lon="2.95809">
        <ele>1072</ele>
        <time>2021-07-17T16:52:12Z</time>
      </trkpt>
      <trkpt lat="45.76635" lon="2.95809">
        <ele>1072</ele>
        <time>2021-07-17T16:52:13Z</time>
      </trkpt>
      <trkpt lat="45.76634" lon="2.9581">
        <ele>1072</ele>
        <time>2021-07-17T16:52:14Z</time>
      </trkpt>
      <trkpt lat="45.76632" lon="2.95811">
        <ele>1072</ele>
        <time>2021-07-17T16:52:15Z</time>
      </trkpt>
      <trkpt lat="45.76631" lon="2.95812">
        <ele>1072</ele>
        <time>2021-07-17T16:52:16Z</time>
      </trkpt>
      <trkpt lat="45.76629" lon="2.95813">
        <ele>1072</ele>
        <time>2021-07-17T16:52:17Z</time>
      </trkpt>
      <trkpt lat="45.76628" lon="2.95814">
        <ele>1072</ele>
        <time>2021-07-17T16:52:18Z</time>
      </trkpt>
      <trkpt lat="45.76627" lon="2.95816">
        <ele>1072</ele>
        <time>2021-07-17T16:52:19Z</time>
      </trkpt>
      <trkpt lat="45.76625" lon="2.95817">
        <ele>1072</ele>
        <time>2021-07-17T16:52:20Z</time>
      </trkpt>
      <trkpt lat="45.76624" lon="2.95818">
        <ele>1072</ele>
        <time>2021-07-17T16:52:21Z</time>
      </trkpt>
      <trkpt lat="45.76623" lon="2.95819">
        <ele>1072</ele>
        <time>2021-07-17T16:52:22Z</time>
      </trkpt>
      <trkpt lat="45.76622" lon="2.9582">
        <ele>1072</ele>
        <time>2021-07-17T16:52:23Z</time>
      </trkpt>
      <trkpt lat="45.76621" lon="2.95821">
        <ele>1072</ele>
        <time>2021-07-17T16:52:24Z</time>
      </trkpt>
      <trkpt lat="45.76619" lon="2.95823">
        <ele>1072</ele>
        <time>2021-07-17T16:52:25Z</time>
      </trkpt>
      <trkpt lat="45.76618" lon="2.95824">
        <ele>1072</ele>
        <time>2021-07-17T16:52:26Z</time>
      </trkpt>
      <trkpt lat="45.76616" lon="2.95826">
        <ele>1072</ele>
        <time>2021-07-17T16:52:27Z</time>
      </trkpt>
      <trkpt lat="45.76616" lon="2.95827">
        <ele>1072</ele>
        <time>2021-07-17T16:52:28Z</time>
      </trkpt>
      <trkpt lat="45.76614" lon="2.95828">
        <ele>1072</ele>
        <time>2021-07-17T16:52:29Z</time>
      </trkpt>
      <trkpt lat="45.76613" lon="2.95829">
        <ele>1072</ele>
        <time>2021-07-17T16:52:30Z</time>
      </trkpt>
      <trkpt lat="45.76613" lon="2.9583">
        <ele>1072</ele>
        <time>2021-07-17T16:52:31Z</time>
      </trkpt>
      <trkpt lat="45.76612" lon="2.95831">
        <ele>1072</ele>
        <time>2021-07-17T16:52:32Z</time>
      </trkpt>
      <trkpt lat="45.76611" lon="2.95832">
        <ele>1072</ele>
        <time>2021-07-17T16:52:33Z</time>
      </trkpt>
      <trkpt lat="45.7661" lon="2.95833">
        <ele>1072</ele>
        <time>2021-07-17T16:52:34Z</time>
      </trkpt>
      <trkpt lat="45.76609" lon="2.95834">
        <ele>1072</ele>
        <time>2021-07-17T16:52:35Z</time>
      </trkpt>
      <trkpt lat="45.76608" lon="2.95836">
        <ele>1072</ele>
        <time>2021-07-17T16:52:36Z</time>
      </trkpt>
      <trkpt lat="45.76607" lon="2.95837">
        <ele>1072</ele>
        <time>2021-07-17T16:52:37Z</time>
      </trkpt>
      <trkpt lat="45.76607" lon="2.95839">
        <ele>1072</ele>
        <time>2021-07-17T16:52:38Z</time>
      </trkpt>
      <trkpt lat="45.76606" lon="2.95841">
        <ele>1072</ele>
        <time>2021-07-17T16:52:39Z</time>
      </trkpt>
      <trkpt lat="45.76605" lon="2.95842">
        <ele>1072</ele>
        <time>2021-07-17T16:52:40Z</time>
      </trkpt>
      <trkpt lat="45.76604" lon="2.95844">
        <ele>1072</ele>
        <time>2021-07-17T16:52:41Z</time>
      </trkpt>
      <trkpt lat="45.76603" lon="2.95846">
        <ele>1072</ele>
        <time>2021-07-17T16:52:42Z</time>
      </trkpt>
      <trkpt lat="45.76602" lon="2.95848">
        <ele>1072</ele>
        <time>2021-07-17T16:52:43Z</time>
      </trkpt>
      <trkpt lat="45.76601" lon="2.95849">
        <ele>1072</ele>
        <time>2021-07-17T16:52:44Z</time>
      </trkpt>
      <trkpt lat="45.766" lon="2.95851">
        <ele>1072</ele>
        <time>2021-07-17T16:52:45Z</time>
      </trkpt>
      <trkpt lat="45.76599" lon="2.95853">
        <ele>1072</ele>
        <time>2021-07-17T16:52:46Z</time>
      </trkpt>
      <trkpt lat="45.76598" lon="2.95854">
        <ele>1072</ele>
        <time>2021-07-17T16:52:47Z</time>
      </trkpt>
      <trkpt lat="45.76597" lon="2.95856">
        <ele>1072</ele>
        <time>2021-07-17T16:52:48Z</time>
      </trkpt>
      <trkpt lat="45.76595" lon="2.95858">
        <ele>1072</ele>
        <time>2021-07-17T16:52:49Z</time>
      </trkpt>
      <trkpt lat="45.76595" lon="2.9586">
        <ele>1072</ele>
        <time>2021-07-17T16:52:50Z</time>
      </trkpt>
      <trkpt lat="45.76593" lon="2.95861">
        <ele>1072</ele>
        <time>2021-07-17T16:52:51Z</time>
      </trkpt>
      <trkpt lat="45.76592" lon="2.95863">
        <ele>1072</ele>
        <time>2021-07-17T16:52:52Z</time>
      </trkpt>
      <trkpt lat="45.76592" lon="2.95865">
        <ele>1072</ele>
        <time>2021-07-17T16:52:52Z</time>
      </trkpt>
      <trkpt lat="45.76591" lon="2.95867">
        <ele>1072</ele>
        <time>2021-07-17T16:52:53Z</time>
      </trkpt>
      <trkpt lat="45.7659" lon="2.95869">
        <ele>1072</ele>
        <time>2021-07-17T16:52:54Z</time>
      </trkpt>
      <trkpt lat="45.76589" lon="2.95871">
        <ele>1072</ele>
        <time>2021-07-17T16:52:55Z</time>
      </trkpt>
      <trkpt lat="45.76588" lon="2.95872">
        <ele>1072</ele>
        <time>2021-07-17T16:52:56Z</time>
      </trkpt>
      <trkpt lat="45.76588" lon="2.95874">
        <ele>1072</ele>
        <time>2021-07-17T16:52:57Z</time>
      </trkpt>
      <trkpt lat="45.76587" lon="2.95876">
        <ele>1072</ele>
        <time>2021-07-17T16:52:58Z</time>
      </trkpt>
      <trkpt lat="45.76586" lon="2.95878">
        <ele>1072</ele>
        <time>2021-07-17T16:52:59Z</time>
      </trkpt>
      <trkpt lat="45.76585" lon="2.9588">
        <ele>1072</ele>
        <time>2021-07-17T16:53:00Z</time>
      </trkpt>
      <trkpt lat="45.76585" lon="2.95881">
        <ele>1072</ele>
        <time>2021-07-17T16:53:01Z</time>
      </trkpt>
      <trkpt lat="45.76584" lon="2.95883">
        <ele>1072</ele>
        <time>2021-07-17T16:53:02Z</time>
      </trkpt>
      <trkpt lat="45.76583" lon="2.95885">
        <ele>1072</ele>
        <time>2021-07-17T16:53:03Z</time>
      </trkpt>
      <trkpt lat="45.76582" lon="2.95887">
        <ele>1072</ele>
        <time>2021-07-17T16:53:04Z</time>
      </trkpt>
      <trkpt lat="45.76582" lon="2.95889">
        <ele>1072</ele>
        <time>2021-07-17T16:53:05Z</time>
      </trkpt>
      <trkpt lat="45.76581" lon="2.95892">
        <ele>1072</ele>
        <time>2021-07-17T16:53:06Z</time>
      </trkpt>
      <trkpt lat="45.7658" lon="2.95894">
        <ele>1072</ele>
        <time>2021-07-17T16:53:07Z</time>
      </trkpt>
      <trkpt lat="45.7658" lon="2.95895">
        <ele>1072</ele>
        <time>2021-07-17T16:53:08Z</time>
      </trkpt>
      <trkpt lat="45.7658" lon="2.95897">
        <ele>1072</ele>
        <time>2021-07-17T16:53:09Z</time>
      </trkpt>
      <trkpt lat="45.76579" lon="2.95899">
        <ele>1072</ele>
        <time>2021-07-17T16:53:10Z</time>
      </trkpt>
      <trkpt lat="45.76579" lon="2.95901">
        <ele>1072</ele>
        <time>2021-07-17T16:53:11Z</time>
      </trkpt>
      <trkpt lat="45.76578" lon="2.95903">
        <ele>1072</ele>
        <time>2021-07-17T16:53:12Z</time>
      </trkpt>
      <trkpt lat="45.76577" lon="2.95905">
        <ele>1072</ele>
        <time>2021-07-17T16:53:13Z</time>
      </trkpt>
      <trkpt lat="45.76577" lon="2.95908">
        <ele>1072</ele>
        <time>2021-07-17T16:53:14Z</time>
      </trkpt>
      <trkpt lat="45.76576" lon="2.9591">
        <ele>1072</ele>
        <time>2021-07-17T16:53:15Z</time>
      </trkpt>
      <trkpt lat="45.76576" lon="2.95912">
        <ele>1072</ele>
        <time>2021-07-17T16:53:16Z</time>
      </trkpt>
      <trkpt lat="45.76575" lon="2.95914">
        <ele>1072</ele>
        <time>2021-07-17T16:53:17Z</time>
      </trkpt>
      <trkpt lat="45.76574" lon="2.95916">
        <ele>1072</ele>
        <time>2021-07-17T16:53:18Z</time>
      </trkpt>
      <trkpt lat="45.76574" lon="2.95919">
        <ele>1072</ele>
        <time>2021-07-17T16:53:19Z</time>
      </trkpt>
      <trkpt lat="45.76574" lon="2.95921">
        <ele>1072</ele>
        <time>2021-07-17T16:53:20Z</time>
      </trkpt>
      <trkpt lat="45.76574" lon="2.95923">
        <ele>1072</ele>
        <time>2021-07-17T16:53:21Z</time>
      </trkpt>
      <trkpt lat="45.76573" lon="2.95924">
        <ele>1072</ele>
        <time>2021-07-17T16:53:22Z</time>
      </trkpt>
      <trkpt lat="45.76572" lon="2.95926">
        <ele>1072</ele>
        <time>2021-07-17T16:53:23Z</time>
      </trkpt>
      <trkpt lat="45.76572" lon="2.95927">
        <ele>1072</ele>
        <time>2021-07-17T16:53:24Z</time>
      </trkpt>
      <trkpt lat="45.76572" lon="2.95928">
        <ele>1072</ele>
        <time>2021-07-17T16:53:25Z</time>
      </trkpt>
      <trkpt lat="45.76571" lon="2.95929">
        <ele>1072</ele>
        <time>2021-07-17T16:53:26Z</time>
      </trkpt>
      <trkpt lat="45.76571" lon="2.95929">
        <ele>1072</ele>
        <time>2021-07-17T16:53:27Z</time>
      </trkpt>
      <trkpt lat="45.76569" lon="2.95928">
        <ele>1072</ele>
        <time>2021-07-17T16:53:28Z</time>
      </trkpt>
      <trkpt lat="45.76568" lon="2.95928">
        <ele>1072</ele>
        <time>2021-07-17T16:53:29Z</time>
      </trkpt>
      <trkpt lat="45.76567" lon="2.95926">
        <ele>1072</ele>
        <time>2021-07-17T16:53:30Z</time>
      </trkpt>
      <trkpt lat="45.76565" lon="2.95925">
        <ele>1072</ele>
        <time>2021-07-17T16:53:31Z</time>
      </trkpt>
      <trkpt lat="45.76564" lon="2.95923">
        <ele>1072</ele>
        <time>2021-07-17T16:53:32Z</time>
      </trkpt>
      <trkpt lat="45.76563" lon="2.95921">
        <ele>1072</ele>
        <time>2021-07-17T16:53:34Z</time>
      </trkpt>
      <trkpt lat="45.76558" lon="2.95913">
        <ele>1072</ele>
        <time>2021-07-17T16:53:35Z</time>
      </trkpt>
      <trkpt lat="45.76558" lon="2.95913">
        <ele>1072</ele>
        <time>2021-07-17T16:53:36Z</time>
      </trkpt>
      <trkpt lat="45.76557" lon="2.95912">
        <ele>1072</ele>
        <time>2021-07-17T16:53:37Z</time>
      </trkpt>
      <trkpt lat="45.76556" lon="2.9591">
        <ele>1072</ele>
        <time>2021-07-17T16:53:38Z</time>
      </trkpt>
      <trkpt lat="45.76556" lon="2.95909">
        <ele>1072</ele>
        <time>2021-07-17T16:53:39Z</time>
      </trkpt>
      <trkpt lat="45.76556" lon="2.95907">
        <ele>1072</ele>
        <time>2021-07-17T16:53:40Z</time>
      </trkpt>
      <trkpt lat="45.76555" lon="2.95905">
        <ele>1072</ele>
        <time>2021-07-17T16:53:41Z</time>
      </trkpt>
      <trkpt lat="45.76555" lon="2.95903">
        <ele>1072</ele>
        <time>2021-07-17T16:53:42Z</time>
      </trkpt>
      <trkpt lat="45.76555" lon="2.95901">
        <ele>1072</ele>
        <time>2021-07-17T16:53:43Z</time>
      </trkpt>
      <trkpt lat="45.76555" lon="2.95899">
        <ele>1072</ele>
        <time>2021-07-17T16:53:44Z</time>
      </trkpt>
      <trkpt lat="45.76555" lon="2.95898">
        <ele>1072</ele>
        <time>2021-07-17T16:53:45Z</time>
      </trkpt>
      <trkpt lat="45.76555" lon="2.95896">
        <ele>1072</ele>
        <time>2021-07-17T16:53:46Z</time>
      </trkpt>
      <trkpt lat="45.76555" lon="2.95894">
        <ele>1072</ele>
        <time>2021-07-17T16:53:47Z</time>
      </trkpt>
      <trkpt lat="45.76554" lon="2.95892">
        <ele>1072</ele>
        <time>2021-07-17T16:53:48Z</time>
      </trkpt>
      <trkpt lat="45.76554" lon="2.9589">
        <ele>1072</ele>
        <time>2021-07-17T16:53:49Z</time>
      </trkpt>
      <trkpt lat="45.76554" lon="2.95888">
        <ele>1072</ele>
        <time>2021-07-17T16:53:50Z</time>
      </trkpt>
      <trkpt lat="45.76554" lon="2.95887">
        <ele>1072</ele>
        <time>2021-07-17T16:53:51Z</time>
      </trkpt>
      <trkpt lat="45.76554" lon="2.95885">
        <ele>1072</ele>
        <time>2021-07-17T16:53:52Z</time>
      </trkpt>
      <trkpt lat="45.76554" lon="2.95883">
        <ele>1072</ele>
        <time>2021-07-17T16:53:53Z</time>
      </trkpt>
      <trkpt lat="45.76555" lon="2.95881">
        <ele>1072</ele>
        <time>2021-07-17T16:53:54Z</time>
      </trkpt>
      <trkpt lat="45.76555" lon="2.95879">
        <ele>1072</ele>
        <time>2021-07-17T16:53:55Z</time>
      </trkpt>
      <trkpt lat="45.76555" lon="2.95877">
        <ele>1072</ele>
        <time>2021-07-17T16:53:56Z</time>
      </trkpt>
      <trkpt lat="45.76555" lon="2.95875">
        <ele>1072</ele>
        <time>2021-07-17T16:53:57Z</time>
      </trkpt>
      <trkpt lat="45.76556" lon="2.95873">
        <ele>1072</ele>
        <time>2021-07-17T16:53:58Z</time>
      </trkpt>
      <trkpt lat="45.76556" lon="2.95872">
        <ele>1072</ele>
        <time>2021-07-17T16:53:59Z</time>
      </trkpt>
      <trkpt lat="45.76556" lon="2.9587">
        <ele>1072</ele>
        <time>2021-07-17T16:54:00Z</time>
      </trkpt>
      <trkpt lat="45.76556" lon="2.95868">
        <ele>1072</ele>
        <time>2021-07-17T16:54:01Z</time>
      </trkpt>
      <trkpt lat="45.76557" lon="2.95867">
        <ele>1072</ele>
        <time>2021-07-17T16:54:02Z</time>
      </trkpt>
      <trkpt lat="45.76558" lon="2.95865">
        <ele>1072</ele>
        <time>2021-07-17T16:54:03Z</time>
      </trkpt>
      <trkpt lat="45.76558" lon="2.95864">
        <ele>1072</ele>
        <time>2021-07-17T16:54:04Z</time>
      </trkpt>
      <trkpt lat="45.76559" lon="2.95862">
        <ele>1072</ele>
        <time>2021-07-17T16:54:05Z</time>
      </trkpt>
      <trkpt lat="45.76559" lon="2.9586">
        <ele>1072</ele>
        <time>2021-07-17T16:54:06Z</time>
      </trkpt>
      <trkpt lat="45.76559" lon="2.95858">
        <ele>1072</ele>
        <time>2021-07-17T16:54:07Z</time>
      </trkpt>
      <trkpt lat="45.76559" lon="2.95857">
        <ele>1072</ele>
        <time>2021-07-17T16:54:08Z</time>
      </trkpt>
      <trkpt lat="45.76559" lon="2.95855">
        <ele>1072</ele>
        <time>2021-07-17T16:54:09Z</time>
      </trkpt>
      <trkpt lat="45.76559" lon="2.95853">
        <ele>1072</ele>
        <time>2021-07-17T16:54:10Z</time>
      </trkpt>
      <trkpt lat="45.76559" lon="2.95852">
        <ele>1072</ele>
        <time>2021-07-17T16:54:11Z</time>
      </trkpt>
      <trkpt lat="45.76559" lon="2.95851">
        <ele>1072</ele>
        <time>2021-07-17T16:54:12Z</time>
      </trkpt>
      <trkpt lat="45.76559" lon="2.9585">
        <ele>1072</ele>
        <time>2021-07-17T16:54:13Z</time>
      </trkpt>
      <trkpt lat="45.76558" lon="2.95849">
        <ele>1072</ele>
        <time>2021-07-17T16:54:14Z</time>
      </trkpt>
      <trkpt lat="45.76558" lon="2.95849">
        <ele>1072</ele>
        <time>2021-07-17T16:54:15Z</time>
      </trkpt>
      <trkpt lat="45.76558" lon="2.95849">
        <ele>1072</ele>
        <time>2021-07-17T16:54:16Z</time>
      </trkpt>
      <trkpt lat="45.76558" lon="2.95849">
        <ele>1072</ele>
        <time>2021-07-17T16:54:17Z</time>
      </trkpt>
      <trkpt lat="45.76558" lon="2.95849">
        <ele>1072</ele>
        <time>2021-07-17T16:54:18Z</time>
      </trkpt>
      <trkpt lat="45.76557" lon="2.95849">
        <ele>1072</ele>
        <time>2021-07-17T16:54:19Z</time>
      </trkpt>
      <trkpt lat="45.76556" lon="2.95849">
        <ele>1072</ele>
        <time>2021-07-17T16:54:20Z</time>
      </trkpt>
      <trkpt lat="45.76555" lon="2.95848">
        <ele>1072</ele>
        <time>2021-07-17T16:55:13Z</time>
      </trkpt>
      <trkpt lat="45.76555" lon="2.95848">
        <ele>1072</ele>
        <time>2021-07-17T16:55:14Z</time>
      </trkpt>
      <trkpt lat="45.76555" lon="2.95848">
        <ele>1072</ele>
        <time>2021-07-17T16:55:15Z</time>
      </trkpt>
      <trkpt lat="45.76556" lon="2.95848">
        <ele>1072</ele>
        <time>2021-07-17T16:55:16Z</time>
      </trkpt>
      <trkpt lat="45.76556" lon="2.95848">
        <ele>1072</ele>
        <time>2021-07-17T16:55:17Z</time>
      </trkpt>
      <trkpt lat="45.76557" lon="2.9585">
        <ele>1072</ele>
        <time>2021-07-17T16:55:21Z</time>
      </trkpt>
      <trkpt lat="45.76557" lon="2.95851">
        <ele>1072</ele>
        <time>2021-07-17T16:55:22Z</time>
      </trkpt>
      <trkpt lat="45.76557" lon="2.95852">
        <ele>1072</ele>
        <time>2021-07-17T16:55:23Z</time>
      </trkpt>
      <trkpt lat="45.76558" lon="2.95853">
        <ele>1072</ele>
        <time>2021-07-17T16:55:24Z</time>
      </trkpt>
      <trkpt lat="45.76558" lon="2.95854">
        <ele>1072</ele>
        <time>2021-07-17T16:55:25Z</time>
      </trkpt>
      <trkpt lat="45.76557" lon="2.95855">
        <ele>1072</ele>
        <time>2021-07-17T16:55:26Z</time>
      </trkpt>
      <trkpt lat="45.76556" lon="2.95857">
        <ele>1072</ele>
        <time>2021-07-17T16:55:27Z</time>
      </trkpt>
      <trkpt lat="45.76556" lon="2.95859">
        <ele>1072</ele>
        <time>2021-07-17T16:55:28Z</time>
      </trkpt>
      <trkpt lat="45.76556" lon="2.9586">
        <ele>1072</ele>
        <time>2021-07-17T16:55:29Z</time>
      </trkpt>
      <trkpt lat="45.76556" lon="2.95862">
        <ele>1072</ele>
        <time>2021-07-17T16:55:30Z</time>
      </trkpt>
      <trkpt lat="45.76556" lon="2.95864">
        <ele>1072</ele>
        <time>2021-07-17T16:55:31Z</time>
      </trkpt>
      <trkpt lat="45.76555" lon="2.95865">
        <ele>1072</ele>
        <time>2021-07-17T16:55:32Z</time>
      </trkpt>
      <trkpt lat="45.76555" lon="2.95867">
        <ele>1072</ele>
        <time>2021-07-17T16:55:33Z</time>
      </trkpt>
      <trkpt lat="45.76554" lon="2.95869">
        <ele>1072</ele>
        <time>2021-07-17T16:55:34Z</time>
      </trkpt>
      <trkpt lat="45.76554" lon="2.9587">
        <ele>1072</ele>
        <time>2021-07-17T16:55:35Z</time>
      </trkpt>
      <trkpt lat="45.76554" lon="2.95872">
        <ele>1072</ele>
        <time>2021-07-17T16:55:36Z</time>
      </trkpt>
      <trkpt lat="45.76553" lon="2.95874">
        <ele>1072</ele>
        <time>2021-07-17T16:55:37Z</time>
      </trkpt>
      <trkpt lat="45.76553" lon="2.95876">
        <ele>1072</ele>
        <time>2021-07-17T16:55:38Z</time>
      </trkpt>
      <trkpt lat="45.76553" lon="2.95877">
        <ele>1072</ele>
        <time>2021-07-17T16:55:39Z</time>
      </trkpt>
      <trkpt lat="45.76553" lon="2.95879">
        <ele>1072</ele>
        <time>2021-07-17T16:55:40Z</time>
      </trkpt>
      <trkpt lat="45.76553" lon="2.95881">
        <ele>1072</ele>
        <time>2021-07-17T16:55:41Z</time>
      </trkpt>
      <trkpt lat="45.76553" lon="2.95883">
        <ele>1072</ele>
        <time>2021-07-17T16:55:42Z</time>
      </trkpt>
      <trkpt lat="45.76552" lon="2.95885">
        <ele>1072</ele>
        <time>2021-07-17T16:55:43Z</time>
      </trkpt>
      <trkpt lat="45.76551" lon="2.95887">
        <ele>1072</ele>
        <time>2021-07-17T16:55:44Z</time>
      </trkpt>
      <trkpt lat="45.76551" lon="2.9589">
        <ele>1072</ele>
        <time>2021-07-17T16:55:45Z</time>
      </trkpt>
      <trkpt lat="45.7655" lon="2.95892">
        <ele>1072</ele>
        <time>2021-07-17T16:55:46Z</time>
      </trkpt>
      <trkpt lat="45.7655" lon="2.95895">
        <ele>1072</ele>
        <time>2021-07-17T16:55:47Z</time>
      </trkpt>
      <trkpt lat="45.7655" lon="2.95898">
        <ele>1072</ele>
        <time>2021-07-17T16:55:48Z</time>
      </trkpt>
      <trkpt lat="45.7655" lon="2.959">
        <ele>1072</ele>
        <time>2021-07-17T16:55:49Z</time>
      </trkpt>
      <trkpt lat="45.7655" lon="2.95903">
        <ele>1072</ele>
        <time>2021-07-17T16:55:50Z</time>
      </trkpt>
      <trkpt lat="45.7655" lon="2.95906">
        <ele>1072</ele>
        <time>2021-07-17T16:55:51Z</time>
      </trkpt>
      <trkpt lat="45.7655" lon="2.95908">
        <ele>1072</ele>
        <time>2021-07-17T16:55:52Z</time>
      </trkpt>
      <trkpt lat="45.76551" lon="2.95911">
        <ele>1072</ele>
        <time>2021-07-17T16:55:53Z</time>
      </trkpt>
      <trkpt lat="45.76551" lon="2.95913">
        <ele>1072</ele>
        <time>2021-07-17T16:55:54Z</time>
      </trkpt>
      <trkpt lat="45.76552" lon="2.95915">
        <ele>1072</ele>
        <time>2021-07-17T16:55:55Z</time>
      </trkpt>
      <trkpt lat="45.76553" lon="2.95917">
        <ele>1072</ele>
        <time>2021-07-17T16:55:56Z</time>
      </trkpt>
      <trkpt lat="45.76553" lon="2.95919">
        <ele>1072</ele>
        <time>2021-07-17T16:55:57Z</time>
      </trkpt>
      <trkpt lat="45.76554" lon="2.95921">
        <ele>1072</ele>
        <time>2021-07-17T16:55:58Z</time>
      </trkpt>
      <trkpt lat="45.76555" lon="2.95923">
        <ele>1072</ele>
        <time>2021-07-17T16:55:59Z</time>
      </trkpt>
      <trkpt lat="45.76556" lon="2.95924">
        <ele>1072</ele>
        <time>2021-07-17T16:56:00Z</time>
      </trkpt>
      <trkpt lat="45.76557" lon="2.95926">
        <ele>1072</ele>
        <time>2021-07-17T16:56:01Z</time>
      </trkpt>
      <trkpt lat="45.76558" lon="2.95927">
        <ele>1072</ele>
        <time>2021-07-17T16:56:02Z</time>
      </trkpt>
      <trkpt lat="45.76559" lon="2.95929">
        <ele>1072</ele>
        <time>2021-07-17T16:56:03Z</time>
      </trkpt>
      <trkpt lat="45.76559" lon="2.95931">
        <ele>1072</ele>
        <time>2021-07-17T16:56:04Z</time>
      </trkpt>
      <trkpt lat="45.76559" lon="2.95932">
        <ele>1072</ele>
        <time>2021-07-17T16:56:05Z</time>
      </trkpt>
      <trkpt lat="45.7656" lon="2.95934">
        <ele>1072</ele>
        <time>2021-07-17T16:56:06Z</time>
      </trkpt>
      <trkpt lat="45.76561" lon="2.95936">
        <ele>1072</ele>
        <time>2021-07-17T16:56:07Z</time>
      </trkpt>
      <trkpt lat="45.76561" lon="2.95937">
        <ele>1072</ele>
        <time>2021-07-17T16:56:08Z</time>
      </trkpt>
      <trkpt lat="45.76561" lon="2.95939">
        <ele>1072</ele>
        <time>2021-07-17T16:56:09Z</time>
      </trkpt>
      <trkpt lat="45.76562" lon="2.95941">
        <ele>1072</ele>
        <time>2021-07-17T16:56:10Z</time>
      </trkpt>
      <trkpt lat="45.76562" lon="2.95943">
        <ele>1072</ele>
        <time>2021-07-17T16:56:11Z</time>
      </trkpt>
      <trkpt lat="45.76562" lon="2.95945">
        <ele>1072</ele>
        <time>2021-07-17T16:56:12Z</time>
      </trkpt>
      <trkpt lat="45.76563" lon="2.95948">
        <ele>1072</ele>
        <time>2021-07-17T16:56:13Z</time>
      </trkpt>
      <trkpt lat="45.76563" lon="2.9595">
        <ele>1072</ele>
        <time>2021-07-17T16:56:14Z</time>
      </trkpt>
      <trkpt lat="45.76563" lon="2.95951">
        <ele>1072</ele>
        <time>2021-07-17T16:56:15Z</time>
      </trkpt>
      <trkpt lat="45.76563" lon="2.95953">
        <ele>1072</ele>
        <time>2021-07-17T16:56:16Z</time>
      </trkpt>
      <trkpt lat="45.76563" lon="2.95955">
        <ele>1072</ele>
        <time>2021-07-17T16:56:17Z</time>
      </trkpt>
      <trkpt lat="45.76563" lon="2.95957">
        <ele>1072</ele>
        <time>2021-07-17T16:56:18Z</time>
      </trkpt>
      <trkpt lat="45.76563" lon="2.95959">
        <ele>1072</ele>
        <time>2021-07-17T16:56:19Z</time>
      </trkpt>
      <trkpt lat="45.76563" lon="2.9596">
        <ele>1072</ele>
        <time>2021-07-17T16:56:20Z</time>
      </trkpt>
      <trkpt lat="45.76563" lon="2.95962">
        <ele>1072</ele>
        <time>2021-07-17T16:56:21Z</time>
      </trkpt>
      <trkpt lat="45.76563" lon="2.95964">
        <ele>1072</ele>
        <time>2021-07-17T16:56:22Z</time>
      </trkpt>
      <trkpt lat="45.76562" lon="2.95966">
        <ele>1072</ele>
        <time>2021-07-17T16:56:23Z</time>
      </trkpt>
      <trkpt lat="45.76562" lon="2.95968">
        <ele>1072</ele>
        <time>2021-07-17T16:56:24Z</time>
      </trkpt>
      <trkpt lat="45.76561" lon="2.9597">
        <ele>1072</ele>
        <time>2021-07-17T16:56:25Z</time>
      </trkpt>
      <trkpt lat="45.76561" lon="2.95972">
        <ele>1072</ele>
        <time>2021-07-17T16:56:26Z</time>
      </trkpt>
      <trkpt lat="45.76561" lon="2.95974">
        <ele>1072</ele>
        <time>2021-07-17T16:56:27Z</time>
      </trkpt>
      <trkpt lat="45.7656" lon="2.95976">
        <ele>1072</ele>
        <time>2021-07-17T16:56:28Z</time>
      </trkpt>
      <trkpt lat="45.7656" lon="2.95978">
        <ele>1072</ele>
        <time>2021-07-17T16:56:29Z</time>
      </trkpt>
      <trkpt lat="45.76559" lon="2.9598">
        <ele>1072</ele>
        <time>2021-07-17T16:56:30Z</time>
      </trkpt>
      <trkpt lat="45.76559" lon="2.95981">
        <ele>1072</ele>
        <time>2021-07-17T16:56:31Z</time>
      </trkpt>
      <trkpt lat="45.76559" lon="2.95983">
        <ele>1072</ele>
        <time>2021-07-17T16:56:32Z</time>
      </trkpt>
      <trkpt lat="45.76559" lon="2.95985">
        <ele>1072</ele>
        <time>2021-07-17T16:56:33Z</time>
      </trkpt>
      <trkpt lat="45.76559" lon="2.95987">
        <ele>1072</ele>
        <time>2021-07-17T16:56:34Z</time>
      </trkpt>
      <trkpt lat="45.76558" lon="2.95989">
        <ele>1072</ele>
        <time>2021-07-17T16:56:35Z</time>
      </trkpt>
      <trkpt lat="45.76558" lon="2.9599">
        <ele>1072</ele>
        <time>2021-07-17T16:56:36Z</time>
      </trkpt>
      <trkpt lat="45.76558" lon="2.95992">
        <ele>1072</ele>
        <time>2021-07-17T16:56:37Z</time>
      </trkpt>
      <trkpt lat="45.76557" lon="2.95994">
        <ele>1072</ele>
        <time>2021-07-17T16:56:38Z</time>
      </trkpt>
      <trkpt lat="45.76557" lon="2.95996">
        <ele>1072</ele>
        <time>2021-07-17T16:56:39Z</time>
      </trkpt>
      <trkpt lat="45.76556" lon="2.95998">
        <ele>1072</ele>
        <time>2021-07-17T16:56:40Z</time>
      </trkpt>
      <trkpt lat="45.76556" lon="2.96">
        <ele>1072</ele>
        <time>2021-07-17T16:56:41Z</time>
      </trkpt>
      <trkpt lat="45.76556" lon="2.96002">
        <ele>1072</ele>
        <time>2021-07-17T16:56:42Z</time>
      </trkpt>
      <trkpt lat="45.76555" lon="2.96004">
        <ele>1072</ele>
        <time>2021-07-17T16:56:43Z</time>
      </trkpt>
      <trkpt lat="45.76555" lon="2.96007">
        <ele>1072</ele>
        <time>2021-07-17T16:56:44Z</time>
      </trkpt>
      <trkpt lat="45.76554" lon="2.96009">
        <ele>1072</ele>
        <time>2021-07-17T16:56:45Z</time>
      </trkpt>
      <trkpt lat="45.76553" lon="2.96012">
        <ele>1072</ele>
        <time>2021-07-17T16:56:46Z</time>
      </trkpt>
      <trkpt lat="45.76553" lon="2.96014">
        <ele>1072</ele>
        <time>2021-07-17T16:56:47Z</time>
      </trkpt>
      <trkpt lat="45.76552" lon="2.96016">
        <ele>1072</ele>
        <time>2021-07-17T16:56:48Z</time>
      </trkpt>
      <trkpt lat="45.76551" lon="2.96019">
        <ele>1072</ele>
        <time>2021-07-17T16:56:49Z</time>
      </trkpt>
      <trkpt lat="45.76551" lon="2.96021">
        <ele>1072</ele>
        <time>2021-07-17T16:56:50Z</time>
      </trkpt>
      <trkpt lat="45.7655" lon="2.96023">
        <ele>1072</ele>
        <time>2021-07-17T16:56:51Z</time>
      </trkpt>
      <trkpt lat="45.7655" lon="2.96025">
        <ele>1072</ele>
        <time>2021-07-17T16:56:52Z</time>
      </trkpt>
      <trkpt lat="45.7655" lon="2.96027">
        <ele>1072</ele>
        <time>2021-07-17T16:56:53Z</time>
      </trkpt>
      <trkpt lat="45.7655" lon="2.96028">
        <ele>1072</ele>
        <time>2021-07-17T16:56:54Z</time>
      </trkpt>
      <trkpt lat="45.76549" lon="2.9603">
        <ele>1072</ele>
        <time>2021-07-17T16:56:55Z</time>
      </trkpt>
      <trkpt lat="45.76548" lon="2.96032">
        <ele>1072</ele>
        <time>2021-07-17T16:56:56Z</time>
      </trkpt>
      <trkpt lat="45.76548" lon="2.96033">
        <ele>1072</ele>
        <time>2021-07-17T16:56:57Z</time>
      </trkpt>
      <trkpt lat="45.76547" lon="2.96035">
        <ele>1072</ele>
        <time>2021-07-17T16:56:58Z</time>
      </trkpt>
      <trkpt lat="45.76547" lon="2.96037">
        <ele>1072</ele>
        <time>2021-07-17T16:56:59Z</time>
      </trkpt>
      <trkpt lat="45.76547" lon="2.96039">
        <ele>1072</ele>
        <time>2021-07-17T16:57:00Z</time>
      </trkpt>
      <trkpt lat="45.76547" lon="2.96041">
        <ele>1072</ele>
        <time>2021-07-17T16:57:01Z</time>
      </trkpt>
      <trkpt lat="45.76547" lon="2.96043">
        <ele>1072</ele>
        <time>2021-07-17T16:57:02Z</time>
      </trkpt>
      <trkpt lat="45.76547" lon="2.96045">
        <ele>1072</ele>
        <time>2021-07-17T16:57:03Z</time>
      </trkpt>
      <trkpt lat="45.76546" lon="2.96047">
        <ele>1072</ele>
        <time>2021-07-17T16:57:04Z</time>
      </trkpt>
      <trkpt lat="45.76546" lon="2.96049">
        <ele>1072</ele>
        <time>2021-07-17T16:57:05Z</time>
      </trkpt>
      <trkpt lat="45.76545" lon="2.96051">
        <ele>1072</ele>
        <time>2021-07-17T16:57:06Z</time>
      </trkpt>
      <trkpt lat="45.76545" lon="2.96053">
        <ele>1072</ele>
        <time>2021-07-17T16:57:07Z</time>
      </trkpt>
      <trkpt lat="45.76545" lon="2.96055">
        <ele>1072</ele>
        <time>2021-07-17T16:57:07Z</time>
      </trkpt>
      <trkpt lat="45.76545" lon="2.96057">
        <ele>1072</ele>
        <time>2021-07-17T16:57:08Z</time>
      </trkpt>
      <trkpt lat="45.76545" lon="2.96058">
        <ele>1072</ele>
        <time>2021-07-17T16:57:09Z</time>
      </trkpt>
      <trkpt lat="45.76546" lon="2.9606">
        <ele>1072</ele>
        <time>2021-07-17T16:57:10Z</time>
      </trkpt>
      <trkpt lat="45.76546" lon="2.96061">
        <ele>1072</ele>
        <time>2021-07-17T16:57:11Z</time>
      </trkpt>
      <trkpt lat="45.76546" lon="2.96062">
        <ele>1072</ele>
        <time>2021-07-17T16:57:12Z</time>
      </trkpt>
      <trkpt lat="45.76546" lon="2.96063">
        <ele>1072</ele>
        <time>2021-07-17T16:57:13Z</time>
      </trkpt>
      <trkpt lat="45.76547" lon="2.96064">
        <ele>1072</ele>
        <time>2021-07-17T16:57:14Z</time>
      </trkpt>
      <trkpt lat="45.76547" lon="2.96066">
        <ele>1072</ele>
        <time>2021-07-17T16:57:15Z</time>
      </trkpt>
      <trkpt lat="45.76547" lon="2.96067">
        <ele>1072</ele>
        <time>2021-07-17T16:57:16Z</time>
      </trkpt>
      <trkpt lat="45.76547" lon="2.96068">
        <ele>1072</ele>
        <time>2021-07-17T16:57:17Z</time>
      </trkpt>
      <trkpt lat="45.76547" lon="2.9607">
        <ele>1072</ele>
        <time>2021-07-17T16:57:18Z</time>
      </trkpt>
      <trkpt lat="45.76547" lon="2.96072">
        <ele>1072</ele>
        <time>2021-07-17T16:57:19Z</time>
      </trkpt>
      <trkpt lat="45.76547" lon="2.96073">
        <ele>1072</ele>
        <time>2021-07-17T16:57:20Z</time>
      </trkpt>
      <trkpt lat="45.76547" lon="2.96076">
        <ele>1072</ele>
        <time>2021-07-17T16:57:21Z</time>
      </trkpt>
      <trkpt lat="45.76547" lon="2.96078">
        <ele>1072</ele>
        <time>2021-07-17T16:57:22Z</time>
      </trkpt>
      <trkpt lat="45.76547" lon="2.9608">
        <ele>1072</ele>
        <time>2021-07-17T16:57:23Z</time>
      </trkpt>
      <trkpt lat="45.76547" lon="2.96082">
        <ele>1072</ele>
        <time>2021-07-17T16:57:24Z</time>
      </trkpt>
      <trkpt lat="45.76547" lon="2.96084">
        <ele>1072</ele>
        <time>2021-07-17T16:57:25Z</time>
      </trkpt>
      <trkpt lat="45.76547" lon="2.96087">
        <ele>1072</ele>
        <time>2021-07-17T16:57:26Z</time>
      </trkpt>
      <trkpt lat="45.76547" lon="2.96089">
        <ele>1072</ele>
        <time>2021-07-17T16:57:27Z</time>
      </trkpt>
      <trkpt lat="45.76547" lon="2.96092">
        <ele>1072</ele>
        <time>2021-07-17T16:57:28Z</time>
      </trkpt>
      <trkpt lat="45.76548" lon="2.96094">
        <ele>1072</ele>
        <time>2021-07-17T16:57:29Z</time>
      </trkpt>
      <trkpt lat="45.76548" lon="2.96096">
        <ele>1072</ele>
        <time>2021-07-17T16:57:30Z</time>
      </trkpt>
      <trkpt lat="45.76548" lon="2.96099">
        <ele>1072</ele>
        <time>2021-07-17T16:57:32Z</time>
      </trkpt>
      <trkpt lat="45.76547" lon="2.96109">
        <ele>1072</ele>
        <time>2021-07-17T16:57:33Z</time>
      </trkpt>
      <trkpt lat="45.76547" lon="2.96109">
        <ele>1072</ele>
        <time>2021-07-17T16:57:34Z</time>
      </trkpt>
      <trkpt lat="45.76547" lon="2.9611">
        <ele>1072</ele>
        <time>2021-07-17T16:57:35Z</time>
      </trkpt>
      <trkpt lat="45.76548" lon="2.96112">
        <ele>1072</ele>
        <time>2021-07-17T16:57:36Z</time>
      </trkpt>
      <trkpt lat="45.76548" lon="2.96114">
        <ele>1072</ele>
        <time>2021-07-17T16:57:37Z</time>
      </trkpt>
      <trkpt lat="45.76548" lon="2.96116">
        <ele>1072</ele>
        <time>2021-07-17T16:57:38Z</time>
      </trkpt>
      <trkpt lat="45.76548" lon="2.96118">
        <ele>1072</ele>
        <time>2021-07-17T16:57:39Z</time>
      </trkpt>
      <trkpt lat="45.76549" lon="2.9612">
        <ele>1072</ele>
        <time>2021-07-17T16:57:40Z</time>
      </trkpt>
      <trkpt lat="45.76549" lon="2.96122">
        <ele>1072</ele>
        <time>2021-07-17T16:57:41Z</time>
      </trkpt>
      <trkpt lat="45.7655" lon="2.96124">
        <ele>1072</ele>
        <time>2021-07-17T16:57:42Z</time>
      </trkpt>
      <trkpt lat="45.7655" lon="2.96127">
        <ele>1072</ele>
        <time>2021-07-17T16:57:43Z</time>
      </trkpt>
      <trkpt lat="45.7655" lon="2.96129">
        <ele>1072</ele>
        <time>2021-07-17T16:57:44Z</time>
      </trkpt>
      <trkpt lat="45.76551" lon="2.96131">
        <ele>1072</ele>
        <time>2021-07-17T16:57:45Z</time>
      </trkpt>
      <trkpt lat="45.76551" lon="2.96134">
        <ele>1072</ele>
        <time>2021-07-17T16:57:46Z</time>
      </trkpt>
      <trkpt lat="45.76552" lon="2.96136">
        <ele>1072</ele>
        <time>2021-07-17T16:57:47Z</time>
      </trkpt>
      <trkpt lat="45.76553" lon="2.96138">
        <ele>1072</ele>
        <time>2021-07-17T16:57:48Z</time>
      </trkpt>
      <trkpt lat="45.76553" lon="2.9614">
        <ele>1072</ele>
        <time>2021-07-17T16:57:49Z</time>
      </trkpt>
      <trkpt lat="45.76553" lon="2.96142">
        <ele>1072</ele>
        <time>2021-07-17T16:57:50Z</time>
      </trkpt>
      <trkpt lat="45.76554" lon="2.96144">
        <ele>1072</ele>
        <time>2021-07-17T16:57:51Z</time>
      </trkpt>
      <trkpt lat="45.76555" lon="2.96145">
        <ele>1072</ele>
        <time>2021-07-17T16:57:52Z</time>
      </trkpt>
      <trkpt lat="45.76555" lon="2.96147">
        <ele>1072</ele>
        <time>2021-07-17T16:57:53Z</time>
      </trkpt>
      <trkpt lat="45.76556" lon="2.96149">
        <ele>1072</ele>
        <time>2021-07-17T16:57:54Z</time>
      </trkpt>
      <trkpt lat="45.76556" lon="2.96151">
        <ele>1072</ele>
        <time>2021-07-17T16:57:55Z</time>
      </trkpt>
      <trkpt lat="45.76556" lon="2.96152">
        <ele>1072</ele>
        <time>2021-07-17T16:57:56Z</time>
      </trkpt>
      <trkpt lat="45.76558" lon="2.96154">
        <ele>1072</ele>
        <time>2021-07-17T16:57:57Z</time>
      </trkpt>
      <trkpt lat="45.76558" lon="2.96156">
        <ele>1072</ele>
        <time>2021-07-17T16:57:58Z</time>
      </trkpt>
      <trkpt lat="45.76559" lon="2.96158">
        <ele>1072</ele>
        <time>2021-07-17T16:57:59Z</time>
      </trkpt>
      <trkpt lat="45.76559" lon="2.9616">
        <ele>1072</ele>
        <time>2021-07-17T16:58:00Z</time>
      </trkpt>
      <trkpt lat="45.7656" lon="2.96162">
        <ele>1072</ele>
        <time>2021-07-17T16:58:01Z</time>
      </trkpt>
      <trkpt lat="45.76561" lon="2.96164">
        <ele>1072</ele>
        <time>2021-07-17T16:58:02Z</time>
      </trkpt>
      <trkpt lat="45.76561" lon="2.96166">
        <ele>1072</ele>
        <time>2021-07-17T16:58:03Z</time>
      </trkpt>
      <trkpt lat="45.76562" lon="2.96168">
        <ele>1072</ele>
        <time>2021-07-17T16:58:04Z</time>
      </trkpt>
      <trkpt lat="45.76563" lon="2.9617">
        <ele>1072</ele>
        <time>2021-07-17T16:58:05Z</time>
      </trkpt>
      <trkpt lat="45.76563" lon="2.96172">
        <ele>1072</ele>
        <time>2021-07-17T16:58:06Z</time>
      </trkpt>
      <trkpt lat="45.76564" lon="2.96174">
        <ele>1072</ele>
        <time>2021-07-17T16:58:07Z</time>
      </trkpt>
      <trkpt lat="45.76564" lon="2.96176">
        <ele>1072</ele>
        <time>2021-07-17T16:58:08Z</time>
      </trkpt>
      <trkpt lat="45.76565" lon="2.96177">
        <ele>1072</ele>
        <time>2021-07-17T16:58:09Z</time>
      </trkpt>
      <trkpt lat="45.76566" lon="2.96179">
        <ele>1072</ele>
        <time>2021-07-17T16:58:10Z</time>
      </trkpt>
      <trkpt lat="45.76567" lon="2.96181">
        <ele>1072</ele>
        <time>2021-07-17T16:58:11Z</time>
      </trkpt>
      <trkpt lat="45.76568" lon="2.96183">
        <ele>1072</ele>
        <time>2021-07-17T16:58:12Z</time>
      </trkpt>
      <trkpt lat="45.76568" lon="2.96185">
        <ele>1072</ele>
        <time>2021-07-17T16:58:13Z</time>
      </trkpt>
      <trkpt lat="45.76568" lon="2.96187">
        <ele>1072</ele>
        <time>2021-07-17T16:58:14Z</time>
      </trkpt>
      <trkpt lat="45.76569" lon="2.96189">
        <ele>1072</ele>
        <time>2021-07-17T16:58:15Z</time>
      </trkpt>
      <trkpt lat="45.76569" lon="2.96192">
        <ele>1072</ele>
        <time>2021-07-17T16:58:16Z</time>
      </trkpt>
      <trkpt lat="45.7657" lon="2.96194">
        <ele>1072</ele>
        <time>2021-07-17T16:58:17Z</time>
      </trkpt>
      <trkpt lat="45.76571" lon="2.96196">
        <ele>1072</ele>
        <time>2021-07-17T16:58:18Z</time>
      </trkpt>
      <trkpt lat="45.76571" lon="2.96198">
        <ele>1072</ele>
        <time>2021-07-17T16:58:19Z</time>
      </trkpt>
      <trkpt lat="45.76571" lon="2.962">
        <ele>1072</ele>
        <time>2021-07-17T16:58:20Z</time>
      </trkpt>
      <trkpt lat="45.76572" lon="2.96202">
        <ele>1072</ele>
        <time>2021-07-17T16:58:21Z</time>
      </trkpt>
      <trkpt lat="45.76572" lon="2.96203">
        <ele>1072</ele>
        <time>2021-07-17T16:58:22Z</time>
      </trkpt>
      <trkpt lat="45.76573" lon="2.96205">
        <ele>1072</ele>
        <time>2021-07-17T16:58:23Z</time>
      </trkpt>
      <trkpt lat="45.76573" lon="2.96206">
        <ele>1072</ele>
        <time>2021-07-17T16:58:24Z</time>
      </trkpt>
      <trkpt lat="45.76574" lon="2.96207">
        <ele>1072</ele>
        <time>2021-07-17T16:58:25Z</time>
      </trkpt>
      <trkpt lat="45.76574" lon="2.96209">
        <ele>1072</ele>
        <time>2021-07-17T16:58:26Z</time>
      </trkpt>
      <trkpt lat="45.76575" lon="2.96211">
        <ele>1072</ele>
        <time>2021-07-17T16:58:27Z</time>
      </trkpt>
      <trkpt lat="45.76576" lon="2.96212">
        <ele>1072</ele>
        <time>2021-07-17T16:58:28Z</time>
      </trkpt>
      <trkpt lat="45.76577" lon="2.96214">
        <ele>1072</ele>
        <time>2021-07-17T16:58:29Z</time>
      </trkpt>
      <trkpt lat="45.76577" lon="2.96216">
        <ele>1072</ele>
        <time>2021-07-17T16:58:30Z</time>
      </trkpt>
      <trkpt lat="45.76579" lon="2.96218">
        <ele>1072</ele>
        <time>2021-07-17T16:58:31Z</time>
      </trkpt>
      <trkpt lat="45.7658" lon="2.9622">
        <ele>1072</ele>
        <time>2021-07-17T16:58:34Z</time>
      </trkpt>
      <trkpt lat="45.76586" lon="2.96229">
        <ele>1072</ele>
        <time>2021-07-17T16:58:35Z</time>
      </trkpt>
      <trkpt lat="45.76587" lon="2.96229">
        <ele>1072</ele>
        <time>2021-07-17T16:58:36Z</time>
      </trkpt>
      <trkpt lat="45.76587" lon="2.96229">
        <ele>1072</ele>
        <time>2021-07-17T16:58:37Z</time>
      </trkpt>
      <trkpt lat="45.76588" lon="2.9623">
        <ele>1072</ele>
        <time>2021-07-17T16:58:38Z</time>
      </trkpt>
      <trkpt lat="45.76589" lon="2.96231">
        <ele>1072</ele>
        <time>2021-07-17T16:58:39Z</time>
      </trkpt>
      <trkpt lat="45.7659" lon="2.96232">
        <ele>1072</ele>
        <time>2021-07-17T16:58:40Z</time>
      </trkpt>
      <trkpt lat="45.76591" lon="2.96234">
        <ele>1072</ele>
        <time>2021-07-17T16:58:41Z</time>
      </trkpt>
      <trkpt lat="45.76592" lon="2.96235">
        <ele>1072</ele>
        <time>2021-07-17T16:58:42Z</time>
      </trkpt>
      <trkpt lat="45.76593" lon="2.96237">
        <ele>1072</ele>
        <time>2021-07-17T16:58:43Z</time>
      </trkpt>
      <trkpt lat="45.76595" lon="2.96238">
        <ele>1072</ele>
        <time>2021-07-17T16:58:44Z</time>
      </trkpt>
      <trkpt lat="45.76595" lon="2.9624">
        <ele>1072</ele>
        <time>2021-07-17T16:58:45Z</time>
      </trkpt>
      <trkpt lat="45.76597" lon="2.96241">
        <ele>1072</ele>
        <time>2021-07-17T16:58:46Z</time>
      </trkpt>
      <trkpt lat="45.76598" lon="2.96243">
        <ele>1072</ele>
        <time>2021-07-17T16:58:47Z</time>
      </trkpt>
      <trkpt lat="45.76599" lon="2.96244">
        <ele>1072</ele>
        <time>2021-07-17T16:58:48Z</time>
      </trkpt>
      <trkpt lat="45.76601" lon="2.96245">
        <ele>1072</ele>
        <time>2021-07-17T16:58:49Z</time>
      </trkpt>
      <trkpt lat="45.76602" lon="2.96246">
        <ele>1072</ele>
        <time>2021-07-17T16:58:50Z</time>
      </trkpt>
      <trkpt lat="45.76603" lon="2.96247">
        <ele>1072</ele>
        <time>2021-07-17T16:58:51Z</time>
      </trkpt>
      <trkpt lat="45.76605" lon="2.96248">
        <ele>1072</ele>
        <time>2021-07-17T16:58:52Z</time>
      </trkpt>
      <trkpt lat="45.76606" lon="2.96249">
        <ele>1072</ele>
        <time>2021-07-17T16:58:53Z</time>
      </trkpt>
      <trkpt lat="45.76608" lon="2.9625">
        <ele>1072</ele>
        <time>2021-07-17T16:58:54Z</time>
      </trkpt>
      <trkpt lat="45.76609" lon="2.96252">
        <ele>1072</ele>
        <time>2021-07-17T16:58:55Z</time>
      </trkpt>
      <trkpt lat="45.7661" lon="2.96253">
        <ele>1072</ele>
        <time>2021-07-17T16:58:56Z</time>
      </trkpt>
      <trkpt lat="45.76612" lon="2.96254">
        <ele>1072</ele>
        <time>2021-07-17T16:58:57Z</time>
      </trkpt>
      <trkpt lat="45.76613" lon="2.96255">
        <ele>1072</ele>
        <time>2021-07-17T16:58:58Z</time>
      </trkpt>
      <trkpt lat="45.76614" lon="2.96256">
        <ele>1072</ele>
        <time>2021-07-17T16:58:59Z</time>
      </trkpt>
      <trkpt lat="45.76616" lon="2.96257">
        <ele>1072</ele>
        <time>2021-07-17T16:59:00Z</time>
      </trkpt>
      <trkpt lat="45.76617" lon="2.96258">
        <ele>1072</ele>
        <time>2021-07-17T16:59:01Z</time>
      </trkpt>
      <trkpt lat="45.76618" lon="2.96259">
        <ele>1072</ele>
        <time>2021-07-17T16:59:02Z</time>
      </trkpt>
      <trkpt lat="45.76619" lon="2.96261">
        <ele>1072</ele>
        <time>2021-07-17T16:59:03Z</time>
      </trkpt>
      <trkpt lat="45.76621" lon="2.96262">
        <ele>1072</ele>
        <time>2021-07-17T16:59:04Z</time>
      </trkpt>
      <trkpt lat="45.76621" lon="2.96264">
        <ele>1072</ele>
        <time>2021-07-17T16:59:05Z</time>
      </trkpt>
      <trkpt lat="45.76622" lon="2.96265">
        <ele>1072</ele>
        <time>2021-07-17T16:59:06Z</time>
      </trkpt>
      <trkpt lat="45.76623" lon="2.96267">
        <ele>1072</ele>
        <time>2021-07-17T16:59:07Z</time>
      </trkpt>
      <trkpt lat="45.76624" lon="2.96268">
        <ele>1072</ele>
        <time>2021-07-17T16:59:08Z</time>
      </trkpt>
      <trkpt lat="45.76625" lon="2.9627">
        <ele>1072</ele>
        <time>2021-07-17T16:59:09Z</time>
      </trkpt>
      <trkpt lat="45.76626" lon="2.96271">
        <ele>1072</ele>
        <time>2021-07-17T16:59:10Z</time>
      </trkpt>
      <trkpt lat="45.76627" lon="2.96273">
        <ele>1072</ele>
        <time>2021-07-17T16:59:11Z</time>
      </trkpt>
      <trkpt lat="45.76628" lon="2.96274">
        <ele>1072</ele>
        <time>2021-07-17T16:59:12Z</time>
      </trkpt>
      <trkpt lat="45.76629" lon="2.96275">
        <ele>1072</ele>
        <time>2021-07-17T16:59:13Z</time>
      </trkpt>
      <trkpt lat="45.76631" lon="2.96276">
        <ele>1072</ele>
        <time>2021-07-17T16:59:14Z</time>
      </trkpt>
      <trkpt lat="45.76632" lon="2.96277">
        <ele>1072</ele>
        <time>2021-07-17T16:59:15Z</time>
      </trkpt>
      <trkpt lat="45.76634" lon="2.96278">
        <ele>1072</ele>
        <time>2021-07-17T16:59:16Z</time>
      </trkpt>
      <trkpt lat="45.76635" lon="2.96279">
        <ele>1072</ele>
        <time>2021-07-17T16:59:17Z</time>
      </trkpt>
      <trkpt lat="45.76637" lon="2.9628">
        <ele>1072</ele>
        <time>2021-07-17T16:59:18Z</time>
      </trkpt>
      <trkpt lat="45.76639" lon="2.96281">
        <ele>1072</ele>
        <time>2021-07-17T16:59:19Z</time>
      </trkpt>
      <trkpt lat="45.7664" lon="2.96281">
        <ele>1072</ele>
        <time>2021-07-17T16:59:20Z</time>
      </trkpt>
      <trkpt lat="45.76642" lon="2.96282">
        <ele>1072</ele>
        <time>2021-07-17T16:59:21Z</time>
      </trkpt>
      <trkpt lat="45.76643" lon="2.96283">
        <ele>1072</ele>
        <time>2021-07-17T16:59:22Z</time>
      </trkpt>
      <trkpt lat="45.76645" lon="2.96284">
        <ele>1072</ele>
        <time>2021-07-17T16:59:23Z</time>
      </trkpt>
      <trkpt lat="45.76646" lon="2.96284">
        <ele>1072</ele>
        <time>2021-07-17T16:59:24Z</time>
      </trkpt>
      <trkpt lat="45.76648" lon="2.96285">
        <ele>1072</ele>
        <time>2021-07-17T16:59:25Z</time>
      </trkpt>
      <trkpt lat="45.76649" lon="2.96285">
        <ele>1072</ele>
        <time>2021-07-17T16:59:26Z</time>
      </trkpt>
      <trkpt lat="45.76651" lon="2.96286">
        <ele>1072</ele>
        <time>2021-07-17T16:59:27Z</time>
      </trkpt>
      <trkpt lat="45.76652" lon="2.96287">
        <ele>1072</ele>
        <time>2021-07-17T16:59:28Z</time>
      </trkpt>
      <trkpt lat="45.76654" lon="2.96288">
        <ele>1072</ele>
        <time>2021-07-17T16:59:29Z</time>
      </trkpt>
      <trkpt lat="45.76655" lon="2.96289">
        <ele>1072</ele>
        <time>2021-07-17T16:59:30Z</time>
      </trkpt>
      <trkpt lat="45.76657" lon="2.9629">
        <ele>1072</ele>
        <time>2021-07-17T16:59:31Z</time>
      </trkpt>
      <trkpt lat="45.76658" lon="2.96291">
        <ele>1072</ele>
        <time>2021-07-17T16:59:32Z</time>
      </trkpt>
      <trkpt lat="45.76659" lon="2.96292">
        <ele>1072</ele>
        <time>2021-07-17T16:59:33Z</time>
      </trkpt>
      <trkpt lat="45.76661" lon="2.96293">
        <ele>1072</ele>
        <time>2021-07-17T16:59:34Z</time>
      </trkpt>
      <trkpt lat="45.76662" lon="2.96293">
        <ele>1072</ele>
        <time>2021-07-17T16:59:35Z</time>
      </trkpt>
      <trkpt lat="45.76664" lon="2.96294">
        <ele>1072</ele>
        <time>2021-07-17T16:59:36Z</time>
      </trkpt>
      <trkpt lat="45.76665" lon="2.96295">
        <ele>1072</ele>
        <time>2021-07-17T16:59:37Z</time>
      </trkpt>
      <trkpt lat="45.76667" lon="2.96296">
        <ele>1072</ele>
        <time>2021-07-17T16:59:38Z</time>
      </trkpt>
      <trkpt lat="45.76669" lon="2.96296">
        <ele>1072</ele>
        <time>2021-07-17T16:59:39Z</time>
      </trkpt>
      <trkpt lat="45.7667" lon="2.96297">
        <ele>1072</ele>
        <time>2021-07-17T16:59:40Z</time>
      </trkpt>
      <trkpt lat="45.76672" lon="2.96298">
        <ele>1072</ele>
        <time>2021-07-17T16:59:41Z</time>
      </trkpt>
      <trkpt lat="45.76674" lon="2.96298">
        <ele>1072</ele>
        <time>2021-07-17T16:59:42Z</time>
      </trkpt>
      <trkpt lat="45.76675" lon="2.96298">
        <ele>1072</ele>
        <time>2021-07-17T16:59:43Z</time>
      </trkpt>
      <trkpt lat="45.76677" lon="2.96299">
        <ele>1072</ele>
        <time>2021-07-17T16:59:44Z</time>
      </trkpt>
      <trkpt lat="45.76679" lon="2.96299">
        <ele>1072</ele>
        <time>2021-07-17T16:59:45Z</time>
      </trkpt>
      <trkpt lat="45.7668" lon="2.96299">
        <ele>1072</ele>
        <time>2021-07-17T16:59:46Z</time>
      </trkpt>
      <trkpt lat="45.76682" lon="2.963">
        <ele>1072</ele>
        <time>2021-07-17T16:59:47Z</time>
      </trkpt>
      <trkpt lat="45.76683" lon="2.963">
        <ele>1072</ele>
        <time>2021-07-17T16:59:48Z</time>
      </trkpt>
      <trkpt lat="45.76685" lon="2.963">
        <ele>1072</ele>
        <time>2021-07-17T16:59:49Z</time>
      </trkpt>
      <trkpt lat="45.76686" lon="2.963">
        <ele>1072</ele>
        <time>2021-07-17T16:59:50Z</time>
      </trkpt>
      <trkpt lat="45.76688" lon="2.963">
        <ele>1072</ele>
        <time>2021-07-17T16:59:51Z</time>
      </trkpt>
      <trkpt lat="45.76689" lon="2.963">
        <ele>1072</ele>
        <time>2021-07-17T16:59:52Z</time>
      </trkpt>
      <trkpt lat="45.76691" lon="2.963">
        <ele>1072</ele>
        <time>2021-07-17T16:59:53Z</time>
      </trkpt>
      <trkpt lat="45.76692" lon="2.963">
        <ele>1072</ele>
        <time>2021-07-17T16:59:54Z</time>
      </trkpt>
      <trkpt lat="45.76694" lon="2.963">
        <ele>1072</ele>
        <time>2021-07-17T16:59:55Z</time>
      </trkpt>
      <trkpt lat="45.76695" lon="2.963">
        <ele>1072</ele>
        <time>2021-07-17T16:59:56Z</time>
      </trkpt>
      <trkpt lat="45.76697" lon="2.96301">
        <ele>1072</ele>
        <time>2021-07-17T16:59:57Z</time>
      </trkpt>
      <trkpt lat="45.76699" lon="2.96301">
        <ele>1072</ele>
        <time>2021-07-17T16:59:58Z</time>
      </trkpt>
      <trkpt lat="45.76701" lon="2.96302">
        <ele>1072</ele>
        <time>2021-07-17T16:59:59Z</time>
      </trkpt>
      <trkpt lat="45.76702" lon="2.96302">
        <ele>1072</ele>
        <time>2021-07-17T17:00:00Z</time>
      </trkpt>
      <trkpt lat="45.76703" lon="2.96302">
        <ele>1072</ele>
        <time>2021-07-17T17:00:01Z</time>
      </trkpt>
      <trkpt lat="45.76704" lon="2.96303">
        <ele>1072</ele>
        <time>2021-07-17T17:00:02Z</time>
      </trkpt>
      <trkpt lat="45.76706" lon="2.96303">
        <ele>1072</ele>
        <time>2021-07-17T17:00:03Z</time>
      </trkpt>
      <trkpt lat="45.76708" lon="2.96303">
        <ele>1072</ele>
        <time>2021-07-17T17:00:04Z</time>
      </trkpt>
      <trkpt lat="45.7671" lon="2.96303">
        <ele>1072</ele>
        <time>2021-07-17T17:00:05Z</time>
      </trkpt>
      <trkpt lat="45.76711" lon="2.96303">
        <ele>1072</ele>
        <time>2021-07-17T17:00:06Z</time>
      </trkpt>
      <trkpt lat="45.76713" lon="2.96303">
        <ele>1072</ele>
        <time>2021-07-17T17:00:07Z</time>
      </trkpt>
      <trkpt lat="45.76715" lon="2.96303">
        <ele>1072</ele>
        <time>2021-07-17T17:00:08Z</time>
      </trkpt>
      <trkpt lat="45.76716" lon="2.96303">
        <ele>1072</ele>
        <time>2021-07-17T17:00:09Z</time>
      </trkpt>
      <trkpt lat="45.76718" lon="2.96303">
        <ele>1072</ele>
        <time>2021-07-17T17:00:10Z</time>
      </trkpt>
      <trkpt lat="45.76719" lon="2.96302">
        <ele>1072</ele>
        <time>2021-07-17T17:00:11Z</time>
      </trkpt>
      <trkpt lat="45.76722" lon="2.96302">
        <ele>1072</ele>
        <time>2021-07-17T17:00:12Z</time>
      </trkpt>
      <trkpt lat="45.76723" lon="2.96301">
        <ele>1072</ele>
        <time>2021-07-17T17:00:13Z</time>
      </trkpt>
      <trkpt lat="45.76725" lon="2.963">
        <ele>1072</ele>
        <time>2021-07-17T17:00:14Z</time>
      </trkpt>
      <trkpt lat="45.76726" lon="2.96299">
        <ele>1072</ele>
        <time>2021-07-17T17:00:15Z</time>
      </trkpt>
      <trkpt lat="45.76728" lon="2.96298">
        <ele>1072</ele>
        <time>2021-07-17T17:00:16Z</time>
      </trkpt>
      <trkpt lat="45.7673" lon="2.96297">
        <ele>1072</ele>
        <time>2021-07-17T17:00:17Z</time>
      </trkpt>
      <trkpt lat="45.76732" lon="2.96296">
        <ele>1072</ele>
        <time>2021-07-17T17:00:18Z</time>
      </trkpt>
      <trkpt lat="45.76734" lon="2.96296">
        <ele>1072</ele>
        <time>2021-07-17T17:00:19Z</time>
      </trkpt>
      <trkpt lat="45.76736" lon="2.96295">
        <ele>1072</ele>
        <time>2021-07-17T17:00:20Z</time>
      </trkpt>
      <trkpt lat="45.76737" lon="2.96294">
        <ele>1072</ele>
        <time>2021-07-17T17:00:21Z</time>
      </trkpt>
      <trkpt lat="45.7674" lon="2.96293">
        <ele>1072</ele>
        <time>2021-07-17T17:00:22Z</time>
      </trkpt>
      <trkpt lat="45.7674" lon="2.96292">
        <ele>1072</ele>
        <time>2021-07-17T17:00:23Z</time>
      </trkpt>
      <trkpt lat="45.76742" lon="2.96291">
        <ele>1072</ele>
        <time>2021-07-17T17:00:24Z</time>
      </trkpt>
      <trkpt lat="45.76743" lon="2.9629">
        <ele>1072</ele>
        <time>2021-07-17T17:00:25Z</time>
      </trkpt>
      <trkpt lat="45.76745" lon="2.96289">
        <ele>1072</ele>
        <time>2021-07-17T17:00:26Z</time>
      </trkpt>
      <trkpt lat="45.76746" lon="2.96288">
        <ele>1072</ele>
        <time>2021-07-17T17:00:27Z</time>
      </trkpt>
      <trkpt lat="45.76747" lon="2.96287">
        <ele>1072</ele>
        <time>2021-07-17T17:00:28Z</time>
      </trkpt>
      <trkpt lat="45.76748" lon="2.96286">
        <ele>1072</ele>
        <time>2021-07-17T17:00:29Z</time>
      </trkpt>
      <trkpt lat="45.76749" lon="2.96284">
        <ele>1072</ele>
        <time>2021-07-17T17:00:30Z</time>
      </trkpt>
      <trkpt lat="45.76751" lon="2.96283">
        <ele>1072</ele>
        <time>2021-07-17T17:00:31Z</time>
      </trkpt>
      <trkpt lat="45.76752" lon="2.96281">
        <ele>1072</ele>
        <time>2021-07-17T17:00:32Z</time>
      </trkpt>
      <trkpt lat="45.76753" lon="2.9628">
        <ele>1072</ele>
        <time>2021-07-17T17:00:33Z</time>
      </trkpt>
      <trkpt lat="45.76754" lon="2.96279">
        <ele>1072</ele>
        <time>2021-07-17T17:00:34Z</time>
      </trkpt>
      <trkpt lat="45.76756" lon="2.96277">
        <ele>1072</ele>
        <time>2021-07-17T17:00:35Z</time>
      </trkpt>
      <trkpt lat="45.76757" lon="2.96276">
        <ele>1072</ele>
        <time>2021-07-17T17:00:36Z</time>
      </trkpt>
      <trkpt lat="45.76758" lon="2.96274">
        <ele>1072</ele>
        <time>2021-07-17T17:00:37Z</time>
      </trkpt>
      <trkpt lat="45.76759" lon="2.96273">
        <ele>1072</ele>
        <time>2021-07-17T17:00:38Z</time>
      </trkpt>
      <trkpt lat="45.76761" lon="2.96271">
        <ele>1072</ele>
        <time>2021-07-17T17:00:39Z</time>
      </trkpt>
      <trkpt lat="45.76762" lon="2.96269">
        <ele>1072</ele>
        <time>2021-07-17T17:00:40Z</time>
      </trkpt>
      <trkpt lat="45.76764" lon="2.96268">
        <ele>1072</ele>
        <time>2021-07-17T17:00:41Z</time>
      </trkpt>
      <trkpt lat="45.76765" lon="2.96267">
        <ele>1072</ele>
        <time>2021-07-17T17:00:42Z</time>
      </trkpt>
      <trkpt lat="45.76767" lon="2.96266">
        <ele>1072</ele>
        <time>2021-07-17T17:00:43Z</time>
      </trkpt>
      <trkpt lat="45.76768" lon="2.96265">
        <ele>1072</ele>
        <time>2021-07-17T17:00:44Z</time>
      </trkpt>
      <trkpt lat="45.76769" lon="2.96264">
        <ele>1072</ele>
        <time>2021-07-17T17:00:45Z</time>
      </trkpt>
      <trkpt lat="45.7677" lon="2.96263">
        <ele>1072</ele>
        <time>2021-07-17T17:00:46Z</time>
      </trkpt>
      <trkpt lat="45.7677" lon="2.96262">
        <ele>1072</ele>
        <time>2021-07-17T17:00:47Z</time>
      </trkpt>
      <trkpt lat="45.76772" lon="2.9626">
        <ele>1072</ele>
        <time>2021-07-17T17:00:48Z</time>
      </trkpt>
      <trkpt lat="45.76773" lon="2.96259">
        <ele>1072</ele>
        <time>2021-07-17T17:00:49Z</time>
      </trkpt>
      <trkpt lat="45.76774" lon="2.96258">
        <ele>1072</ele>
        <time>2021-07-17T17:00:50Z</time>
      </trkpt>
      <trkpt lat="45.76775" lon="2.96257">
        <ele>1072</ele>
        <time>2021-07-17T17:00:51Z</time>
      </trkpt>
      <trkpt lat="45.76776" lon="2.96256">
        <ele>1072</ele>
        <time>2021-07-17T17:00:52Z</time>
      </trkpt>
      <trkpt lat="45.76777" lon="2.96255">
        <ele>1072</ele>
        <time>2021-07-17T17:00:53Z</time>
      </trkpt>
      <trkpt lat="45.76779" lon="2.96254">
        <ele>1072</ele>
        <time>2021-07-17T17:00:54Z</time>
      </trkpt>
      <trkpt lat="45.7678" lon="2.96253">
        <ele>1072</ele>
        <time>2021-07-17T17:00:55Z</time>
      </trkpt>
      <trkpt lat="45.76782" lon="2.96252">
        <ele>1072</ele>
        <time>2021-07-17T17:00:56Z</time>
      </trkpt>
      <trkpt lat="45.76783" lon="2.96251">
        <ele>1072</ele>
        <time>2021-07-17T17:00:57Z</time>
      </trkpt>
      <trkpt lat="45.76785" lon="2.9625">
        <ele>1072</ele>
        <time>2021-07-17T17:00:58Z</time>
      </trkpt>
      <trkpt lat="45.76786" lon="2.96249">
        <ele>1072</ele>
        <time>2021-07-17T17:00:59Z</time>
      </trkpt>
      <trkpt lat="45.76788" lon="2.96249">
        <ele>1072</ele>
        <time>2021-07-17T17:01:00Z</time>
      </trkpt>
      <trkpt lat="45.76791" lon="2.96248">
        <ele>1072</ele>
        <time>2021-07-17T17:01:01Z</time>
      </trkpt>
      <trkpt lat="45.76792" lon="2.96248">
        <ele>1072</ele>
        <time>2021-07-17T17:01:02Z</time>
      </trkpt>
      <trkpt lat="45.76794" lon="2.96248">
        <ele>1072</ele>
        <time>2021-07-17T17:01:03Z</time>
      </trkpt>
      <trkpt lat="45.76796" lon="2.96247">
        <ele>1072</ele>
        <time>2021-07-17T17:01:04Z</time>
      </trkpt>
      <trkpt lat="45.76797" lon="2.96247">
        <ele>1072</ele>
        <time>2021-07-17T17:01:05Z</time>
      </trkpt>
      <trkpt lat="45.76799" lon="2.96246">
        <ele>1072</ele>
        <time>2021-07-17T17:01:06Z</time>
      </trkpt>
      <trkpt lat="45.76801" lon="2.96246">
        <ele>1072</ele>
        <time>2021-07-17T17:01:07Z</time>
      </trkpt>
      <trkpt lat="45.76803" lon="2.96246">
        <ele>1072</ele>
        <time>2021-07-17T17:01:08Z</time>
      </trkpt>
      <trkpt lat="45.76805" lon="2.96246">
        <ele>1072</ele>
        <time>2021-07-17T17:01:09Z</time>
      </trkpt>
      <trkpt lat="45.76807" lon="2.96246">
        <ele>1072</ele>
        <time>2021-07-17T17:01:10Z</time>
      </trkpt>
      <trkpt lat="45.76809" lon="2.96245">
        <ele>1072</ele>
        <time>2021-07-17T17:01:11Z</time>
      </trkpt>
      <trkpt lat="45.7681" lon="2.96245">
        <ele>1072</ele>
        <time>2021-07-17T17:01:12Z</time>
      </trkpt>
      <trkpt lat="45.76812" lon="2.96245">
        <ele>1072</ele>
        <time>2021-07-17T17:01:13Z</time>
      </trkpt>
      <trkpt lat="45.76813" lon="2.96245">
        <ele>1072</ele>
        <time>2021-07-17T17:01:14Z</time>
      </trkpt>
      <trkpt lat="45.76815" lon="2.96245">
        <ele>1072</ele>
        <time>2021-07-17T17:01:15Z</time>
      </trkpt>
      <trkpt lat="45.76816" lon="2.96245">
        <ele>1072</ele>
        <time>2021-07-17T17:01:16Z</time>
      </trkpt>
      <trkpt lat="45.76817" lon="2.96245">
        <ele>1072</ele>
        <time>2021-07-17T17:01:17Z</time>
      </trkpt>
      <trkpt lat="45.76819" lon="2.96245">
        <ele>1072</ele>
        <time>2021-07-17T17:01:18Z</time>
      </trkpt>
      <trkpt lat="45.76821" lon="2.96245">
        <ele>1072</ele>
        <time>2021-07-17T17:01:19Z</time>
      </trkpt>
      <trkpt lat="45.76822" lon="2.96245">
        <ele>1072</ele>
        <time>2021-07-17T17:01:20Z</time>
      </trkpt>
      <trkpt lat="45.76824" lon="2.96245">
        <ele>1072</ele>
        <time>2021-07-17T17:01:21Z</time>
      </trkpt>
      <trkpt lat="45.76826" lon="2.96245">
        <ele>1072</ele>
        <time>2021-07-17T17:01:22Z</time>
      </trkpt>
      <trkpt lat="45.76827" lon="2.96245">
        <ele>1072</ele>
        <time>2021-07-17T17:01:22Z</time>
      </trkpt>
      <trkpt lat="45.76829" lon="2.96245">
        <ele>1072</ele>
        <time>2021-07-17T17:01:23Z</time>
      </trkpt>
      <trkpt lat="45.7683" lon="2.96245">
        <ele>1072</ele>
        <time>2021-07-17T17:01:24Z</time>
      </trkpt>
      <trkpt lat="45.76831" lon="2.96244">
        <ele>1072</ele>
        <time>2021-07-17T17:01:25Z</time>
      </trkpt>
      <trkpt lat="45.76833" lon="2.96244">
        <ele>1072</ele>
        <time>2021-07-17T17:01:26Z</time>
      </trkpt>
      <trkpt lat="45.76834" lon="2.96244">
        <ele>1072</ele>
        <time>2021-07-17T17:01:27Z</time>
      </trkpt>
      <trkpt lat="45.76835" lon="2.96244">
        <ele>1072</ele>
        <time>2021-07-17T17:01:28Z</time>
      </trkpt>
      <trkpt lat="45.76836" lon="2.96244">
        <ele>1072</ele>
        <time>2021-07-17T17:01:29Z</time>
      </trkpt>
      <trkpt lat="45.76837" lon="2.96245">
        <ele>1072</ele>
        <time>2021-07-17T17:01:30Z</time>
      </trkpt>
      <trkpt lat="45.76838" lon="2.96246">
        <ele>1072</ele>
        <time>2021-07-17T17:01:31Z</time>
      </trkpt>
      <trkpt lat="45.76838" lon="2.96246">
        <ele>1072</ele>
        <time>2021-07-17T17:01:32Z</time>
      </trkpt>
      <trkpt lat="45.76839" lon="2.96248">
        <ele>1072</ele>
        <time>2021-07-17T17:01:33Z</time>
      </trkpt>
      <trkpt lat="45.76839" lon="2.96249">
        <ele>1072</ele>
        <time>2021-07-17T17:01:34Z</time>
      </trkpt>
      <trkpt lat="45.76839" lon="2.9625">
        <ele>1072</ele>
        <time>2021-07-17T17:01:35Z</time>
      </trkpt>
      <trkpt lat="45.76839" lon="2.96251">
        <ele>1072</ele>
        <time>2021-07-17T17:01:36Z</time>
      </trkpt>
      <trkpt lat="45.76839" lon="2.96252">
        <ele>1072</ele>
        <time>2021-07-17T17:01:37Z</time>
      </trkpt>
      <trkpt lat="45.7684" lon="2.96252">
        <ele>1072</ele>
        <time>2021-07-17T17:01:38Z</time>
      </trkpt>
      <trkpt lat="45.7684" lon="2.96253">
        <ele>1072</ele>
        <time>2021-07-17T17:01:39Z</time>
      </trkpt>
      <trkpt lat="45.7684" lon="2.96254">
        <ele>1072</ele>
        <time>2021-07-17T17:01:40Z</time>
      </trkpt>
      <trkpt lat="45.7684" lon="2.96254">
        <ele>1072</ele>
        <time>2021-07-17T17:02:32Z</time>
      </trkpt>
      <trkpt lat="45.7684" lon="2.96252">
        <ele>1072</ele>
        <time>2021-07-17T17:02:33Z</time>
      </trkpt>
      <trkpt lat="45.7684" lon="2.96252">
        <ele>1072</ele>
        <time>2021-07-17T17:02:34Z</time>
      </trkpt>
      <trkpt lat="45.7684" lon="2.96251">
        <ele>1072</ele>
        <time>2021-07-17T17:02:35Z</time>
      </trkpt>
      <trkpt lat="45.7684" lon="2.96251">
        <ele>1072</ele>
        <time>2021-07-17T17:02:36Z</time>
      </trkpt>
      <trkpt lat="45.7684" lon="2.9625">
        <ele>1072</ele>
        <time>2021-07-17T17:02:37Z</time>
      </trkpt>
      <trkpt lat="45.7684" lon="2.96249">
        <ele>1072</ele>
        <time>2021-07-17T17:02:38Z</time>
      </trkpt>
      <trkpt lat="45.7684" lon="2.96248">
        <ele>1072</ele>
        <time>2021-07-17T17:02:39Z</time>
      </trkpt>
      <trkpt lat="45.7684" lon="2.96248">
        <ele>1072</ele>
        <time>2021-07-17T17:02:40Z</time>
      </trkpt>
      <trkpt lat="45.7684" lon="2.96247">
        <ele>1072</ele>
        <time>2021-07-17T17:02:41Z</time>
      </trkpt>
      <trkpt lat="45.7684" lon="2.96246">
        <ele>1072</ele>
        <time>2021-07-17T17:02:42Z</time>
      </trkpt>
      <trkpt lat="45.76839" lon="2.96245">
        <ele>1072</ele>
        <time>2021-07-17T17:02:43Z</time>
      </trkpt>
      <trkpt lat="45.76839" lon="2.96244">
        <ele>1072</ele>
        <time>2021-07-17T17:02:44Z</time>
      </trkpt>
      <trkpt lat="45.76838" lon="2.96243">
        <ele>1072</ele>
        <time>2021-07-17T17:02:45Z</time>
      </trkpt>
      <trkpt lat="45.76837" lon="2.96243">
        <ele>1072</ele>
        <time>2021-07-17T17:02:46Z</time>
      </trkpt>
      <trkpt lat="45.76836" lon="2.96242">
        <ele>1072</ele>
        <time>2021-07-17T17:02:47Z</time>
      </trkpt>
      <trkpt lat="45.76835" lon="2.96242">
        <ele>1072</ele>
        <time>2021-07-17T17:02:48Z</time>
      </trkpt>
      <trkpt lat="45.76834" lon="2.96242">
        <ele>1072</ele>
        <time>2021-07-17T17:02:49Z</time>
      </trkpt>
      <trkpt lat="45.76832" lon="2.96241">
        <ele>1072</ele>
        <time>2021-07-17T17:02:50Z</time>
      </trkpt>
      <trkpt lat="45.76831" lon="2.96241">
        <ele>1072</ele>
        <time>2021-07-17T17:02:51Z</time>
      </trkpt>
      <trkpt lat="45.7683" lon="2.96241">
        <ele>1072</ele>
        <time>2021-07-17T17:02:52Z</time>
      </trkpt>
      <trkpt lat="45.76828" lon="2.96241">
        <ele>1072</ele>
        <time>2021-07-17T17:02:53Z</time>
      </trkpt>
      <trkpt lat="45.76827" lon="2.96241">
        <ele>1072</ele>
        <time>2021-07-17T17:02:54Z</time>
      </trkpt>
      <trkpt lat="45.76825" lon="2.96241">
        <ele>1072</ele>
        <time>2021-07-17T17:02:55Z</time>
      </trkpt>
      <trkpt lat="45.76824" lon="2.96241">
        <ele>1072</ele>
        <time>2021-07-17T17:02:56Z</time>
      </trkpt>
      <trkpt lat="45.76823" lon="2.96241">
        <ele>1072</ele>
        <time>2021-07-17T17:02:57Z</time>
      </trkpt>
      <trkpt lat="45.76822" lon="2.96241">
        <ele>1072</ele>
        <time>2021-07-17T17:02:58Z</time>
      </trkpt>
      <trkpt lat="45.76821" lon="2.96241">
        <ele>1072</ele>
        <time>2021-07-17T17:02:59Z</time>
      </trkpt>
      <trkpt lat="45.7682" lon="2.96241">
        <ele>1072</ele>
        <time>2021-07-17T17:03:00Z</time>
      </trkpt>
      <trkpt lat="45.76818" lon="2.96241">
        <ele>1072</ele>
        <time>2021-07-17T17:03:01Z</time>
      </trkpt>
      <trkpt lat="45.76817" lon="2.96241">
        <ele>1072</ele>
        <time>2021-07-17T17:03:02Z</time>
      </trkpt>
      <trkpt lat="45.76816" lon="2.96242">
        <ele>1072</ele>
        <time>2021-07-17T17:03:03Z</time>
      </trkpt>
      <trkpt lat="45.76814" lon="2.96242">
        <ele>1072</ele>
        <time>2021-07-17T17:03:04Z</time>
      </trkpt>
      <trkpt lat="45.76812" lon="2.96242">
        <ele>1072</ele>
        <time>2021-07-17T17:03:05Z</time>
      </trkpt>
      <trkpt lat="45.76812" lon="2.96242">
        <ele>1072</ele>
        <time>2021-07-17T17:03:06Z</time>
      </trkpt>
      <trkpt lat="45.76811" lon="2.96242">
        <ele>1072</ele>
        <time>2021-07-17T17:03:07Z</time>
      </trkpt>
      <trkpt lat="45.7681" lon="2.96242">
        <ele>1072</ele>
        <time>2021-07-17T17:03:08Z</time>
      </trkpt>
      <trkpt lat="45.76809" lon="2.96242">
        <ele>1072</ele>
        <time>2021-07-17T17:03:09Z</time>
      </trkpt>
      <trkpt lat="45.76809" lon="2.96242">
        <ele>1072</ele>
        <time>2021-07-17T17:03:10Z</time>
      </trkpt>
      <trkpt lat="45.76808" lon="2.96242">
        <ele>1072</ele>
        <time>2021-07-17T17:03:11Z</time>
      </trkpt>
      <trkpt lat="45.76807" lon="2.96242">
        <ele>1072</ele>
        <time>2021-07-17T17:03:12Z</time>
      </trkpt>
      <trkpt lat="45.76806" lon="2.96242">
        <ele>1072</ele>
        <time>2021-07-17T17:03:13Z</time>
      </trkpt>
      <trkpt lat="45.76806" lon="2.96242">
        <ele>1072</ele>
        <time>2021-07-17T17:03:14Z</time>
      </trkpt>
      <trkpt lat="45.76804" lon="2.96242">
        <ele>1072</ele>
        <time>2021-07-17T17:03:15Z</time>
      </trkpt>
      <trkpt lat="45.76803" lon="2.96242">
        <ele>1072</ele>
        <time>2021-07-17T17:03:16Z</time>
      </trkpt>
      <trkpt lat="45.76802" lon="2.96242">
        <ele>1072</ele>
        <time>2021-07-17T17:03:17Z</time>
      </trkpt>
      <trkpt lat="45.76801" lon="2.96243">
        <ele>1072</ele>
        <time>2021-07-17T17:03:18Z</time>
      </trkpt>
      <trkpt lat="45.768" lon="2.96243">
        <ele>1072</ele>
        <time>2021-07-17T17:03:19Z</time>
      </trkpt>
      <trkpt lat="45.768" lon="2.96244">
        <ele>1072</ele>
        <time>2021-07-17T17:03:20Z</time>
      </trkpt>
      <trkpt lat="45.76799" lon="2.96245">
        <ele>1072</ele>
        <time>2021-07-17T17:03:21Z</time>
      </trkpt>
      <trkpt lat="45.76799" lon="2.96245">
        <ele>1072</ele>
        <time>2021-07-17T17:03:22Z</time>
      </trkpt>
      <trkpt lat="45.76799" lon="2.96246">
        <ele>1072</ele>
        <time>2021-07-17T17:03:23Z</time>
      </trkpt>
      <trkpt lat="45.76797" lon="2.96246">
        <ele>1072</ele>
        <time>2021-07-17T17:03:35Z</time>
      </trkpt>
      <trkpt lat="45.76797" lon="2.96246">
        <ele>1072</ele>
        <time>2021-07-17T17:03:36Z</time>
      </trkpt>
      <trkpt lat="45.76797" lon="2.96247">
        <ele>1072</ele>
        <time>2021-07-17T17:03:37Z</time>
      </trkpt>
      <trkpt lat="45.76796" lon="2.96247">
        <ele>1072</ele>
        <time>2021-07-17T17:03:38Z</time>
      </trkpt>
      <trkpt lat="45.76794" lon="2.96247">
        <ele>1072</ele>
        <time>2021-07-17T17:03:39Z</time>
      </trkpt>
      <trkpt lat="45.76793" lon="2.96247">
        <ele>1072</ele>
        <time>2021-07-17T17:03:40Z</time>
      </trkpt>
      <trkpt lat="45.76792" lon="2.96247">
        <ele>1072</ele>
        <time>2021-07-17T17:03:41Z</time>
      </trkpt>
      <trkpt lat="45.76791" lon="2.96248">
        <ele>1072</ele>
        <time>2021-07-17T17:03:42Z</time>
      </trkpt>
      <trkpt lat="45.76789" lon="2.96248">
        <ele>1072</ele>
        <time>2021-07-17T17:03:43Z</time>
      </trkpt>
      <trkpt lat="45.76788" lon="2.96248">
        <ele>1072</ele>
        <time>2021-07-17T17:03:44Z</time>
      </trkpt>
      <trkpt lat="45.76787" lon="2.96248">
        <ele>1072</ele>
        <time>2021-07-17T17:03:45Z</time>
      </trkpt>
      <trkpt lat="45.76786" lon="2.96249">
        <ele>1072</ele>
        <time>2021-07-17T17:03:46Z</time>
      </trkpt>
      <trkpt lat="45.76785" lon="2.96249">
        <ele>1072</ele>
        <time>2021-07-17T17:03:47Z</time>
      </trkpt>
      <trkpt lat="45.76783" lon="2.9625">
        <ele>1072</ele>
        <time>2021-07-17T17:03:48Z</time>
      </trkpt>
      <trkpt lat="45.76782" lon="2.9625">
        <ele>1072</ele>
        <time>2021-07-17T17:03:49Z</time>
      </trkpt>
      <trkpt lat="45.76781" lon="2.96251">
        <ele>1072</ele>
        <time>2021-07-17T17:03:50Z</time>
      </trkpt>
      <trkpt lat="45.76779" lon="2.96252">
        <ele>1072</ele>
        <time>2021-07-17T17:03:51Z</time>
      </trkpt>
      <trkpt lat="45.76778" lon="2.96253">
        <ele>1072</ele>
        <time>2021-07-17T17:03:52Z</time>
      </trkpt>
      <trkpt lat="45.76777" lon="2.96254">
        <ele>1072</ele>
        <time>2021-07-17T17:03:53Z</time>
      </trkpt>
      <trkpt lat="45.76776" lon="2.96255">
        <ele>1072</ele>
        <time>2021-07-17T17:03:54Z</time>
      </trkpt>
      <trkpt lat="45.76774" lon="2.96256">
        <ele>1072</ele>
        <time>2021-07-17T17:03:55Z</time>
      </trkpt>
      <trkpt lat="45.76773" lon="2.96257">
        <ele>1072</ele>
        <time>2021-07-17T17:03:56Z</time>
      </trkpt>
      <trkpt lat="45.76772" lon="2.96257">
        <ele>1072</ele>
        <time>2021-07-17T17:03:57Z</time>
      </trkpt>
      <trkpt lat="45.7677" lon="2.96258">
        <ele>1072</ele>
        <time>2021-07-17T17:03:58Z</time>
      </trkpt>
      <trkpt lat="45.7677" lon="2.96259">
        <ele>1072</ele>
        <time>2021-07-17T17:03:59Z</time>
      </trkpt>
      <trkpt lat="45.76769" lon="2.96261">
        <ele>1072</ele>
        <time>2021-07-17T17:04:00Z</time>
      </trkpt>
      <trkpt lat="45.76767" lon="2.96262">
        <ele>1072</ele>
        <time>2021-07-17T17:04:01Z</time>
      </trkpt>
      <trkpt lat="45.76766" lon="2.96263">
        <ele>1072</ele>
        <time>2021-07-17T17:04:02Z</time>
      </trkpt>
      <trkpt lat="45.76764" lon="2.96265">
        <ele>1072</ele>
        <time>2021-07-17T17:04:03Z</time>
      </trkpt>
      <trkpt lat="45.76764" lon="2.96266">
        <ele>1072</ele>
        <time>2021-07-17T17:04:04Z</time>
      </trkpt>
      <trkpt lat="45.76762" lon="2.96268">
        <ele>1072</ele>
        <time>2021-07-17T17:04:05Z</time>
      </trkpt>
      <trkpt lat="45.76761" lon="2.96269">
        <ele>1072</ele>
        <time>2021-07-17T17:04:06Z</time>
      </trkpt>
      <trkpt lat="45.76761" lon="2.9627">
        <ele>1072</ele>
        <time>2021-07-17T17:04:07Z</time>
      </trkpt>
      <trkpt lat="45.76759" lon="2.96271">
        <ele>1072</ele>
        <time>2021-07-17T17:04:08Z</time>
      </trkpt>
      <trkpt lat="45.76758" lon="2.96272">
        <ele>1072</ele>
        <time>2021-07-17T17:04:09Z</time>
      </trkpt>
      <trkpt lat="45.76757" lon="2.96274">
        <ele>1072</ele>
        <time>2021-07-17T17:04:10Z</time>
      </trkpt>
      <trkpt lat="45.76755" lon="2.96275">
        <ele>1072</ele>
        <time>2021-07-17T17:04:11Z</time>
      </trkpt>
      <trkpt lat="45.76754" lon="2.96276">
        <ele>1072</ele>
        <time>2021-07-17T17:04:12Z</time>
      </trkpt>
      <trkpt lat="45.76754" lon="2.96277">
        <ele>1072</ele>
        <time>2021-07-17T17:04:13Z</time>
      </trkpt>
      <trkpt lat="45.76753" lon="2.96279">
        <ele>1072</ele>
        <time>2021-07-17T17:04:14Z</time>
      </trkpt>
      <trkpt lat="45.76752" lon="2.9628">
        <ele>1072</ele>
        <time>2021-07-17T17:04:15Z</time>
      </trkpt>
      <trkpt lat="45.7675" lon="2.96281">
        <ele>1072</ele>
        <time>2021-07-17T17:04:16Z</time>
      </trkpt>
      <trkpt lat="45.76749" lon="2.96283">
        <ele>1072</ele>
        <time>2021-07-17T17:04:17Z</time>
      </trkpt>
      <trkpt lat="45.76748" lon="2.96284">
        <ele>1072</ele>
        <time>2021-07-17T17:04:18Z</time>
      </trkpt>
      <trkpt lat="45.76746" lon="2.96285">
        <ele>1072</ele>
        <time>2021-07-17T17:04:19Z</time>
      </trkpt>
      <trkpt lat="45.76745" lon="2.96286">
        <ele>1072</ele>
        <time>2021-07-17T17:04:20Z</time>
      </trkpt>
      <trkpt lat="45.76743" lon="2.96287">
        <ele>1072</ele>
        <time>2021-07-17T17:04:21Z</time>
      </trkpt>
      <trkpt lat="45.76743" lon="2.96287">
        <ele>1072</ele>
        <time>2021-07-17T17:04:22Z</time>
      </trkpt>
      <trkpt lat="45.76741" lon="2.96288">
        <ele>1072</ele>
        <time>2021-07-17T17:04:23Z</time>
      </trkpt>
      <trkpt lat="45.7674" lon="2.96289">
        <ele>1072</ele>
        <time>2021-07-17T17:04:24Z</time>
      </trkpt>
      <trkpt lat="45.76738" lon="2.96289">
        <ele>1072</ele>
        <time>2021-07-17T17:04:25Z</time>
      </trkpt>
      <trkpt lat="45.76737" lon="2.9629">
        <ele>1072</ele>
        <time>2021-07-17T17:04:26Z</time>
      </trkpt>
      <trkpt lat="45.76736" lon="2.96291">
        <ele>1072</ele>
        <time>2021-07-17T17:04:27Z</time>
      </trkpt>
      <trkpt lat="45.76735" lon="2.96292">
        <ele>1072</ele>
        <time>2021-07-17T17:04:28Z</time>
      </trkpt>
      <trkpt lat="45.76733" lon="2.96292">
        <ele>1072</ele>
        <time>2021-07-17T17:04:29Z</time>
      </trkpt>
      <trkpt lat="45.76732" lon="2.96293">
        <ele>1072</ele>
        <time>2021-07-17T17:04:30Z</time>
      </trkpt>
      <trkpt lat="45.76731" lon="2.96294">
        <ele>1072</ele>
        <time>2021-07-17T17:04:31Z</time>
      </trkpt>
      <trkpt lat="45.7673" lon="2.96294">
        <ele>1072</ele>
        <time>2021-07-17T17:04:32Z</time>
      </trkpt>
      <trkpt lat="45.76728" lon="2.96294">
        <ele>1072</ele>
        <time>2021-07-17T17:04:33Z</time>
      </trkpt>
      <trkpt lat="45.76728" lon="2.96295">
        <ele>1072</ele>
        <time>2021-07-17T17:04:34Z</time>
      </trkpt>
      <trkpt lat="45.76726" lon="2.96295">
        <ele>1072</ele>
        <time>2021-07-17T17:04:35Z</time>
      </trkpt>
      <trkpt lat="45.76725" lon="2.96296">
        <ele>1072</ele>
        <time>2021-07-17T17:04:36Z</time>
      </trkpt>
      <trkpt lat="45.76724" lon="2.96296">
        <ele>1072</ele>
        <time>2021-07-17T17:04:37Z</time>
      </trkpt>
      <trkpt lat="45.76722" lon="2.96296">
        <ele>1072</ele>
        <time>2021-07-17T17:04:38Z</time>
      </trkpt>
      <trkpt lat="45.76721" lon="2.96296">
        <ele>1072</ele>
        <time>2021-07-17T17:04:39Z</time>
      </trkpt>
      <trkpt lat="45.7672" lon="2.96296">
        <ele>1072</ele>
        <time>2021-07-17T17:04:40Z</time>
      </trkpt>
      <trkpt lat="45.76719" lon="2.96297">
        <ele>1072</ele>
        <time>2021-07-17T17:04:41Z</time>
      </trkpt>
      <trkpt lat="45.76717" lon="2.96297">
        <ele>1072</ele>
        <time>2021-07-17T17:04:42Z</time>
      </trkpt>
      <trkpt lat="45.76716" lon="2.96297">
        <ele>1072</ele>
        <time>2021-07-17T17:04:43Z</time>
      </trkpt>
      <trkpt lat="45.76714" lon="2.96297">
        <ele>1072</ele>
        <time>2021-07-17T17:04:44Z</time>
      </trkpt>
      <trkpt lat="45.76713" lon="2.96296">
        <ele>1072</ele>
        <time>2021-07-17T17:04:45Z</time>
      </trkpt>
      <trkpt lat="45.76712" lon="2.96296">
        <ele>1072</ele>
        <time>2021-07-17T17:04:46Z</time>
      </trkpt>
      <trkpt lat="45.7671" lon="2.96296">
        <ele>1072</ele>
        <time>2021-07-17T17:04:47Z</time>
      </trkpt>
      <trkpt lat="45.76709" lon="2.96295">
        <ele>1072</ele>
        <time>2021-07-17T17:04:48Z</time>
      </trkpt>
      <trkpt lat="45.76708" lon="2.96295">
        <ele>1072</ele>
        <time>2021-07-17T17:04:49Z</time>
      </trkpt>
      <trkpt lat="45.76707" lon="2.96295">
        <ele>1072</ele>
        <time>2021-07-17T17:04:50Z</time>
      </trkpt>
      <trkpt lat="45.76705" lon="2.96295">
        <ele>1072</ele>
        <time>2021-07-17T17:04:51Z</time>
      </trkpt>
      <trkpt lat="45.76704" lon="2.96295">
        <ele>1072</ele>
        <time>2021-07-17T17:04:52Z</time>
      </trkpt>
      <trkpt lat="45.76703" lon="2.96294">
        <ele>1072</ele>
        <time>2021-07-17T17:04:53Z</time>
      </trkpt>
      <trkpt lat="45.76701" lon="2.96294">
        <ele>1072</ele>
        <time>2021-07-17T17:04:54Z</time>
      </trkpt>
      <trkpt lat="45.767" lon="2.96294">
        <ele>1072</ele>
        <time>2021-07-17T17:04:55Z</time>
      </trkpt>
      <trkpt lat="45.76698" lon="2.96294">
        <ele>1072</ele>
        <time>2021-07-17T17:04:56Z</time>
      </trkpt>
      <trkpt lat="45.76697" lon="2.96294">
        <ele>1072</ele>
        <time>2021-07-17T17:04:57Z</time>
      </trkpt>
      <trkpt lat="45.76695" lon="2.96294">
        <ele>1072</ele>
        <time>2021-07-17T17:04:58Z</time>
      </trkpt>
      <trkpt lat="45.76694" lon="2.96294">
        <ele>1072</ele>
        <time>2021-07-17T17:04:59Z</time>
      </trkpt>
      <trkpt lat="45.76693" lon="2.96294">
        <ele>1072</ele>
        <time>2021-07-17T17:05:00Z</time>
      </trkpt>
      <trkpt lat="45.76691" lon="2.96294">
        <ele>1072</ele>
        <time>2021-07-17T17:05:01Z</time>
      </trkpt>
      <trkpt lat="45.7669" lon="2.96294">
        <ele>1072</ele>
        <time>2021-07-17T17:05:02Z</time>
      </trkpt>
      <trkpt lat="45.76689" lon="2.96293">
        <ele>1072</ele>
        <time>2021-07-17T17:05:03Z</time>
      </trkpt>
      <trkpt lat="45.76688" lon="2.96293">
        <ele>1072</ele>
        <time>2021-07-17T17:05:04Z</time>
      </trkpt>
      <trkpt lat="45.76687" lon="2.96292">
        <ele>1072</ele>
        <time>2021-07-17T17:05:05Z</time>
      </trkpt>
      <trkpt lat="45.76685" lon="2.96292">
        <ele>1072</ele>
        <time>2021-07-17T17:05:06Z</time>
      </trkpt>
      <trkpt lat="45.76684" lon="2.96291">
        <ele>1072</ele>
        <time>2021-07-17T17:05:07Z</time>
      </trkpt>
      <trkpt lat="45.76683" lon="2.9629">
        <ele>1072</ele>
        <time>2021-07-17T17:05:08Z</time>
      </trkpt>
      <trkpt lat="45.76682" lon="2.9629">
        <ele>1072</ele>
        <time>2021-07-17T17:05:09Z</time>
      </trkpt>
      <trkpt lat="45.7668" lon="2.9629">
        <ele>1072</ele>
        <time>2021-07-17T17:05:10Z</time>
      </trkpt>
      <trkpt lat="45.76679" lon="2.96289">
        <ele>1072</ele>
        <time>2021-07-17T17:05:11Z</time>
      </trkpt>
      <trkpt lat="45.76678" lon="2.96289">
        <ele>1072</ele>
        <time>2021-07-17T17:05:12Z</time>
      </trkpt>
      <trkpt lat="45.76677" lon="2.96288">
        <ele>1072</ele>
        <time>2021-07-17T17:05:13Z</time>
      </trkpt>
      <trkpt lat="45.76676" lon="2.96288">
        <ele>1072</ele>
        <time>2021-07-17T17:05:14Z</time>
      </trkpt>
      <trkpt lat="45.76675" lon="2.96287">
        <ele>1072</ele>
        <time>2021-07-17T17:05:15Z</time>
      </trkpt>
      <trkpt lat="45.76674" lon="2.96286">
        <ele>1072</ele>
        <time>2021-07-17T17:05:16Z</time>
      </trkpt>
      <trkpt lat="45.76672" lon="2.96286">
        <ele>1072</ele>
        <time>2021-07-17T17:05:17Z</time>
      </trkpt>
      <trkpt lat="45.76671" lon="2.96285">
        <ele>1072</ele>
        <time>2021-07-17T17:05:18Z</time>
      </trkpt>
      <trkpt lat="45.7667" lon="2.96285">
        <ele>1072</ele>
        <time>2021-07-17T17:05:19Z</time>
      </trkpt>
      <trkpt lat="45.76669" lon="2.96284">
        <ele>1072</ele>
        <time>2021-07-17T17:05:20Z</time>
      </trkpt>
      <trkpt lat="45.76667" lon="2.96284">
        <ele>1072</ele>
        <time>2021-07-17T17:05:21Z</time>
      </trkpt>
      <trkpt lat="45.76666" lon="2.96283">
        <ele>1072</ele>
        <time>2021-07-17T17:05:22Z</time>
      </trkpt>
      <trkpt lat="45.76665" lon="2.96283">
        <ele>1072</ele>
        <time>2021-07-17T17:05:23Z</time>
      </trkpt>
      <trkpt lat="45.76664" lon="2.96282">
        <ele>1072</ele>
        <time>2021-07-17T17:05:24Z</time>
      </trkpt>
      <trkpt lat="45.76662" lon="2.96282">
        <ele>1072</ele>
        <time>2021-07-17T17:05:25Z</time>
      </trkpt>
      <trkpt lat="45.76661" lon="2.96281">
        <ele>1072</ele>
        <time>2021-07-17T17:05:26Z</time>
      </trkpt>
      <trkpt lat="45.76659" lon="2.96281">
        <ele>1072</ele>
        <time>2021-07-17T17:05:27Z</time>
      </trkpt>
      <trkpt lat="45.76658" lon="2.9628">
        <ele>1072</ele>
        <time>2021-07-17T17:05:28Z</time>
      </trkpt>
      <trkpt lat="45.76657" lon="2.9628">
        <ele>1072</ele>
        <time>2021-07-17T17:05:29Z</time>
      </trkpt>
      <trkpt lat="45.76656" lon="2.96279">
        <ele>1072</ele>
        <time>2021-07-17T17:05:30Z</time>
      </trkpt>
      <trkpt lat="45.76654" lon="2.96279">
        <ele>1072</ele>
        <time>2021-07-17T17:05:31Z</time>
      </trkpt>
      <trkpt lat="45.76653" lon="2.96279">
        <ele>1072</ele>
        <time>2021-07-17T17:05:32Z</time>
      </trkpt>
      <trkpt lat="45.76652" lon="2.96278">
        <ele>1072</ele>
        <time>2021-07-17T17:05:33Z</time>
      </trkpt>
      <trkpt lat="45.7665" lon="2.96278">
        <ele>1072</ele>
        <time>2021-07-17T17:05:34Z</time>
      </trkpt>
      <trkpt lat="45.76649" lon="2.96278">
        <ele>1072</ele>
        <time>2021-07-17T17:05:35Z</time>
      </trkpt>
      <trkpt lat="45.76648" lon="2.96277">
        <ele>1072</ele>
        <time>2021-07-17T17:05:36Z</time>
      </trkpt>
      <trkpt lat="45.76647" lon="2.96276">
        <ele>1072</ele>
        <time>2021-07-17T17:05:37Z</time>
      </trkpt>
      <trkpt lat="45.76646" lon="2.96275">
        <ele>1072</ele>
        <time>2021-07-17T17:05:37Z</time>
      </trkpt>
      <trkpt lat="45.76645" lon="2.96274">
        <ele>1072</ele>
        <time>2021-07-17T17:05:38Z</time>
      </trkpt>
      <trkpt lat="45.76644" lon="2.96273">
        <ele>1072</ele>
        <time>2021-07-17T17:05:39Z</time>
      </trkpt>
      <trkpt lat="45.76643" lon="2.96272">
        <ele>1072</ele>
        <time>2021-07-17T17:05:40Z</time>
      </trkpt>
      <trkpt lat="45.76642" lon="2.96271">
        <ele>1072</ele>
        <time>2021-07-17T17:05:41Z</time>
      </trkpt>
      <trkpt lat="45.76641" lon="2.9627">
        <ele>1072</ele>
        <time>2021-07-17T17:05:42Z</time>
      </trkpt>
      <trkpt lat="45.7664" lon="2.96269">
        <ele>1072</ele>
        <time>2021-07-17T17:05:43Z</time>
      </trkpt>
      <trkpt lat="45.76638" lon="2.96268">
        <ele>1072</ele>
        <time>2021-07-17T17:05:44Z</time>
      </trkpt>
      <trkpt lat="45.76637" lon="2.96267">
        <ele>1072</ele>
        <time>2021-07-17T17:05:45Z</time>
      </trkpt>
      <trkpt lat="45.76637" lon="2.96266">
        <ele>1072</ele>
        <time>2021-07-17T17:05:46Z</time>
      </trkpt>
      <trkpt lat="45.76635" lon="2.96265">
        <ele>1072</ele>
        <time>2021-07-17T17:05:47Z</time>
      </trkpt>
      <trkpt lat="45.76634" lon="2.96264">
        <ele>1072</ele>
        <time>2021-07-17T17:05:48Z</time>
      </trkpt>
      <trkpt lat="45.76632" lon="2.96262">
        <ele>1072</ele>
        <time>2021-07-17T17:05:49Z</time>
      </trkpt>
      <trkpt lat="45.76631" lon="2.96261">
        <ele>1072</ele>
        <time>2021-07-17T17:05:50Z</time>
      </trkpt>
      <trkpt lat="45.7663" lon="2.9626">
        <ele>1072</ele>
        <time>2021-07-17T17:05:51Z</time>
      </trkpt>
      <trkpt lat="45.76628" lon="2.96259">
        <ele>1072</ele>
        <time>2021-07-17T17:05:52Z</time>
      </trkpt>
      <trkpt lat="45.76627" lon="2.96258">
        <ele>1072</ele>
        <time>2021-07-17T17:05:53Z</time>
      </trkpt>
      <trkpt lat="45.76626" lon="2.96257">
        <ele>1072</ele>
        <time>2021-07-17T17:05:54Z</time>
      </trkpt>
      <trkpt lat="45.76625" lon="2.96256">
        <ele>1072</ele>
        <time>2021-07-17T17:05:55Z</time>
      </trkpt>
      <trkpt lat="45.76623" lon="2.96255">
        <ele>1072</ele>
        <time>2021-07-17T17:05:56Z</time>
      </trkpt>
      <trkpt lat="45.76622" lon="2.96254">
        <ele>1072</ele>
        <time>2021-07-17T17:05:57Z</time>
      </trkpt>
      <trkpt lat="45.76621" lon="2.96253">
        <ele>1072</ele>
        <time>2021-07-17T17:05:58Z</time>
      </trkpt>
      <trkpt lat="45.76619" lon="2.96252">
        <ele>1072</ele>
        <time>2021-07-17T17:05:59Z</time>
      </trkpt>
      <trkpt lat="45.76617" lon="2.96251">
        <ele>1072</ele>
        <time>2021-07-17T17:06:00Z</time>
      </trkpt>
      <trkpt lat="45.76616" lon="2.9625">
        <ele>1072</ele>
        <time>2021-07-17T17:06:01Z</time>
      </trkpt>
      <trkpt lat="45.76615" lon="2.96249">
        <ele>1072</ele>
        <time>2021-07-17T17:06:02Z</time>
      </trkpt>
      <trkpt lat="45.76613" lon="2.96248">
        <ele>1072</ele>
        <time>2021-07-17T17:06:03Z</time>
      </trkpt>
      <trkpt lat="45.76613" lon="2.96248">
        <ele>1072</ele>
        <time>2021-07-17T17:06:04Z</time>
      </trkpt>
      <trkpt lat="45.76611" lon="2.96247">
        <ele>1072</ele>
        <time>2021-07-17T17:06:05Z</time>
      </trkpt>
      <trkpt lat="45.7661" lon="2.96246">
        <ele>1072</ele>
        <time>2021-07-17T17:06:06Z</time>
      </trkpt>
      <trkpt lat="45.76608" lon="2.96246">
        <ele>1072</ele>
        <time>2021-07-17T17:06:07Z</time>
      </trkpt>
      <trkpt lat="45.76607" lon="2.96245">
        <ele>1072</ele>
        <time>2021-07-17T17:06:08Z</time>
      </trkpt>
      <trkpt lat="45.76606" lon="2.96244">
        <ele>1072</ele>
        <time>2021-07-17T17:06:09Z</time>
      </trkpt>
      <trkpt lat="45.76605" lon="2.96244">
        <ele>1072</ele>
        <time>2021-07-17T17:06:10Z</time>
      </trkpt>
      <trkpt lat="45.76604" lon="2.96243">
        <ele>1072</ele>
        <time>2021-07-17T17:06:11Z</time>
      </trkpt>
      <trkpt lat="45.76603" lon="2.96242">
        <ele>1072</ele>
        <time>2021-07-17T17:06:12Z</time>
      </trkpt>
      <trkpt lat="45.76602" lon="2.96242">
        <ele>1072</ele>
        <time>2021-07-17T17:06:13Z</time>
      </trkpt>
      <trkpt lat="45.76601" lon="2.96241">
        <ele>1072</ele>
        <time>2021-07-17T17:06:14Z</time>
      </trkpt>
      <trkpt lat="45.76601" lon="2.9624">
        <ele>1072</ele>
        <time>2021-07-17T17:06:15Z</time>
      </trkpt>
      <trkpt lat="45.766" lon="2.9624">
        <ele>1072</ele>
        <time>2021-07-17T17:06:16Z</time>
      </trkpt>
      <trkpt lat="45.766" lon="2.96238">
        <ele>1072</ele>
        <time>2021-07-17T17:06:17Z</time>
      </trkpt>
      <trkpt lat="45.76599" lon="2.96237">
        <ele>1072</ele>
        <time>2021-07-17T17:06:18Z</time>
      </trkpt>
      <trkpt lat="45.76598" lon="2.96236">
        <ele>1072</ele>
        <time>2021-07-17T17:06:19Z</time>
      </trkpt>
      <trkpt lat="45.76598" lon="2.96235">
        <ele>1072</ele>
        <time>2021-07-17T17:06:20Z</time>
      </trkpt>
      <trkpt lat="45.76597" lon="2.96234">
        <ele>1072</ele>
        <time>2021-07-17T17:06:21Z</time>
      </trkpt>
      <trkpt lat="45.76595" lon="2.96233">
        <ele>1072</ele>
        <time>2021-07-17T17:06:22Z</time>
      </trkpt>
      <trkpt lat="45.76595" lon="2.96232">
        <ele>1072</ele>
        <time>2021-07-17T17:06:23Z</time>
      </trkpt>
      <trkpt lat="45.76593" lon="2.9623">
        <ele>1072</ele>
        <time>2021-07-17T17:06:24Z</time>
      </trkpt>
      <trkpt lat="45.76592" lon="2.96229">
        <ele>1072</ele>
        <time>2021-07-17T17:06:25Z</time>
      </trkpt>
      <trkpt lat="45.76592" lon="2.96228">
        <ele>1072</ele>
        <time>2021-07-17T17:06:26Z</time>
      </trkpt>
      <trkpt lat="45.7659" lon="2.96226">
        <ele>1072</ele>
        <time>2021-07-17T17:06:27Z</time>
      </trkpt>
      <trkpt lat="45.76589" lon="2.96225">
        <ele>1072</ele>
        <time>2021-07-17T17:06:28Z</time>
      </trkpt>
      <trkpt lat="45.76588" lon="2.96224">
        <ele>1072</ele>
        <time>2021-07-17T17:06:29Z</time>
      </trkpt>
      <trkpt lat="45.76587" lon="2.96222">
        <ele>1072</ele>
        <time>2021-07-17T17:06:30Z</time>
      </trkpt>
      <trkpt lat="45.76586" lon="2.96221">
        <ele>1072</ele>
        <time>2021-07-17T17:06:31Z</time>
      </trkpt>
      <trkpt lat="45.76584" lon="2.96219">
        <ele>1072</ele>
        <time>2021-07-17T17:06:32Z</time>
      </trkpt>
      <trkpt lat="45.76583" lon="2.96218">
        <ele>1072</ele>
        <time>2021-07-17T17:06:33Z</time>
      </trkpt>
      <trkpt lat="45.76582" lon="2.96216">
        <ele>1072</ele>
        <time>2021-07-17T17:06:34Z</time>
      </trkpt>
      <trkpt lat="45.76581" lon="2.96215">
        <ele>1072</ele>
        <time>2021-07-17T17:06:35Z</time>
      </trkpt>
      <trkpt lat="45.7658" lon="2.96213">
        <ele>1072</ele>
        <time>2021-07-17T17:06:36Z</time>
      </trkpt>
      <trkpt lat="45.7658" lon="2.96212">
        <ele>1072</ele>
        <time>2021-07-17T17:06:37Z</time>
      </trkpt>
      <trkpt lat="45.76579" lon="2.96211">
        <ele>1072</ele>
        <time>2021-07-17T17:06:38Z</time>
      </trkpt>
      <trkpt lat="45.76579" lon="2.96209">
        <ele>1072</ele>
        <time>2021-07-17T17:06:39Z</time>
      </trkpt>
      <trkpt lat="45.76578" lon="2.96208">
        <ele>1072</ele>
        <time>2021-07-17T17:06:40Z</time>
      </trkpt>
      <trkpt lat="45.76577" lon="2.96206">
        <ele>1072</ele>
        <time>2021-07-17T17:06:41Z</time>
      </trkpt>
      <trkpt lat="45.76577" lon="2.96204">
        <ele>1072</ele>
        <time>2021-07-17T17:06:42Z</time>
      </trkpt>
      <trkpt lat="45.76577" lon="2.96203">
        <ele>1072</ele>
        <time>2021-07-17T17:06:43Z</time>
      </trkpt>
      <trkpt lat="45.76576" lon="2.962">
        <ele>1072</ele>
        <time>2021-07-17T17:06:44Z</time>
      </trkpt>
      <trkpt lat="45.76576" lon="2.96199">
        <ele>1072</ele>
        <time>2021-07-17T17:06:45Z</time>
      </trkpt>
      <trkpt lat="45.76575" lon="2.96197">
        <ele>1072</ele>
        <time>2021-07-17T17:06:46Z</time>
      </trkpt>
      <trkpt lat="45.76574" lon="2.96195">
        <ele>1072</ele>
        <time>2021-07-17T17:06:47Z</time>
      </trkpt>
      <trkpt lat="45.76574" lon="2.96193">
        <ele>1072</ele>
        <time>2021-07-17T17:06:48Z</time>
      </trkpt>
      <trkpt lat="45.76573" lon="2.96192">
        <ele>1072</ele>
        <time>2021-07-17T17:06:49Z</time>
      </trkpt>
      <trkpt lat="45.76572" lon="2.9619">
        <ele>1072</ele>
        <time>2021-07-17T17:06:50Z</time>
      </trkpt>
      <trkpt lat="45.76571" lon="2.96188">
        <ele>1072</ele>
        <time>2021-07-17T17:06:51Z</time>
      </trkpt>
      <trkpt lat="45.76571" lon="2.96187">
        <ele>1072</ele>
        <time>2021-07-17T17:06:52Z</time>
      </trkpt>
      <trkpt lat="45.76569" lon="2.96185">
        <ele>1072</ele>
        <time>2021-07-17T17:06:53Z</time>
      </trkpt>
      <trkpt lat="45.76568" lon="2.96183">
        <ele>1072</ele>
        <time>2021-07-17T17:06:54Z</time>
      </trkpt>
      <trkpt lat="45.76568" lon="2.96182">
        <ele>1072</ele>
        <time>2021-07-17T17:06:55Z</time>
      </trkpt>
      <trkpt lat="45.76568" lon="2.9618">
        <ele>1072</ele>
        <time>2021-07-17T17:06:56Z</time>
      </trkpt>
      <trkpt lat="45.76567" lon="2.96179">
        <ele>1072</ele>
        <time>2021-07-17T17:06:57Z</time>
      </trkpt>
      <trkpt lat="45.76566" lon="2.96177">
        <ele>1072</ele>
        <time>2021-07-17T17:06:58Z</time>
      </trkpt>
      <trkpt lat="45.76566" lon="2.96175">
        <ele>1072</ele>
        <time>2021-07-17T17:06:59Z</time>
      </trkpt>
      <trkpt lat="45.76565" lon="2.96174">
        <ele>1072</ele>
        <time>2021-07-17T17:07:00Z</time>
      </trkpt>
      <trkpt lat="45.76564" lon="2.96172">
        <ele>1072</ele>
        <time>2021-07-17T17:07:01Z</time>
      </trkpt>
      <trkpt lat="45.76564" lon="2.9617">
        <ele>1072</ele>
        <time>2021-07-17T17:07:02Z</time>
      </trkpt>
      <trkpt lat="45.76563" lon="2.96168">
        <ele>1072</ele>
        <time>2021-07-17T17:07:03Z</time>
      </trkpt>
      <trkpt lat="45.76562" lon="2.96166">
        <ele>1072</ele>
        <time>2021-07-17T17:07:04Z</time>
      </trkpt>
      <trkpt lat="45.76562" lon="2.96164">
        <ele>1072</ele>
        <time>2021-07-17T17:07:05Z</time>
      </trkpt>
      <trkpt lat="45.76561" lon="2.96163">
        <ele>1072</ele>
        <time>2021-07-17T17:07:06Z</time>
      </trkpt>
      <trkpt lat="45.76561" lon="2.96161">
        <ele>1072</ele>
        <time>2021-07-17T17:07:07Z</time>
      </trkpt>
      <trkpt lat="45.7656" lon="2.9616">
        <ele>1072</ele>
        <time>2021-07-17T17:07:08Z</time>
      </trkpt>
      <trkpt lat="45.76559" lon="2.96158">
        <ele>1072</ele>
        <time>2021-07-17T17:07:09Z</time>
      </trkpt>
      <trkpt lat="45.76559" lon="2.96156">
        <ele>1072</ele>
        <time>2021-07-17T17:07:10Z</time>
      </trkpt>
      <trkpt lat="45.76559" lon="2.96155">
        <ele>1072</ele>
        <time>2021-07-17T17:07:11Z</time>
      </trkpt>
      <trkpt lat="45.76559" lon="2.96153">
        <ele>1072</ele>
        <time>2021-07-17T17:07:12Z</time>
      </trkpt>
      <trkpt lat="45.76558" lon="2.96152">
        <ele>1072</ele>
        <time>2021-07-17T17:07:13Z</time>
      </trkpt>
      <trkpt lat="45.76558" lon="2.9615">
        <ele>1072</ele>
        <time>2021-07-17T17:07:14Z</time>
      </trkpt>
      <trkpt lat="45.76557" lon="2.96148">
        <ele>1072</ele>
        <time>2021-07-17T17:07:15Z</time>
      </trkpt>
      <trkpt lat="45.76556" lon="2.96146">
        <ele>1072</ele>
        <time>2021-07-17T17:07:16Z</time>
      </trkpt>
      <trkpt lat="45.76556" lon="2.96145">
        <ele>1072</ele>
        <time>2021-07-17T17:07:17Z</time>
      </trkpt>
      <trkpt lat="45.76556" lon="2.96143">
        <ele>1072</ele>
        <time>2021-07-17T17:07:18Z</time>
      </trkpt>
      <trkpt lat="45.76555" lon="2.96141">
        <ele>1072</ele>
        <time>2021-07-17T17:07:19Z</time>
      </trkpt>
      <trkpt lat="45.76554" lon="2.96139">
        <ele>1072</ele>
        <time>2021-07-17T17:07:20Z</time>
      </trkpt>
      <trkpt lat="45.76553" lon="2.96138">
        <ele>1072</ele>
        <time>2021-07-17T17:07:21Z</time>
      </trkpt>
      <trkpt lat="45.76553" lon="2.96136">
        <ele>1072</ele>
        <time>2021-07-17T17:07:22Z</time>
      </trkpt>
      <trkpt lat="45.76552" lon="2.96134">
        <ele>1072</ele>
        <time>2021-07-17T17:07:23Z</time>
      </trkpt>
      <trkpt lat="45.76551" lon="2.96132">
        <ele>1072</ele>
        <time>2021-07-17T17:07:24Z</time>
      </trkpt>
      <trkpt lat="45.76551" lon="2.9613">
        <ele>1072</ele>
        <time>2021-07-17T17:07:25Z</time>
      </trkpt>
      <trkpt lat="45.7655" lon="2.96128">
        <ele>1072</ele>
        <time>2021-07-17T17:07:26Z</time>
      </trkpt>
      <trkpt lat="45.7655" lon="2.96126">
        <ele>1072</ele>
        <time>2021-07-17T17:07:27Z</time>
      </trkpt>
      <trkpt lat="45.7655" lon="2.96124">
        <ele>1072</ele>
        <time>2021-07-17T17:07:28Z</time>
      </trkpt>
      <trkpt lat="45.7655" lon="2.96122">
        <ele>1072</ele>
        <time>2021-07-17T17:07:29Z</time>
      </trkpt>
      <trkpt lat="45.7655" lon="2.9612">
        <ele>1072</ele>
        <time>2021-07-17T17:07:30Z</time>
      </trkpt>
      <trkpt lat="45.7655" lon="2.96119">
        <ele>1072</ele>
        <time>2021-07-17T17:07:31Z</time>
      </trkpt>
      <trkpt lat="45.7655" lon="2.96117">
        <ele>1072</ele>
        <time>2021-07-17T17:07:32Z</time>
      </trkpt>
      <trkpt lat="45.76549" lon="2.96115">
        <ele>1072</ele>
        <time>2021-07-17T17:07:33Z</time>
      </trkpt>
      <trkpt lat="45.7655" lon="2.96113">
        <ele>1072</ele>
        <time>2021-07-17T17:07:34Z</time>
      </trkpt>
      <trkpt lat="45.7655" lon="2.96112">
        <ele>1072</ele>
        <time>2021-07-17T17:07:35Z</time>
      </trkpt>
      <trkpt lat="45.7655" lon="2.9611">
        <ele>1072</ele>
        <time>2021-07-17T17:07:36Z</time>
      </trkpt>
      <trkpt lat="45.76549" lon="2.96108">
        <ele>1072</ele>
        <time>2021-07-17T17:07:37Z</time>
      </trkpt>
      <trkpt lat="45.76549" lon="2.96107">
        <ele>1072</ele>
        <time>2021-07-17T17:07:38Z</time>
      </trkpt>
      <trkpt lat="45.76549" lon="2.96105">
        <ele>1072</ele>
        <time>2021-07-17T17:07:39Z</time>
      </trkpt>
      <trkpt lat="45.76549" lon="2.96103">
        <ele>1072</ele>
        <time>2021-07-17T17:07:40Z</time>
      </trkpt>
      <trkpt lat="45.76548" lon="2.96101">
        <ele>1072</ele>
        <time>2021-07-17T17:07:41Z</time>
      </trkpt>
      <trkpt lat="45.76548" lon="2.961">
        <ele>1072</ele>
        <time>2021-07-17T17:07:42Z</time>
      </trkpt>
      <trkpt lat="45.76548" lon="2.96098">
        <ele>1072</ele>
        <time>2021-07-17T17:07:43Z</time>
      </trkpt>
      <trkpt lat="45.76548" lon="2.96096">
        <ele>1072</ele>
        <time>2021-07-17T17:07:44Z</time>
      </trkpt>
      <trkpt lat="45.76548" lon="2.96095">
        <ele>1072</ele>
        <time>2021-07-17T17:07:45Z</time>
      </trkpt>
      <trkpt lat="45.76548" lon="2.96093">
        <ele>1072</ele>
        <time>2021-07-17T17:07:46Z</time>
      </trkpt>
      <trkpt lat="45.76548" lon="2.96091">
        <ele>1072</ele>
        <time>2021-07-17T17:07:47Z</time>
      </trkpt>
      <trkpt lat="45.76548" lon="2.96089">
        <ele>1072</ele>
        <time>2021-07-17T17:07:48Z</time>
      </trkpt>
      <trkpt lat="45.76548" lon="2.96088">
        <ele>1072</ele>
        <time>2021-07-17T17:07:49Z</time>
      </trkpt>
      <trkpt lat="45.76548" lon="2.96086">
        <ele>1072</ele>
        <time>2021-07-17T17:07:50Z</time>
      </trkpt>
      <trkpt lat="45.76547" lon="2.96084">
        <ele>1072</ele>
        <time>2021-07-17T17:07:51Z</time>
      </trkpt>
      <trkpt lat="45.76548" lon="2.96082">
        <ele>1072</ele>
        <time>2021-07-17T17:07:52Z</time>
      </trkpt>
      <trkpt lat="45.76548" lon="2.9608">
        <ele>1072</ele>
        <time>2021-07-17T17:07:53Z</time>
      </trkpt>
      <trkpt lat="45.76548" lon="2.96079">
        <ele>1072</ele>
        <time>2021-07-17T17:07:54Z</time>
      </trkpt>
      <trkpt lat="45.76548" lon="2.96077">
        <ele>1072</ele>
        <time>2021-07-17T17:07:55Z</time>
      </trkpt>
      <trkpt lat="45.76548" lon="2.96075">
        <ele>1072</ele>
        <time>2021-07-17T17:07:56Z</time>
      </trkpt>
      <trkpt lat="45.76548" lon="2.96073">
        <ele>1072</ele>
        <time>2021-07-17T17:07:57Z</time>
      </trkpt>
      <trkpt lat="45.76548" lon="2.96071">
        <ele>1072</ele>
        <time>2021-07-17T17:07:58Z</time>
      </trkpt>
      <trkpt lat="45.76548" lon="2.96069">
        <ele>1072</ele>
        <time>2021-07-17T17:07:59Z</time>
      </trkpt>
      <trkpt lat="45.76549" lon="2.96067">
        <ele>1072</ele>
        <time>2021-07-17T17:08:00Z</time>
      </trkpt>
      <trkpt lat="45.7655" lon="2.96065">
        <ele>1072</ele>
        <time>2021-07-17T17:08:01Z</time>
      </trkpt>
      <trkpt lat="45.7655" lon="2.96064">
        <ele>1072</ele>
        <time>2021-07-17T17:08:02Z</time>
      </trkpt>
      <trkpt lat="45.7655" lon="2.96062">
        <ele>1072</ele>
        <time>2021-07-17T17:08:03Z</time>
      </trkpt>
      <trkpt lat="45.7655" lon="2.9606">
        <ele>1072</ele>
        <time>2021-07-17T17:08:04Z</time>
      </trkpt>
      <trkpt lat="45.7655" lon="2.96059">
        <ele>1072</ele>
        <time>2021-07-17T17:08:05Z</time>
      </trkpt>
      <trkpt lat="45.76551" lon="2.96057">
        <ele>1072</ele>
        <time>2021-07-17T17:08:06Z</time>
      </trkpt>
      <trkpt lat="45.76551" lon="2.96055">
        <ele>1072</ele>
        <time>2021-07-17T17:08:07Z</time>
      </trkpt>
      <trkpt lat="45.76551" lon="2.96054">
        <ele>1072</ele>
        <time>2021-07-17T17:08:08Z</time>
      </trkpt>
      <trkpt lat="45.76551" lon="2.96052">
        <ele>1072</ele>
        <time>2021-07-17T17:08:09Z</time>
      </trkpt>
      <trkpt lat="45.76551" lon="2.9605">
        <ele>1072</ele>
        <time>2021-07-17T17:08:10Z</time>
      </trkpt>
      <trkpt lat="45.76551" lon="2.96049">
        <ele>1072</ele>
        <time>2021-07-17T17:08:11Z</time>
      </trkpt>
      <trkpt lat="45.76551" lon="2.96047">
        <ele>1072</ele>
        <time>2021-07-17T17:08:12Z</time>
      </trkpt>
      <trkpt lat="45.76551" lon="2.96046">
        <ele>1072</ele>
        <time>2021-07-17T17:08:13Z</time>
      </trkpt>
      <trkpt lat="45.76551" lon="2.96044">
        <ele>1072</ele>
        <time>2021-07-17T17:08:14Z</time>
      </trkpt>
      <trkpt lat="45.76551" lon="2.96043">
        <ele>1072</ele>
        <time>2021-07-17T17:08:15Z</time>
      </trkpt>
      <trkpt lat="45.76551" lon="2.96041">
        <ele>1072</ele>
        <time>2021-07-17T17:08:16Z</time>
      </trkpt>
      <trkpt lat="45.76551" lon="2.9604">
        <ele>1072</ele>
        <time>2021-07-17T17:08:17Z</time>
      </trkpt>
      <trkpt lat="45.76551" lon="2.96038">
        <ele>1072</ele>
        <time>2021-07-17T17:08:18Z</time>
      </trkpt>
      <trkpt lat="45.76551" lon="2.96037">
        <ele>1072</ele>
        <time>2021-07-17T17:08:19Z</time>
      </trkpt>
      <trkpt lat="45.76551" lon="2.96035">
        <ele>1072</ele>
        <time>2021-07-17T17:08:20Z</time>
      </trkpt>
      <trkpt lat="45.76551" lon="2.96034">
        <ele>1072</ele>
        <time>2021-07-17T17:08:21Z</time>
      </trkpt>
      <trkpt lat="45.76552" lon="2.96032">
        <ele>1072</ele>
        <time>2021-07-17T17:08:22Z</time>
      </trkpt>
      <trkpt lat="45.76552" lon="2.96031">
        <ele>1072</ele>
        <time>2021-07-17T17:08:23Z</time>
      </trkpt>
      <trkpt lat="45.76552" lon="2.96029">
        <ele>1072</ele>
        <time>2021-07-17T17:08:24Z</time>
      </trkpt>
      <trkpt lat="45.76553" lon="2.96028">
        <ele>1072</ele>
        <time>2021-07-17T17:08:25Z</time>
      </trkpt>
      <trkpt lat="45.76553" lon="2.96026">
        <ele>1072</ele>
        <time>2021-07-17T17:08:26Z</time>
      </trkpt>
      <trkpt lat="45.76553" lon="2.96024">
        <ele>1072</ele>
        <time>2021-07-17T17:08:27Z</time>
      </trkpt>
      <trkpt lat="45.76553" lon="2.96022">
        <ele>1072</ele>
        <time>2021-07-17T17:08:28Z</time>
      </trkpt>
      <trkpt lat="45.76553" lon="2.96021">
        <ele>1072</ele>
        <time>2021-07-17T17:08:29Z</time>
      </trkpt>
      <trkpt lat="45.76553" lon="2.96019">
        <ele>1072</ele>
        <time>2021-07-17T17:08:32Z</time>
      </trkpt>
      <trkpt lat="45.76553" lon="2.96011">
        <ele>1072</ele>
        <time>2021-07-17T17:08:33Z</time>
      </trkpt>
      <trkpt lat="45.76553" lon="2.96011">
        <ele>1072</ele>
        <time>2021-07-17T17:08:34Z</time>
      </trkpt>
      <trkpt lat="45.76553" lon="2.9601">
        <ele>1072</ele>
        <time>2021-07-17T17:08:35Z</time>
      </trkpt>
      <trkpt lat="45.76553" lon="2.96008">
        <ele>1072</ele>
        <time>2021-07-17T17:08:36Z</time>
      </trkpt>
      <trkpt lat="45.76554" lon="2.96007">
        <ele>1072</ele>
        <time>2021-07-17T17:08:37Z</time>
      </trkpt>
      <trkpt lat="45.76554" lon="2.96006">
        <ele>1072</ele>
        <time>2021-07-17T17:08:38Z</time>
      </trkpt>
      <trkpt lat="45.76554" lon="2.96005">
        <ele>1072</ele>
        <time>2021-07-17T17:08:39Z</time>
      </trkpt>
      <trkpt lat="45.76555" lon="2.96003">
        <ele>1072</ele>
        <time>2021-07-17T17:08:40Z</time>
      </trkpt>
      <trkpt lat="45.76555" lon="2.96002">
        <ele>1072</ele>
        <time>2021-07-17T17:08:41Z</time>
      </trkpt>
      <trkpt lat="45.76555" lon="2.96">
        <ele>1072</ele>
        <time>2021-07-17T17:08:42Z</time>
      </trkpt>
      <trkpt lat="45.76556" lon="2.95998">
        <ele>1072</ele>
        <time>2021-07-17T17:08:43Z</time>
      </trkpt>
      <trkpt lat="45.76556" lon="2.95997">
        <ele>1072</ele>
        <time>2021-07-17T17:08:44Z</time>
      </trkpt>
      <trkpt lat="45.76556" lon="2.95995">
        <ele>1072</ele>
        <time>2021-07-17T17:08:45Z</time>
      </trkpt>
      <trkpt lat="45.76556" lon="2.95993">
        <ele>1072</ele>
        <time>2021-07-17T17:08:46Z</time>
      </trkpt>
      <trkpt lat="45.76556" lon="2.95992">
        <ele>1072</ele>
        <time>2021-07-17T17:08:47Z</time>
      </trkpt>
      <trkpt lat="45.76557" lon="2.9599">
        <ele>1072</ele>
        <time>2021-07-17T17:08:48Z</time>
      </trkpt>
      <trkpt lat="45.76557" lon="2.95988">
        <ele>1072</ele>
        <time>2021-07-17T17:08:49Z</time>
      </trkpt>
      <trkpt lat="45.76558" lon="2.95987">
        <ele>1072</ele>
        <time>2021-07-17T17:08:50Z</time>
      </trkpt>
      <trkpt lat="45.76558" lon="2.95986">
        <ele>1072</ele>
        <time>2021-07-17T17:08:51Z</time>
      </trkpt>
      <trkpt lat="45.76558" lon="2.95984">
        <ele>1072</ele>
        <time>2021-07-17T17:08:52Z</time>
      </trkpt>
      <trkpt lat="45.76558" lon="2.95983">
        <ele>1072</ele>
        <time>2021-07-17T17:08:53Z</time>
      </trkpt>
      <trkpt lat="45.76559" lon="2.95981">
        <ele>1072</ele>
        <time>2021-07-17T17:08:54Z</time>
      </trkpt>
      <trkpt lat="45.76559" lon="2.9598">
        <ele>1072</ele>
        <time>2021-07-17T17:08:55Z</time>
      </trkpt>
      <trkpt lat="45.76559" lon="2.95978">
        <ele>1072</ele>
        <time>2021-07-17T17:08:56Z</time>
      </trkpt>
      <trkpt lat="45.7656" lon="2.95976">
        <ele>1072</ele>
        <time>2021-07-17T17:08:57Z</time>
      </trkpt>
      <trkpt lat="45.76561" lon="2.95974">
        <ele>1072</ele>
        <time>2021-07-17T17:08:58Z</time>
      </trkpt>
      <trkpt lat="45.76561" lon="2.95972">
        <ele>1072</ele>
        <time>2021-07-17T17:08:59Z</time>
      </trkpt>
      <trkpt lat="45.76561" lon="2.95971">
        <ele>1072</ele>
        <time>2021-07-17T17:09:00Z</time>
      </trkpt>
      <trkpt lat="45.76562" lon="2.95969">
        <ele>1072</ele>
        <time>2021-07-17T17:09:01Z</time>
      </trkpt>
      <trkpt lat="45.76562" lon="2.95967">
        <ele>1072</ele>
        <time>2021-07-17T17:09:02Z</time>
      </trkpt>
      <trkpt lat="45.76562" lon="2.95965">
        <ele>1072</ele>
        <time>2021-07-17T17:09:03Z</time>
      </trkpt>
      <trkpt lat="45.76563" lon="2.95963">
        <ele>1072</ele>
        <time>2021-07-17T17:09:04Z</time>
      </trkpt>
      <trkpt lat="45.76563" lon="2.95961">
        <ele>1072</ele>
        <time>2021-07-17T17:09:05Z</time>
      </trkpt>
      <trkpt lat="45.76563" lon="2.95959">
        <ele>1072</ele>
        <time>2021-07-17T17:09:06Z</time>
      </trkpt>
      <trkpt lat="45.76564" lon="2.95958">
        <ele>1072</ele>
        <time>2021-07-17T17:09:07Z</time>
      </trkpt>
      <trkpt lat="45.76564" lon="2.95956">
        <ele>1072</ele>
        <time>2021-07-17T17:09:08Z</time>
      </trkpt>
      <trkpt lat="45.76564" lon="2.95954">
        <ele>1072</ele>
        <time>2021-07-17T17:09:09Z</time>
      </trkpt>
      <trkpt lat="45.76564" lon="2.95952">
        <ele>1072</ele>
        <time>2021-07-17T17:09:10Z</time>
      </trkpt>
      <trkpt lat="45.76565" lon="2.95951">
        <ele>1072</ele>
        <time>2021-07-17T17:09:11Z</time>
      </trkpt>
      <trkpt lat="45.76565" lon="2.95949">
        <ele>1072</ele>
        <time>2021-07-17T17:09:12Z</time>
      </trkpt>
      <trkpt lat="45.76565" lon="2.95947">
        <ele>1072</ele>
        <time>2021-07-17T17:09:13Z</time>
      </trkpt>
      <trkpt lat="45.76566" lon="2.95945">
        <ele>1072</ele>
        <time>2021-07-17T17:09:14Z</time>
      </trkpt>
      <trkpt lat="45.76566" lon="2.95943">
        <ele>1072</ele>
        <time>2021-07-17T17:09:15Z</time>
      </trkpt>
      <trkpt lat="45.76566" lon="2.95942">
        <ele>1072</ele>
        <time>2021-07-17T17:09:16Z</time>
      </trkpt>
      <trkpt lat="45.76567" lon="2.9594">
        <ele>1072</ele>
        <time>2021-07-17T17:09:17Z</time>
      </trkpt>
      <trkpt lat="45.76566" lon="2.95938">
        <ele>1072</ele>
        <time>2021-07-17T17:09:18Z</time>
      </trkpt>
      <trkpt lat="45.76566" lon="2.95936">
        <ele>1072</ele>
        <time>2021-07-17T17:09:19Z</time>
      </trkpt>
      <trkpt lat="45.76566" lon="2.95934">
        <ele>1072</ele>
        <time>2021-07-17T17:09:20Z</time>
      </trkpt>
      <trkpt lat="45.76565" lon="2.95932">
        <ele>1072</ele>
        <time>2021-07-17T17:09:21Z</time>
      </trkpt>
      <trkpt lat="45.76565" lon="2.95931">
        <ele>1072</ele>
        <time>2021-07-17T17:09:22Z</time>
      </trkpt>
      <trkpt lat="45.76564" lon="2.95929">
        <ele>1072</ele>
        <time>2021-07-17T17:09:23Z</time>
      </trkpt>
      <trkpt lat="45.76563" lon="2.95928">
        <ele>1072</ele>
        <time>2021-07-17T17:09:24Z</time>
      </trkpt>
      <trkpt lat="45.76562" lon="2.95926">
        <ele>1072</ele>
        <time>2021-07-17T17:09:25Z</time>
      </trkpt>
      <trkpt lat="45.76561" lon="2.95925">
        <ele>1072</ele>
        <time>2021-07-17T17:09:26Z</time>
      </trkpt>
      <trkpt lat="45.76561" lon="2.95923">
        <ele>1072</ele>
        <time>2021-07-17T17:09:27Z</time>
      </trkpt>
      <trkpt lat="45.76559" lon="2.95922">
        <ele>1072</ele>
        <time>2021-07-17T17:09:28Z</time>
      </trkpt>
      <trkpt lat="45.76559" lon="2.9592">
        <ele>1072</ele>
        <time>2021-07-17T17:09:29Z</time>
      </trkpt>
      <trkpt lat="45.76559" lon="2.95919">
        <ele>1072</ele>
        <time>2021-07-17T17:09:30Z</time>
      </trkpt>
      <trkpt lat="45.76558" lon="2.95917">
        <ele>1072</ele>
        <time>2021-07-17T17:09:31Z</time>
      </trkpt>
      <trkpt lat="45.76558" lon="2.95915">
        <ele>1072</ele>
        <time>2021-07-17T17:09:32Z</time>
      </trkpt>
      <trkpt lat="45.76558" lon="2.95913">
        <ele>1072</ele>
        <time>2021-07-17T17:09:33Z</time>
      </trkpt>
      <trkpt lat="45.76557" lon="2.95911">
        <ele>1072</ele>
        <time>2021-07-17T17:09:34Z</time>
      </trkpt>
      <trkpt lat="45.76556" lon="2.95909">
        <ele>1072</ele>
        <time>2021-07-17T17:09:35Z</time>
      </trkpt>
      <trkpt lat="45.76556" lon="2.95907">
        <ele>1072</ele>
        <time>2021-07-17T17:09:36Z</time>
      </trkpt>
      <trkpt lat="45.76556" lon="2.95905">
        <ele>1072</ele>
        <time>2021-07-17T17:09:37Z</time>
      </trkpt>
      <trkpt lat="45.76556" lon="2.95903">
        <ele>1072</ele>
        <time>2021-07-17T17:09:38Z</time>
      </trkpt>
      <trkpt lat="45.76557" lon="2.95901">
        <ele>1072</ele>
        <time>2021-07-17T17:09:39Z</time>
      </trkpt>
      <trkpt lat="45.76557" lon="2.95899">
        <ele>1072</ele>
        <time>2021-07-17T17:09:40Z</time>
      </trkpt>
      <trkpt lat="45.76557" lon="2.95897">
        <ele>1072</ele>
        <time>2021-07-17T17:09:41Z</time>
      </trkpt>
      <trkpt lat="45.76557" lon="2.95895">
        <ele>1072</ele>
        <time>2021-07-17T17:09:42Z</time>
      </trkpt>
      <trkpt lat="45.76558" lon="2.95893">
        <ele>1072</ele>
        <time>2021-07-17T17:09:43Z</time>
      </trkpt>
      <trkpt lat="45.76558" lon="2.95891">
        <ele>1072</ele>
        <time>2021-07-17T17:09:44Z</time>
      </trkpt>
      <trkpt lat="45.76558" lon="2.95888">
        <ele>1072</ele>
        <time>2021-07-17T17:09:45Z</time>
      </trkpt>
      <trkpt lat="45.76558" lon="2.95886">
        <ele>1072</ele>
        <time>2021-07-17T17:09:46Z</time>
      </trkpt>
      <trkpt lat="45.76558" lon="2.95883">
        <ele>1072</ele>
        <time>2021-07-17T17:09:47Z</time>
      </trkpt>
      <trkpt lat="45.76559" lon="2.95881">
        <ele>1072</ele>
        <time>2021-07-17T17:09:48Z</time>
      </trkpt>
      <trkpt lat="45.76559" lon="2.95878">
        <ele>1072</ele>
        <time>2021-07-17T17:09:49Z</time>
      </trkpt>
      <trkpt lat="45.76559" lon="2.95876">
        <ele>1072</ele>
        <time>2021-07-17T17:09:50Z</time>
      </trkpt>
      <trkpt lat="45.76559" lon="2.95874">
        <ele>1072</ele>
        <time>2021-07-17T17:09:51Z</time>
      </trkpt>
      <trkpt lat="45.76559" lon="2.95871">
        <ele>1072</ele>
        <time>2021-07-17T17:09:52Z</time>
      </trkpt>
      <trkpt lat="45.76559" lon="2.95869">
        <ele>1072</ele>
        <time>2021-07-17T17:09:52Z</time>
      </trkpt>
      <trkpt lat="45.76559" lon="2.95867">
        <ele>1072</ele>
        <time>2021-07-17T17:09:53Z</time>
      </trkpt>
      <trkpt lat="45.7656" lon="2.95864">
        <ele>1072</ele>
        <time>2021-07-17T17:09:54Z</time>
      </trkpt>
      <trkpt lat="45.76561" lon="2.95862">
        <ele>1072</ele>
        <time>2021-07-17T17:09:55Z</time>
      </trkpt>
      <trkpt lat="45.76561" lon="2.9586">
        <ele>1072</ele>
        <time>2021-07-17T17:09:56Z</time>
      </trkpt>
      <trkpt lat="45.76561" lon="2.95858">
        <ele>1072</ele>
        <time>2021-07-17T17:09:57Z</time>
      </trkpt>
      <trkpt lat="45.76561" lon="2.95856">
        <ele>1072</ele>
        <time>2021-07-17T17:09:58Z</time>
      </trkpt>
      <trkpt lat="45.76562" lon="2.95854">
        <ele>1072</ele>
        <time>2021-07-17T17:09:59Z</time>
      </trkpt>
      <trkpt lat="45.76562" lon="2.95852">
        <ele>1072</ele>
        <time>2021-07-17T17:10:00Z</time>
      </trkpt>
      <trkpt lat="45.76563" lon="2.9585">
        <ele>1072</ele>
        <time>2021-07-17T17:10:01Z</time>
      </trkpt>
      <trkpt lat="45.76563" lon="2.95848">
        <ele>1072</ele>
        <time>2021-07-17T17:10:02Z</time>
      </trkpt>
      <trkpt lat="45.76563" lon="2.95846">
        <ele>1072</ele>
        <time>2021-07-17T17:10:03Z</time>
      </trkpt>
      <trkpt lat="45.76563" lon="2.95844">
        <ele>1072</ele>
        <time>2021-07-17T17:10:04Z</time>
      </trkpt>
      <trkpt lat="45.76563" lon="2.95843">
        <ele>1072</ele>
        <time>2021-07-17T17:10:05Z</time>
      </trkpt>
      <trkpt lat="45.76563" lon="2.95841">
        <ele>1072</ele>
        <time>2021-07-17T17:10:06Z</time>
      </trkpt>
      <trkpt lat="45.76563" lon="2.95839">
        <ele>1072</ele>
        <time>2021-07-17T17:10:07Z</time>
      </trkpt>
      <trkpt lat="45.76563" lon="2.95837">
        <ele>1072</ele>
        <time>2021-07-17T17:10:08Z</time>
      </trkpt>
      <trkpt lat="45.76563" lon="2.95835">
        <ele>1072</ele>
        <time>2021-07-17T17:10:09Z</time>
      </trkpt>
      <trkpt lat="45.76563" lon="2.95833">
        <ele>1072</ele>
        <time>2021-07-17T17:10:10Z</time>
      </trkpt>
      <trkpt lat="45.76563" lon="2.95831">
        <ele>1072</ele>
        <time>2021-07-17T17:10:11Z</time>
      </trkpt>
      <trkpt lat="45.76562" lon="2.95829">
        <ele>1072</ele>
        <time>2021-07-17T17:10:12Z</time>
      </trkpt>
      <trkpt lat="45.76562" lon="2.95827">
        <ele>1072</ele>
        <time>2021-07-17T17:10:13Z</time>
      </trkpt>
      <trkpt lat="45.76562" lon="2.95825">
        <ele>1072</ele>
        <time>2021-07-17T17:10:14Z</time>
      </trkpt>
      <trkpt lat="45.76562" lon="2.95823">
        <ele>1072</ele>
        <time>2021-07-17T17:10:15Z</time>
      </trkpt>
      <trkpt lat="45.76562" lon="2.95821">
        <ele>1072</ele>
        <time>2021-07-17T17:10:16Z</time>
      </trkpt>
      <trkpt lat="45.76562" lon="2.95819">
        <ele>1072</ele>
        <time>2021-07-17T17:10:17Z</time>
      </trkpt>
      <trkpt lat="45.76562" lon="2.95818">
        <ele>1072</ele>
        <time>2021-07-17T17:10:18Z</time>
      </trkpt>
      <trkpt lat="45.76562" lon="2.95816">
        <ele>1072</ele>
        <time>2021-07-17T17:10:19Z</time>
      </trkpt>
      <trkpt lat="45.76562" lon="2.95815">
        <ele>1072</ele>
        <time>2021-07-17T17:10:20Z</time>
      </trkpt>
      <trkpt lat="45.76562" lon="2.95814">
        <ele>1072</ele>
        <time>2021-07-17T17:10:21Z</time>
      </trkpt>
      <trkpt lat="45.76562" lon="2.95813">
        <ele>1072</ele>
        <time>2021-07-17T17:10:22Z</time>
      </trkpt>
      <trkpt lat="45.76561" lon="2.95812">
        <ele>1072</ele>
        <time>2021-07-17T17:10:23Z</time>
      </trkpt>
      <trkpt lat="45.76561" lon="2.95811">
        <ele>1072</ele>
        <time>2021-07-17T17:10:24Z</time>
      </trkpt>
      <trkpt lat="45.7656" lon="2.9581">
        <ele>1072</ele>
        <time>2021-07-17T17:10:25Z</time>
      </trkpt>
      <trkpt lat="45.76559" lon="2.95809">
        <ele>1072</ele>
        <time>2021-07-17T17:10:26Z</time>
      </trkpt>
      <trkpt lat="45.76559" lon="2.95808">
        <ele>1072</ele>
        <time>2021-07-17T17:10:27Z</time>
      </trkpt>
      <trkpt lat="45.76558" lon="2.95807">
        <ele>1072</ele>
        <time>2021-07-17T17:10:28Z</time>
      </trkpt>
      <trkpt lat="45.76558" lon="2.95807">
        <ele>1072</ele>
        <time>2021-07-17T17:10:29Z</time>
      </trkpt>
      <trkpt lat="45.76558" lon="2.95807">
        <ele>1072</ele>
        <time>2021-07-17T17:10:30Z</time>
      </trkpt>
      <trkpt lat="45.76557" lon="2.95806">
        <ele>1072</ele>
        <time>2021-07-17T17:10:33Z</time>
      </trkpt>
      <trkpt lat="45.76557" lon="2.95806">
        <ele>1072</ele>
        <time>2021-07-17T17:10:34Z</time>
      </trkpt>
      <trkpt lat="45.76556" lon="2.95806">
        <ele>1072</ele>
        <time>2021-07-17T17:10:35Z</time>
      </trkpt>
      <trkpt lat="45.76556" lon="2.95805">
        <ele>1072</ele>
        <time>2021-07-17T17:10:36Z</time>
      </trkpt>
      <trkpt lat="45.76556" lon="2.95805">
        <ele>1072</ele>
        <time>2021-07-17T17:10:37Z</time>
      </trkpt>
      <trkpt lat="45.76555" lon="2.95804">
        <ele>1072</ele>
        <time>2021-07-17T17:10:38Z</time>
      </trkpt>
      <trkpt lat="45.76555" lon="2.95803">
        <ele>1072</ele>
        <time>2021-07-17T17:10:39Z</time>
      </trkpt>
      <trkpt lat="45.76553" lon="2.95802">
        <ele>1072</ele>
        <time>2021-07-17T17:10:40Z</time>
      </trkpt>
      <trkpt lat="45.76553" lon="2.95801">
        <ele>1072</ele>
        <time>2021-07-17T17:10:41Z</time>
      </trkpt>
      <trkpt lat="45.76552" lon="2.958">
        <ele>1072</ele>
        <time>2021-07-17T17:10:42Z</time>
      </trkpt>
      <trkpt lat="45.76551" lon="2.95799">
        <ele>1072</ele>
        <time>2021-07-17T17:10:43Z</time>
      </trkpt>
      <trkpt lat="45.7655" lon="2.95798">
        <ele>1072</ele>
        <time>2021-07-17T17:10:44Z</time>
      </trkpt>
      <trkpt lat="45.7655" lon="2.95797">
        <ele>1072</ele>
        <time>2021-07-17T17:10:45Z</time>
      </trkpt>
      <trkpt lat="45.76549" lon="2.95796">
        <ele>1072</ele>
        <time>2021-07-17T17:10:46Z</time>
      </trkpt>
      <trkpt lat="45.76548" lon="2.95795">
        <ele>1072</ele>
        <time>2021-07-17T17:10:47Z</time>
      </trkpt>
      <trkpt lat="45.76548" lon="2.95794">
        <ele>1072</ele>
        <time>2021-07-17T17:10:48Z</time>
      </trkpt>
      <trkpt lat="45.76547" lon="2.95793">
        <ele>1072</ele>
        <time>2021-07-17T17:10:49Z</time>
      </trkpt>
      <trkpt lat="45.76547" lon="2.95792">
        <ele>1072</ele>
        <time>2021-07-17T17:10:50Z</time>
      </trkpt>
      <trkpt lat="45.76546" lon="2.95791">
        <ele>1072</ele>
        <time>2021-07-17T17:10:51Z</time>
      </trkpt>
      <trkpt lat="45.76545" lon="2.95789">
        <ele>1072</ele>
        <time>2021-07-17T17:10:52Z</time>
      </trkpt>
      <trkpt lat="45.76544" lon="2.95788">
        <ele>1072</ele>
        <time>2021-07-17T17:10:53Z</time>
      </trkpt>
      <trkpt lat="45.76544" lon="2.95787">
        <ele>1072</ele>
        <time>2021-07-17T17:10:54Z</time>
      </trkpt>
      <trkpt lat="45.76543" lon="2.95786">
        <ele>1072</ele>
        <time>2021-07-17T17:10:55Z</time>
      </trkpt>
      <trkpt lat="45.76542" lon="2.95785">
        <ele>1072</ele>
        <time>2021-07-17T17:10:56Z</time>
      </trkpt>
      <trkpt lat="45.76541" lon="2.95783">
        <ele>1072</ele>
        <time>2021-07-17T17:10:57Z</time>
      </trkpt>
      <trkpt lat="45.7654" lon="2.95782">
        <ele>1072</ele>
        <time>2021-07-17T17:10:58Z</time>
      </trkpt>
      <trkpt lat="45.76539" lon="2.95781">
        <ele>1072</ele>
        <time>2021-07-17T17:10:59Z</time>
      </trkpt>
      <trkpt lat="45.76538" lon="2.9578">
        <ele>1072</ele>
        <time>2021-07-17T17:11:00Z</time>
      </trkpt>
      <trkpt lat="45.76537" lon="2.95779">
        <ele>1072</ele>
        <time>2021-07-17T17:11:01Z</time>
      </trkpt>
      <trkpt lat="45.76535" lon="2.95778">
        <ele>1072</ele>
        <time>2021-07-17T17:11:02Z</time>
      </trkpt>
      <trkpt lat="45.76535" lon="2.95777">
        <ele>1072</ele>
        <time>2021-07-17T17:11:03Z</time>
      </trkpt>
      <trkpt lat="45.76534" lon="2.95776">
        <ele>1072</ele>
        <time>2021-07-17T17:11:04Z</time>
      </trkpt>
      <trkpt lat="45.76532" lon="2.95775">
        <ele>1072</ele>
        <time>2021-07-17T17:11:05Z</time>
      </trkpt>
      <trkpt lat="45.76531" lon="2.95773">
        <ele>1072</ele>
        <time>2021-07-17T17:11:06Z</time>
      </trkpt>
      <trkpt lat="45.7653" lon="2.95773">
        <ele>1072</ele>
        <time>2021-07-17T17:11:07Z</time>
      </trkpt>
      <trkpt lat="45.76529" lon="2.95772">
        <ele>1072</ele>
        <time>2021-07-17T17:11:08Z</time>
      </trkpt>
      <trkpt lat="45.76527" lon="2.95771">
        <ele>1072</ele>
        <time>2021-07-17T17:11:09Z</time>
      </trkpt>
      <trkpt lat="45.76526" lon="2.9577">
        <ele>1072</ele>
        <time>2021-07-17T17:11:10Z</time>
      </trkpt>
      <trkpt lat="45.76526" lon="2.95769">
        <ele>1072</ele>
        <time>2021-07-17T17:11:11Z</time>
      </trkpt>
      <trkpt lat="45.76524" lon="2.95768">
        <ele>1072</ele>
        <time>2021-07-17T17:11:12Z</time>
      </trkpt>
      <trkpt lat="45.76524" lon="2.95767">
        <ele>1072</ele>
        <time>2021-07-17T17:11:13Z</time>
      </trkpt>
      <trkpt lat="45.76523" lon="2.95766">
        <ele>1072</ele>
        <time>2021-07-17T17:11:14Z</time>
      </trkpt>
      <trkpt lat="45.76522" lon="2.95764">
        <ele>1072</ele>
        <time>2021-07-17T17:11:15Z</time>
      </trkpt>
      <trkpt lat="45.76521" lon="2.95763">
        <ele>1072</ele>
        <time>2021-07-17T17:11:16Z</time>
      </trkpt>
      <trkpt lat="45.7652" lon="2.95762">
        <ele>1072</ele>
        <time>2021-07-17T17:11:17Z</time>
      </trkpt>
      <trkpt lat="45.7652" lon="2.95761">
        <ele>1072</ele>
        <time>2021-07-17T17:11:18Z</time>
      </trkpt>
      <trkpt lat="45.76519" lon="2.95759">
        <ele>1072</ele>
        <time>2021-07-17T17:11:19Z</time>
      </trkpt>
      <trkpt lat="45.76518" lon="2.95758">
        <ele>1072</ele>
        <time>2021-07-17T17:11:20Z</time>
      </trkpt>
      <trkpt lat="45.76517" lon="2.95756">
        <ele>1072</ele>
        <time>2021-07-17T17:11:21Z</time>
      </trkpt>
      <trkpt lat="45.76516" lon="2.95754">
        <ele>1072</ele>
        <time>2021-07-17T17:11:22Z</time>
      </trkpt>
      <trkpt lat="45.76516" lon="2.95753">
        <ele>1072</ele>
        <time>2021-07-17T17:11:23Z</time>
      </trkpt>
      <trkpt lat="45.76514" lon="2.95751">
        <ele>1072</ele>
        <time>2021-07-17T17:11:24Z</time>
      </trkpt>
      <trkpt lat="45.76514" lon="2.9575">
        <ele>1072</ele>
        <time>2021-07-17T17:11:25Z</time>
      </trkpt>
      <trkpt lat="45.76513" lon="2.95749">
        <ele>1072</ele>
        <time>2021-07-17T17:11:26Z</time>
      </trkpt>
      <trkpt lat="45.76511" lon="2.95747">
        <ele>1072</ele>
        <time>2021-07-17T17:11:27Z</time>
      </trkpt>
      <trkpt lat="45.76511" lon="2.95746">
        <ele>1072</ele>
        <time>2021-07-17T17:11:28Z</time>
      </trkpt>
      <trkpt lat="45.7651" lon="2.95744">
        <ele>1072</ele>
        <time>2021-07-17T17:11:30Z</time>
      </trkpt>
      <trkpt lat="45.76506" lon="2.95739">
        <ele>1072</ele>
        <time>2021-07-17T17:11:31Z</time>
      </trkpt>
      <trkpt lat="45.76506" lon="2.95738">
        <ele>1072</ele>
        <time>2021-07-17T17:11:32Z</time>
      </trkpt>
      <trkpt lat="45.76505" lon="2.95737">
        <ele>1072</ele>
        <time>2021-07-17T17:11:33Z</time>
      </trkpt>
      <trkpt lat="45.76505" lon="2.95736">
        <ele>1072</ele>
        <time>2021-07-17T17:11:34Z</time>
      </trkpt>
      <trkpt lat="45.76505" lon="2.95735">
        <ele>1072</ele>
        <time>2021-07-17T17:11:35Z</time>
      </trkpt>
      <trkpt lat="45.76504" lon="2.95734">
        <ele>1072</ele>
        <time>2021-07-17T17:11:36Z</time>
      </trkpt>
      <trkpt lat="45.76504" lon="2.95732">
        <ele>1072</ele>
        <time>2021-07-17T17:11:37Z</time>
      </trkpt>
      <trkpt lat="45.76503" lon="2.95731">
        <ele>1072</ele>
        <time>2021-07-17T17:11:38Z</time>
      </trkpt>
      <trkpt lat="45.76503" lon="2.95729">
        <ele>1072</ele>
        <time>2021-07-17T17:11:39Z</time>
      </trkpt>
      <trkpt lat="45.76502" lon="2.95728">
        <ele>1072</ele>
        <time>2021-07-17T17:11:40Z</time>
      </trkpt>
      <trkpt lat="45.76502" lon="2.95726">
        <ele>1072</ele>
        <time>2021-07-17T17:11:41Z</time>
      </trkpt>
      <trkpt lat="45.76501" lon="2.95724">
        <ele>1072</ele>
        <time>2021-07-17T17:11:42Z</time>
      </trkpt>
      <trkpt lat="45.765" lon="2.95723">
        <ele>1072</ele>
        <time>2021-07-17T17:11:43Z</time>
      </trkpt>
      <trkpt lat="45.765" lon="2.95721">
        <ele>1072</ele>
        <time>2021-07-17T17:11:44Z</time>
      </trkpt>
      <trkpt lat="45.76499" lon="2.95719">
        <ele>1072</ele>
        <time>2021-07-17T17:11:45Z</time>
      </trkpt>
      <trkpt lat="45.76498" lon="2.95717">
        <ele>1072</ele>
        <time>2021-07-17T17:11:46Z</time>
      </trkpt>
      <trkpt lat="45.76498" lon="2.95715">
        <ele>1072</ele>
        <time>2021-07-17T17:11:47Z</time>
      </trkpt>
      <trkpt lat="45.76497" lon="2.95713">
        <ele>1072</ele>
        <time>2021-07-17T17:11:48Z</time>
      </trkpt>
      <trkpt lat="45.76497" lon="2.95711">
        <ele>1072</ele>
        <time>2021-07-17T17:11:49Z</time>
      </trkpt>
      <trkpt lat="45.76496" lon="2.95709">
        <ele>1072</ele>
        <time>2021-07-17T17:11:50Z</time>
      </trkpt>
      <trkpt lat="45.76496" lon="2.95707">
        <ele>1072</ele>
        <time>2021-07-17T17:11:51Z</time>
      </trkpt>
      <trkpt lat="45.76495" lon="2.95705">
        <ele>1072</ele>
        <time>2021-07-17T17:11:52Z</time>
      </trkpt>
      <trkpt lat="45.76495" lon="2.95704">
        <ele>1072</ele>
        <time>2021-07-17T17:11:53Z</time>
      </trkpt>
      <trkpt lat="45.76494" lon="2.95702">
        <ele>1072</ele>
        <time>2021-07-17T17:11:54Z</time>
      </trkpt>
      <trkpt lat="45.76493" lon="2.957">
        <ele>1072</ele>
        <time>2021-07-17T17:11:55Z</time>
      </trkpt>
      <trkpt lat="45.76492" lon="2.95698">
        <ele>1072</ele>
        <time>2021-07-17T17:11:56Z</time>
      </trkpt>
      <trkpt lat="45.76491" lon="2.95697">
        <ele>1072</ele>
        <time>2021-07-17T17:11:57Z</time>
      </trkpt>
      <trkpt lat="45.7649" lon="2.95695">
        <ele>1072</ele>
        <time>2021-07-17T17:11:58Z</time>
      </trkpt>
      <trkpt lat="45.76489" lon="2.95694">
        <ele>1072</ele>
        <time>2021-07-17T17:11:59Z</time>
      </trkpt>
      <trkpt lat="45.76488" lon="2.95693">
        <ele>1072</ele>
        <time>2021-07-17T17:12:00Z</time>
      </trkpt>
      <trkpt lat="45.76487" lon="2.95692">
        <ele>1072</ele>
        <time>2021-07-17T17:12:01Z</time>
      </trkpt>
      <trkpt lat="45.76486" lon="2.95692">
        <ele>1072</ele>
        <time>2021-07-17T17:12:02Z</time>
      </trkpt>
      <trkpt lat="45.76485" lon="2.95692">
        <ele>1072</ele>
        <time>2021-07-17T17:12:03Z</time>
      </trkpt>
      <trkpt lat="45.76484" lon="2.95692">
        <ele>1072</ele>
        <time>2021-07-17T17:12:04Z</time>
      </trkpt>
      <trkpt lat="45.76483" lon="2.95692">
        <ele>1072</ele>
        <time>2021-07-17T17:12:05Z</time>
      </trkpt>
      <trkpt lat="45.76482" lon="2.95692">
        <ele>1072</ele>
        <time>2021-07-17T17:12:06Z</time>
      </trkpt>
      <trkpt lat="45.76481" lon="2.95692">
        <ele>1072</ele>
        <time>2021-07-17T17:12:07Z</time>
      </trkpt>
      <trkpt lat="45.7648" lon="2.95693">
        <ele>1072</ele>
        <time>2021-07-17T17:12:08Z</time>
      </trkpt>
      <trkpt lat="45.76479" lon="2.95693">
        <ele>1072</ele>
        <time>2021-07-17T17:12:09Z</time>
      </trkpt>
      <trkpt lat="45.76478" lon="2.95693">
        <ele>1072</ele>
        <time>2021-07-17T17:12:10Z</time>
      </trkpt>
      <trkpt lat="45.76477" lon="2.95693">
        <ele>1072</ele>
        <time>2021-07-17T17:12:11Z</time>
      </trkpt>
      <trkpt lat="45.76476" lon="2.95694">
        <ele>1072</ele>
        <time>2021-07-17T17:12:12Z</time>
      </trkpt>
      <trkpt lat="45.76475" lon="2.95694">
        <ele>1072</ele>
        <time>2021-07-17T17:12:13Z</time>
      </trkpt>
      <trkpt lat="45.76474" lon="2.95695">
        <ele>1072</ele>
        <time>2021-07-17T17:12:14Z</time>
      </trkpt>
      <trkpt lat="45.76473" lon="2.95696">
        <ele>1072</ele>
        <time>2021-07-17T17:12:15Z</time>
      </trkpt>
      <trkpt lat="45.76473" lon="2.95696">
        <ele>1072</ele>
        <time>2021-07-17T17:12:16Z</time>
      </trkpt>
      <trkpt lat="45.76472" lon="2.95697">
        <ele>1072</ele>
        <time>2021-07-17T17:12:17Z</time>
      </trkpt>
      <trkpt lat="45.76472" lon="2.95697">
        <ele>1072</ele>
        <time>2021-07-17T17:12:18Z</time>
      </trkpt>
      <trkpt lat="45.76471" lon="2.95698">
        <ele>1072</ele>
        <time>2021-07-17T17:12:19Z</time>
      </trkpt>
      <trkpt lat="45.76471" lon="2.95698">
        <ele>1072</ele>
        <time>2021-07-17T17:12:20Z</time>
      </trkpt>
      <trkpt lat="45.76471" lon="2.95699">
        <ele>1072</ele>
        <time>2021-07-17T17:12:21Z</time>
      </trkpt>
      <trkpt lat="45.7647" lon="2.95699">
        <ele>1072</ele>
        <time>2021-07-17T17:12:22Z</time>
      </trkpt>
      <trkpt lat="45.76469" lon="2.95699">
        <ele>1072</ele>
        <time>2021-07-17T17:12:23Z</time>
      </trkpt>
      <trkpt lat="45.76469" lon="2.957">
        <ele>1072</ele>
        <time>2021-07-17T17:12:24Z</time>
      </trkpt>
      <trkpt lat="45.76469" lon="2.957">
        <ele>1072</ele>
        <time>2021-07-17T17:12:25Z</time>
      </trkpt>
      <trkpt lat="45.76468" lon="2.95701">
        <ele>1072</ele>
        <time>2021-07-17T17:12:26Z</time>
      </trkpt>
      <trkpt lat="45.76467" lon="2.95702">
        <ele>1072</ele>
        <time>2021-07-17T17:12:27Z</time>
      </trkpt>
      <trkpt lat="45.76466" lon="2.95703">
        <ele>1072</ele>
        <time>2021-07-17T17:12:28Z</time>
      </trkpt>
      <trkpt lat="45.76465" lon="2.95703">
        <ele>1072</ele>
        <time>2021-07-17T17:12:29Z</time>
      </trkpt>
      <trkpt lat="45.76465" lon="2.95704">
        <ele>1072</ele>
        <time>2021-07-17T17:12:30Z</time>
      </trkpt>
      <trkpt lat="45.76463" lon="2.95705">
        <ele>1072</ele>
        <time>2021-07-17T17:12:31Z</time>
      </trkpt>
      <trkpt lat="45.76462" lon="2.95705">
        <ele>1072</ele>
        <time>2021-07-17T17:12:32Z</time>
      </trkpt>
      <trkpt lat="45.76461" lon="2.95706">
        <ele>1072</ele>
        <time>2021-07-17T17:12:33Z</time>
      </trkpt>
      <trkpt lat="45.7646" lon="2.95707">
        <ele>1072</ele>
        <time>2021-07-17T17:12:34Z</time>
      </trkpt>
      <trkpt lat="45.76459" lon="2.95707">
        <ele>1072</ele>
        <time>2021-07-17T17:12:35Z</time>
      </trkpt>
      <trkpt lat="45.76458" lon="2.95708">
        <ele>1072</ele>
        <time>2021-07-17T17:12:36Z</time>
      </trkpt>
      <trkpt lat="45.76457" lon="2.95709">
        <ele>1072</ele>
        <time>2021-07-17T17:12:37Z</time>
      </trkpt>
      <trkpt lat="45.76456" lon="2.95709">
        <ele>1072</ele>
        <time>2021-07-17T17:12:38Z</time>
      </trkpt>
      <trkpt lat="45.76455" lon="2.9571">
        <ele>1072</ele>
        <time>2021-07-17T17:12:39Z</time>
      </trkpt>
      <trkpt lat="45.76454" lon="2.9571">
        <ele>1072</ele>
        <time>2021-07-17T17:12:40Z</time>
      </trkpt>
      <trkpt lat="45.76453" lon="2.95711">
        <ele>1072</ele>
        <time>2021-07-17T17:12:41Z</time>
      </trkpt>
      <trkpt lat="45.76452" lon="2.95712">
        <ele>1072</ele>
        <time>2021-07-17T17:12:42Z</time>
      </trkpt>
      <trkpt lat="45.76451" lon="2.95712">
        <ele>1072</ele>
        <time>2021-07-17T17:12:43Z</time>
      </trkpt>
      <trkpt lat="45.7645" lon="2.95713">
        <ele>1072</ele>
        <time>2021-07-17T17:12:44Z</time>
      </trkpt>
      <trkpt lat="45.76449" lon="2.95713">
        <ele>1072</ele>
        <time>2021-07-17T17:12:45Z</time>
      </trkpt>
      <trkpt lat="45.76448" lon="2.95714">
        <ele>1072</ele>
        <time>2021-07-17T17:12:46Z</time>
      </trkpt>
      <trkpt lat="45.76447" lon="2.95715">
        <ele>1072</ele>
        <time>2021-07-17T17:12:47Z</time>
      </trkpt>
      <trkpt lat="45.76446" lon="2.95715">
        <ele>1072</ele>
        <time>2021-07-17T17:12:48Z</time>
      </trkpt>
      <trkpt lat="45.76445" lon="2.95716">
        <ele>1072</ele>
        <time>2021-07-17T17:12:49Z</time>
      </trkpt>
      <trkpt lat="45.76444" lon="2.95717">
        <ele>1072</ele>
        <time>2021-07-17T17:12:50Z</time>
      </trkpt>
      <trkpt lat="45.76443" lon="2.95717">
        <ele>1072</ele>
        <time>2021-07-17T17:12:51Z</time>
      </trkpt>
      <trkpt lat="45.76442" lon="2.95718">
        <ele>1072</ele>
        <time>2021-07-17T17:12:52Z</time>
      </trkpt>
      <trkpt lat="45.76441" lon="2.95719">
        <ele>1072</ele>
        <time>2021-07-17T17:12:53Z</time>
      </trkpt>
      <trkpt lat="45.7644" lon="2.95719">
        <ele>1072</ele>
        <time>2021-07-17T17:12:54Z</time>
      </trkpt>
      <trkpt lat="45.76439" lon="2.9572">
        <ele>1072</ele>
        <time>2021-07-17T17:12:55Z</time>
      </trkpt>
      <trkpt lat="45.76438" lon="2.9572">
        <ele>1072</ele>
        <time>2021-07-17T17:12:56Z</time>
      </trkpt>
      <trkpt lat="45.76437" lon="2.9572">
        <ele>1072</ele>
        <time>2021-07-17T17:12:57Z</time>
      </trkpt>
      <trkpt lat="45.76436" lon="2.95721">
        <ele>1072</ele>
        <time>2021-07-17T17:12:58Z</time>
      </trkpt>
      <trkpt lat="45.76435" lon="2.95721">
        <ele>1072</ele>
        <time>2021-07-17T17:12:59Z</time>
      </trkpt>
      <trkpt lat="45.76434" lon="2.95721">
        <ele>1072</ele>
        <time>2021-07-17T17:13:00Z</time>
      </trkpt>
      <trkpt lat="45.76433" lon="2.95721">
        <ele>1072</ele>
        <time>2021-07-17T17:13:01Z</time>
      </trkpt>
      <trkpt lat="45.76432" lon="2.95721">
        <ele>1072</ele>
        <time>2021-07-17T17:13:02Z</time>
      </trkpt>
      <trkpt lat="45.76431" lon="2.95722">
        <ele>1072</ele>
        <time>2021-07-17T17:13:03Z</time>
      </trkpt>
      <trkpt lat="45.76431" lon="2.95722">
        <ele>1072</ele>
        <time>2021-07-17T17:13:04Z</time>
      </trkpt>
      <trkpt lat="45.7643" lon="2.95723">
        <ele>1072</ele>
        <time>2021-07-17T17:13:05Z</time>
      </trkpt>
      <trkpt lat="45.76429" lon="2.95724">
        <ele>1072</ele>
        <time>2021-07-17T17:13:06Z</time>
      </trkpt>
      <trkpt lat="45.76428" lon="2.95725">
        <ele>1072</ele>
        <time>2021-07-17T17:13:07Z</time>
      </trkpt>
      <trkpt lat="45.76427" lon="2.95726">
        <ele>1072</ele>
        <time>2021-07-17T17:13:08Z</time>
      </trkpt>
      <trkpt lat="45.76426" lon="2.95727">
        <ele>1072</ele>
        <time>2021-07-17T17:13:09Z</time>
      </trkpt>
      <trkpt lat="45.76425" lon="2.95728">
        <ele>1072</ele>
        <time>2021-07-17T17:13:10Z</time>
      </trkpt>
      <trkpt lat="45.76424" lon="2.95729">
        <ele>1072</ele>
        <time>2021-07-17T17:13:11Z</time>
      </trkpt>
      <trkpt lat="45.76423" lon="2.95729">
        <ele>1072</ele>
        <time>2021-07-17T17:13:12Z</time>
      </trkpt>
      <trkpt lat="45.76422" lon="2.95729">
        <ele>1072</ele>
        <time>2021-07-17T17:13:13Z</time>
      </trkpt>
      <trkpt lat="45.76421" lon="2.9573">
        <ele>1072</ele>
        <time>2021-07-17T17:13:14Z</time>
      </trkpt>
      <trkpt lat="45.76419" lon="2.95729">
        <ele>1072</ele>
        <time>2021-07-17T17:13:15Z</time>
      </trkpt>
      <trkpt lat="45.76418" lon="2.95729">
        <ele>1072</ele>
        <time>2021-07-17T17:13:16Z</time>
      </trkpt>
      <trkpt lat="45.76417" lon="2.95728">
        <ele>1072</ele>
        <time>2021-07-17T17:13:17Z</time>
      </trkpt>
      <trkpt lat="45.76416" lon="2.95727">
        <ele>1072</ele>
        <time>2021-07-17T17:13:18Z</time>
      </trkpt>
      <trkpt lat="45.76415" lon="2.95727">
        <ele>1072</ele>
        <time>2021-07-17T17:13:19Z</time>
      </trkpt>
      <trkpt lat="45.76415" lon="2.95726">
        <ele>1072</ele>
        <time>2021-07-17T17:13:20Z</time>
      </trkpt>
      <trkpt lat="45.76414" lon="2.95726">
        <ele>1072</ele>
        <time>2021-07-17T17:13:21Z</time>
      </trkpt>
      <trkpt lat="45.76414" lon="2.95725">
        <ele>1072</ele>
        <time>2021-07-17T17:13:22Z</time>
      </trkpt>
      <trkpt lat="45.76413" lon="2.95725">
        <ele>1072</ele>
        <time>2021-07-17T17:13:23Z</time>
      </trkpt>
      <trkpt lat="45.76412" lon="2.95724">
        <ele>1072</ele>
        <time>2021-07-17T17:13:24Z</time>
      </trkpt>
      <trkpt lat="45.76412" lon="2.95723">
        <ele>1072</ele>
        <time>2021-07-17T17:13:25Z</time>
      </trkpt>
      <trkpt lat="45.76411" lon="2.95722">
        <ele>1072</ele>
        <time>2021-07-17T17:13:26Z</time>
      </trkpt>
      <trkpt lat="45.76411" lon="2.95721">
        <ele>1072</ele>
        <time>2021-07-17T17:13:27Z</time>
      </trkpt>
      <trkpt lat="45.7641" lon="2.9572">
        <ele>1072</ele>
        <time>2021-07-17T17:13:28Z</time>
      </trkpt>
      <trkpt lat="45.76409" lon="2.95719">
        <ele>1072</ele>
        <time>2021-07-17T17:13:30Z</time>
      </trkpt>
      <trkpt lat="45.76408" lon="2.95713">
        <ele>1072</ele>
        <time>2021-07-17T17:13:31Z</time>
      </trkpt>
      <trkpt lat="45.76408" lon="2.95712">
        <ele>1072</ele>
        <time>2021-07-17T17:13:32Z</time>
      </trkpt>
      <trkpt lat="45.76408" lon="2.95711">
        <ele>1072</ele>
        <time>2021-07-17T17:13:33Z</time>
      </trkpt>
      <trkpt lat="45.76408" lon="2.9571">
        <ele>1072</ele>
        <time>2021-07-17T17:13:34Z</time>
      </trkpt>
      <trkpt lat="45.76408" lon="2.95709">
        <ele>1072</ele>
        <time>2021-07-17T17:13:35Z</time>
      </trkpt>
      <trkpt lat="45.76408" lon="2.95707">
        <ele>1072</ele>
        <time>2021-07-17T17:13:36Z</time>
      </trkpt>
      <trkpt lat="45.76409" lon="2.95706">
        <ele>1072</ele>
        <time>2021-07-17T17:13:37Z</time>
      </trkpt>
      <trkpt lat="45.7641" lon="2.95705">
        <ele>1072</ele>
        <time>2021-07-17T17:13:38Z</time>
      </trkpt>
      <trkpt lat="45.7641" lon="2.95704">
        <ele>1072</ele>
        <time>2021-07-17T17:13:39Z</time>
      </trkpt>
      <trkpt lat="45.76411" lon="2.95702">
        <ele>1072</ele>
        <time>2021-07-17T17:13:40Z</time>
      </trkpt>
      <trkpt lat="45.76412" lon="2.95701">
        <ele>1072</ele>
        <time>2021-07-17T17:13:41Z</time>
      </trkpt>
      <trkpt lat="45.76412" lon="2.957">
        <ele>1072</ele>
        <time>2021-07-17T17:13:42Z</time>
      </trkpt>
      <trkpt lat="45.76413" lon="2.95699">
        <ele>1072</ele>
        <time>2021-07-17T17:13:43Z</time>
      </trkpt>
      <trkpt lat="45.76413" lon="2.95698">
        <ele>1072</ele>
        <time>2021-07-17T17:13:44Z</time>
      </trkpt>
      <trkpt lat="45.76414" lon="2.95697">
        <ele>1072</ele>
        <time>2021-07-17T17:13:45Z</time>
      </trkpt>
      <trkpt lat="45.76415" lon="2.95696">
        <ele>1072</ele>
        <time>2021-07-17T17:13:46Z</time>
      </trkpt>
      <trkpt lat="45.76416" lon="2.95695">
        <ele>1072</ele>
        <time>2021-07-17T17:13:47Z</time>
      </trkpt>
      <trkpt lat="45.76417" lon="2.95694">
        <ele>1072</ele>
        <time>2021-07-17T17:13:48Z</time>
      </trkpt>
      <trkpt lat="45.76418" lon="2.95693">
        <ele>1072</ele>
        <time>2021-07-17T17:13:49Z</time>
      </trkpt>
      <trkpt lat="45.76419" lon="2.95692">
        <ele>1072</ele>
        <time>2021-07-17T17:13:50Z</time>
      </trkpt>
      <trkpt lat="45.7642" lon="2.95691">
        <ele>1072</ele>
        <time>2021-07-17T17:13:51Z</time>
      </trkpt>
      <trkpt lat="45.76421" lon="2.95691">
        <ele>1072</ele>
        <time>2021-07-17T17:13:52Z</time>
      </trkpt>
      <trkpt lat="45.76422" lon="2.9569">
        <ele>1072</ele>
        <time>2021-07-17T17:13:53Z</time>
      </trkpt>
      <trkpt lat="45.76423" lon="2.95689">
        <ele>1072</ele>
        <time>2021-07-17T17:13:54Z</time>
      </trkpt>
      <trkpt lat="45.76424" lon="2.95688">
        <ele>1072</ele>
        <time>2021-07-17T17:13:55Z</time>
      </trkpt>
      <trkpt lat="45.76425" lon="2.95687">
        <ele>1072</ele>
        <time>2021-07-17T17:13:56Z</time>
      </trkpt>
      <trkpt lat="45.76426" lon="2.95686">
        <ele>1072</ele>
        <time>2021-07-17T17:13:57Z</time>
      </trkpt>
      <trkpt lat="45.76427" lon="2.95685">
        <ele>1072</ele>
        <time>2021-07-17T17:13:58Z</time>
      </trkpt>
      <trkpt lat="45.76428" lon="2.95684">
        <ele>1072</ele>
        <time>2021-07-17T17:13:59Z</time>
      </trkpt>
      <trkpt lat="45.76428" lon="2.95682">
        <ele>1072</ele>
        <time>2021-07-17T17:14:00Z</time>
      </trkpt>
      <trkpt lat="45.76429" lon="2.95681">
        <ele>1072</ele>
        <time>2021-07-17T17:14:01Z</time>
      </trkpt>
      <trkpt lat="45.7643" lon="2.9568">
        <ele>1072</ele>
        <time>2021-07-17T17:14:02Z</time>
      </trkpt>
      <trkpt lat="45.76431" lon="2.95679">
        <ele>1072</ele>
        <time>2021-07-17T17:14:03Z</time>
      </trkpt>
      <trkpt lat="45.76431" lon="2.95678">
        <ele>1072</ele>
        <time>2021-07-17T17:14:04Z</time>
      </trkpt>
      <trkpt lat="45.76432" lon="2.95677">
        <ele>1072</ele>
        <time>2021-07-17T17:14:05Z</time>
      </trkpt>
      <trkpt lat="45.76433" lon="2.95676">
        <ele>1072</ele>
        <time>2021-07-17T17:14:06Z</time>
      </trkpt>
      <trkpt lat="45.76434" lon="2.95675">
        <ele>1072</ele>
        <time>2021-07-17T17:14:07Z</time>
      </trkpt>
      <trkpt lat="45.76434" lon="2.95674">
        <ele>1072</ele>
        <time>2021-07-17T17:14:07Z</time>
      </trkpt>
      <trkpt lat="45.76435" lon="2.95673">
        <ele>1072</ele>
        <time>2021-07-17T17:14:08Z</time>
      </trkpt>
      <trkpt lat="45.76437" lon="2.95672">
        <ele>1072</ele>
        <time>2021-07-17T17:14:09Z</time>
      </trkpt>
      <trkpt lat="45.76438" lon="2.95671">
        <ele>1072</ele>
        <time>2021-07-17T17:14:10Z</time>
      </trkpt>
      <trkpt lat="45.76439" lon="2.95669">
        <ele>1072</ele>
        <time>2021-07-17T17:14:11Z</time>
      </trkpt>
      <trkpt lat="45.7644" lon="2.95669">
        <ele>1072</ele>
        <time>2021-07-17T17:14:12Z</time>
      </trkpt>
      <trkpt lat="45.76441" lon="2.95667">
        <ele>1072</ele>
        <time>2021-07-17T17:14:13Z</time>
      </trkpt>
      <trkpt lat="45.76443" lon="2.95666">
        <ele>1072</ele>
        <time>2021-07-17T17:14:14Z</time>
      </trkpt>
      <trkpt lat="45.76444" lon="2.95665">
        <ele>1072</ele>
        <time>2021-07-17T17:14:15Z</time>
      </trkpt>
      <trkpt lat="45.76445" lon="2.95664">
        <ele>1072</ele>
        <time>2021-07-17T17:14:16Z</time>
      </trkpt>
      <trkpt lat="45.76447" lon="2.95663">
        <ele>1072</ele>
        <time>2021-07-17T17:14:17Z</time>
      </trkpt>
      <trkpt lat="45.76448" lon="2.95662">
        <ele>1072</ele>
        <time>2021-07-17T17:14:18Z</time>
      </trkpt>
      <trkpt lat="45.76449" lon="2.95661">
        <ele>1072</ele>
        <time>2021-07-17T17:14:19Z</time>
      </trkpt>
      <trkpt lat="45.76451" lon="2.9566">
        <ele>1072</ele>
        <time>2021-07-17T17:14:20Z</time>
      </trkpt>
      <trkpt lat="45.76452" lon="2.95659">
        <ele>1072</ele>
        <time>2021-07-17T17:14:21Z</time>
      </trkpt>
      <trkpt lat="45.76453" lon="2.95658">
        <ele>1072</ele>
        <time>2021-07-17T17:14:22Z</time>
      </trkpt>
      <trkpt lat="45.76455" lon="2.95657">
        <ele>1072</ele>
        <time>2021-07-17T17:14:23Z</time>
      </trkpt>
      <trkpt lat="45.76456" lon="2.95656">
        <ele>1072</ele>
        <time>2021-07-17T17:14:24Z</time>
      </trkpt>
      <trkpt lat="45.76456" lon="2.95655">
        <ele>1072</ele>
        <time>2021-07-17T17:14:25Z</time>
      </trkpt>
      <trkpt lat="45.76457" lon="2.95653">
        <ele>1072</ele>
        <time>2021-07-17T17:14:26Z</time>
      </trkpt>
      <trkpt lat="45.76457" lon="2.95652">
        <ele>1072</ele>
        <time>2021-07-17T17:14:28Z</time>
      </trkpt>
      <trkpt lat="45.76458" lon="2.95645">
        <ele>1072</ele>
        <time>2021-07-17T17:14:29Z</time>
      </trkpt>
      <trkpt lat="45.76457" lon="2.95645">
        <ele>1072</ele>
        <time>2021-07-17T17:14:30Z</time>
      </trkpt>
      <trkpt lat="45.76457" lon="2.95644">
        <ele>1072</ele>
        <time>2021-07-17T17:14:31Z</time>
      </trkpt>
      <trkpt lat="45.76457" lon="2.95643">
        <ele>1072</ele>
        <time>2021-07-17T17:14:32Z</time>
      </trkpt>
      <trkpt lat="45.76457" lon="2.95642">
        <ele>1072</ele>
        <time>2021-07-17T17:14:33Z</time>
      </trkpt>
      <trkpt lat="45.76457" lon="2.9564">
        <ele>1072</ele>
        <time>2021-07-17T17:14:34Z</time>
      </trkpt>
      <trkpt lat="45.76457" lon="2.95639">
        <ele>1072</ele>
        <time>2021-07-17T17:14:35Z</time>
      </trkpt>
      <trkpt lat="45.76457" lon="2.95637">
        <ele>1072</ele>
        <time>2021-07-17T17:14:36Z</time>
      </trkpt>
      <trkpt lat="45.76458" lon="2.95635">
        <ele>1072</ele>
        <time>2021-07-17T17:14:37Z</time>
      </trkpt>
      <trkpt lat="45.76458" lon="2.95634">
        <ele>1072</ele>
        <time>2021-07-17T17:14:38Z</time>
      </trkpt>
      <trkpt lat="45.76458" lon="2.95633">
        <ele>1072</ele>
        <time>2021-07-17T17:14:39Z</time>
      </trkpt>
      <trkpt lat="45.76458" lon="2.95631">
        <ele>1072</ele>
        <time>2021-07-17T17:14:40Z</time>
      </trkpt>
      <trkpt lat="45.76459" lon="2.9563">
        <ele>1072</ele>
        <time>2021-07-17T17:14:41Z</time>
      </trkpt>
      <trkpt lat="45.76459" lon="2.95629">
        <ele>1072</ele>
        <time>2021-07-17T17:14:42Z</time>
      </trkpt>
      <trkpt lat="45.7646" lon="2.95628">
        <ele>1072</ele>
        <time>2021-07-17T17:14:43Z</time>
      </trkpt>
      <trkpt lat="45.7646" lon="2.95627">
        <ele>1072</ele>
        <time>2021-07-17T17:14:44Z</time>
      </trkpt>
      <trkpt lat="45.7646" lon="2.95626">
        <ele>1072</ele>
        <time>2021-07-17T17:14:45Z</time>
      </trkpt>
      <trkpt lat="45.7646" lon="2.95624">
        <ele>1072</ele>
        <time>2021-07-17T17:14:46Z</time>
      </trkpt>
      <trkpt lat="45.76461" lon="2.95623">
        <ele>1072</ele>
        <time>2021-07-17T17:14:47Z</time>
      </trkpt>
      <trkpt lat="45.76461" lon="2.95621">
        <ele>1072</ele>
        <time>2021-07-17T17:14:48Z</time>
      </trkpt>
      <trkpt lat="45.76461" lon="2.95619">
        <ele>1072</ele>
        <time>2021-07-17T17:14:49Z</time>
      </trkpt>
      <trkpt lat="45.76461" lon="2.95617">
        <ele>1072</ele>
        <time>2021-07-17T17:14:50Z</time>
      </trkpt>
      <trkpt lat="45.76461" lon="2.95616">
        <ele>1072</ele>
        <time>2021-07-17T17:14:51Z</time>
      </trkpt>
      <trkpt lat="45.76461" lon="2.95614">
        <ele>1072</ele>
        <time>2021-07-17T17:14:52Z</time>
      </trkpt>
      <trkpt lat="45.76461" lon="2.95612">
        <ele>1072</ele>
        <time>2021-07-17T17:14:53Z</time>
      </trkpt>
      <trkpt lat="45.7646" lon="2.95611">
        <ele>1072</ele>
        <time>2021-07-17T17:14:54Z</time>
      </trkpt>
      <trkpt lat="45.7646" lon="2.95609">
        <ele>1072</ele>
        <time>2021-07-17T17:14:55Z</time>
      </trkpt>
      <trkpt lat="45.76459" lon="2.95608">
        <ele>1072</ele>
        <time>2021-07-17T17:14:56Z</time>
      </trkpt>
      <trkpt lat="45.76459" lon="2.95607">
        <ele>1072</ele>
        <time>2021-07-17T17:14:57Z</time>
      </trkpt>
      <trkpt lat="45.76458" lon="2.95606">
        <ele>1072</ele>
        <time>2021-07-17T17:14:58Z</time>
      </trkpt>
      <trkpt lat="45.76457" lon="2.95606">
        <ele>1072</ele>
        <time>2021-07-17T17:14:59Z</time>
      </trkpt>
      <trkpt lat="45.76457" lon="2.95606">
        <ele>1072</ele>
        <time>2021-07-17T17:15:00Z</time>
      </trkpt>
      <trkpt lat="45.76456" lon="2.95606">
        <ele>1072</ele>
        <time>2021-07-17T17:15:01Z</time>
      </trkpt>
      <trkpt lat="45.76455" lon="2.95606">
        <ele>1072</ele>
        <time>2021-07-17T17:15:02Z</time>
      </trkpt>
      <trkpt lat="45.76455" lon="2.95606">
        <ele>1072</ele>
        <time>2021-07-17T17:15:03Z</time>
      </trkpt>
      <trkpt lat="45.76454" lon="2.95607">
        <ele>1072</ele>
        <time>2021-07-17T17:15:04Z</time>
      </trkpt>
      <trkpt lat="45.76454" lon="2.95607">
        <ele>1072</ele>
        <time>2021-07-17T17:15:05Z</time>
      </trkpt>
      <trkpt lat="45.76453" lon="2.95608">
        <ele>1072</ele>
        <time>2021-07-17T17:15:06Z</time>
      </trkpt>
      <trkpt lat="45.76453" lon="2.95608">
        <ele>1072</ele>
        <time>2021-07-17T17:15:07Z</time>
      </trkpt>
      <trkpt lat="45.76452" lon="2.95609">
        <ele>1072</ele>
        <time>2021-07-17T17:15:08Z</time>
      </trkpt>
      <trkpt lat="45.76452" lon="2.9561">
        <ele>1072</ele>
        <time>2021-07-17T17:15:09Z</time>
      </trkpt>
      <trkpt lat="45.76451" lon="2.95611">
        <ele>1072</ele>
        <time>2021-07-17T17:15:10Z</time>
      </trkpt>
      <trkpt lat="45.76451" lon="2.95612">
        <ele>1072</ele>
        <time>2021-07-17T17:15:11Z</time>
      </trkpt>
      <trkpt lat="45.7645" lon="2.95613">
        <ele>1072</ele>
        <time>2021-07-17T17:15:12Z</time>
      </trkpt>
      <trkpt lat="45.7645" lon="2.95614">
        <ele>1072</ele>
        <time>2021-07-17T17:15:13Z</time>
      </trkpt>
      <trkpt lat="45.76449" lon="2.95615">
        <ele>1072</ele>
        <time>2021-07-17T17:15:14Z</time>
      </trkpt>
      <trkpt lat="45.76448" lon="2.95615">
        <ele>1072</ele>
        <time>2021-07-17T17:15:15Z</time>
      </trkpt>
      <trkpt lat="45.76448" lon="2.95616">
        <ele>1072</ele>
        <time>2021-07-17T17:15:16Z</time>
      </trkpt>
      <trkpt lat="45.76448" lon="2.95617">
        <ele>1072</ele>
        <time>2021-07-17T17:15:17Z</time>
      </trkpt>
      <trkpt lat="45.76448" lon="2.95618">
        <ele>1072</ele>
        <time>2021-07-17T17:15:18Z</time>
      </trkpt>
      <trkpt lat="45.76448" lon="2.95619">
        <ele>1072</ele>
        <time>2021-07-17T17:15:19Z</time>
      </trkpt>
      <trkpt lat="45.76448" lon="2.9562">
        <ele>1072</ele>
        <time>2021-07-17T17:15:20Z</time>
      </trkpt>
      <trkpt lat="45.76447" lon="2.9562">
        <ele>1072</ele>
        <time>2021-07-17T17:15:21Z</time>
      </trkpt>
      <trkpt lat="45.76446" lon="2.95622">
        <ele>1072</ele>
        <time>2021-07-17T17:15:23Z</time>
      </trkpt>
      <trkpt lat="45.76445" lon="2.95623">
        <ele>1072</ele>
        <time>2021-07-17T17:15:24Z</time>
      </trkpt>
      <trkpt lat="45.76445" lon="2.95623">
        <ele>1072</ele>
        <time>2021-07-17T17:15:25Z</time>
      </trkpt>
      <trkpt lat="45.76445" lon="2.95623">
        <ele>1072</ele>
        <time>2021-07-17T17:15:26Z</time>
      </trkpt>
      <trkpt lat="45.76444" lon="2.95624">
        <ele>1072</ele>
        <time>2021-07-17T17:15:27Z</time>
      </trkpt>
      <trkpt lat="45.76444" lon="2.95625">
        <ele>1072</ele>
        <time>2021-07-17T17:15:28Z</time>
      </trkpt>
      <trkpt lat="45.76442" lon="2.95625">
        <ele>1072</ele>
        <time>2021-07-17T17:15:30Z</time>
      </trkpt>
      <trkpt lat="45.7644" lon="2.95628">
        <ele>1072</ele>
        <time>2021-07-17T17:15:31Z</time>
      </trkpt>
      <trkpt lat="45.76439" lon="2.95628">
        <ele>1072</ele>
        <time>2021-07-17T17:15:32Z</time>
      </trkpt>
      <trkpt lat="45.76439" lon="2.95629">
        <ele>1072</ele>
        <time>2021-07-17T17:15:33Z</time>
      </trkpt>
      <trkpt lat="45.76439" lon="2.95629">
        <ele>1072</ele>
        <time>2021-07-17T17:15:34Z</time>
      </trkpt>
      <trkpt lat="45.76438" lon="2.95629">
        <ele>1072</ele>
        <time>2021-07-17T17:15:35Z</time>
      </trkpt>
      <trkpt lat="45.76438" lon="2.95629">
        <ele>1072</ele>
        <time>2021-07-17T17:15:36Z</time>
      </trkpt>
      <trkpt lat="45.76437" lon="2.9563">
        <ele>1072</ele>
        <time>2021-07-17T17:15:37Z</time>
      </trkpt>
      <trkpt lat="45.76437" lon="2.9563">
        <ele>1072</ele>
        <time>2021-07-17T17:15:38Z</time>
      </trkpt>
      <trkpt lat="45.76436" lon="2.9563">
        <ele>1072</ele>
        <time>2021-07-17T17:15:39Z</time>
      </trkpt>
      <trkpt lat="45.76436" lon="2.9563">
        <ele>1072</ele>
        <time>2021-07-17T17:15:40Z</time>
      </trkpt>
      <trkpt lat="45.76435" lon="2.95631">
        <ele>1072</ele>
        <time>2021-07-17T17:15:41Z</time>
      </trkpt>
      <trkpt lat="45.76435" lon="2.95631">
        <ele>1072</ele>
        <time>2021-07-17T17:15:42Z</time>
      </trkpt>
      <trkpt lat="45.76434" lon="2.95631">
        <ele>1072</ele>
        <time>2021-07-17T17:15:43Z</time>
      </trkpt>
      <trkpt lat="45.76434" lon="2.95631">
        <ele>1072</ele>
        <time>2021-07-17T17:15:44Z</time>
      </trkpt>
      <trkpt lat="45.76433" lon="2.95632">
        <ele>1072</ele>
        <time>2021-07-17T17:15:45Z</time>
      </trkpt>
      <trkpt lat="45.76433" lon="2.95632">
        <ele>1072</ele>
        <time>2021-07-17T17:15:46Z</time>
      </trkpt>
      <trkpt lat="45.76432" lon="2.95632">
        <ele>1072</ele>
        <time>2021-07-17T17:15:47Z</time>
      </trkpt>
      <trkpt lat="45.76432" lon="2.95633">
        <ele>1072</ele>
        <time>2021-07-17T17:15:48Z</time>
      </trkpt>
      <trkpt lat="45.76431" lon="2.95633">
        <ele>1072</ele>
        <time>2021-07-17T17:15:49Z</time>
      </trkpt>
      <trkpt lat="45.7643" lon="2.95633">
        <ele>1072</ele>
        <time>2021-07-17T17:15:50Z</time>
      </trkpt>
      <trkpt lat="45.7643" lon="2.95633">
        <ele>1072</ele>
        <time>2021-07-17T17:15:51Z</time>
      </trkpt>
      <trkpt lat="45.76429" lon="2.95633">
        <ele>1072</ele>
        <time>2021-07-17T17:15:52Z</time>
      </trkpt>
      <trkpt lat="45.76428" lon="2.95633">
        <ele>1072</ele>
        <time>2021-07-17T17:15:53Z</time>
      </trkpt>
      <trkpt lat="45.76426" lon="2.95633">
        <ele>1072</ele>
        <time>2021-07-17T17:15:54Z</time>
      </trkpt>
      <trkpt lat="45.76426" lon="2.95633">
        <ele>1072</ele>
        <time>2021-07-17T17:15:55Z</time>
      </trkpt>
      <trkpt lat="45.76426" lon="2.95633">
        <ele>1072</ele>
        <time>2021-07-17T17:15:56Z</time>
      </trkpt>
      <trkpt lat="45.76424" lon="2.95633">
        <ele>1072</ele>
        <time>2021-07-17T17:15:57Z</time>
      </trkpt>
      <trkpt lat="45.76423" lon="2.95629">
        <ele>1072</ele>
        <time>2021-07-17T17:16:02Z</time>
      </trkpt>
      <trkpt lat="45.76424" lon="2.95629">
        <ele>1072</ele>
        <time>2021-07-17T17:16:03Z</time>
      </trkpt>
      <trkpt lat="45.76424" lon="2.95628">
        <ele>1072</ele>
        <time>2021-07-17T17:16:04Z</time>
      </trkpt>
      <trkpt lat="45.76424" lon="2.95628">
        <ele>1072</ele>
        <time>2021-07-17T17:16:05Z</time>
      </trkpt>
      <trkpt lat="45.76424" lon="2.95628">
        <ele>1072</ele>
        <time>2021-07-17T17:16:06Z</time>
      </trkpt>
      <trkpt lat="45.76424" lon="2.95627">
        <ele>1072</ele>
        <time>2021-07-17T17:16:07Z</time>
      </trkpt>
      <trkpt lat="45.76426" lon="2.95624">
        <ele>1072</ele>
        <time>2021-07-17T17:16:11Z</time>
      </trkpt>
      <trkpt lat="45.76426" lon="2.95624">
        <ele>1072</ele>
        <time>2021-07-17T17:16:12Z</time>
      </trkpt>
      <trkpt lat="45.76426" lon="2.95624">
        <ele>1072</ele>
        <time>2021-07-17T17:16:13Z</time>
      </trkpt>
      <trkpt lat="45.76426" lon="2.95623">
        <ele>1072</ele>
        <time>2021-07-17T17:16:14Z</time>
      </trkpt>
      <trkpt lat="45.76426" lon="2.95623">
        <ele>1072</ele>
        <time>2021-07-17T17:16:15Z</time>
      </trkpt>
      <trkpt lat="45.76426" lon="2.95622">
        <ele>1072</ele>
        <time>2021-07-17T17:16:16Z</time>
      </trkpt>
      <trkpt lat="45.76427" lon="2.95621">
        <ele>1072</ele>
        <time>2021-07-17T17:16:17Z</time>
      </trkpt>
      <trkpt lat="45.76427" lon="2.9562">
        <ele>1072</ele>
        <time>2021-07-17T17:16:18Z</time>
      </trkpt>
      <trkpt lat="45.76428" lon="2.95619">
        <ele>1072</ele>
        <time>2021-07-17T17:16:19Z</time>
      </trkpt>
      <trkpt lat="45.76428" lon="2.95619">
        <ele>1072</ele>
        <time>2021-07-17T17:16:20Z</time>
      </trkpt>
      <trkpt lat="45.76429" lon="2.95618">
        <ele>1072</ele>
        <time>2021-07-17T17:16:21Z</time>
      </trkpt>
      <trkpt lat="45.76429" lon="2.95617">
        <ele>1072</ele>
        <time>2021-07-17T17:16:22Z</time>
      </trkpt>
      <trkpt lat="45.76429" lon="2.95616">
        <ele>1072</ele>
        <time>2021-07-17T17:16:23Z</time>
      </trkpt>
      <trkpt lat="45.7643" lon="2.95615">
        <ele>1072</ele>
        <time>2021-07-17T17:16:24Z</time>
      </trkpt>
      <trkpt lat="45.76431" lon="2.95614">
        <ele>1072</ele>
        <time>2021-07-17T17:16:25Z</time>
      </trkpt>
      <trkpt lat="45.76431" lon="2.95613">
        <ele>1072</ele>
        <time>2021-07-17T17:16:26Z</time>
      </trkpt>
      <trkpt lat="45.76432" lon="2.95611">
        <ele>1072</ele>
        <time>2021-07-17T17:16:27Z</time>
      </trkpt>
      <trkpt lat="45.76432" lon="2.9561">
        <ele>1072</ele>
        <time>2021-07-17T17:16:28Z</time>
      </trkpt>
      <trkpt lat="45.76433" lon="2.95609">
        <ele>1072</ele>
        <time>2021-07-17T17:16:29Z</time>
      </trkpt>
      <trkpt lat="45.76433" lon="2.95608">
        <ele>1072</ele>
        <time>2021-07-17T17:16:30Z</time>
      </trkpt>
      <trkpt lat="45.76433" lon="2.95606">
        <ele>1072</ele>
        <time>2021-07-17T17:16:31Z</time>
      </trkpt>
      <trkpt lat="45.76433" lon="2.95605">
        <ele>1072</ele>
        <time>2021-07-17T17:16:32Z</time>
      </trkpt>
      <trkpt lat="45.76433" lon="2.95603">
        <ele>1072</ele>
        <time>2021-07-17T17:16:33Z</time>
      </trkpt>
      <trkpt lat="45.76433" lon="2.95602">
        <ele>1072</ele>
        <time>2021-07-17T17:16:34Z</time>
      </trkpt>
      <trkpt lat="45.76432" lon="2.956">
        <ele>1072</ele>
        <time>2021-07-17T17:16:35Z</time>
      </trkpt>
      <trkpt lat="45.76432" lon="2.95599">
        <ele>1072</ele>
        <time>2021-07-17T17:16:36Z</time>
      </trkpt>
      <trkpt lat="45.76431" lon="2.95597">
        <ele>1072</ele>
        <time>2021-07-17T17:16:37Z</time>
      </trkpt>
      <trkpt lat="45.76431" lon="2.95597">
        <ele>1072</ele>
        <time>2021-07-17T17:16:38Z</time>
      </trkpt>
      <trkpt lat="45.7643" lon="2.95596">
        <ele>1072</ele>
        <time>2021-07-17T17:16:39Z</time>
      </trkpt>
      <trkpt lat="45.76429" lon="2.95596">
        <ele>1072</ele>
        <time>2021-07-17T17:16:40Z</time>
      </trkpt>
      <trkpt lat="45.76428" lon="2.95596">
        <ele>1072</ele>
        <time>2021-07-17T17:16:41Z</time>
      </trkpt>
      <trkpt lat="45.76428" lon="2.95596">
        <ele>1072</ele>
        <time>2021-07-17T17:16:42Z</time>
      </trkpt>
      <trkpt lat="45.76427" lon="2.95596">
        <ele>1072</ele>
        <time>2021-07-17T17:16:43Z</time>
      </trkpt>
      <trkpt lat="45.76426" lon="2.95597">
        <ele>1072</ele>
        <time>2021-07-17T17:16:44Z</time>
      </trkpt>
      <trkpt lat="45.76426" lon="2.95598">
        <ele>1072</ele>
        <time>2021-07-17T17:16:45Z</time>
      </trkpt>
      <trkpt lat="45.76426" lon="2.95599">
        <ele>1072</ele>
        <time>2021-07-17T17:16:46Z</time>
      </trkpt>
      <trkpt lat="45.76426" lon="2.956">
        <ele>1072</ele>
        <time>2021-07-17T17:16:47Z</time>
      </trkpt>
      <trkpt lat="45.76425" lon="2.95601">
        <ele>1072</ele>
        <time>2021-07-17T17:16:48Z</time>
      </trkpt>
      <trkpt lat="45.76424" lon="2.95602">
        <ele>1072</ele>
        <time>2021-07-17T17:16:49Z</time>
      </trkpt>
      <trkpt lat="45.76424" lon="2.95603">
        <ele>1072</ele>
        <time>2021-07-17T17:16:50Z</time>
      </trkpt>
      <trkpt lat="45.76423" lon="2.95604">
        <ele>1072</ele>
        <time>2021-07-17T17:16:51Z</time>
      </trkpt>
      <trkpt lat="45.76423" lon="2.95604">
        <ele>1072</ele>
        <time>2021-07-17T17:16:52Z</time>
      </trkpt>
      <trkpt lat="45.76421" lon="2.95605">
        <ele>1072</ele>
        <time>2021-07-17T17:16:53Z</time>
      </trkpt>
      <trkpt lat="45.76421" lon="2.95606">
        <ele>1072</ele>
        <time>2021-07-17T17:16:54Z</time>
      </trkpt>
      <trkpt lat="45.7642" lon="2.95606">
        <ele>1072</ele>
        <time>2021-07-17T17:16:55Z</time>
      </trkpt>
      <trkpt lat="45.76419" lon="2.95607">
        <ele>1072</ele>
        <time>2021-07-17T17:16:56Z</time>
      </trkpt>
      <trkpt lat="45.76418" lon="2.95608">
        <ele>1072</ele>
        <time>2021-07-17T17:16:57Z</time>
      </trkpt>
      <trkpt lat="45.76417" lon="2.95608">
        <ele>1072</ele>
        <time>2021-07-17T17:16:58Z</time>
      </trkpt>
      <trkpt lat="45.76416" lon="2.95609">
        <ele>1072</ele>
        <time>2021-07-17T17:16:59Z</time>
      </trkpt>
      <trkpt lat="45.76415" lon="2.9561">
        <ele>1072</ele>
        <time>2021-07-17T17:17:00Z</time>
      </trkpt>
      <trkpt lat="45.76414" lon="2.95611">
        <ele>1072</ele>
        <time>2021-07-17T17:17:01Z</time>
      </trkpt>
      <trkpt lat="45.76414" lon="2.95612">
        <ele>1072</ele>
        <time>2021-07-17T17:17:02Z</time>
      </trkpt>
      <trkpt lat="45.76413" lon="2.95613">
        <ele>1072</ele>
        <time>2021-07-17T17:17:03Z</time>
      </trkpt>
      <trkpt lat="45.76412" lon="2.95614">
        <ele>1072</ele>
        <time>2021-07-17T17:17:04Z</time>
      </trkpt>
      <trkpt lat="45.76411" lon="2.95615">
        <ele>1072</ele>
        <time>2021-07-17T17:17:05Z</time>
      </trkpt>
      <trkpt lat="45.76409" lon="2.95616">
        <ele>1072</ele>
        <time>2021-07-17T17:17:06Z</time>
      </trkpt>
      <trkpt lat="45.76408" lon="2.95615">
        <ele>1072</ele>
        <time>2021-07-17T17:17:07Z</time>
      </trkpt>
      <trkpt lat="45.76407" lon="2.95615">
        <ele>1072</ele>
        <time>2021-07-17T17:17:08Z</time>
      </trkpt>
      <trkpt lat="45.76406" lon="2.95614">
        <ele>1072</ele>
        <time>2021-07-17T17:17:09Z</time>
      </trkpt>
      <trkpt lat="45.76405" lon="2.95614">
        <ele>1072</ele>
        <time>2021-07-17T17:17:10Z</time>
      </trkpt>
      <trkpt lat="45.76405" lon="2.95613">
        <ele>1072</ele>
        <time>2021-07-17T17:17:11Z</time>
      </trkpt>
      <trkpt lat="45.76405" lon="2.95612">
        <ele>1072</ele>
        <time>2021-07-17T17:17:12Z</time>
      </trkpt>
      <trkpt lat="45.76405" lon="2.95612">
        <ele>1072</ele>
        <time>2021-07-17T17:17:13Z</time>
      </trkpt>
      <trkpt lat="45.76406" lon="2.95611">
        <ele>1072</ele>
        <time>2021-07-17T17:17:14Z</time>
      </trkpt>
      <trkpt lat="45.76407" lon="2.9561">
        <ele>1072</ele>
        <time>2021-07-17T17:17:15Z</time>
      </trkpt>
      <trkpt lat="45.76407" lon="2.95609">
        <ele>1072</ele>
        <time>2021-07-17T17:17:16Z</time>
      </trkpt>
      <trkpt lat="45.76408" lon="2.95609">
        <ele>1072</ele>
        <time>2021-07-17T17:17:17Z</time>
      </trkpt>
      <trkpt lat="45.76408" lon="2.95608">
        <ele>1072</ele>
        <time>2021-07-17T17:17:18Z</time>
      </trkpt>
      <trkpt lat="45.76409" lon="2.95607">
        <ele>1072</ele>
        <time>2021-07-17T17:17:19Z</time>
      </trkpt>
      <trkpt lat="45.7641" lon="2.95606">
        <ele>1072</ele>
        <time>2021-07-17T17:17:20Z</time>
      </trkpt>
      <trkpt lat="45.76411" lon="2.95605">
        <ele>1072</ele>
        <time>2021-07-17T17:17:21Z</time>
      </trkpt>
      <trkpt lat="45.76412" lon="2.95604">
        <ele>1072</ele>
        <time>2021-07-17T17:17:22Z</time>
      </trkpt>
      <trkpt lat="45.76413" lon="2.95603">
        <ele>1072</ele>
        <time>2021-07-17T17:17:23Z</time>
      </trkpt>
      <trkpt lat="45.76413" lon="2.95602">
        <ele>1072</ele>
        <time>2021-07-17T17:17:24Z</time>
      </trkpt>
      <trkpt lat="45.76414" lon="2.95601">
        <ele>1072</ele>
        <time>2021-07-17T17:17:25Z</time>
      </trkpt>
      <trkpt lat="45.76415" lon="2.95599">
        <ele>1072</ele>
        <time>2021-07-17T17:17:26Z</time>
      </trkpt>
      <trkpt lat="45.76416" lon="2.95597">
        <ele>1072</ele>
        <time>2021-07-17T17:17:27Z</time>
      </trkpt>
      <trkpt lat="45.76416" lon="2.95595">
        <ele>1072</ele>
        <time>2021-07-17T17:17:28Z</time>
      </trkpt>
      <trkpt lat="45.76417" lon="2.95594">
        <ele>1072</ele>
        <time>2021-07-17T17:17:29Z</time>
      </trkpt>
      <trkpt lat="45.76417" lon="2.95592">
        <ele>1072</ele>
        <time>2021-07-17T17:17:30Z</time>
      </trkpt>
      <trkpt lat="45.76418" lon="2.95591">
        <ele>1072</ele>
        <time>2021-07-17T17:17:31Z</time>
      </trkpt>
      <trkpt lat="45.76419" lon="2.9559">
        <ele>1072</ele>
        <time>2021-07-17T17:17:32Z</time>
      </trkpt>
      <trkpt lat="45.76419" lon="2.95589">
        <ele>1072</ele>
        <time>2021-07-17T17:17:33Z</time>
      </trkpt>
      <trkpt lat="45.7642" lon="2.95587">
        <ele>1072</ele>
        <time>2021-07-17T17:17:34Z</time>
      </trkpt>
      <trkpt lat="45.76421" lon="2.95586">
        <ele>1072</ele>
        <time>2021-07-17T17:17:35Z</time>
      </trkpt>
      <trkpt lat="45.76421" lon="2.95585">
        <ele>1072</ele>
        <time>2021-07-17T17:17:36Z</time>
      </trkpt>
      <trkpt lat="45.76422" lon="2.95583">
        <ele>1072</ele>
        <time>2021-07-17T17:17:37Z</time>
      </trkpt>
      <trkpt lat="45.76423" lon="2.95582">
        <ele>1072</ele>
        <time>2021-07-17T17:17:38Z</time>
      </trkpt>
      <trkpt lat="45.76423" lon="2.95581">
        <ele>1072</ele>
        <time>2021-07-17T17:17:39Z</time>
      </trkpt>
      <trkpt lat="45.76424" lon="2.9558">
        <ele>1072</ele>
        <time>2021-07-17T17:17:40Z</time>
      </trkpt>
      <trkpt lat="45.76426" lon="2.95579">
        <ele>1072</ele>
        <time>2021-07-17T17:17:41Z</time>
      </trkpt>
      <trkpt lat="45.76426" lon="2.95578">
        <ele>1072</ele>
        <time>2021-07-17T17:17:42Z</time>
      </trkpt>
      <trkpt lat="45.76426" lon="2.95577">
        <ele>1072</ele>
        <time>2021-07-17T17:17:43Z</time>
      </trkpt>
      <trkpt lat="45.76428" lon="2.95575">
        <ele>1072</ele>
        <time>2021-07-17T17:17:44Z</time>
      </trkpt>
      <trkpt lat="45.76428" lon="2.95574">
        <ele>1072</ele>
        <time>2021-07-17T17:17:45Z</time>
      </trkpt>
      <trkpt lat="45.76429" lon="2.95573">
        <ele>1072</ele>
        <time>2021-07-17T17:17:46Z</time>
      </trkpt>
      <trkpt lat="45.7643" lon="2.95572">
        <ele>1072</ele>
        <time>2021-07-17T17:17:47Z</time>
      </trkpt>
      <trkpt lat="45.7643" lon="2.9557">
        <ele>1072</ele>
        <time>2021-07-17T17:17:48Z</time>
      </trkpt>
      <trkpt lat="45.76431" lon="2.95569">
        <ele>1072</ele>
        <time>2021-07-17T17:17:49Z</time>
      </trkpt>
      <trkpt lat="45.76432" lon="2.95568">
        <ele>1072</ele>
        <time>2021-07-17T17:17:50Z</time>
      </trkpt>
      <trkpt lat="45.76432" lon="2.95568">
        <ele>1072</ele>
        <time>2021-07-17T17:17:51Z</time>
      </trkpt>
      <trkpt lat="45.76433" lon="2.95567">
        <ele>1072</ele>
        <time>2021-07-17T17:17:52Z</time>
      </trkpt>
      <trkpt lat="45.76434" lon="2.95566">
        <ele>1072</ele>
        <time>2021-07-17T17:17:53Z</time>
      </trkpt>
      <trkpt lat="45.76435" lon="2.95565">
        <ele>1072</ele>
        <time>2021-07-17T17:17:54Z</time>
      </trkpt>
      <trkpt lat="45.76435" lon="2.95563">
        <ele>1072</ele>
        <time>2021-07-17T17:17:55Z</time>
      </trkpt>
      <trkpt lat="45.76435" lon="2.95562">
        <ele>1072</ele>
        <time>2021-07-17T17:17:56Z</time>
      </trkpt>
      <trkpt lat="45.76435" lon="2.95561">
        <ele>1072</ele>
        <time>2021-07-17T17:17:57Z</time>
      </trkpt>
      <trkpt lat="45.76435" lon="2.95559">
        <ele>1072</ele>
        <time>2021-07-17T17:17:58Z</time>
      </trkpt>
      <trkpt lat="45.76435" lon="2.95558">
        <ele>1072</ele>
        <time>2021-07-17T17:17:59Z</time>
      </trkpt>
      <trkpt lat="45.76434" lon="2.95556">
        <ele>1072</ele>
        <time>2021-07-17T17:18:00Z</time>
      </trkpt>
      <trkpt lat="45.76434" lon="2.95555">
        <ele>1072</ele>
        <time>2021-07-17T17:18:01Z</time>
      </trkpt>
      <trkpt lat="45.76433" lon="2.95555">
        <ele>1072</ele>
        <time>2021-07-17T17:18:02Z</time>
      </trkpt>
      <trkpt lat="45.76432" lon="2.95554">
        <ele>1072</ele>
        <time>2021-07-17T17:18:03Z</time>
      </trkpt>
      <trkpt lat="45.76431" lon="2.95554">
        <ele>1072</ele>
        <time>2021-07-17T17:18:04Z</time>
      </trkpt>
      <trkpt lat="45.7643" lon="2.95554">
        <ele>1072</ele>
        <time>2021-07-17T17:18:05Z</time>
      </trkpt>
      <trkpt lat="45.76429" lon="2.95554">
        <ele>1072</ele>
        <time>2021-07-17T17:18:06Z</time>
      </trkpt>
      <trkpt lat="45.76429" lon="2.95554">
        <ele>1072</ele>
        <time>2021-07-17T17:18:07Z</time>
      </trkpt>
      <trkpt lat="45.76428" lon="2.95555">
        <ele>1072</ele>
        <time>2021-07-17T17:18:08Z</time>
      </trkpt>
      <trkpt lat="45.76426" lon="2.95555">
        <ele>1072</ele>
        <time>2021-07-17T17:18:09Z</time>
      </trkpt>
      <trkpt lat="45.76426" lon="2.95555">
        <ele>1072</ele>
        <time>2021-07-17T17:18:10Z</time>
      </trkpt>
      <trkpt lat="45.76424" lon="2.95555">
        <ele>1072</ele>
        <time>2021-07-17T17:18:11Z</time>
      </trkpt>
      <trkpt lat="45.76423" lon="2.95556">
        <ele>1072</ele>
        <time>2021-07-17T17:18:12Z</time>
      </trkpt>
      <trkpt lat="45.76422" lon="2.95556">
        <ele>1072</ele>
        <time>2021-07-17T17:18:13Z</time>
      </trkpt>
      <trkpt lat="45.76421" lon="2.95556">
        <ele>1072</ele>
        <time>2021-07-17T17:18:14Z</time>
      </trkpt>
      <trkpt lat="45.7642" lon="2.95557">
        <ele>1072</ele>
        <time>2021-07-17T17:18:15Z</time>
      </trkpt>
      <trkpt lat="45.76418" lon="2.95557">
        <ele>1072</ele>
        <time>2021-07-17T17:18:16Z</time>
      </trkpt>
      <trkpt lat="45.76417" lon="2.95558">
        <ele>1072</ele>
        <time>2021-07-17T17:18:17Z</time>
      </trkpt>
      <trkpt lat="45.76416" lon="2.95559">
        <ele>1072</ele>
        <time>2021-07-17T17:18:18Z</time>
      </trkpt>
      <trkpt lat="45.76415" lon="2.9556">
        <ele>1072</ele>
        <time>2021-07-17T17:18:19Z</time>
      </trkpt>
      <trkpt lat="45.76414" lon="2.95561">
        <ele>1072</ele>
        <time>2021-07-17T17:18:20Z</time>
      </trkpt>
      <trkpt lat="45.76414" lon="2.95561">
        <ele>1072</ele>
        <time>2021-07-17T17:18:21Z</time>
      </trkpt>
      <trkpt lat="45.76413" lon="2.95562">
        <ele>1072</ele>
        <time>2021-07-17T17:18:22Z</time>
      </trkpt>
      <trkpt lat="45.76412" lon="2.95563">
        <ele>1072</ele>
        <time>2021-07-17T17:18:22Z</time>
      </trkpt>
      <trkpt lat="45.76411" lon="2.95564">
        <ele>1072</ele>
        <time>2021-07-17T17:18:23Z</time>
      </trkpt>
      <trkpt lat="45.7641" lon="2.95565">
        <ele>1072</ele>
        <time>2021-07-17T17:18:24Z</time>
      </trkpt>
      <trkpt lat="45.7641" lon="2.95566">
        <ele>1072</ele>
        <time>2021-07-17T17:18:25Z</time>
      </trkpt>
      <trkpt lat="45.76408" lon="2.95567">
        <ele>1072</ele>
        <time>2021-07-17T17:18:26Z</time>
      </trkpt>
      <trkpt lat="45.76408" lon="2.95568">
        <ele>1072</ele>
        <time>2021-07-17T17:18:27Z</time>
      </trkpt>
      <trkpt lat="45.76407" lon="2.95568">
        <ele>1072</ele>
        <time>2021-07-17T17:18:28Z</time>
      </trkpt>
      <trkpt lat="45.76405" lon="2.95569">
        <ele>1072</ele>
        <time>2021-07-17T17:18:29Z</time>
      </trkpt>
      <trkpt lat="45.76405" lon="2.9557">
        <ele>1072</ele>
        <time>2021-07-17T17:18:30Z</time>
      </trkpt>
      <trkpt lat="45.76403" lon="2.9557">
        <ele>1072</ele>
        <time>2021-07-17T17:18:31Z</time>
      </trkpt>
      <trkpt lat="45.76402" lon="2.95571">
        <ele>1072</ele>
        <time>2021-07-17T17:18:32Z</time>
      </trkpt>
      <trkpt lat="45.76401" lon="2.95571">
        <ele>1072</ele>
        <time>2021-07-17T17:18:33Z</time>
      </trkpt>
      <trkpt lat="45.764" lon="2.95572">
        <ele>1072</ele>
        <time>2021-07-17T17:18:34Z</time>
      </trkpt>
      <trkpt lat="45.76399" lon="2.95573">
        <ele>1072</ele>
        <time>2021-07-17T17:18:35Z</time>
      </trkpt>
      <trkpt lat="45.76398" lon="2.95573">
        <ele>1072</ele>
        <time>2021-07-17T17:18:36Z</time>
      </trkpt>
      <trkpt lat="45.76397" lon="2.95574">
        <ele>1072</ele>
        <time>2021-07-17T17:18:37Z</time>
      </trkpt>
      <trkpt lat="45.76396" lon="2.95575">
        <ele>1072</ele>
        <time>2021-07-17T17:18:38Z</time>
      </trkpt>
      <trkpt lat="45.76395" lon="2.95576">
        <ele>1072</ele>
        <time>2021-07-17T17:18:39Z</time>
      </trkpt>
      <trkpt lat="45.76394" lon="2.95577">
        <ele>1072</ele>
        <time>2021-07-17T17:18:40Z</time>
      </trkpt>
      <trkpt lat="45.76393" lon="2.95578">
        <ele>1072</ele>
        <time>2021-07-17T17:18:41Z</time>
      </trkpt>
      <trkpt lat="45.76392" lon="2.95579">
        <ele>1072</ele>
        <time>2021-07-17T17:18:42Z</time>
      </trkpt>
      <trkpt lat="45.76391" lon="2.9558">
        <ele>1072</ele>
        <time>2021-07-17T17:18:43Z</time>
      </trkpt>
      <trkpt lat="45.7639" lon="2.95581">
        <ele>1072</ele>
        <time>2021-07-17T17:18:44Z</time>
      </trkpt>
      <trkpt lat="45.76389" lon="2.95582">
        <ele>1072</ele>
        <time>2021-07-17T17:18:45Z</time>
      </trkpt>
      <trkpt lat="45.76387" lon="2.95583">
        <ele>1072</ele>
        <time>2021-07-17T17:18:46Z</time>
      </trkpt>
      <trkpt lat="45.76387" lon="2.95584">
        <ele>1072</ele>
        <time>2021-07-17T17:18:47Z</time>
      </trkpt>
      <trkpt lat="45.76386" lon="2.95585">
        <ele>1072</ele>
        <time>2021-07-17T17:18:48Z</time>
      </trkpt>
      <trkpt lat="45.76384" lon="2.95585">
        <ele>1072</ele>
        <time>2021-07-17T17:18:49Z</time>
      </trkpt>
      <trkpt lat="45.76384" lon="2.95586">
        <ele>1072</ele>
        <time>2021-07-17T17:18:50Z</time>
      </trkpt>
      <trkpt lat="45.76382" lon="2.95587">
        <ele>1072</ele>
        <time>2021-07-17T17:18:51Z</time>
      </trkpt>
      <trkpt lat="45.76381" lon="2.95587">
        <ele>1072</ele>
        <time>2021-07-17T17:18:52Z</time>
      </trkpt>
      <trkpt lat="45.76381" lon="2.95588">
        <ele>1072</ele>
        <time>2021-07-17T17:18:53Z</time>
      </trkpt>
      <trkpt lat="45.76379" lon="2.95588">
        <ele>1072</ele>
        <time>2021-07-17T17:18:54Z</time>
      </trkpt>
      <trkpt lat="45.76378" lon="2.95589">
        <ele>1072</ele>
        <time>2021-07-17T17:18:55Z</time>
      </trkpt>
      <trkpt lat="45.76377" lon="2.9559">
        <ele>1072</ele>
        <time>2021-07-17T17:18:56Z</time>
      </trkpt>
      <trkpt lat="45.76376" lon="2.9559">
        <ele>1072</ele>
        <time>2021-07-17T17:18:57Z</time>
      </trkpt>
      <trkpt lat="45.76374" lon="2.95591">
        <ele>1072</ele>
        <time>2021-07-17T17:18:58Z</time>
      </trkpt>
      <trkpt lat="45.76373" lon="2.95591">
        <ele>1072</ele>
        <time>2021-07-17T17:18:59Z</time>
      </trkpt>
      <trkpt lat="45.76372" lon="2.95591">
        <ele>1072</ele>
        <time>2021-07-17T17:19:00Z</time>
      </trkpt>
      <trkpt lat="45.7637" lon="2.95591">
        <ele>1072</ele>
        <time>2021-07-17T17:19:01Z</time>
      </trkpt>
      <trkpt lat="45.76369" lon="2.95591">
        <ele>1072</ele>
        <time>2021-07-17T17:19:02Z</time>
      </trkpt>
      <trkpt lat="45.76367" lon="2.95592">
        <ele>1072</ele>
        <time>2021-07-17T17:19:03Z</time>
      </trkpt>
      <trkpt lat="45.76366" lon="2.95592">
        <ele>1072</ele>
        <time>2021-07-17T17:19:04Z</time>
      </trkpt>
      <trkpt lat="45.76364" lon="2.95592">
        <ele>1072</ele>
        <time>2021-07-17T17:19:05Z</time>
      </trkpt>
      <trkpt lat="45.76363" lon="2.95592">
        <ele>1072</ele>
        <time>2021-07-17T17:19:06Z</time>
      </trkpt>
      <trkpt lat="45.76361" lon="2.95592">
        <ele>1072</ele>
        <time>2021-07-17T17:19:07Z</time>
      </trkpt>
      <trkpt lat="45.7636" lon="2.95591">
        <ele>1072</ele>
        <time>2021-07-17T17:19:08Z</time>
      </trkpt>
      <trkpt lat="45.76359" lon="2.95591">
        <ele>1072</ele>
        <time>2021-07-17T17:19:09Z</time>
      </trkpt>
      <trkpt lat="45.76358" lon="2.9559">
        <ele>1072</ele>
        <time>2021-07-17T17:19:10Z</time>
      </trkpt>
      <trkpt lat="45.76357" lon="2.95589">
        <ele>1072</ele>
        <time>2021-07-17T17:19:11Z</time>
      </trkpt>
      <trkpt lat="45.76357" lon="2.95587">
        <ele>1072</ele>
        <time>2021-07-17T17:19:12Z</time>
      </trkpt>
      <trkpt lat="45.76357" lon="2.95586">
        <ele>1072</ele>
        <time>2021-07-17T17:19:13Z</time>
      </trkpt>
      <trkpt lat="45.76357" lon="2.95585">
        <ele>1072</ele>
        <time>2021-07-17T17:19:14Z</time>
      </trkpt>
      <trkpt lat="45.76357" lon="2.95584">
        <ele>1072</ele>
        <time>2021-07-17T17:19:15Z</time>
      </trkpt>
      <trkpt lat="45.76357" lon="2.95584">
        <ele>1072</ele>
        <time>2021-07-17T17:19:16Z</time>
      </trkpt>
      <trkpt lat="45.76358" lon="2.95583">
        <ele>1072</ele>
        <time>2021-07-17T17:19:17Z</time>
      </trkpt>
      <trkpt lat="45.76359" lon="2.95583">
        <ele>1072</ele>
        <time>2021-07-17T17:19:18Z</time>
      </trkpt>
      <trkpt lat="45.7636" lon="2.95582">
        <ele>1072</ele>
        <time>2021-07-17T17:19:19Z</time>
      </trkpt>
      <trkpt lat="45.7636" lon="2.95582">
        <ele>1072</ele>
        <time>2021-07-17T17:19:20Z</time>
      </trkpt>
      <trkpt lat="45.76362" lon="2.95582">
        <ele>1072</ele>
        <time>2021-07-17T17:19:21Z</time>
      </trkpt>
      <trkpt lat="45.76363" lon="2.95581">
        <ele>1072</ele>
        <time>2021-07-17T17:19:22Z</time>
      </trkpt>
      <trkpt lat="45.76363" lon="2.95581">
        <ele>1072</ele>
        <time>2021-07-17T17:19:23Z</time>
      </trkpt>
      <trkpt lat="45.76365" lon="2.95581">
        <ele>1072</ele>
        <time>2021-07-17T17:19:24Z</time>
      </trkpt>
      <trkpt lat="45.76366" lon="2.95581">
        <ele>1072</ele>
        <time>2021-07-17T17:19:25Z</time>
      </trkpt>
      <trkpt lat="45.76366" lon="2.95581">
        <ele>1072</ele>
        <time>2021-07-17T17:19:26Z</time>
      </trkpt>
      <trkpt lat="45.76368" lon="2.95581">
        <ele>1072</ele>
        <time>2021-07-17T17:19:27Z</time>
      </trkpt>
      <trkpt lat="45.76369" lon="2.95581">
        <ele>1072</ele>
        <time>2021-07-17T17:19:28Z</time>
      </trkpt>
      <trkpt lat="45.76369" lon="2.9558">
        <ele>1072</ele>
        <time>2021-07-17T17:19:29Z</time>
      </trkpt>
      <trkpt lat="45.7637" lon="2.9558">
        <ele>1072</ele>
        <time>2021-07-17T17:19:30Z</time>
      </trkpt>
      <trkpt lat="45.76371" lon="2.95579">
        <ele>1072</ele>
        <time>2021-07-17T17:19:31Z</time>
      </trkpt>
      <trkpt lat="45.76372" lon="2.95578">
        <ele>1072</ele>
        <time>2021-07-17T17:19:32Z</time>
      </trkpt>
      <trkpt lat="45.76372" lon="2.95577">
        <ele>1072</ele>
        <time>2021-07-17T17:19:33Z</time>
      </trkpt>
      <trkpt lat="45.76373" lon="2.95576">
        <ele>1072</ele>
        <time>2021-07-17T17:19:34Z</time>
      </trkpt>
      <trkpt lat="45.76374" lon="2.95574">
        <ele>1072</ele>
        <time>2021-07-17T17:19:35Z</time>
      </trkpt>
      <trkpt lat="45.76374" lon="2.95573">
        <ele>1072</ele>
        <time>2021-07-17T17:19:36Z</time>
      </trkpt>
      <trkpt lat="45.76375" lon="2.95571">
        <ele>1072</ele>
        <time>2021-07-17T17:19:37Z</time>
      </trkpt>
      <trkpt lat="45.76375" lon="2.95569">
        <ele>1072</ele>
        <time>2021-07-17T17:19:38Z</time>
      </trkpt>
      <trkpt lat="45.76376" lon="2.95568">
        <ele>1072</ele>
        <time>2021-07-17T17:19:39Z</time>
      </trkpt>
      <trkpt lat="45.76376" lon="2.95565">
        <ele>1072</ele>
        <time>2021-07-17T17:19:40Z</time>
      </trkpt>
      <trkpt lat="45.76377" lon="2.95563">
        <ele>1072</ele>
        <time>2021-07-17T17:19:41Z</time>
      </trkpt>
      <trkpt lat="45.76376" lon="2.95561">
        <ele>1072</ele>
        <time>2021-07-17T17:19:42Z</time>
      </trkpt>
      <trkpt lat="45.76376" lon="2.95559">
        <ele>1072</ele>
        <time>2021-07-17T17:19:43Z</time>
      </trkpt>
      <trkpt lat="45.76375" lon="2.95558">
        <ele>1072</ele>
        <time>2021-07-17T17:19:44Z</time>
      </trkpt>
      <trkpt lat="45.76374" lon="2.95556">
        <ele>1072</ele>
        <time>2021-07-17T17:19:45Z</time>
      </trkpt>
      <trkpt lat="45.76373" lon="2.95555">
        <ele>1072</ele>
        <time>2021-07-17T17:19:46Z</time>
      </trkpt>
      <trkpt lat="45.76372" lon="2.95554">
        <ele>1072</ele>
        <time>2021-07-17T17:19:47Z</time>
      </trkpt>
      <trkpt lat="45.76371" lon="2.95554">
        <ele>1072</ele>
        <time>2021-07-17T17:19:48Z</time>
      </trkpt>
      <trkpt lat="45.7637" lon="2.95554">
        <ele>1072</ele>
        <time>2021-07-17T17:19:49Z</time>
      </trkpt>
      <trkpt lat="45.76369" lon="2.95554">
        <ele>1072</ele>
        <time>2021-07-17T17:19:50Z</time>
      </trkpt>
      <trkpt lat="45.76367" lon="2.95554">
        <ele>1072</ele>
        <time>2021-07-17T17:19:51Z</time>
      </trkpt>
      <trkpt lat="45.76366" lon="2.95555">
        <ele>1072</ele>
        <time>2021-07-17T17:19:52Z</time>
      </trkpt>
      <trkpt lat="45.76365" lon="2.95555">
        <ele>1072</ele>
        <time>2021-07-17T17:19:53Z</time>
      </trkpt>
      <trkpt lat="45.76363" lon="2.95555">
        <ele>1072</ele>
        <time>2021-07-17T17:19:54Z</time>
      </trkpt>
      <trkpt lat="45.76362" lon="2.95556">
        <ele>1072</ele>
        <time>2021-07-17T17:19:55Z</time>
      </trkpt>
      <trkpt lat="45.7636" lon="2.95556">
        <ele>1072</ele>
        <time>2021-07-17T17:19:56Z</time>
      </trkpt>
      <trkpt lat="45.76359" lon="2.95556">
        <ele>1072</ele>
        <time>2021-07-17T17:19:57Z</time>
      </trkpt>
      <trkpt lat="45.76357" lon="2.95556">
        <ele>1072</ele>
        <time>2021-07-17T17:19:58Z</time>
      </trkpt>
      <trkpt lat="45.76356" lon="2.95556">
        <ele>1072</ele>
        <time>2021-07-17T17:19:59Z</time>
      </trkpt>
      <trkpt lat="45.76354" lon="2.95556">
        <ele>1072</ele>
        <time>2021-07-17T17:20:00Z</time>
      </trkpt>
      <trkpt lat="45.76353" lon="2.95556">
        <ele>1072</ele>
        <time>2021-07-17T17:20:01Z</time>
      </trkpt>
      <trkpt lat="45.76351" lon="2.95555">
        <ele>1072</ele>
        <time>2021-07-17T17:20:02Z</time>
      </trkpt>
      <trkpt lat="45.7635" lon="2.95556">
        <ele>1072</ele>
        <time>2021-07-17T17:20:03Z</time>
      </trkpt>
      <trkpt lat="45.76349" lon="2.95556">
        <ele>1072</ele>
        <time>2021-07-17T17:20:04Z</time>
      </trkpt>
      <trkpt lat="45.76348" lon="2.95557">
        <ele>1072</ele>
        <time>2021-07-17T17:20:05Z</time>
      </trkpt>
      <trkpt lat="45.76347" lon="2.95558">
        <ele>1072</ele>
        <time>2021-07-17T17:20:06Z</time>
      </trkpt>
      <trkpt lat="45.76345" lon="2.95559">
        <ele>1072</ele>
        <time>2021-07-17T17:20:07Z</time>
      </trkpt>
      <trkpt lat="45.76345" lon="2.9556">
        <ele>1072</ele>
        <time>2021-07-17T17:20:08Z</time>
      </trkpt>
      <trkpt lat="45.76344" lon="2.95561">
        <ele>1072</ele>
        <time>2021-07-17T17:20:09Z</time>
      </trkpt>
      <trkpt lat="45.76342" lon="2.95562">
        <ele>1072</ele>
        <time>2021-07-17T17:20:10Z</time>
      </trkpt>
      <trkpt lat="45.76341" lon="2.95563">
        <ele>1072</ele>
        <time>2021-07-17T17:20:11Z</time>
      </trkpt>
      <trkpt lat="45.7634" lon="2.95564">
        <ele>1072</ele>
        <time>2021-07-17T17:20:12Z</time>
      </trkpt>
      <trkpt lat="45.76339" lon="2.95565">
        <ele>1072</ele>
        <time>2021-07-17T17:20:13Z</time>
      </trkpt>
      <trkpt lat="45.76338" lon="2.95566">
        <ele>1072</ele>
        <time>2021-07-17T17:20:14Z</time>
      </trkpt>
      <trkpt lat="45.76337" lon="2.95567">
        <ele>1072</ele>
        <time>2021-07-17T17:20:15Z</time>
      </trkpt>
      <trkpt lat="45.76336" lon="2.95568">
        <ele>1072</ele>
        <time>2021-07-17T17:20:16Z</time>
      </trkpt>
      <trkpt lat="45.76336" lon="2.9557">
        <ele>1072</ele>
        <time>2021-07-17T17:20:17Z</time>
      </trkpt>
      <trkpt lat="45.76335" lon="2.95571">
        <ele>1072</ele>
        <time>2021-07-17T17:20:18Z</time>
      </trkpt>
      <trkpt lat="45.76334" lon="2.95572">
        <ele>1072</ele>
        <time>2021-07-17T17:20:19Z</time>
      </trkpt>
      <trkpt lat="45.76333" lon="2.95573">
        <ele>1072</ele>
        <time>2021-07-17T17:20:20Z</time>
      </trkpt>
      <trkpt lat="45.76332" lon="2.95574">
        <ele>1072</ele>
        <time>2021-07-17T17:20:21Z</time>
      </trkpt>
      <trkpt lat="45.76331" lon="2.95575">
        <ele>1072</ele>
        <time>2021-07-17T17:20:22Z</time>
      </trkpt>
      <trkpt lat="45.7633" lon="2.95575">
        <ele>1072</ele>
        <time>2021-07-17T17:20:23Z</time>
      </trkpt>
      <trkpt lat="45.7633" lon="2.95576">
        <ele>1072</ele>
        <time>2021-07-17T17:20:24Z</time>
      </trkpt>
      <trkpt lat="45.76329" lon="2.95577">
        <ele>1072</ele>
        <time>2021-07-17T17:20:25Z</time>
      </trkpt>
      <trkpt lat="45.76328" lon="2.95577">
        <ele>1072</ele>
        <time>2021-07-17T17:20:26Z</time>
      </trkpt>
      <trkpt lat="45.76327" lon="2.95577">
        <ele>1072</ele>
        <time>2021-07-17T17:20:27Z</time>
      </trkpt>
      <trkpt lat="45.76326" lon="2.95578">
        <ele>1072</ele>
        <time>2021-07-17T17:20:28Z</time>
      </trkpt>
      <trkpt lat="45.76325" lon="2.95579">
        <ele>1072</ele>
        <time>2021-07-17T17:20:29Z</time>
      </trkpt>
      <trkpt lat="45.76324" lon="2.95579">
        <ele>1072</ele>
        <time>2021-07-17T17:20:30Z</time>
      </trkpt>
      <trkpt lat="45.76323" lon="2.9558">
        <ele>1072</ele>
        <time>2021-07-17T17:20:31Z</time>
      </trkpt>
      <trkpt lat="45.76322" lon="2.95581">
        <ele>1072</ele>
        <time>2021-07-17T17:20:32Z</time>
      </trkpt>
      <trkpt lat="45.76321" lon="2.95581">
        <ele>1072</ele>
        <time>2021-07-17T17:20:33Z</time>
      </trkpt>
      <trkpt lat="45.76321" lon="2.95582">
        <ele>1072</ele>
        <time>2021-07-17T17:20:34Z</time>
      </trkpt>
      <trkpt lat="45.7632" lon="2.95583">
        <ele>1072</ele>
        <time>2021-07-17T17:20:35Z</time>
      </trkpt>
      <trkpt lat="45.76318" lon="2.95584">
        <ele>1072</ele>
        <time>2021-07-17T17:20:36Z</time>
      </trkpt>
      <trkpt lat="45.76317" lon="2.95585">
        <ele>1072</ele>
        <time>2021-07-17T17:20:37Z</time>
      </trkpt>
      <trkpt lat="45.76316" lon="2.95586">
        <ele>1072</ele>
        <time>2021-07-17T17:20:38Z</time>
      </trkpt>
      <trkpt lat="45.76315" lon="2.95587">
        <ele>1072</ele>
        <time>2021-07-17T17:20:39Z</time>
      </trkpt>
      <trkpt lat="45.76313" lon="2.95588">
        <ele>1072</ele>
        <time>2021-07-17T17:20:40Z</time>
      </trkpt>
      <trkpt lat="45.76312" lon="2.9559">
        <ele>1072</ele>
        <time>2021-07-17T17:20:41Z</time>
      </trkpt>
      <trkpt lat="45.76311" lon="2.95591">
        <ele>1072</ele>
        <time>2021-07-17T17:20:42Z</time>
      </trkpt>
      <trkpt lat="45.7631" lon="2.95592">
        <ele>1072</ele>
        <time>2021-07-17T17:20:43Z</time>
      </trkpt>
      <trkpt lat="45.76309" lon="2.95593">
        <ele>1072</ele>
        <time>2021-07-17T17:20:44Z</time>
      </trkpt>
      <trkpt lat="45.76307" lon="2.95594">
        <ele>1072</ele>
        <time>2021-07-17T17:20:45Z</time>
      </trkpt>
      <trkpt lat="45.76306" lon="2.95596">
        <ele>1072</ele>
        <time>2021-07-17T17:20:46Z</time>
      </trkpt>
      <trkpt lat="45.76305" lon="2.95597">
        <ele>1072</ele>
        <time>2021-07-17T17:20:47Z</time>
      </trkpt>
      <trkpt lat="45.76304" lon="2.95599">
        <ele>1072</ele>
        <time>2021-07-17T17:20:48Z</time>
      </trkpt>
      <trkpt lat="45.76303" lon="2.956">
        <ele>1072</ele>
        <time>2021-07-17T17:20:49Z</time>
      </trkpt>
      <trkpt lat="45.76302" lon="2.95602">
        <ele>1072</ele>
        <time>2021-07-17T17:20:50Z</time>
      </trkpt>
      <trkpt lat="45.763" lon="2.95603">
        <ele>1072</ele>
        <time>2021-07-17T17:20:51Z</time>
      </trkpt>
      <trkpt lat="45.763" lon="2.95605">
        <ele>1072</ele>
        <time>2021-07-17T17:20:52Z</time>
      </trkpt>
      <trkpt lat="45.76299" lon="2.95606">
        <ele>1072</ele>
        <time>2021-07-17T17:20:53Z</time>
      </trkpt>
      <trkpt lat="45.76297" lon="2.95608">
        <ele>1072</ele>
        <time>2021-07-17T17:20:54Z</time>
      </trkpt>
      <trkpt lat="45.76296" lon="2.95609">
        <ele>1072</ele>
        <time>2021-07-17T17:20:55Z</time>
      </trkpt>
      <trkpt lat="45.76295" lon="2.9561">
        <ele>1072</ele>
        <time>2021-07-17T17:20:56Z</time>
      </trkpt>
      <trkpt lat="45.76294" lon="2.95612">
        <ele>1072</ele>
        <time>2021-07-17T17:20:57Z</time>
      </trkpt>
      <trkpt lat="45.76292" lon="2.95613">
        <ele>1072</ele>
        <time>2021-07-17T17:20:58Z</time>
      </trkpt>
      <trkpt lat="45.7629" lon="2.95614">
        <ele>1072</ele>
        <time>2021-07-17T17:20:59Z</time>
      </trkpt>
      <trkpt lat="45.76289" lon="2.95616">
        <ele>1072</ele>
        <time>2021-07-17T17:21:00Z</time>
      </trkpt>
      <trkpt lat="45.76288" lon="2.95617">
        <ele>1072</ele>
        <time>2021-07-17T17:21:01Z</time>
      </trkpt>
      <trkpt lat="45.76287" lon="2.95618">
        <ele>1072</ele>
        <time>2021-07-17T17:21:02Z</time>
      </trkpt>
      <trkpt lat="45.76286" lon="2.9562">
        <ele>1072</ele>
        <time>2021-07-17T17:21:03Z</time>
      </trkpt>
      <trkpt lat="45.76284" lon="2.95622">
        <ele>1072</ele>
        <time>2021-07-17T17:21:04Z</time>
      </trkpt>
      <trkpt lat="45.76284" lon="2.95623">
        <ele>1072</ele>
        <time>2021-07-17T17:21:05Z</time>
      </trkpt>
      <trkpt lat="45.76283" lon="2.95625">
        <ele>1072</ele>
        <time>2021-07-17T17:21:06Z</time>
      </trkpt>
      <trkpt lat="45.76282" lon="2.95627">
        <ele>1072</ele>
        <time>2021-07-17T17:21:07Z</time>
      </trkpt>
      <trkpt lat="45.76281" lon="2.95629">
        <ele>1072</ele>
        <time>2021-07-17T17:21:08Z</time>
      </trkpt>
      <trkpt lat="45.7628" lon="2.95631">
        <ele>1072</ele>
        <time>2021-07-17T17:21:09Z</time>
      </trkpt>
      <trkpt lat="45.76279" lon="2.95633">
        <ele>1072</ele>
        <time>2021-07-17T17:21:10Z</time>
      </trkpt>
      <trkpt lat="45.76279" lon="2.95635">
        <ele>1072</ele>
        <time>2021-07-17T17:21:11Z</time>
      </trkpt>
      <trkpt lat="45.76279" lon="2.95636">
        <ele>1072</ele>
        <time>2021-07-17T17:21:12Z</time>
      </trkpt>
      <trkpt lat="45.76278" lon="2.95638">
        <ele>1072</ele>
        <time>2021-07-17T17:21:13Z</time>
      </trkpt>
      <trkpt lat="45.76277" lon="2.9564">
        <ele>1072</ele>
        <time>2021-07-17T17:21:14Z</time>
      </trkpt>
      <trkpt lat="45.76276" lon="2.95641">
        <ele>1072</ele>
        <time>2021-07-17T17:21:15Z</time>
      </trkpt>
      <trkpt lat="45.76276" lon="2.95643">
        <ele>1072</ele>
        <time>2021-07-17T17:21:16Z</time>
      </trkpt>
      <trkpt lat="45.76274" lon="2.95644">
        <ele>1072</ele>
        <time>2021-07-17T17:21:17Z</time>
      </trkpt>
      <trkpt lat="45.76273" lon="2.95646">
        <ele>1072</ele>
        <time>2021-07-17T17:21:18Z</time>
      </trkpt>
      <trkpt lat="45.76272" lon="2.95648">
        <ele>1072</ele>
        <time>2021-07-17T17:21:19Z</time>
      </trkpt>
      <trkpt lat="45.76271" lon="2.95649">
        <ele>1072</ele>
        <time>2021-07-17T17:21:20Z</time>
      </trkpt>
      <trkpt lat="45.7627" lon="2.95651">
        <ele>1072</ele>
        <time>2021-07-17T17:21:21Z</time>
      </trkpt>
      <trkpt lat="45.76269" lon="2.95652">
        <ele>1072</ele>
        <time>2021-07-17T17:21:22Z</time>
      </trkpt>
      <trkpt lat="45.76268" lon="2.95654">
        <ele>1072</ele>
        <time>2021-07-17T17:21:23Z</time>
      </trkpt>
      <trkpt lat="45.76267" lon="2.95655">
        <ele>1072</ele>
        <time>2021-07-17T17:21:24Z</time>
      </trkpt>
      <trkpt lat="45.76266" lon="2.95656">
        <ele>1072</ele>
        <time>2021-07-17T17:21:25Z</time>
      </trkpt>
      <trkpt lat="45.76265" lon="2.95658">
        <ele>1072</ele>
        <time>2021-07-17T17:21:26Z</time>
      </trkpt>
      <trkpt lat="45.76264" lon="2.95659">
        <ele>1072</ele>
        <time>2021-07-17T17:21:28Z</time>
      </trkpt>
      <trkpt lat="45.76259" lon="2.95663">
        <ele>1072</ele>
        <time>2021-07-17T17:21:29Z</time>
      </trkpt>
      <trkpt lat="45.76259" lon="2.95663">
        <ele>1072</ele>
        <time>2021-07-17T17:21:30Z</time>
      </trkpt>
      <trkpt lat="45.76258" lon="2.95663">
        <ele>1072</ele>
        <time>2021-07-17T17:21:31Z</time>
      </trkpt>
      <trkpt lat="45.76258" lon="2.95662">
        <ele>1072</ele>
        <time>2021-07-17T17:21:32Z</time>
      </trkpt>
      <trkpt lat="45.76257" lon="2.95662">
        <ele>1072</ele>
        <time>2021-07-17T17:21:33Z</time>
      </trkpt>
      <trkpt lat="45.76256" lon="2.95661">
        <ele>1072</ele>
        <time>2021-07-17T17:21:34Z</time>
      </trkpt>
      <trkpt lat="45.76256" lon="2.9566">
        <ele>1072</ele>
        <time>2021-07-17T17:21:35Z</time>
      </trkpt>
      <trkpt lat="45.76255" lon="2.95659">
        <ele>1072</ele>
        <time>2021-07-17T17:21:36Z</time>
      </trkpt>
      <trkpt lat="45.76255" lon="2.95658">
        <ele>1072</ele>
        <time>2021-07-17T17:21:37Z</time>
      </trkpt>
      <trkpt lat="45.76255" lon="2.95657">
        <ele>1072</ele>
        <time>2021-07-17T17:21:38Z</time>
      </trkpt>
      <trkpt lat="45.76255" lon="2.95656">
        <ele>1072</ele>
        <time>2021-07-17T17:21:39Z</time>
      </trkpt>
      <trkpt lat="45.76254" lon="2.95655">
        <ele>1072</ele>
        <time>2021-07-17T17:21:40Z</time>
      </trkpt>
      <trkpt lat="45.76254" lon="2.95653">
        <ele>1072</ele>
        <time>2021-07-17T17:21:41Z</time>
      </trkpt>
      <trkpt lat="45.76254" lon="2.95652">
        <ele>1072</ele>
        <time>2021-07-17T17:21:42Z</time>
      </trkpt>
      <trkpt lat="45.76254" lon="2.95651">
        <ele>1072</ele>
        <time>2021-07-17T17:21:43Z</time>
      </trkpt>
      <trkpt lat="45.76254" lon="2.95649">
        <ele>1072</ele>
        <time>2021-07-17T17:21:44Z</time>
      </trkpt>
      <trkpt lat="45.76254" lon="2.95648">
        <ele>1072</ele>
        <time>2021-07-17T17:21:45Z</time>
      </trkpt>
      <trkpt lat="45.76254" lon="2.95647">
        <ele>1072</ele>
        <time>2021-07-17T17:21:46Z</time>
      </trkpt>
      <trkpt lat="45.76254" lon="2.95645">
        <ele>1072</ele>
        <time>2021-07-17T17:21:47Z</time>
      </trkpt>
      <trkpt lat="45.76254" lon="2.95644">
        <ele>1072</ele>
        <time>2021-07-17T17:21:48Z</time>
      </trkpt>
      <trkpt lat="45.76254" lon="2.95643">
        <ele>1072</ele>
        <time>2021-07-17T17:21:49Z</time>
      </trkpt>
      <trkpt lat="45.76254" lon="2.95641">
        <ele>1072</ele>
        <time>2021-07-17T17:21:50Z</time>
      </trkpt>
      <trkpt lat="45.76254" lon="2.9564">
        <ele>1072</ele>
        <time>2021-07-17T17:21:51Z</time>
      </trkpt>
      <trkpt lat="45.76254" lon="2.95639">
        <ele>1072</ele>
        <time>2021-07-17T17:21:52Z</time>
      </trkpt>
      <trkpt lat="45.76255" lon="2.95637">
        <ele>1072</ele>
        <time>2021-07-17T17:21:53Z</time>
      </trkpt>
      <trkpt lat="45.76255" lon="2.95636">
        <ele>1072</ele>
        <time>2021-07-17T17:21:54Z</time>
      </trkpt>
      <trkpt lat="45.76255" lon="2.95635">
        <ele>1072</ele>
        <time>2021-07-17T17:21:55Z</time>
      </trkpt>
      <trkpt lat="45.76255" lon="2.95633">
        <ele>1072</ele>
        <time>2021-07-17T17:21:56Z</time>
      </trkpt>
      <trkpt lat="45.76255" lon="2.95632">
        <ele>1072</ele>
        <time>2021-07-17T17:21:57Z</time>
      </trkpt>
      <trkpt lat="45.76256" lon="2.9563">
        <ele>1072</ele>
        <time>2021-07-17T17:21:58Z</time>
      </trkpt>
      <trkpt lat="45.76256" lon="2.95629">
        <ele>1072</ele>
        <time>2021-07-17T17:21:59Z</time>
      </trkpt>
      <trkpt lat="45.76257" lon="2.95627">
        <ele>1072</ele>
        <time>2021-07-17T17:22:00Z</time>
      </trkpt>
      <trkpt lat="45.76257" lon="2.95626">
        <ele>1072</ele>
        <time>2021-07-17T17:22:01Z</time>
      </trkpt>
      <trkpt lat="45.76257" lon="2.95624">
        <ele>1072</ele>
        <time>2021-07-17T17:22:02Z</time>
      </trkpt>
      <trkpt lat="45.76258" lon="2.95623">
        <ele>1072</ele>
        <time>2021-07-17T17:22:03Z</time>
      </trkpt>
      <trkpt lat="45.76258" lon="2.95621">
        <ele>1072</ele>
        <time>2021-07-17T17:22:04Z</time>
      </trkpt>
      <trkpt lat="45.76259" lon="2.9562">
        <ele>1072</ele>
        <time>2021-07-17T17:22:05Z</time>
      </trkpt>
      <trkpt lat="45.76259" lon="2.95619">
        <ele>1072</ele>
        <time>2021-07-17T17:22:06Z</time>
      </trkpt>
      <trkpt lat="45.7626" lon="2.95617">
        <ele>1072</ele>
        <time>2021-07-17T17:22:07Z</time>
      </trkpt>
      <trkpt lat="45.7626" lon="2.95616">
        <ele>1072</ele>
        <time>2021-07-17T17:22:08Z</time>
      </trkpt>
      <trkpt lat="45.7626" lon="2.95614">
        <ele>1072</ele>
        <time>2021-07-17T17:22:09Z</time>
      </trkpt>
      <trkpt lat="45.76261" lon="2.95612">
        <ele>1072</ele>
        <time>2021-07-17T17:22:10Z</time>
      </trkpt>
      <trkpt lat="45.76261" lon="2.9561">
        <ele>1072</ele>
        <time>2021-07-17T17:22:11Z</time>
      </trkpt>
      <trkpt lat="45.76261" lon="2.95608">
        <ele>1072</ele>
        <time>2021-07-17T17:22:12Z</time>
      </trkpt>
      <trkpt lat="45.76262" lon="2.95606">
        <ele>1072</ele>
        <time>2021-07-17T17:22:13Z</time>
      </trkpt>
      <trkpt lat="45.76262" lon="2.95604">
        <ele>1072</ele>
        <time>2021-07-17T17:22:14Z</time>
      </trkpt>
      <trkpt lat="45.76263" lon="2.95602">
        <ele>1072</ele>
        <time>2021-07-17T17:22:15Z</time>
      </trkpt>
      <trkpt lat="45.76263" lon="2.956">
        <ele>1072</ele>
        <time>2021-07-17T17:22:17Z</time>
      </trkpt>
      <trkpt lat="45.76264" lon="2.95597">
        <ele>1072</ele>
        <time>2021-07-17T17:22:18Z</time>
      </trkpt>
      <trkpt lat="45.76264" lon="2.95595">
        <ele>1072</ele>
        <time>2021-07-17T17:22:19Z</time>
      </trkpt>
      <trkpt lat="45.76265" lon="2.95593">
        <ele>1072</ele>
        <time>2021-07-17T17:22:20Z</time>
      </trkpt>
      <trkpt lat="45.76265" lon="2.95591">
        <ele>1072</ele>
        <time>2021-07-17T17:22:21Z</time>
      </trkpt>
      <trkpt lat="45.76266" lon="2.95589">
        <ele>1072</ele>
        <time>2021-07-17T17:22:22Z</time>
      </trkpt>
      <trkpt lat="45.76266" lon="2.95587">
        <ele>1072</ele>
        <time>2021-07-17T17:22:23Z</time>
      </trkpt>
      <trkpt lat="45.76266" lon="2.95585">
        <ele>1072</ele>
        <time>2021-07-17T17:22:24Z</time>
      </trkpt>
      <trkpt lat="45.76267" lon="2.95583">
        <ele>1072</ele>
        <time>2021-07-17T17:22:25Z</time>
      </trkpt>
      <trkpt lat="45.76267" lon="2.95582">
        <ele>1072</ele>
        <time>2021-07-17T17:22:26Z</time>
      </trkpt>
      <trkpt lat="45.76267" lon="2.9558">
        <ele>1072</ele>
        <time>2021-07-17T17:22:27Z</time>
      </trkpt>
      <trkpt lat="45.76267" lon="2.95579">
        <ele>1072</ele>
        <time>2021-07-17T17:22:28Z</time>
      </trkpt>
      <trkpt lat="45.76266" lon="2.95578">
        <ele>1072</ele>
        <time>2021-07-17T17:22:29Z</time>
      </trkpt>
      <trkpt lat="45.76266" lon="2.95577">
        <ele>1072</ele>
        <time>2021-07-17T17:22:30Z</time>
      </trkpt>
      <trkpt lat="45.76265" lon="2.95577">
        <ele>1072</ele>
        <time>2021-07-17T17:22:31Z</time>
      </trkpt>
      <trkpt lat="45.76264" lon="2.95577">
        <ele>1072</ele>
        <time>2021-07-17T17:22:32Z</time>
      </trkpt>
      <trkpt lat="45.76263" lon="2.95576">
        <ele>1072</ele>
        <time>2021-07-17T17:22:33Z</time>
      </trkpt>
      <trkpt lat="45.76262" lon="2.95576">
        <ele>1072</ele>
        <time>2021-07-17T17:22:34Z</time>
      </trkpt>
      <trkpt lat="45.76261" lon="2.95576">
        <ele>1072</ele>
        <time>2021-07-17T17:22:35Z</time>
      </trkpt>
      <trkpt lat="45.7626" lon="2.95576">
        <ele>1072</ele>
        <time>2021-07-17T17:22:36Z</time>
      </trkpt>
      <trkpt lat="45.7626" lon="2.95577">
        <ele>1072</ele>
        <time>2021-07-17T17:22:37Z</time>
      </trkpt>
      <trkpt lat="45.76259" lon="2.95577">
        <ele>1072</ele>
        <time>2021-07-17T17:22:37Z</time>
      </trkpt>
      <trkpt lat="45.76259" lon="2.95578">
        <ele>1072</ele>
        <time>2021-07-17T17:22:38Z</time>
      </trkpt>
      <trkpt lat="45.76258" lon="2.95579">
        <ele>1072</ele>
        <time>2021-07-17T17:22:39Z</time>
      </trkpt>
      <trkpt lat="45.76258" lon="2.9558">
        <ele>1072</ele>
        <time>2021-07-17T17:22:40Z</time>
      </trkpt>
      <trkpt lat="45.76258" lon="2.95581">
        <ele>1072</ele>
        <time>2021-07-17T17:22:41Z</time>
      </trkpt>
      <trkpt lat="45.76257" lon="2.95582">
        <ele>1072</ele>
        <time>2021-07-17T17:22:42Z</time>
      </trkpt>
      <trkpt lat="45.76257" lon="2.95584">
        <ele>1072</ele>
        <time>2021-07-17T17:22:43Z</time>
      </trkpt>
      <trkpt lat="45.76257" lon="2.95585">
        <ele>1072</ele>
        <time>2021-07-17T17:22:44Z</time>
      </trkpt>
      <trkpt lat="45.76256" lon="2.95587">
        <ele>1072</ele>
        <time>2021-07-17T17:22:45Z</time>
      </trkpt>
      <trkpt lat="45.76255" lon="2.95589">
        <ele>1072</ele>
        <time>2021-07-17T17:22:46Z</time>
      </trkpt>
      <trkpt lat="45.76255" lon="2.9559">
        <ele>1072</ele>
        <time>2021-07-17T17:22:47Z</time>
      </trkpt>
      <trkpt lat="45.76255" lon="2.95591">
        <ele>1072</ele>
        <time>2021-07-17T17:22:48Z</time>
      </trkpt>
      <trkpt lat="45.76254" lon="2.95592">
        <ele>1072</ele>
        <time>2021-07-17T17:22:49Z</time>
      </trkpt>
      <trkpt lat="45.76253" lon="2.95593">
        <ele>1072</ele>
        <time>2021-07-17T17:22:50Z</time>
      </trkpt>
      <trkpt lat="45.76252" lon="2.95595">
        <ele>1072</ele>
        <time>2021-07-17T17:22:51Z</time>
      </trkpt>
      <trkpt lat="45.76252" lon="2.95596">
        <ele>1072</ele>
        <time>2021-07-17T17:22:52Z</time>
      </trkpt>
      <trkpt lat="45.76251" lon="2.95597">
        <ele>1072</ele>
        <time>2021-07-17T17:22:53Z</time>
      </trkpt>
      <trkpt lat="45.76251" lon="2.95599">
        <ele>1072</ele>
        <time>2021-07-17T17:22:54Z</time>
      </trkpt>
      <trkpt lat="45.7625" lon="2.956">
        <ele>1072</ele>
        <time>2021-07-17T17:22:55Z</time>
      </trkpt>
      <trkpt lat="45.76249" lon="2.95601">
        <ele>1072</ele>
        <time>2021-07-17T17:22:56Z</time>
      </trkpt>
      <trkpt lat="45.76249" lon="2.95603">
        <ele>1072</ele>
        <time>2021-07-17T17:22:57Z</time>
      </trkpt>
      <trkpt lat="45.76248" lon="2.95604">
        <ele>1072</ele>
        <time>2021-07-17T17:22:58Z</time>
      </trkpt>
      <trkpt lat="45.76248" lon="2.95606">
        <ele>1072</ele>
        <time>2021-07-17T17:22:59Z</time>
      </trkpt>
      <trkpt lat="45.76247" lon="2.95607">
        <ele>1072</ele>
        <time>2021-07-17T17:23:00Z</time>
      </trkpt>
      <trkpt lat="45.76246" lon="2.95609">
        <ele>1072</ele>
        <time>2021-07-17T17:23:01Z</time>
      </trkpt>
      <trkpt lat="45.76246" lon="2.95611">
        <ele>1072</ele>
        <time>2021-07-17T17:23:02Z</time>
      </trkpt>
      <trkpt lat="45.76245" lon="2.95612">
        <ele>1072</ele>
        <time>2021-07-17T17:23:03Z</time>
      </trkpt>
      <trkpt lat="45.76244" lon="2.95614">
        <ele>1072</ele>
        <time>2021-07-17T17:23:04Z</time>
      </trkpt>
      <trkpt lat="45.76243" lon="2.95616">
        <ele>1072</ele>
        <time>2021-07-17T17:23:05Z</time>
      </trkpt>
      <trkpt lat="45.76242" lon="2.95617">
        <ele>1072</ele>
        <time>2021-07-17T17:23:06Z</time>
      </trkpt>
      <trkpt lat="45.76242" lon="2.95619">
        <ele>1072</ele>
        <time>2021-07-17T17:23:07Z</time>
      </trkpt>
      <trkpt lat="45.76241" lon="2.9562">
        <ele>1072</ele>
        <time>2021-07-17T17:23:08Z</time>
      </trkpt>
      <trkpt lat="45.76241" lon="2.95622">
        <ele>1072</ele>
        <time>2021-07-17T17:23:09Z</time>
      </trkpt>
      <trkpt lat="45.7624" lon="2.95623">
        <ele>1072</ele>
        <time>2021-07-17T17:23:10Z</time>
      </trkpt>
      <trkpt lat="45.76239" lon="2.95624">
        <ele>1072</ele>
        <time>2021-07-17T17:23:11Z</time>
      </trkpt>
      <trkpt lat="45.76238" lon="2.95625">
        <ele>1072</ele>
        <time>2021-07-17T17:23:12Z</time>
      </trkpt>
      <trkpt lat="45.76238" lon="2.95626">
        <ele>1072</ele>
        <time>2021-07-17T17:23:13Z</time>
      </trkpt>
      <trkpt lat="45.76237" lon="2.95627">
        <ele>1072</ele>
        <time>2021-07-17T17:23:14Z</time>
      </trkpt>
      <trkpt lat="45.76236" lon="2.95628">
        <ele>1072</ele>
        <time>2021-07-17T17:23:15Z</time>
      </trkpt>
      <trkpt lat="45.76234" lon="2.9563">
        <ele>1072</ele>
        <time>2021-07-17T17:23:16Z</time>
      </trkpt>
      <trkpt lat="45.76233" lon="2.95631">
        <ele>1072</ele>
        <time>2021-07-17T17:23:17Z</time>
      </trkpt>
      <trkpt lat="45.76233" lon="2.95632">
        <ele>1072</ele>
        <time>2021-07-17T17:23:18Z</time>
      </trkpt>
      <trkpt lat="45.76231" lon="2.95633">
        <ele>1072</ele>
        <time>2021-07-17T17:23:19Z</time>
      </trkpt>
      <trkpt lat="45.7623" lon="2.95634">
        <ele>1072</ele>
        <time>2021-07-17T17:23:20Z</time>
      </trkpt>
      <trkpt lat="45.76228" lon="2.95635">
        <ele>1072</ele>
        <time>2021-07-17T17:23:21Z</time>
      </trkpt>
      <trkpt lat="45.76227" lon="2.95636">
        <ele>1072</ele>
        <time>2021-07-17T17:23:22Z</time>
      </trkpt>
      <trkpt lat="45.76225" lon="2.95636">
        <ele>1072</ele>
        <time>2021-07-17T17:23:23Z</time>
      </trkpt>
      <trkpt lat="45.76224" lon="2.95636">
        <ele>1072</ele>
        <time>2021-07-17T17:23:24Z</time>
      </trkpt>
      <trkpt lat="45.76223" lon="2.95636">
        <ele>1072</ele>
        <time>2021-07-17T17:23:26Z</time>
      </trkpt>
      <trkpt lat="45.76222" lon="2.95636">
        <ele>1072</ele>
        <time>2021-07-17T17:23:27Z</time>
      </trkpt>
      <trkpt lat="45.76218" lon="2.95633">
        <ele>1072</ele>
        <time>2021-07-17T17:23:28Z</time>
      </trkpt>
      <trkpt lat="45.76217" lon="2.95632">
        <ele>1072</ele>
        <time>2021-07-17T17:23:29Z</time>
      </trkpt>
      <trkpt lat="45.76217" lon="2.95632">
        <ele>1072</ele>
        <time>2021-07-17T17:23:30Z</time>
      </trkpt>
      <trkpt lat="45.76217" lon="2.95631">
        <ele>1072</ele>
        <time>2021-07-17T17:23:31Z</time>
      </trkpt>
      <trkpt lat="45.76217" lon="2.9563">
        <ele>1072</ele>
        <time>2021-07-17T17:23:32Z</time>
      </trkpt>
      <trkpt lat="45.76217" lon="2.95629">
        <ele>1072</ele>
        <time>2021-07-17T17:23:33Z</time>
      </trkpt>
      <trkpt lat="45.76217" lon="2.95628">
        <ele>1072</ele>
        <time>2021-07-17T17:23:34Z</time>
      </trkpt>
      <trkpt lat="45.76217" lon="2.95627">
        <ele>1072</ele>
        <time>2021-07-17T17:23:35Z</time>
      </trkpt>
      <trkpt lat="45.76217" lon="2.95627">
        <ele>1072</ele>
        <time>2021-07-17T17:23:36Z</time>
      </trkpt>
      <trkpt lat="45.76217" lon="2.95626">
        <ele>1072</ele>
        <time>2021-07-17T17:23:37Z</time>
      </trkpt>
      <trkpt lat="45.76217" lon="2.95625">
        <ele>1072</ele>
        <time>2021-07-17T17:23:38Z</time>
      </trkpt>
      <trkpt lat="45.76216" lon="2.95624">
        <ele>1072</ele>
        <time>2021-07-17T17:23:39Z</time>
      </trkpt>
      <trkpt lat="45.76216" lon="2.95624">
        <ele>1072</ele>
        <time>2021-07-17T17:23:40Z</time>
      </trkpt>
      <trkpt lat="45.76216" lon="2.95623">
        <ele>1072</ele>
        <time>2021-07-17T17:23:41Z</time>
      </trkpt>
      <trkpt lat="45.76215" lon="2.95623">
        <ele>1072</ele>
        <time>2021-07-17T17:23:42Z</time>
      </trkpt>
      <trkpt lat="45.76215" lon="2.95622">
        <ele>1072</ele>
        <time>2021-07-17T17:23:43Z</time>
      </trkpt>
      <trkpt lat="45.76216" lon="2.95622">
        <ele>1072</ele>
        <time>2021-07-17T17:23:44Z</time>
      </trkpt>
      <trkpt lat="45.76216" lon="2.95621">
        <ele>1072</ele>
        <time>2021-07-17T17:23:45Z</time>
      </trkpt>
      <trkpt lat="45.76216" lon="2.95621">
        <ele>1072</ele>
        <time>2021-07-17T17:23:46Z</time>
      </trkpt>
      <trkpt lat="45.76216" lon="2.9562">
        <ele>1072</ele>
        <time>2021-07-17T17:23:47Z</time>
      </trkpt>
      <trkpt lat="45.76216" lon="2.95619">
        <ele>1072</ele>
        <time>2021-07-17T17:23:48Z</time>
      </trkpt>
      <trkpt lat="45.76216" lon="2.95618">
        <ele>1072</ele>
        <time>2021-07-17T17:23:49Z</time>
      </trkpt>
      <trkpt lat="45.76217" lon="2.95616">
        <ele>1072</ele>
        <time>2021-07-17T17:23:50Z</time>
      </trkpt>
      <trkpt lat="45.76217" lon="2.95615">
        <ele>1072</ele>
        <time>2021-07-17T17:23:51Z</time>
      </trkpt>
      <trkpt lat="45.76217" lon="2.95613">
        <ele>1072</ele>
        <time>2021-07-17T17:23:52Z</time>
      </trkpt>
      <trkpt lat="45.76217" lon="2.95612">
        <ele>1072</ele>
        <time>2021-07-17T17:23:53Z</time>
      </trkpt>
      <trkpt lat="45.76218" lon="2.9561">
        <ele>1072</ele>
        <time>2021-07-17T17:23:54Z</time>
      </trkpt>
      <trkpt lat="45.76218" lon="2.95609">
        <ele>1072</ele>
        <time>2021-07-17T17:23:55Z</time>
      </trkpt>
      <trkpt lat="45.76219" lon="2.95608">
        <ele>1072</ele>
        <time>2021-07-17T17:23:56Z</time>
      </trkpt>
      <trkpt lat="45.7622" lon="2.95607">
        <ele>1072</ele>
        <time>2021-07-17T17:23:57Z</time>
      </trkpt>
      <trkpt lat="45.7622" lon="2.95605">
        <ele>1072</ele>
        <time>2021-07-17T17:23:58Z</time>
      </trkpt>
      <trkpt lat="45.76221" lon="2.95604">
        <ele>1072</ele>
        <time>2021-07-17T17:23:59Z</time>
      </trkpt>
      <trkpt lat="45.76222" lon="2.95602">
        <ele>1072</ele>
        <time>2021-07-17T17:24:00Z</time>
      </trkpt>
      <trkpt lat="45.76222" lon="2.95601">
        <ele>1072</ele>
        <time>2021-07-17T17:24:01Z</time>
      </trkpt>
      <trkpt lat="45.76221" lon="2.956">
        <ele>1072</ele>
        <time>2021-07-17T17:24:02Z</time>
      </trkpt>
      <trkpt lat="45.76221" lon="2.95598">
        <ele>1072</ele>
        <time>2021-07-17T17:24:03Z</time>
      </trkpt>
      <trkpt lat="45.76221" lon="2.95597">
        <ele>1072</ele>
        <time>2021-07-17T17:24:04Z</time>
      </trkpt>
      <trkpt lat="45.76221" lon="2.95595">
        <ele>1072</ele>
        <time>2021-07-17T17:24:05Z</time>
      </trkpt>
      <trkpt lat="45.76221" lon="2.95594">
        <ele>1072</ele>
        <time>2021-07-17T17:24:06Z</time>
      </trkpt>
      <trkpt lat="45.76221" lon="2.95592">
        <ele>1072</ele>
        <time>2021-07-17T17:24:07Z</time>
      </trkpt>
      <trkpt lat="45.76221" lon="2.9559">
        <ele>1072</ele>
        <time>2021-07-17T17:24:08Z</time>
      </trkpt>
      <trkpt lat="45.7622" lon="2.95589">
        <ele>1072</ele>
        <time>2021-07-17T17:24:09Z</time>
      </trkpt>
      <trkpt lat="45.7622" lon="2.95586">
        <ele>1072</ele>
        <time>2021-07-17T17:24:10Z</time>
      </trkpt>
      <trkpt lat="45.7622" lon="2.95584">
        <ele>1072</ele>
        <time>2021-07-17T17:24:11Z</time>
      </trkpt>
      <trkpt lat="45.7622" lon="2.95582">
        <ele>1072</ele>
        <time>2021-07-17T17:24:12Z</time>
      </trkpt>
      <trkpt lat="45.7622" lon="2.9558">
        <ele>1072</ele>
        <time>2021-07-17T17:24:13Z</time>
      </trkpt>
      <trkpt lat="45.7622" lon="2.95578">
        <ele>1072</ele>
        <time>2021-07-17T17:24:14Z</time>
      </trkpt>
      <trkpt lat="45.7622" lon="2.95575">
        <ele>1072</ele>
        <time>2021-07-17T17:24:15Z</time>
      </trkpt>
      <trkpt lat="45.76219" lon="2.95573">
        <ele>1072</ele>
        <time>2021-07-17T17:24:16Z</time>
      </trkpt>
      <trkpt lat="45.76219" lon="2.95571">
        <ele>1072</ele>
        <time>2021-07-17T17:24:17Z</time>
      </trkpt>
      <trkpt lat="45.76219" lon="2.95568">
        <ele>1072</ele>
        <time>2021-07-17T17:24:18Z</time>
      </trkpt>
      <trkpt lat="45.76219" lon="2.95566">
        <ele>1072</ele>
        <time>2021-07-17T17:24:19Z</time>
      </trkpt>
      <trkpt lat="45.76219" lon="2.95564">
        <ele>1072</ele>
        <time>2021-07-17T17:24:20Z</time>
      </trkpt>
      <trkpt lat="45.7622" lon="2.95562">
        <ele>1072</ele>
        <time>2021-07-17T17:24:21Z</time>
      </trkpt>
      <trkpt lat="45.7622" lon="2.95561">
        <ele>1072</ele>
        <time>2021-07-17T17:24:22Z</time>
      </trkpt>
      <trkpt lat="45.7622" lon="2.95559">
        <ele>1072</ele>
        <time>2021-07-17T17:24:23Z</time>
      </trkpt>
      <trkpt lat="45.7622" lon="2.95557">
        <ele>1072</ele>
        <time>2021-07-17T17:24:24Z</time>
      </trkpt>
      <trkpt lat="45.7622" lon="2.95556">
        <ele>1072</ele>
        <time>2021-07-17T17:24:25Z</time>
      </trkpt>
      <trkpt lat="45.7622" lon="2.95555">
        <ele>1072</ele>
        <time>2021-07-17T17:24:26Z</time>
      </trkpt>
      <trkpt lat="45.7622" lon="2.95554">
        <ele>1072</ele>
        <time>2021-07-17T17:24:27Z</time>
      </trkpt>
      <trkpt lat="45.7622" lon="2.95553">
        <ele>1072</ele>
        <time>2021-07-17T17:24:28Z</time>
      </trkpt>
      <trkpt lat="45.76221" lon="2.95552">
        <ele>1072</ele>
        <time>2021-07-17T17:24:29Z</time>
      </trkpt>
      <trkpt lat="45.76221" lon="2.95551">
        <ele>1072</ele>
        <time>2021-07-17T17:24:30Z</time>
      </trkpt>
      <trkpt lat="45.76222" lon="2.9555">
        <ele>1072</ele>
        <time>2021-07-17T17:24:31Z</time>
      </trkpt>
      <trkpt lat="45.76223" lon="2.95548">
        <ele>1072</ele>
        <time>2021-07-17T17:24:32Z</time>
      </trkpt>
      <trkpt lat="45.76224" lon="2.95548">
        <ele>1072</ele>
        <time>2021-07-17T17:24:33Z</time>
      </trkpt>
      <trkpt lat="45.76224" lon="2.95546">
        <ele>1072</ele>
        <time>2021-07-17T17:24:34Z</time>
      </trkpt>
      <trkpt lat="45.76225" lon="2.95545">
        <ele>1072</ele>
        <time>2021-07-17T17:24:35Z</time>
      </trkpt>
      <trkpt lat="45.76226" lon="2.95545">
        <ele>1072</ele>
        <time>2021-07-17T17:24:36Z</time>
      </trkpt>
      <trkpt lat="45.76227" lon="2.95544">
        <ele>1072</ele>
        <time>2021-07-17T17:24:37Z</time>
      </trkpt>
      <trkpt lat="45.76228" lon="2.95543">
        <ele>1072</ele>
        <time>2021-07-17T17:24:38Z</time>
      </trkpt>
      <trkpt lat="45.76229" lon="2.95542">
        <ele>1072</ele>
        <time>2021-07-17T17:24:39Z</time>
      </trkpt>
      <trkpt lat="45.7623" lon="2.95541">
        <ele>1072</ele>
        <time>2021-07-17T17:24:40Z</time>
      </trkpt>
      <trkpt lat="45.7623" lon="2.9554">
        <ele>1072</ele>
        <time>2021-07-17T17:24:41Z</time>
      </trkpt>
      <trkpt lat="45.76231" lon="2.95539">
        <ele>1072</ele>
        <time>2021-07-17T17:24:42Z</time>
      </trkpt>
      <trkpt lat="45.76231" lon="2.95538">
        <ele>1072</ele>
        <time>2021-07-17T17:24:43Z</time>
      </trkpt>
      <trkpt lat="45.76232" lon="2.95537">
        <ele>1072</ele>
        <time>2021-07-17T17:24:44Z</time>
      </trkpt>
      <trkpt lat="45.76233" lon="2.95537">
        <ele>1072</ele>
        <time>2021-07-17T17:24:45Z</time>
      </trkpt>
      <trkpt lat="45.76233" lon="2.95536">
        <ele>1072</ele>
        <time>2021-07-17T17:24:46Z</time>
      </trkpt>
      <trkpt lat="45.76233" lon="2.95536">
        <ele>1072</ele>
        <time>2021-07-17T17:24:47Z</time>
      </trkpt>
      <trkpt lat="45.76234" lon="2.95535">
        <ele>1072</ele>
        <time>2021-07-17T17:24:48Z</time>
      </trkpt>
      <trkpt lat="45.76236" lon="2.95532">
        <ele>1072</ele>
        <time>2021-07-17T17:24:50Z</time>
      </trkpt>
      <trkpt lat="45.76236" lon="2.95532">
        <ele>1072</ele>
        <time>2021-07-17T17:24:51Z</time>
      </trkpt>
      <trkpt lat="45.76236" lon="2.95532">
        <ele>1072</ele>
        <time>2021-07-17T17:24:52Z</time>
      </trkpt>
      <trkpt lat="45.76237" lon="2.95531">
        <ele>1072</ele>
        <time>2021-07-17T17:24:53Z</time>
      </trkpt>
      <trkpt lat="45.76238" lon="2.9553">
        <ele>1072</ele>
        <time>2021-07-17T17:24:54Z</time>
      </trkpt>
      <trkpt lat="45.76238" lon="2.9553">
        <ele>1072</ele>
        <time>2021-07-17T17:24:55Z</time>
      </trkpt>
      <trkpt lat="45.76239" lon="2.95529">
        <ele>1072</ele>
        <time>2021-07-17T17:24:56Z</time>
      </trkpt>
      <trkpt lat="45.76239" lon="2.95528">
        <ele>1072</ele>
        <time>2021-07-17T17:24:57Z</time>
      </trkpt>
      <trkpt lat="45.7624" lon="2.95527">
        <ele>1072</ele>
        <time>2021-07-17T17:24:58Z</time>
      </trkpt>
      <trkpt lat="45.7624" lon="2.95527">
        <ele>1072</ele>
        <time>2021-07-17T17:24:59Z</time>
      </trkpt>
      <trkpt lat="45.76241" lon="2.95526">
        <ele>1072</ele>
        <time>2021-07-17T17:25:00Z</time>
      </trkpt>
      <trkpt lat="45.76241" lon="2.95525">
        <ele>1072</ele>
        <time>2021-07-17T17:25:01Z</time>
      </trkpt>
      <trkpt lat="45.76242" lon="2.95524">
        <ele>1072</ele>
        <time>2021-07-17T17:25:02Z</time>
      </trkpt>
      <trkpt lat="45.76243" lon="2.95524">
        <ele>1072</ele>
        <time>2021-07-17T17:25:03Z</time>
      </trkpt>
      <trkpt lat="45.76243" lon="2.95523">
        <ele>1072</ele>
        <time>2021-07-17T17:25:04Z</time>
      </trkpt>
      <trkpt lat="45.76244" lon="2.95522">
        <ele>1072</ele>
        <time>2021-07-17T17:25:05Z</time>
      </trkpt>
      <trkpt lat="45.76244" lon="2.95521">
        <ele>1072</ele>
        <time>2021-07-17T17:25:06Z</time>
      </trkpt>
      <trkpt lat="45.76244" lon="2.9552">
        <ele>1072</ele>
        <time>2021-07-17T17:25:07Z</time>
      </trkpt>
      <trkpt lat="45.76245" lon="2.95519">
        <ele>1072</ele>
        <time>2021-07-17T17:25:08Z</time>
      </trkpt>
      <trkpt lat="45.76245" lon="2.95518">
        <ele>1072</ele>
        <time>2021-07-17T17:25:09Z</time>
      </trkpt>
      <trkpt lat="45.76245" lon="2.95516">
        <ele>1072</ele>
        <time>2021-07-17T17:25:10Z</time>
      </trkpt>
      <trkpt lat="45.76245" lon="2.95515">
        <ele>1072</ele>
        <time>2021-07-17T17:25:11Z</time>
      </trkpt>
      <trkpt lat="45.76246" lon="2.95514">
        <ele>1072</ele>
        <time>2021-07-17T17:25:12Z</time>
      </trkpt>
      <trkpt lat="45.76246" lon="2.95512">
        <ele>1072</ele>
        <time>2021-07-17T17:25:13Z</time>
      </trkpt>
      <trkpt lat="45.76247" lon="2.95511">
        <ele>1072</ele>
        <time>2021-07-17T17:25:14Z</time>
      </trkpt>
      <trkpt lat="45.76247" lon="2.95509">
        <ele>1072</ele>
        <time>2021-07-17T17:25:15Z</time>
      </trkpt>
      <trkpt lat="45.76247" lon="2.95508">
        <ele>1072</ele>
        <time>2021-07-17T17:25:16Z</time>
      </trkpt>
      <trkpt lat="45.76248" lon="2.95507">
        <ele>1072</ele>
        <time>2021-07-17T17:25:17Z</time>
      </trkpt>
      <trkpt lat="45.76248" lon="2.95506">
        <ele>1072</ele>
        <time>2021-07-17T17:25:18Z</time>
      </trkpt>
      <trkpt lat="45.76249" lon="2.95504">
        <ele>1072</ele>
        <time>2021-07-17T17:25:19Z</time>
      </trkpt>
      <trkpt lat="45.76249" lon="2.95503">
        <ele>1072</ele>
        <time>2021-07-17T17:25:20Z</time>
      </trkpt>
      <trkpt lat="45.76249" lon="2.95502">
        <ele>1072</ele>
        <time>2021-07-17T17:25:21Z</time>
      </trkpt>
      <trkpt lat="45.7625" lon="2.95501">
        <ele>1072</ele>
        <time>2021-07-17T17:25:22Z</time>
      </trkpt>
      <trkpt lat="45.7625" lon="2.95499">
        <ele>1072</ele>
        <time>2021-07-17T17:25:23Z</time>
      </trkpt>
      <trkpt lat="45.76251" lon="2.95497">
        <ele>1072</ele>
        <time>2021-07-17T17:25:24Z</time>
      </trkpt>
      <trkpt lat="45.76251" lon="2.95495">
        <ele>1072</ele>
        <time>2021-07-17T17:25:25Z</time>
      </trkpt>
      <trkpt lat="45.76251" lon="2.95493">
        <ele>1072</ele>
        <time>2021-07-17T17:25:26Z</time>
      </trkpt>
      <trkpt lat="45.76251" lon="2.95491">
        <ele>1072</ele>
        <time>2021-07-17T17:25:27Z</time>
      </trkpt>
      <trkpt lat="45.76252" lon="2.95488">
        <ele>1072</ele>
        <time>2021-07-17T17:25:28Z</time>
      </trkpt>
      <trkpt lat="45.76252" lon="2.95485">
        <ele>1072</ele>
        <time>2021-07-17T17:25:29Z</time>
      </trkpt>
      <trkpt lat="45.76252" lon="2.95482">
        <ele>1072</ele>
        <time>2021-07-17T17:25:30Z</time>
      </trkpt>
      <trkpt lat="45.76251" lon="2.95478">
        <ele>1072</ele>
        <time>2021-07-17T17:25:31Z</time>
      </trkpt>
      <trkpt lat="45.76251" lon="2.95474">
        <ele>1072</ele>
        <time>2021-07-17T17:25:32Z</time>
      </trkpt>
      <trkpt lat="45.76251" lon="2.95471">
        <ele>1072</ele>
        <time>2021-07-17T17:25:33Z</time>
      </trkpt>
      <trkpt lat="45.76251" lon="2.95469">
        <ele>1072</ele>
        <time>2021-07-17T17:25:34Z</time>
      </trkpt>
      <trkpt lat="45.7625" lon="2.95466">
        <ele>1072</ele>
        <time>2021-07-17T17:25:35Z</time>
      </trkpt>
      <trkpt lat="45.76249" lon="2.95465">
        <ele>1072</ele>
        <time>2021-07-17T17:25:36Z</time>
      </trkpt>
      <trkpt lat="45.76248" lon="2.95464">
        <ele>1072</ele>
        <time>2021-07-17T17:25:37Z</time>
      </trkpt>
      <trkpt lat="45.76247" lon="2.95463">
        <ele>1072</ele>
        <time>2021-07-17T17:25:38Z</time>
      </trkpt>
      <trkpt lat="45.76246" lon="2.95462">
        <ele>1072</ele>
        <time>2021-07-17T17:25:39Z</time>
      </trkpt>
      <trkpt lat="45.76246" lon="2.95462">
        <ele>1072</ele>
        <time>2021-07-17T17:25:40Z</time>
      </trkpt>
      <trkpt lat="45.76245" lon="2.95462">
        <ele>1072</ele>
        <time>2021-07-17T17:25:41Z</time>
      </trkpt>
      <trkpt lat="45.76244" lon="2.95461">
        <ele>1072</ele>
        <time>2021-07-17T17:25:42Z</time>
      </trkpt>
      <trkpt lat="45.76243" lon="2.95461">
        <ele>1072</ele>
        <time>2021-07-17T17:25:43Z</time>
      </trkpt>
      <trkpt lat="45.76243" lon="2.95461">
        <ele>1072</ele>
        <time>2021-07-17T17:25:44Z</time>
      </trkpt>
      <trkpt lat="45.76242" lon="2.95461">
        <ele>1072</ele>
        <time>2021-07-17T17:25:45Z</time>
      </trkpt>
      <trkpt lat="45.76241" lon="2.95462">
        <ele>1072</ele>
        <time>2021-07-17T17:25:46Z</time>
      </trkpt>
      <trkpt lat="45.7624" lon="2.95462">
        <ele>1072</ele>
        <time>2021-07-17T17:25:47Z</time>
      </trkpt>
      <trkpt lat="45.7624" lon="2.95462">
        <ele>1072</ele>
        <time>2021-07-17T17:25:48Z</time>
      </trkpt>
      <trkpt lat="45.76239" lon="2.95463">
        <ele>1072</ele>
        <time>2021-07-17T17:25:49Z</time>
      </trkpt>
      <trkpt lat="45.76238" lon="2.95463">
        <ele>1072</ele>
        <time>2021-07-17T17:25:50Z</time>
      </trkpt>
      <trkpt lat="45.76238" lon="2.95463">
        <ele>1072</ele>
        <time>2021-07-17T17:25:51Z</time>
      </trkpt>
      <trkpt lat="45.76237" lon="2.95463">
        <ele>1072</ele>
        <time>2021-07-17T17:25:52Z</time>
      </trkpt>
      <trkpt lat="45.76236" lon="2.95463">
        <ele>1072</ele>
        <time>2021-07-17T17:25:53Z</time>
      </trkpt>
      <trkpt lat="45.76235" lon="2.95463">
        <ele>1072</ele>
        <time>2021-07-17T17:25:54Z</time>
      </trkpt>
      <trkpt lat="45.76234" lon="2.95463">
        <ele>1072</ele>
        <time>2021-07-17T17:25:55Z</time>
      </trkpt>
      <trkpt lat="45.76233" lon="2.95463">
        <ele>1072</ele>
        <time>2021-07-17T17:25:56Z</time>
      </trkpt>
      <trkpt lat="45.76233" lon="2.95463">
        <ele>1072</ele>
        <time>2021-07-17T17:25:57Z</time>
      </trkpt>
      <trkpt lat="45.76232" lon="2.95463">
        <ele>1072</ele>
        <time>2021-07-17T17:25:58Z</time>
      </trkpt>
      <trkpt lat="45.76231" lon="2.95462">
        <ele>1072</ele>
        <time>2021-07-17T17:25:59Z</time>
      </trkpt>
      <trkpt lat="45.76231" lon="2.95462">
        <ele>1072</ele>
        <time>2021-07-17T17:26:00Z</time>
      </trkpt>
      <trkpt lat="45.7623" lon="2.95461">
        <ele>1072</ele>
        <time>2021-07-17T17:26:01Z</time>
      </trkpt>
      <trkpt lat="45.7623" lon="2.9546">
        <ele>1072</ele>
        <time>2021-07-17T17:26:02Z</time>
      </trkpt>
      <trkpt lat="45.7623" lon="2.9546">
        <ele>1072</ele>
        <time>2021-07-17T17:26:03Z</time>
      </trkpt>
      <trkpt lat="45.76229" lon="2.95459">
        <ele>1072</ele>
        <time>2021-07-17T17:26:04Z</time>
      </trkpt>
      <trkpt lat="45.76228" lon="2.95459">
        <ele>1072</ele>
        <time>2021-07-17T17:26:05Z</time>
      </trkpt>
      <trkpt lat="45.76228" lon="2.95458">
        <ele>1072</ele>
        <time>2021-07-17T17:26:06Z</time>
      </trkpt>
      <trkpt lat="45.76227" lon="2.95458">
        <ele>1072</ele>
        <time>2021-07-17T17:26:07Z</time>
      </trkpt>
      <trkpt lat="45.76226" lon="2.95458">
        <ele>1072</ele>
        <time>2021-07-17T17:26:08Z</time>
      </trkpt>
      <trkpt lat="45.76225" lon="2.95457">
        <ele>1072</ele>
        <time>2021-07-17T17:26:09Z</time>
      </trkpt>
      <trkpt lat="45.76225" lon="2.95457">
        <ele>1072</ele>
        <time>2021-07-17T17:26:10Z</time>
      </trkpt>
      <trkpt lat="45.76224" lon="2.95456">
        <ele>1072</ele>
        <time>2021-07-17T17:26:11Z</time>
      </trkpt>
      <trkpt lat="45.76223" lon="2.95456">
        <ele>1072</ele>
        <time>2021-07-17T17:26:12Z</time>
      </trkpt>
      <trkpt lat="45.76222" lon="2.95456">
        <ele>1072</ele>
        <time>2021-07-17T17:26:13Z</time>
      </trkpt>
      <trkpt lat="45.76221" lon="2.95455">
        <ele>1072</ele>
        <time>2021-07-17T17:26:14Z</time>
      </trkpt>
      <trkpt lat="45.7622" lon="2.95455">
        <ele>1072</ele>
        <time>2021-07-17T17:26:15Z</time>
      </trkpt>
      <trkpt lat="45.76219" lon="2.95455">
        <ele>1072</ele>
        <time>2021-07-17T17:26:16Z</time>
      </trkpt>
      <trkpt lat="45.76219" lon="2.95454">
        <ele>1072</ele>
        <time>2021-07-17T17:26:17Z</time>
      </trkpt>
      <trkpt lat="45.76218" lon="2.95454">
        <ele>1072</ele>
        <time>2021-07-17T17:26:18Z</time>
      </trkpt>
      <trkpt lat="45.76217" lon="2.95453">
        <ele>1072</ele>
        <time>2021-07-17T17:26:19Z</time>
      </trkpt>
      <trkpt lat="45.76217" lon="2.95453">
        <ele>1072</ele>
        <time>2021-07-17T17:26:20Z</time>
      </trkpt>
      <trkpt lat="45.76216" lon="2.95453">
        <ele>1072</ele>
        <time>2021-07-17T17:26:21Z</time>
      </trkpt>
      <trkpt lat="45.76215" lon="2.9545">
        <ele>1072</ele>
        <time>2021-07-17T17:26:40Z</time>
      </trkpt>
      <trkpt lat="45.76215" lon="2.9545">
        <ele>1072</ele>
        <time>2021-07-17T17:26:41Z</time>
      </trkpt>
      <trkpt lat="45.76215" lon="2.95449">
        <ele>1072</ele>
        <time>2021-07-17T17:26:42Z</time>
      </trkpt>
      <trkpt lat="45.76214" lon="2.95447">
        <ele>1072</ele>
        <time>2021-07-17T17:26:43Z</time>
      </trkpt>
      <trkpt lat="45.76214" lon="2.95446">
        <ele>1072</ele>
        <time>2021-07-17T17:26:44Z</time>
      </trkpt>
      <trkpt lat="45.76212" lon="2.95444">
        <ele>1072</ele>
        <time>2021-07-17T17:26:45Z</time>
      </trkpt>
      <trkpt lat="45.76212" lon="2.95443">
        <ele>1072</ele>
        <time>2021-07-17T17:26:46Z</time>
      </trkpt>
      <trkpt lat="45.76212" lon="2.95442">
        <ele>1072</ele>
        <time>2021-07-17T17:26:47Z</time>
      </trkpt>
      <trkpt lat="45.76211" lon="2.9544">
        <ele>1072</ele>
        <time>2021-07-17T17:26:48Z</time>
      </trkpt>
      <trkpt lat="45.7621" lon="2.95439">
        <ele>1072</ele>
        <time>2021-07-17T17:26:49Z</time>
      </trkpt>
      <trkpt lat="45.76209" lon="2.95438">
        <ele>1072</ele>
        <time>2021-07-17T17:26:50Z</time>
      </trkpt>
      <trkpt lat="45.76209" lon="2.95436">
        <ele>1072</ele>
        <time>2021-07-17T17:26:51Z</time>
      </trkpt>
      <trkpt lat="45.76208" lon="2.95434">
        <ele>1072</ele>
        <time>2021-07-17T17:26:52Z</time>
      </trkpt>
      <trkpt lat="45.76207" lon="2.95433">
        <ele>1072</ele>
        <time>2021-07-17T17:26:52Z</time>
      </trkpt>
      <trkpt lat="45.76206" lon="2.95431">
        <ele>1072</ele>
        <time>2021-07-17T17:26:53Z</time>
      </trkpt>
      <trkpt lat="45.76206" lon="2.9543">
        <ele>1072</ele>
        <time>2021-07-17T17:26:54Z</time>
      </trkpt>
      <trkpt lat="45.76205" lon="2.95428">
        <ele>1072</ele>
        <time>2021-07-17T17:26:55Z</time>
      </trkpt>
      <trkpt lat="45.76205" lon="2.95427">
        <ele>1072</ele>
        <time>2021-07-17T17:26:56Z</time>
      </trkpt>
      <trkpt lat="45.76204" lon="2.95425">
        <ele>1072</ele>
        <time>2021-07-17T17:26:57Z</time>
      </trkpt>
      <trkpt lat="45.76204" lon="2.95424">
        <ele>1072</ele>
        <time>2021-07-17T17:26:58Z</time>
      </trkpt>
      <trkpt lat="45.76203" lon="2.95423">
        <ele>1072</ele>
        <time>2021-07-17T17:26:59Z</time>
      </trkpt>
      <trkpt lat="45.76202" lon="2.95422">
        <ele>1072</ele>
        <time>2021-07-17T17:27:00Z</time>
      </trkpt>
      <trkpt lat="45.76201" lon="2.9542">
        <ele>1072</ele>
        <time>2021-07-17T17:27:01Z</time>
      </trkpt>
      <trkpt lat="45.762" lon="2.95419">
        <ele>1072</ele>
        <time>2021-07-17T17:27:02Z</time>
      </trkpt>
      <trkpt lat="45.76199" lon="2.95418">
        <ele>1072</ele>
        <time>2021-07-17T17:27:03Z</time>
      </trkpt>
      <trkpt lat="45.76198" lon="2.95416">
        <ele>1072</ele>
        <time>2021-07-17T17:27:04Z</time>
      </trkpt>
      <trkpt lat="45.76197" lon="2.95415">
        <ele>1072</ele>
        <time>2021-07-17T17:27:05Z</time>
      </trkpt>
      <trkpt lat="45.76196" lon="2.95414">
        <ele>1072</ele>
        <time>2021-07-17T17:27:06Z</time>
      </trkpt>
      <trkpt lat="45.76194" lon="2.95413">
        <ele>1072</ele>
        <time>2021-07-17T17:27:07Z</time>
      </trkpt>
      <trkpt lat="45.76194" lon="2.95412">
        <ele>1072</ele>
        <time>2021-07-17T17:27:08Z</time>
      </trkpt>
      <trkpt lat="45.76193" lon="2.95411">
        <ele>1072</ele>
        <time>2021-07-17T17:27:09Z</time>
      </trkpt>
      <trkpt lat="45.76192" lon="2.9541">
        <ele>1072</ele>
        <time>2021-07-17T17:27:10Z</time>
      </trkpt>
      <trkpt lat="45.76191" lon="2.95408">
        <ele>1072</ele>
        <time>2021-07-17T17:27:11Z</time>
      </trkpt>
      <trkpt lat="45.7619" lon="2.95407">
        <ele>1072</ele>
        <time>2021-07-17T17:27:12Z</time>
      </trkpt>
      <trkpt lat="45.76189" lon="2.95406">
        <ele>1072</ele>
        <time>2021-07-17T17:27:13Z</time>
      </trkpt>
      <trkpt lat="45.76188" lon="2.95405">
        <ele>1072</ele>
        <time>2021-07-17T17:27:14Z</time>
      </trkpt>
      <trkpt lat="45.76187" lon="2.95404">
        <ele>1072</ele>
        <time>2021-07-17T17:27:15Z</time>
      </trkpt>
      <trkpt lat="45.76186" lon="2.95403">
        <ele>1072</ele>
        <time>2021-07-17T17:27:16Z</time>
      </trkpt>
      <trkpt lat="45.76185" lon="2.95403">
        <ele>1072</ele>
        <time>2021-07-17T17:27:17Z</time>
      </trkpt>
      <trkpt lat="45.76184" lon="2.95402">
        <ele>1072</ele>
        <time>2021-07-17T17:27:18Z</time>
      </trkpt>
      <trkpt lat="45.76182" lon="2.95401">
        <ele>1072</ele>
        <time>2021-07-17T17:27:19Z</time>
      </trkpt>
      <trkpt lat="45.7618" lon="2.954">
        <ele>1072</ele>
        <time>2021-07-17T17:27:20Z</time>
      </trkpt>
      <trkpt lat="45.76178" lon="2.95398">
        <ele>1072</ele>
        <time>2021-07-17T17:27:21Z</time>
      </trkpt>
      <trkpt lat="45.76176" lon="2.95397">
        <ele>1072</ele>
        <time>2021-07-17T17:27:22Z</time>
      </trkpt>
      <trkpt lat="45.76174" lon="2.95395">
        <ele>1072</ele>
        <time>2021-07-17T17:27:23Z</time>
      </trkpt>
      <trkpt lat="45.76172" lon="2.95393">
        <ele>1072</ele>
        <time>2021-07-17T17:27:25Z</time>
      </trkpt>
      <trkpt lat="45.7617" lon="2.95392">
        <ele>1072</ele>
        <time>2021-07-17T17:27:26Z</time>
      </trkpt>
      <trkpt lat="45.76168" lon="2.95391">
        <ele>1072</ele>
        <time>2021-07-17T17:27:27Z</time>
      </trkpt>
      <trkpt lat="45.76162" lon="2.95388">
        <ele>1072</ele>
        <time>2021-07-17T17:27:28Z</time>
      </trkpt>
      <trkpt lat="45.76161" lon="2.95388">
        <ele>1072</ele>
        <time>2021-07-17T17:27:29Z</time>
      </trkpt>
      <trkpt lat="45.76161" lon="2.95388">
        <ele>1072</ele>
        <time>2021-07-17T17:27:30Z</time>
      </trkpt>
      <trkpt lat="45.7616" lon="2.95388">
        <ele>1072</ele>
        <time>2021-07-17T17:27:31Z</time>
      </trkpt>
      <trkpt lat="45.76159" lon="2.95388">
        <ele>1072</ele>
        <time>2021-07-17T17:27:32Z</time>
      </trkpt>
      <trkpt lat="45.76158" lon="2.95388">
        <ele>1072</ele>
        <time>2021-07-17T17:27:33Z</time>
      </trkpt>
      <trkpt lat="45.76157" lon="2.95389">
        <ele>1072</ele>
        <time>2021-07-17T17:27:34Z</time>
      </trkpt>
      <trkpt lat="45.76156" lon="2.95389">
        <ele>1072</ele>
        <time>2021-07-17T17:27:35Z</time>
      </trkpt>
      <trkpt lat="45.76155" lon="2.9539">
        <ele>1072</ele>
        <time>2021-07-17T17:27:36Z</time>
      </trkpt>
      <trkpt lat="45.76155" lon="2.9539">
        <ele>1072</ele>
        <time>2021-07-17T17:27:37Z</time>
      </trkpt>
      <trkpt lat="45.76154" lon="2.95391">
        <ele>1072</ele>
        <time>2021-07-17T17:27:38Z</time>
      </trkpt>
      <trkpt lat="45.76153" lon="2.95392">
        <ele>1072</ele>
        <time>2021-07-17T17:27:39Z</time>
      </trkpt>
      <trkpt lat="45.76152" lon="2.95393">
        <ele>1072</ele>
        <time>2021-07-17T17:27:40Z</time>
      </trkpt>
      <trkpt lat="45.76152" lon="2.95394">
        <ele>1072</ele>
        <time>2021-07-17T17:27:41Z</time>
      </trkpt>
      <trkpt lat="45.76151" lon="2.95395">
        <ele>1072</ele>
        <time>2021-07-17T17:27:42Z</time>
      </trkpt>
      <trkpt lat="45.76151" lon="2.95396">
        <ele>1072</ele>
        <time>2021-07-17T17:27:43Z</time>
      </trkpt>
      <trkpt lat="45.7615" lon="2.95397">
        <ele>1072</ele>
        <time>2021-07-17T17:27:44Z</time>
      </trkpt>
      <trkpt lat="45.76149" lon="2.95398">
        <ele>1072</ele>
        <time>2021-07-17T17:27:45Z</time>
      </trkpt>
      <trkpt lat="45.76149" lon="2.954">
        <ele>1072</ele>
        <time>2021-07-17T17:27:46Z</time>
      </trkpt>
      <trkpt lat="45.76149" lon="2.95401">
        <ele>1072</ele>
        <time>2021-07-17T17:27:47Z</time>
      </trkpt>
      <trkpt lat="45.76148" lon="2.95402">
        <ele>1072</ele>
        <time>2021-07-17T17:27:48Z</time>
      </trkpt>
      <trkpt lat="45.76148" lon="2.95403">
        <ele>1072</ele>
        <time>2021-07-17T17:27:49Z</time>
      </trkpt>
      <trkpt lat="45.76148" lon="2.95404">
        <ele>1072</ele>
        <time>2021-07-17T17:27:50Z</time>
      </trkpt>
      <trkpt lat="45.76147" lon="2.95405">
        <ele>1072</ele>
        <time>2021-07-17T17:27:51Z</time>
      </trkpt>
      <trkpt lat="45.76147" lon="2.95407">
        <ele>1072</ele>
        <time>2021-07-17T17:27:52Z</time>
      </trkpt>
      <trkpt lat="45.76146" lon="2.95408">
        <ele>1072</ele>
        <time>2021-07-17T17:27:53Z</time>
      </trkpt>
      <trkpt lat="45.76146" lon="2.95409">
        <ele>1072</ele>
        <time>2021-07-17T17:27:54Z</time>
      </trkpt>
      <trkpt lat="45.76146" lon="2.9541">
        <ele>1072</ele>
        <time>2021-07-17T17:27:55Z</time>
      </trkpt>
      <trkpt lat="45.76146" lon="2.95412">
        <ele>1072</ele>
        <time>2021-07-17T17:27:56Z</time>
      </trkpt>
      <trkpt lat="45.76146" lon="2.95413">
        <ele>1072</ele>
        <time>2021-07-17T17:27:57Z</time>
      </trkpt>
      <trkpt lat="45.76145" lon="2.95414">
        <ele>1072</ele>
        <time>2021-07-17T17:27:58Z</time>
      </trkpt>
      <trkpt lat="45.76144" lon="2.95415">
        <ele>1072</ele>
        <time>2021-07-17T17:27:59Z</time>
      </trkpt>
      <trkpt lat="45.76143" lon="2.95416">
        <ele>1072</ele>
        <time>2021-07-17T17:28:00Z</time>
      </trkpt>
      <trkpt lat="45.76143" lon="2.95417">
        <ele>1072</ele>
        <time>2021-07-17T17:28:01Z</time>
      </trkpt>
      <trkpt lat="45.76143" lon="2.95419">
        <ele>1072</ele>
        <time>2021-07-17T17:28:02Z</time>
      </trkpt>
      <trkpt lat="45.76141" lon="2.9542">
        <ele>1072</ele>
        <time>2021-07-17T17:28:03Z</time>
      </trkpt>
      <trkpt lat="45.76142" lon="2.95421">
        <ele>1072</ele>
        <time>2021-07-17T17:28:04Z</time>
      </trkpt>
      <trkpt lat="45.76143" lon="2.95422">
        <ele>1072</ele>
        <time>2021-07-17T17:28:05Z</time>
      </trkpt>
      <trkpt lat="45.76143" lon="2.95423">
        <ele>1072</ele>
        <time>2021-07-17T17:28:06Z</time>
      </trkpt>
      <trkpt lat="45.76142" lon="2.95424">
        <ele>1072</ele>
        <time>2021-07-17T17:28:07Z</time>
      </trkpt>
      <trkpt lat="45.76142" lon="2.95426">
        <ele>1072</ele>
        <time>2021-07-17T17:28:08Z</time>
      </trkpt>
      <trkpt lat="45.76141" lon="2.95428">
        <ele>1072</ele>
        <time>2021-07-17T17:28:09Z</time>
      </trkpt>
      <trkpt lat="45.76141" lon="2.95429">
        <ele>1072</ele>
        <time>2021-07-17T17:28:10Z</time>
      </trkpt>
      <trkpt lat="45.76141" lon="2.95431">
        <ele>1072</ele>
        <time>2021-07-17T17:28:11Z</time>
      </trkpt>
      <trkpt lat="45.76141" lon="2.95432">
        <ele>1072</ele>
        <time>2021-07-17T17:28:12Z</time>
      </trkpt>
      <trkpt lat="45.76141" lon="2.95434">
        <ele>1072</ele>
        <time>2021-07-17T17:28:13Z</time>
      </trkpt>
      <trkpt lat="45.7614" lon="2.95436">
        <ele>1072</ele>
        <time>2021-07-17T17:28:14Z</time>
      </trkpt>
      <trkpt lat="45.7614" lon="2.95437">
        <ele>1072</ele>
        <time>2021-07-17T17:28:15Z</time>
      </trkpt>
      <trkpt lat="45.7614" lon="2.95439">
        <ele>1072</ele>
        <time>2021-07-17T17:28:16Z</time>
      </trkpt>
      <trkpt lat="45.7614" lon="2.95441">
        <ele>1072</ele>
        <time>2021-07-17T17:28:17Z</time>
      </trkpt>
      <trkpt lat="45.76139" lon="2.95442">
        <ele>1072</ele>
        <time>2021-07-17T17:28:18Z</time>
      </trkpt>
      <trkpt lat="45.76138" lon="2.95444">
        <ele>1072</ele>
        <time>2021-07-17T17:28:19Z</time>
      </trkpt>
      <trkpt lat="45.76138" lon="2.95446">
        <ele>1072</ele>
        <time>2021-07-17T17:28:20Z</time>
      </trkpt>
      <trkpt lat="45.76137" lon="2.95448">
        <ele>1072</ele>
        <time>2021-07-17T17:28:21Z</time>
      </trkpt>
      <trkpt lat="45.76136" lon="2.95451">
        <ele>1072</ele>
        <time>2021-07-17T17:28:22Z</time>
      </trkpt>
      <trkpt lat="45.76136" lon="2.95452">
        <ele>1072</ele>
        <time>2021-07-17T17:28:23Z</time>
      </trkpt>
      <trkpt lat="45.76136" lon="2.95454">
        <ele>1072</ele>
        <time>2021-07-17T17:28:24Z</time>
      </trkpt>
      <trkpt lat="45.76135" lon="2.95456">
        <ele>1072</ele>
        <time>2021-07-17T17:28:25Z</time>
      </trkpt>
      <trkpt lat="45.76135" lon="2.95458">
        <ele>1072</ele>
        <time>2021-07-17T17:28:26Z</time>
      </trkpt>
      <trkpt lat="45.76134" lon="2.9546">
        <ele>1072</ele>
        <time>2021-07-17T17:28:27Z</time>
      </trkpt>
      <trkpt lat="45.76134" lon="2.95462">
        <ele>1072</ele>
        <time>2021-07-17T17:28:28Z</time>
      </trkpt>
      <trkpt lat="45.76133" lon="2.95463">
        <ele>1072</ele>
        <time>2021-07-17T17:28:29Z</time>
      </trkpt>
      <trkpt lat="45.76133" lon="2.95464">
        <ele>1072</ele>
        <time>2021-07-17T17:28:30Z</time>
      </trkpt>
      <trkpt lat="45.76132" lon="2.95465">
        <ele>1072</ele>
        <time>2021-07-17T17:28:31Z</time>
      </trkpt>
      <trkpt lat="45.76131" lon="2.95466">
        <ele>1072</ele>
        <time>2021-07-17T17:28:32Z</time>
      </trkpt>
      <trkpt lat="45.76131" lon="2.95467">
        <ele>1072</ele>
        <time>2021-07-17T17:28:33Z</time>
      </trkpt>
      <trkpt lat="45.76131" lon="2.95469">
        <ele>1072</ele>
        <time>2021-07-17T17:28:34Z</time>
      </trkpt>
      <trkpt lat="45.7613" lon="2.9547">
        <ele>1072</ele>
        <time>2021-07-17T17:28:35Z</time>
      </trkpt>
      <trkpt lat="45.76129" lon="2.9547">
        <ele>1072</ele>
        <time>2021-07-17T17:28:36Z</time>
      </trkpt>
      <trkpt lat="45.76128" lon="2.95471">
        <ele>1072</ele>
        <time>2021-07-17T17:28:37Z</time>
      </trkpt>
      <trkpt lat="45.76128" lon="2.95471">
        <ele>1072</ele>
        <time>2021-07-17T17:28:38Z</time>
      </trkpt>
      <trkpt lat="45.76127" lon="2.95471">
        <ele>1072</ele>
        <time>2021-07-17T17:28:39Z</time>
      </trkpt>
      <trkpt lat="45.76127" lon="2.95471">
        <ele>1072</ele>
        <time>2021-07-17T17:28:40Z</time>
      </trkpt>
      <trkpt lat="45.76127" lon="2.95471">
        <ele>1072</ele>
        <time>2021-07-17T17:28:41Z</time>
      </trkpt>
      <trkpt lat="45.76126" lon="2.95471">
        <ele>1072</ele>
        <time>2021-07-17T17:28:42Z</time>
      </trkpt>
      <trkpt lat="45.76125" lon="2.95471">
        <ele>1072</ele>
        <time>2021-07-17T17:28:43Z</time>
      </trkpt>
      <trkpt lat="45.76125" lon="2.95471">
        <ele>1072</ele>
        <time>2021-07-17T17:28:44Z</time>
      </trkpt>
      <trkpt lat="45.76125" lon="2.95471">
        <ele>1072</ele>
        <time>2021-07-17T17:28:45Z</time>
      </trkpt>
      <trkpt lat="45.76124" lon="2.95471">
        <ele>1072</ele>
        <time>2021-07-17T17:28:46Z</time>
      </trkpt>
      <trkpt lat="45.76123" lon="2.95471">
        <ele>1072</ele>
        <time>2021-07-17T17:28:47Z</time>
      </trkpt>
      <trkpt lat="45.76122" lon="2.95471">
        <ele>1072</ele>
        <time>2021-07-17T17:28:48Z</time>
      </trkpt>
      <trkpt lat="45.76122" lon="2.95471">
        <ele>1072</ele>
        <time>2021-07-17T17:28:49Z</time>
      </trkpt>
      <trkpt lat="45.7612" lon="2.95471">
        <ele>1072</ele>
        <time>2021-07-17T17:28:50Z</time>
      </trkpt>
      <trkpt lat="45.7612" lon="2.95471">
        <ele>1072</ele>
        <time>2021-07-17T17:28:51Z</time>
      </trkpt>
      <trkpt lat="45.76119" lon="2.95471">
        <ele>1072</ele>
        <time>2021-07-17T17:28:52Z</time>
      </trkpt>
      <trkpt lat="45.76118" lon="2.95471">
        <ele>1072</ele>
        <time>2021-07-17T17:28:53Z</time>
      </trkpt>
      <trkpt lat="45.76117" lon="2.95471">
        <ele>1072</ele>
        <time>2021-07-17T17:28:54Z</time>
      </trkpt>
      <trkpt lat="45.76116" lon="2.95471">
        <ele>1072</ele>
        <time>2021-07-17T17:28:55Z</time>
      </trkpt>
      <trkpt lat="45.76114" lon="2.95471">
        <ele>1072</ele>
        <time>2021-07-17T17:28:56Z</time>
      </trkpt>
      <trkpt lat="45.76112" lon="2.95471">
        <ele>1072</ele>
        <time>2021-07-17T17:28:57Z</time>
      </trkpt>
      <trkpt lat="45.76111" lon="2.95471">
        <ele>1072</ele>
        <time>2021-07-17T17:28:58Z</time>
      </trkpt>
      <trkpt lat="45.76109" lon="2.95471">
        <ele>1072</ele>
        <time>2021-07-17T17:28:59Z</time>
      </trkpt>
      <trkpt lat="45.76107" lon="2.95471">
        <ele>1072</ele>
        <time>2021-07-17T17:29:00Z</time>
      </trkpt>
      <trkpt lat="45.76106" lon="2.95471">
        <ele>1072</ele>
        <time>2021-07-17T17:29:01Z</time>
      </trkpt>
      <trkpt lat="45.76104" lon="2.95471">
        <ele>1072</ele>
        <time>2021-07-17T17:29:02Z</time>
      </trkpt>
      <trkpt lat="45.76103" lon="2.95472">
        <ele>1072</ele>
        <time>2021-07-17T17:29:03Z</time>
      </trkpt>
      <trkpt lat="45.76101" lon="2.95472">
        <ele>1072</ele>
        <time>2021-07-17T17:29:04Z</time>
      </trkpt>
      <trkpt lat="45.761" lon="2.95472">
        <ele>1072</ele>
        <time>2021-07-17T17:29:05Z</time>
      </trkpt>
      <trkpt lat="45.76098" lon="2.95473">
        <ele>1072</ele>
        <time>2021-07-17T17:29:06Z</time>
      </trkpt>
      <trkpt lat="45.76097" lon="2.95473">
        <ele>1072</ele>
        <time>2021-07-17T17:29:07Z</time>
      </trkpt>
      <trkpt lat="45.76096" lon="2.95474">
        <ele>1072</ele>
        <time>2021-07-17T17:29:08Z</time>
      </trkpt>
      <trkpt lat="45.76094" lon="2.95474">
        <ele>1072</ele>
        <time>2021-07-17T17:29:09Z</time>
      </trkpt>
      <trkpt lat="45.76093" lon="2.95475">
        <ele>1072</ele>
        <time>2021-07-17T17:29:10Z</time>
      </trkpt>
      <trkpt lat="45.76092" lon="2.95475">
        <ele>1072</ele>
        <time>2021-07-17T17:29:11Z</time>
      </trkpt>
      <trkpt lat="45.7609" lon="2.95475">
        <ele>1072</ele>
        <time>2021-07-17T17:29:12Z</time>
      </trkpt>
      <trkpt lat="45.76089" lon="2.95475">
        <ele>1072</ele>
        <time>2021-07-17T17:29:13Z</time>
      </trkpt>
      <trkpt lat="45.76087" lon="2.95475">
        <ele>1072</ele>
        <time>2021-07-17T17:29:14Z</time>
      </trkpt>
      <trkpt lat="45.76086" lon="2.95475">
        <ele>1072</ele>
        <time>2021-07-17T17:29:15Z</time>
      </trkpt>
      <trkpt lat="45.76085" lon="2.95475">
        <ele>1072</ele>
        <time>2021-07-17T17:29:16Z</time>
      </trkpt>
      <trkpt lat="45.76083" lon="2.95475">
        <ele>1072</ele>
        <time>2021-07-17T17:29:17Z</time>
      </trkpt>
      <trkpt lat="45.76082" lon="2.95475">
        <ele>1072</ele>
        <time>2021-07-17T17:29:18Z</time>
      </trkpt>
      <trkpt lat="45.76081" lon="2.95475">
        <ele>1072</ele>
        <time>2021-07-17T17:29:19Z</time>
      </trkpt>
      <trkpt lat="45.76079" lon="2.95475">
        <ele>1072</ele>
        <time>2021-07-17T17:29:20Z</time>
      </trkpt>
      <trkpt lat="45.76078" lon="2.95475">
        <ele>1072</ele>
        <time>2021-07-17T17:29:21Z</time>
      </trkpt>
      <trkpt lat="45.76077" lon="2.95475">
        <ele>1072</ele>
        <time>2021-07-17T17:29:22Z</time>
      </trkpt>
      <trkpt lat="45.76075" lon="2.95475">
        <ele>1072</ele>
        <time>2021-07-17T17:29:23Z</time>
      </trkpt>
      <trkpt lat="45.76074" lon="2.95475">
        <ele>1072</ele>
        <time>2021-07-17T17:29:24Z</time>
      </trkpt>
      <trkpt lat="45.76073" lon="2.95475">
        <ele>1072</ele>
        <time>2021-07-17T17:29:25Z</time>
      </trkpt>
      <trkpt lat="45.76071" lon="2.95475">
        <ele>1072</ele>
        <time>2021-07-17T17:29:27Z</time>
      </trkpt>
      <trkpt lat="45.76067" lon="2.95473">
        <ele>1072</ele>
        <time>2021-07-17T17:29:28Z</time>
      </trkpt>
      <trkpt lat="45.76067" lon="2.95473">
        <ele>1072</ele>
        <time>2021-07-17T17:29:29Z</time>
      </trkpt>
      <trkpt lat="45.76066" lon="2.95473">
        <ele>1072</ele>
        <time>2021-07-17T17:29:30Z</time>
      </trkpt>
      <trkpt lat="45.76065" lon="2.95472">
        <ele>1072</ele>
        <time>2021-07-17T17:29:31Z</time>
      </trkpt>
      <trkpt lat="45.76065" lon="2.95472">
        <ele>1072</ele>
        <time>2021-07-17T17:29:32Z</time>
      </trkpt>
      <trkpt lat="45.76064" lon="2.95471">
        <ele>1072</ele>
        <time>2021-07-17T17:29:33Z</time>
      </trkpt>
      <trkpt lat="45.76063" lon="2.9547">
        <ele>1072</ele>
        <time>2021-07-17T17:29:34Z</time>
      </trkpt>
      <trkpt lat="45.76062" lon="2.95469">
        <ele>1072</ele>
        <time>2021-07-17T17:29:35Z</time>
      </trkpt>
      <trkpt lat="45.76061" lon="2.95468">
        <ele>1072</ele>
        <time>2021-07-17T17:29:36Z</time>
      </trkpt>
      <trkpt lat="45.7606" lon="2.95468">
        <ele>1072</ele>
        <time>2021-07-17T17:29:37Z</time>
      </trkpt>
      <trkpt lat="45.76059" lon="2.95467">
        <ele>1072</ele>
        <time>2021-07-17T17:29:38Z</time>
      </trkpt>
      <trkpt lat="45.76058" lon="2.95466">
        <ele>1072</ele>
        <time>2021-07-17T17:29:39Z</time>
      </trkpt>
      <trkpt lat="45.76057" lon="2.95464">
        <ele>1072</ele>
        <time>2021-07-17T17:29:40Z</time>
      </trkpt>
      <trkpt lat="45.76056" lon="2.95463">
        <ele>1072</ele>
        <time>2021-07-17T17:29:41Z</time>
      </trkpt>
      <trkpt lat="45.76056" lon="2.95462">
        <ele>1072</ele>
        <time>2021-07-17T17:29:42Z</time>
      </trkpt>
      <trkpt lat="45.76055" lon="2.9546">
        <ele>1072</ele>
        <time>2021-07-17T17:29:43Z</time>
      </trkpt>
      <trkpt lat="45.76054" lon="2.95459">
        <ele>1072</ele>
        <time>2021-07-17T17:29:44Z</time>
      </trkpt>
      <trkpt lat="45.76053" lon="2.95457">
        <ele>1072</ele>
        <time>2021-07-17T17:29:45Z</time>
      </trkpt>
      <trkpt lat="45.76052" lon="2.95456">
        <ele>1072</ele>
        <time>2021-07-17T17:29:46Z</time>
      </trkpt>
      <trkpt lat="45.76051" lon="2.95455">
        <ele>1072</ele>
        <time>2021-07-17T17:29:47Z</time>
      </trkpt>
      <trkpt lat="45.7605" lon="2.95454">
        <ele>1072</ele>
        <time>2021-07-17T17:29:48Z</time>
      </trkpt>
      <trkpt lat="45.76049" lon="2.95453">
        <ele>1072</ele>
        <time>2021-07-17T17:29:49Z</time>
      </trkpt>
      <trkpt lat="45.76049" lon="2.95452">
        <ele>1072</ele>
        <time>2021-07-17T17:29:50Z</time>
      </trkpt>
      <trkpt lat="45.76048" lon="2.9545">
        <ele>1072</ele>
        <time>2021-07-17T17:29:51Z</time>
      </trkpt>
      <trkpt lat="45.76048" lon="2.95449">
        <ele>1072</ele>
        <time>2021-07-17T17:29:52Z</time>
      </trkpt>
      <trkpt lat="45.76048" lon="2.95448">
        <ele>1072</ele>
        <time>2021-07-17T17:29:53Z</time>
      </trkpt>
      <trkpt lat="45.76048" lon="2.95447">
        <ele>1072</ele>
        <time>2021-07-17T17:29:54Z</time>
      </trkpt>
      <trkpt lat="45.76048" lon="2.95446">
        <ele>1072</ele>
        <time>2021-07-17T17:29:55Z</time>
      </trkpt>
      <trkpt lat="45.76048" lon="2.95445">
        <ele>1072</ele>
        <time>2021-07-17T17:29:56Z</time>
      </trkpt>
      <trkpt lat="45.76048" lon="2.95444">
        <ele>1072</ele>
        <time>2021-07-17T17:29:57Z</time>
      </trkpt>
      <trkpt lat="45.76048" lon="2.95443">
        <ele>1072</ele>
        <time>2021-07-17T17:29:58Z</time>
      </trkpt>
      <trkpt lat="45.76048" lon="2.95441">
        <ele>1072</ele>
        <time>2021-07-17T17:29:59Z</time>
      </trkpt>
      <trkpt lat="45.76048" lon="2.9544">
        <ele>1072</ele>
        <time>2021-07-17T17:30:00Z</time>
      </trkpt>
      <trkpt lat="45.76048" lon="2.95439">
        <ele>1072</ele>
        <time>2021-07-17T17:30:01Z</time>
      </trkpt>
      <trkpt lat="45.76048" lon="2.95438">
        <ele>1072</ele>
        <time>2021-07-17T17:30:02Z</time>
      </trkpt>
      <trkpt lat="45.76048" lon="2.95436">
        <ele>1072</ele>
        <time>2021-07-17T17:30:03Z</time>
      </trkpt>
      <trkpt lat="45.76048" lon="2.95435">
        <ele>1072</ele>
        <time>2021-07-17T17:30:04Z</time>
      </trkpt>
      <trkpt lat="45.76048" lon="2.95434">
        <ele>1072</ele>
        <time>2021-07-17T17:30:05Z</time>
      </trkpt>
      <trkpt lat="45.76049" lon="2.95432">
        <ele>1072</ele>
        <time>2021-07-17T17:30:06Z</time>
      </trkpt>
      <trkpt lat="45.76049" lon="2.95431">
        <ele>1072</ele>
        <time>2021-07-17T17:30:07Z</time>
      </trkpt>
      <trkpt lat="45.76049" lon="2.95429">
        <ele>1072</ele>
        <time>2021-07-17T17:30:08Z</time>
      </trkpt>
      <trkpt lat="45.76049" lon="2.95428">
        <ele>1072</ele>
        <time>2021-07-17T17:30:09Z</time>
      </trkpt>
      <trkpt lat="45.76049" lon="2.95427">
        <ele>1072</ele>
        <time>2021-07-17T17:30:10Z</time>
      </trkpt>
      <trkpt lat="45.76048" lon="2.95425">
        <ele>1072</ele>
        <time>2021-07-17T17:30:11Z</time>
      </trkpt>
      <trkpt lat="45.76048" lon="2.95424">
        <ele>1072</ele>
        <time>2021-07-17T17:30:12Z</time>
      </trkpt>
      <trkpt lat="45.76048" lon="2.95423">
        <ele>1072</ele>
        <time>2021-07-17T17:30:13Z</time>
      </trkpt>
      <trkpt lat="45.76048" lon="2.95422">
        <ele>1072</ele>
        <time>2021-07-17T17:30:14Z</time>
      </trkpt>
      <trkpt lat="45.76048" lon="2.95421">
        <ele>1072</ele>
        <time>2021-07-17T17:30:15Z</time>
      </trkpt>
      <trkpt lat="45.76048" lon="2.95419">
        <ele>1072</ele>
        <time>2021-07-17T17:30:16Z</time>
      </trkpt>
      <trkpt lat="45.76047" lon="2.95418">
        <ele>1072</ele>
        <time>2021-07-17T17:30:17Z</time>
      </trkpt>
      <trkpt lat="45.76047" lon="2.95417">
        <ele>1072</ele>
        <time>2021-07-17T17:30:18Z</time>
      </trkpt>
      <trkpt lat="45.76047" lon="2.95415">
        <ele>1072</ele>
        <time>2021-07-17T17:30:19Z</time>
      </trkpt>
      <trkpt lat="45.76047" lon="2.95414">
        <ele>1072</ele>
        <time>2021-07-17T17:30:20Z</time>
      </trkpt>
      <trkpt lat="45.76047" lon="2.95412">
        <ele>1072</ele>
        <time>2021-07-17T17:30:21Z</time>
      </trkpt>
      <trkpt lat="45.76047" lon="2.95411">
        <ele>1072</ele>
        <time>2021-07-17T17:30:22Z</time>
      </trkpt>
      <trkpt lat="45.76047" lon="2.9541">
        <ele>1072</ele>
        <time>2021-07-17T17:30:23Z</time>
      </trkpt>
      <trkpt lat="45.76047" lon="2.95409">
        <ele>1072</ele>
        <time>2021-07-17T17:30:24Z</time>
      </trkpt>
      <trkpt lat="45.76047" lon="2.95407">
        <ele>1072</ele>
        <time>2021-07-17T17:30:25Z</time>
      </trkpt>
      <trkpt lat="45.76047" lon="2.95406">
        <ele>1072</ele>
        <time>2021-07-17T17:30:27Z</time>
      </trkpt>
      <trkpt lat="45.76048" lon="2.95401">
        <ele>1072</ele>
        <time>2021-07-17T17:30:28Z</time>
      </trkpt>
      <trkpt lat="45.76048" lon="2.954">
        <ele>1072</ele>
        <time>2021-07-17T17:30:29Z</time>
      </trkpt>
      <trkpt lat="45.76048" lon="2.954">
        <ele>1072</ele>
        <time>2021-07-17T17:30:30Z</time>
      </trkpt>
      <trkpt lat="45.76048" lon="2.95399">
        <ele>1072</ele>
        <time>2021-07-17T17:30:31Z</time>
      </trkpt>
      <trkpt lat="45.76047" lon="2.95398">
        <ele>1072</ele>
        <time>2021-07-17T17:30:32Z</time>
      </trkpt>
      <trkpt lat="45.76047" lon="2.95397">
        <ele>1072</ele>
        <time>2021-07-17T17:30:33Z</time>
      </trkpt>
      <trkpt lat="45.76046" lon="2.95395">
        <ele>1072</ele>
        <time>2021-07-17T17:30:34Z</time>
      </trkpt>
      <trkpt lat="45.76046" lon="2.95392">
        <ele>1072</ele>
        <time>2021-07-17T17:30:35Z</time>
      </trkpt>
      <trkpt lat="45.76045" lon="2.9539">
        <ele>1072</ele>
        <time>2021-07-17T17:30:36Z</time>
      </trkpt>
      <trkpt lat="45.76045" lon="2.95388">
        <ele>1072</ele>
        <time>2021-07-17T17:30:37Z</time>
      </trkpt>
      <trkpt lat="45.76044" lon="2.95385">
        <ele>1072</ele>
        <time>2021-07-17T17:30:38Z</time>
      </trkpt>
      <trkpt lat="45.76044" lon="2.95382">
        <ele>1072</ele>
        <time>2021-07-17T17:30:39Z</time>
      </trkpt>
      <trkpt lat="45.76043" lon="2.9538">
        <ele>1072</ele>
        <time>2021-07-17T17:30:40Z</time>
      </trkpt>
      <trkpt lat="45.76042" lon="2.95377">
        <ele>1072</ele>
        <time>2021-07-17T17:30:41Z</time>
      </trkpt>
      <trkpt lat="45.76041" lon="2.95373">
        <ele>1072</ele>
        <time>2021-07-17T17:30:42Z</time>
      </trkpt>
      <trkpt lat="45.7604" lon="2.9537">
        <ele>1072</ele>
        <time>2021-07-17T17:30:43Z</time>
      </trkpt>
      <trkpt lat="45.7604" lon="2.95367">
        <ele>1072</ele>
        <time>2021-07-17T17:30:44Z</time>
      </trkpt>
      <trkpt lat="45.76038" lon="2.95365">
        <ele>1072</ele>
        <time>2021-07-17T17:30:45Z</time>
      </trkpt>
      <trkpt lat="45.76037" lon="2.95362">
        <ele>1072</ele>
        <time>2021-07-17T17:30:46Z</time>
      </trkpt>
      <trkpt lat="45.76037" lon="2.9536">
        <ele>1072</ele>
        <time>2021-07-17T17:30:47Z</time>
      </trkpt>
      <trkpt lat="45.76035" lon="2.95357">
        <ele>1072</ele>
        <time>2021-07-17T17:30:48Z</time>
      </trkpt>
      <trkpt lat="45.76034" lon="2.95354">
        <ele>1072</ele>
        <time>2021-07-17T17:30:49Z</time>
      </trkpt>
      <trkpt lat="45.76033" lon="2.95352">
        <ele>1072</ele>
        <time>2021-07-17T17:30:50Z</time>
      </trkpt>
      <trkpt lat="45.76032" lon="2.9535">
        <ele>1072</ele>
        <time>2021-07-17T17:30:51Z</time>
      </trkpt>
      <trkpt lat="45.76032" lon="2.95348">
        <ele>1072</ele>
        <time>2021-07-17T17:30:52Z</time>
      </trkpt>
      <trkpt lat="45.76031" lon="2.95346">
        <ele>1072</ele>
        <time>2021-07-17T17:30:53Z</time>
      </trkpt>
      <trkpt lat="45.7603" lon="2.95344">
        <ele>1072</ele>
        <time>2021-07-17T17:30:54Z</time>
      </trkpt>
      <trkpt lat="45.7603" lon="2.95343">
        <ele>1072</ele>
        <time>2021-07-17T17:30:55Z</time>
      </trkpt>
      <trkpt lat="45.76029" lon="2.95341">
        <ele>1072</ele>
        <time>2021-07-17T17:30:56Z</time>
      </trkpt>
      <trkpt lat="45.76028" lon="2.9534">
        <ele>1072</ele>
        <time>2021-07-17T17:30:57Z</time>
      </trkpt>
      <trkpt lat="45.76027" lon="2.95339">
        <ele>1072</ele>
        <time>2021-07-17T17:30:58Z</time>
      </trkpt>
      <trkpt lat="45.76026" lon="2.95337">
        <ele>1072</ele>
        <time>2021-07-17T17:30:59Z</time>
      </trkpt>
      <trkpt lat="45.76025" lon="2.95336">
        <ele>1072</ele>
        <time>2021-07-17T17:31:00Z</time>
      </trkpt>
      <trkpt lat="45.76024" lon="2.95334">
        <ele>1072</ele>
        <time>2021-07-17T17:31:01Z</time>
      </trkpt>
      <trkpt lat="45.76022" lon="2.95333">
        <ele>1072</ele>
        <time>2021-07-17T17:31:02Z</time>
      </trkpt>
      <trkpt lat="45.76022" lon="2.95331">
        <ele>1072</ele>
        <time>2021-07-17T17:31:03Z</time>
      </trkpt>
      <trkpt lat="45.7602" lon="2.95329">
        <ele>1072</ele>
        <time>2021-07-17T17:31:04Z</time>
      </trkpt>
      <trkpt lat="45.76019" lon="2.95327">
        <ele>1072</ele>
        <time>2021-07-17T17:31:05Z</time>
      </trkpt>
      <trkpt lat="45.76019" lon="2.95325">
        <ele>1072</ele>
        <time>2021-07-17T17:31:06Z</time>
      </trkpt>
      <trkpt lat="45.76017" lon="2.95323">
        <ele>1072</ele>
        <time>2021-07-17T17:31:07Z</time>
      </trkpt>
      <trkpt lat="45.76016" lon="2.95321">
        <ele>1072</ele>
        <time>2021-07-17T17:31:07Z</time>
      </trkpt>
      <trkpt lat="45.76016" lon="2.95319">
        <ele>1072</ele>
        <time>2021-07-17T17:31:08Z</time>
      </trkpt>
      <trkpt lat="45.76014" lon="2.95318">
        <ele>1072</ele>
        <time>2021-07-17T17:31:09Z</time>
      </trkpt>
      <trkpt lat="45.76013" lon="2.95317">
        <ele>1072</ele>
        <time>2021-07-17T17:31:10Z</time>
      </trkpt>
      <trkpt lat="45.76012" lon="2.95316">
        <ele>1072</ele>
        <time>2021-07-17T17:31:11Z</time>
      </trkpt>
      <trkpt lat="45.76011" lon="2.95315">
        <ele>1072</ele>
        <time>2021-07-17T17:31:12Z</time>
      </trkpt>
      <trkpt lat="45.76009" lon="2.95315">
        <ele>1072</ele>
        <time>2021-07-17T17:31:13Z</time>
      </trkpt>
      <trkpt lat="45.76008" lon="2.95315">
        <ele>1072</ele>
        <time>2021-07-17T17:31:14Z</time>
      </trkpt>
      <trkpt lat="45.76008" lon="2.95315">
        <ele>1072</ele>
        <time>2021-07-17T17:31:15Z</time>
      </trkpt>
      <trkpt lat="45.76007" lon="2.95316">
        <ele>1072</ele>
        <time>2021-07-17T17:31:16Z</time>
      </trkpt>
      <trkpt lat="45.76006" lon="2.95317">
        <ele>1072</ele>
        <time>2021-07-17T17:31:17Z</time>
      </trkpt>
      <trkpt lat="45.76006" lon="2.95318">
        <ele>1072</ele>
        <time>2021-07-17T17:31:18Z</time>
      </trkpt>
      <trkpt lat="45.76005" lon="2.95318">
        <ele>1072</ele>
        <time>2021-07-17T17:31:19Z</time>
      </trkpt>
      <trkpt lat="45.76004" lon="2.95319">
        <ele>1072</ele>
        <time>2021-07-17T17:31:20Z</time>
      </trkpt>
      <trkpt lat="45.76004" lon="2.9532">
        <ele>1072</ele>
        <time>2021-07-17T17:31:21Z</time>
      </trkpt>
      <trkpt lat="45.76003" lon="2.9532">
        <ele>1072</ele>
        <time>2021-07-17T17:31:22Z</time>
      </trkpt>
      <trkpt lat="45.76002" lon="2.95321">
        <ele>1072</ele>
        <time>2021-07-17T17:31:24Z</time>
      </trkpt>
      <trkpt lat="45.75998" lon="2.95323">
        <ele>1072</ele>
        <time>2021-07-17T17:31:25Z</time>
      </trkpt>
      <trkpt lat="45.75998" lon="2.95323">
        <ele>1072</ele>
        <time>2021-07-17T17:31:26Z</time>
      </trkpt>
      <trkpt lat="45.75998" lon="2.95323">
        <ele>1072</ele>
        <time>2021-07-17T17:31:27Z</time>
      </trkpt>
      <trkpt lat="45.75997" lon="2.95324">
        <ele>1072</ele>
        <time>2021-07-17T17:31:28Z</time>
      </trkpt>
      <trkpt lat="45.75996" lon="2.95324">
        <ele>1072</ele>
        <time>2021-07-17T17:31:29Z</time>
      </trkpt>
      <trkpt lat="45.75996" lon="2.95325">
        <ele>1072</ele>
        <time>2021-07-17T17:31:30Z</time>
      </trkpt>
      <trkpt lat="45.75995" lon="2.95325">
        <ele>1072</ele>
        <time>2021-07-17T17:31:31Z</time>
      </trkpt>
      <trkpt lat="45.75995" lon="2.95326">
        <ele>1072</ele>
        <time>2021-07-17T17:31:32Z</time>
      </trkpt>
      <trkpt lat="45.75995" lon="2.95326">
        <ele>1072</ele>
        <time>2021-07-17T17:31:33Z</time>
      </trkpt>
      <trkpt lat="45.75994" lon="2.95327">
        <ele>1072</ele>
        <time>2021-07-17T17:31:34Z</time>
      </trkpt>
      <trkpt lat="45.75993" lon="2.95327">
        <ele>1072</ele>
        <time>2021-07-17T17:31:35Z</time>
      </trkpt>
      <trkpt lat="45.75993" lon="2.95328">
        <ele>1072</ele>
        <time>2021-07-17T17:31:36Z</time>
      </trkpt>
      <trkpt lat="45.75992" lon="2.95329">
        <ele>1072</ele>
        <time>2021-07-17T17:31:37Z</time>
      </trkpt>
      <trkpt lat="45.75992" lon="2.95329">
        <ele>1072</ele>
        <time>2021-07-17T17:31:38Z</time>
      </trkpt>
      <trkpt lat="45.75991" lon="2.9533">
        <ele>1072</ele>
        <time>2021-07-17T17:31:39Z</time>
      </trkpt>
      <trkpt lat="45.75991" lon="2.95331">
        <ele>1072</ele>
        <time>2021-07-17T17:31:40Z</time>
      </trkpt>
      <trkpt lat="45.75991" lon="2.95332">
        <ele>1072</ele>
        <time>2021-07-17T17:31:41Z</time>
      </trkpt>
      <trkpt lat="45.75991" lon="2.95333">
        <ele>1072</ele>
        <time>2021-07-17T17:31:42Z</time>
      </trkpt>
      <trkpt lat="45.75991" lon="2.95334">
        <ele>1072</ele>
        <time>2021-07-17T17:31:43Z</time>
      </trkpt>
      <trkpt lat="45.75991" lon="2.95335">
        <ele>1072</ele>
        <time>2021-07-17T17:31:44Z</time>
      </trkpt>
      <trkpt lat="45.7599" lon="2.95336">
        <ele>1072</ele>
        <time>2021-07-17T17:31:45Z</time>
      </trkpt>
      <trkpt lat="45.7599" lon="2.95337">
        <ele>1072</ele>
        <time>2021-07-17T17:31:46Z</time>
      </trkpt>
      <trkpt lat="45.7599" lon="2.95338">
        <ele>1072</ele>
        <time>2021-07-17T17:31:47Z</time>
      </trkpt>
      <trkpt lat="45.7599" lon="2.95339">
        <ele>1072</ele>
        <time>2021-07-17T17:31:48Z</time>
      </trkpt>
      <trkpt lat="45.7599" lon="2.95339">
        <ele>1072</ele>
        <time>2021-07-17T17:31:49Z</time>
      </trkpt>
      <trkpt lat="45.75989" lon="2.95339">
        <ele>1072</ele>
        <time>2021-07-17T17:31:50Z</time>
      </trkpt>
      <trkpt lat="45.75989" lon="2.9534">
        <ele>1072</ele>
        <time>2021-07-17T17:31:51Z</time>
      </trkpt>
      <trkpt lat="45.75989" lon="2.9534">
        <ele>1072</ele>
        <time>2021-07-17T17:31:52Z</time>
      </trkpt>
      <trkpt lat="45.75989" lon="2.9534">
        <ele>1072</ele>
        <time>2021-07-17T17:31:53Z</time>
      </trkpt>
      <trkpt lat="45.75989" lon="2.9534">
        <ele>1072</ele>
        <time>2021-07-17T17:31:54Z</time>
      </trkpt>
      <trkpt lat="45.75988" lon="2.95341">
        <ele>1072</ele>
        <time>2021-07-17T17:31:55Z</time>
      </trkpt>
      <trkpt lat="45.75988" lon="2.95341">
        <ele>1072</ele>
        <time>2021-07-17T17:31:56Z</time>
      </trkpt>
      <trkpt lat="45.75988" lon="2.95342">
        <ele>1072</ele>
        <time>2021-07-17T17:31:57Z</time>
      </trkpt>
      <trkpt lat="45.75987" lon="2.95342">
        <ele>1072</ele>
        <time>2021-07-17T17:31:58Z</time>
      </trkpt>
      <trkpt lat="45.75987" lon="2.95343">
        <ele>1072</ele>
        <time>2021-07-17T17:31:59Z</time>
      </trkpt>
      <trkpt lat="45.75986" lon="2.95344">
        <ele>1072</ele>
        <time>2021-07-17T17:32:00Z</time>
      </trkpt>
      <trkpt lat="45.75986" lon="2.95345">
        <ele>1072</ele>
        <time>2021-07-17T17:32:01Z</time>
      </trkpt>
      <trkpt lat="45.75985" lon="2.95345">
        <ele>1072</ele>
        <time>2021-07-17T17:32:02Z</time>
      </trkpt>
      <trkpt lat="45.75983" lon="2.95347">
        <ele>1072</ele>
        <time>2021-07-17T17:32:03Z</time>
      </trkpt>
      <trkpt lat="45.75983" lon="2.95348">
        <ele>1072</ele>
        <time>2021-07-17T17:32:04Z</time>
      </trkpt>
      <trkpt lat="45.75982" lon="2.95349">
        <ele>1072</ele>
        <time>2021-07-17T17:32:05Z</time>
      </trkpt>
      <trkpt lat="45.7598" lon="2.95351">
        <ele>1072</ele>
        <time>2021-07-17T17:32:06Z</time>
      </trkpt>
      <trkpt lat="45.75979" lon="2.95352">
        <ele>1072</ele>
        <time>2021-07-17T17:32:07Z</time>
      </trkpt>
      <trkpt lat="45.75977" lon="2.95352">
        <ele>1072</ele>
        <time>2021-07-17T17:32:08Z</time>
      </trkpt>
      <trkpt lat="45.75977" lon="2.95353">
        <ele>1072</ele>
        <time>2021-07-17T17:32:09Z</time>
      </trkpt>
      <trkpt lat="45.75975" lon="2.95353">
        <ele>1072</ele>
        <time>2021-07-17T17:32:10Z</time>
      </trkpt>
      <trkpt lat="45.75974" lon="2.95353">
        <ele>1072</ele>
        <time>2021-07-17T17:32:11Z</time>
      </trkpt>
      <trkpt lat="45.75972" lon="2.95353">
        <ele>1072</ele>
        <time>2021-07-17T17:32:12Z</time>
      </trkpt>
      <trkpt lat="45.75971" lon="2.95353">
        <ele>1072</ele>
        <time>2021-07-17T17:32:13Z</time>
      </trkpt>
      <trkpt lat="45.75969" lon="2.95353">
        <ele>1072</ele>
        <time>2021-07-17T17:32:14Z</time>
      </trkpt>
      <trkpt lat="45.75968" lon="2.95354">
        <ele>1072</ele>
        <time>2021-07-17T17:32:15Z</time>
      </trkpt>
      <trkpt lat="45.75966" lon="2.95354">
        <ele>1072</ele>
        <time>2021-07-17T17:32:16Z</time>
      </trkpt>
      <trkpt lat="45.75966" lon="2.95355">
        <ele>1072</ele>
        <time>2021-07-17T17:32:17Z</time>
      </trkpt>
      <trkpt lat="45.75965" lon="2.95355">
        <ele>1072</ele>
        <time>2021-07-17T17:32:18Z</time>
      </trkpt>
      <trkpt lat="45.75964" lon="2.95355">
        <ele>1072</ele>
        <time>2021-07-17T17:32:19Z</time>
      </trkpt>
      <trkpt lat="45.75964" lon="2.95355">
        <ele>1072</ele>
        <time>2021-07-17T17:32:20Z</time>
      </trkpt>
      <trkpt lat="45.75962" lon="2.95355">
        <ele>1072</ele>
        <time>2021-07-17T17:32:21Z</time>
      </trkpt>
      <trkpt lat="45.75962" lon="2.95355">
        <ele>1072</ele>
        <time>2021-07-17T17:32:22Z</time>
      </trkpt>
      <trkpt lat="45.75961" lon="2.95355">
        <ele>1072</ele>
        <time>2021-07-17T17:32:23Z</time>
      </trkpt>
      <trkpt lat="45.7596" lon="2.95355">
        <ele>1072</ele>
        <time>2021-07-17T17:32:24Z</time>
      </trkpt>
      <trkpt lat="45.75959" lon="2.95354">
        <ele>1072</ele>
        <time>2021-07-17T17:32:26Z</time>
      </trkpt>
      <trkpt lat="45.75956" lon="2.95352">
        <ele>1072</ele>
        <time>2021-07-17T17:32:27Z</time>
      </trkpt>
      <trkpt lat="45.75956" lon="2.95352">
        <ele>1072</ele>
        <time>2021-07-17T17:32:28Z</time>
      </trkpt>
      <trkpt lat="45.75955" lon="2.95352">
        <ele>1072</ele>
        <time>2021-07-17T17:32:29Z</time>
      </trkpt>
      <trkpt lat="45.75954" lon="2.95352">
        <ele>1072</ele>
        <time>2021-07-17T17:32:30Z</time>
      </trkpt>
      <trkpt lat="45.75953" lon="2.95352">
        <ele>1072</ele>
        <time>2021-07-17T17:32:31Z</time>
      </trkpt>
      <trkpt lat="45.75951" lon="2.95353">
        <ele>1072</ele>
        <time>2021-07-17T17:32:32Z</time>
      </trkpt>
      <trkpt lat="45.7595" lon="2.95353">
        <ele>1072</ele>
        <time>2021-07-17T17:32:33Z</time>
      </trkpt>
      <trkpt lat="45.75948" lon="2.95354">
        <ele>1072</ele>
        <time>2021-07-17T17:32:34Z</time>
      </trkpt>
      <trkpt lat="45.75947" lon="2.95354">
        <ele>1072</ele>
        <time>2021-07-17T17:32:35Z</time>
      </trkpt>
      <trkpt lat="45.75946" lon="2.95355">
        <ele>1072</ele>
        <time>2021-07-17T17:32:36Z</time>
      </trkpt>
      <trkpt lat="45.75945" lon="2.95356">
        <ele>1072</ele>
        <time>2021-07-17T17:32:37Z</time>
      </trkpt>
      <trkpt lat="45.75944" lon="2.95356">
        <ele>1072</ele>
        <time>2021-07-17T17:32:38Z</time>
      </trkpt>
      <trkpt lat="45.75943" lon="2.95356">
        <ele>1072</ele>
        <time>2021-07-17T17:32:39Z</time>
      </trkpt>
      <trkpt lat="45.75942" lon="2.95356">
        <ele>1072</ele>
        <time>2021-07-17T17:32:40Z</time>
      </trkpt>
      <trkpt lat="45.7594" lon="2.95356">
        <ele>1072</ele>
        <time>2021-07-17T17:32:41Z</time>
      </trkpt>
      <trkpt lat="45.75939" lon="2.95356">
        <ele>1072</ele>
        <time>2021-07-17T17:32:42Z</time>
      </trkpt>
      <trkpt lat="45.75938" lon="2.95356">
        <ele>1072</ele>
        <time>2021-07-17T17:32:43Z</time>
      </trkpt>
      <trkpt lat="45.75937" lon="2.95356">
        <ele>1072</ele>
        <time>2021-07-17T17:32:44Z</time>
      </trkpt>
      <trkpt lat="45.75936" lon="2.95356">
        <ele>1072</ele>
        <time>2021-07-17T17:32:45Z</time>
      </trkpt>
      <trkpt lat="45.75935" lon="2.95356">
        <ele>1072</ele>
        <time>2021-07-17T17:32:46Z</time>
      </trkpt>
      <trkpt lat="45.75934" lon="2.95357">
        <ele>1072</ele>
        <time>2021-07-17T17:32:47Z</time>
      </trkpt>
      <trkpt lat="45.75932" lon="2.95357">
        <ele>1072</ele>
        <time>2021-07-17T17:32:48Z</time>
      </trkpt>
      <trkpt lat="45.7593" lon="2.95358">
        <ele>1072</ele>
        <time>2021-07-17T17:32:49Z</time>
      </trkpt>
    </trkseg>
  </trk>
</gpx>